<?xml version='1.0' encoding='UTF-8'?><gpx version="1.1" creator="JPX - https://github.com/jenetics/jpx" xmlns="http://www.topografix.com/GPX/1/1"><trk><trkseg><trkpt lat="40.72654773369461" lon="17.579370207999013"><ele>240.0</ele><time>2026-04-26T07:27:16.997Z</time></trkpt><trkpt lat="40.72660305955568" lon="17.579312106165865"><ele>240.0</ele><time>2026-04-26T07:27:20.997Z</time></trkpt><trkpt lat="40.72663189196872" lon="17.579200267784145"><ele>240.0</ele><time>2026-04-26T07:27:26.998Z</time></trkpt><trkpt lat="40.726633689482334" lon="17.579315888072248"><ele>240.0</ele><time>2026-04-26T07:27:33.999Z</time></trkpt><trkpt lat="40.72659532432791" lon="17.579401161232095"><ele>240.0</ele><time>2026-04-26T07:27:36.999Z</time></trkpt><trkpt lat="40.726549798717166" lon="17.579474537080145"><ele>240.0</ele><time>2026-04-26T07:27:38.999Z</time></trkpt><trkpt lat="40.726480144068574" lon="17.579497306149847"><ele>240.0</ele><time>2026-04-26T07:27:42.999Z</time></trkpt><trkpt lat="40.726550071104946" lon="17.57945375900122"><ele>240.0</ele><time>2026-04-26T07:27:48.999Z</time></trkpt><trkpt lat="40.726587504471304" lon="17.579371101699422"><ele>240.0</ele><time>2026-04-26T07:27:51.999Z</time></trkpt><trkpt lat="40.726529246579744" lon="17.57922676753102"><ele>240.0</ele><time>2026-04-26T07:28:18Z</time></trkpt><trkpt lat="40.726586102418636" lon="17.57927558138029"><ele>240.0</ele><time>2026-04-26T07:29:09.001Z</time></trkpt><trkpt lat="40.72659307066822" lon="17.57938376736741"><ele>240.0</ele><time>2026-04-26T07:30:17Z</time></trkpt><trkpt lat="40.72658770265944" lon="17.579288571373155"><ele>240.0</ele><time>2026-04-26T07:30:35.999Z</time></trkpt><trkpt lat="40.72654416796901" lon="17.57922156970827"><ele>240.0</ele><time>2026-04-26T07:30:39.999Z</time></trkpt><trkpt lat="40.72648637817737" lon="17.579185725716123"><ele>240.0</ele><time>2026-04-26T07:30:44.999Z</time></trkpt><trkpt lat="40.72641697479995" lon="17.579219023792753"><ele>240.0</ele><time>2026-04-26T07:30:47.999Z</time></trkpt><trkpt lat="40.72642004378675" lon="17.579316726268747"><ele>240.0</ele><time>2026-04-26T07:30:54.999Z</time></trkpt><trkpt lat="40.72658038336449" lon="17.57934329589833"><ele>240.0</ele><time>2026-04-26T07:31:10.001Z</time></trkpt><trkpt lat="40.72652077974564" lon="17.57942228466801"><ele>240.0</ele><time>2026-04-26T07:31:27.001Z</time></trkpt><trkpt lat="40.72651273726037" lon="17.57951100740836"><ele>240.0</ele><time>2026-04-26T07:31:45Z</time></trkpt><trkpt lat="40.726585480861296" lon="17.579534741071942"><ele>240.0</ele><time>2026-04-26T07:31:50Z</time></trkpt><trkpt lat="40.7266484120884" lon="17.579571542340368"><ele>240.0</ele><time>2026-04-26T07:31:54Z</time></trkpt><trkpt lat="40.72657488943114" lon="17.5795283056288"><ele>240.0</ele><time>2026-04-26T07:32:03Z</time></trkpt><trkpt lat="40.72653222669791" lon="17.579458381571293"><ele>240.0</ele><time>2026-04-26T07:32:12Z</time></trkpt><trkpt lat="40.72656670884446" lon="17.57938074150744"><ele>240.0</ele><time>2026-04-26T07:32:15Z</time></trkpt><trkpt lat="40.72652419876352" lon="17.579454583258272"><ele>240.0</ele><time>2026-04-26T07:33:20.001Z</time></trkpt><trkpt lat="40.726585677808835" lon="17.579396486306578"><ele>240.0</ele><time>2026-04-26T07:33:36Z</time></trkpt><trkpt lat="40.726620400162" lon="17.579260984423495"><ele>240.0</ele><time>2026-04-26T07:34:05Z</time></trkpt><trkpt lat="40.72657201843073" lon="17.579202802775335"><ele>240.0</ele><time>2026-04-26T07:34:11Z</time></trkpt><trkpt lat="40.726521715834345" lon="17.579150998911828"><ele>240.0</ele><time>2026-04-26T07:34:28.999Z</time></trkpt><trkpt lat="40.7264470872075" lon="17.579121247936865"><ele>240.0</ele><time>2026-04-26T07:34:31.999Z</time></trkpt><trkpt lat="40.72637965595067" lon="17.579074508735047"><ele>240.0</ele><time>2026-04-26T07:34:34.999Z</time></trkpt><trkpt lat="40.726307481134135" lon="17.579058016705357"><ele>240.0</ele><time>2026-04-26T07:34:37.999Z</time></trkpt><trkpt lat="40.7262443600948" lon="17.57906455658955"><ele>240.0</ele><time>2026-04-26T07:34:39.999Z</time></trkpt><trkpt lat="40.72617659133039" lon="17.57899725928928"><ele>240.0</ele><time>2026-04-26T07:34:42.999Z</time></trkpt><trkpt lat="40.72608062459055" lon="17.57896445404901"><ele>240.0</ele><time>2026-04-26T07:34:45.999Z</time></trkpt><trkpt lat="40.72604019914063" lon="17.578899594865234"><ele>240.0</ele><time>2026-04-26T07:34:48.999Z</time></trkpt><trkpt lat="40.726060775750035" lon="17.578819694019195"><ele>240.0</ele><time>2026-04-26T07:34:50.999Z</time></trkpt><trkpt lat="40.726104508667696" lon="17.578728130408418"><ele>240.16666666666666</ele><time>2026-04-26T07:34:52.999Z</time></trkpt><trkpt lat="40.72613571049758" lon="17.57864082790232"><ele>240.33333333333331</ele><time>2026-04-26T07:34:54.999Z</time></trkpt><trkpt lat="40.72617730683347" lon="17.57851789127894"><ele>240.5</ele><time>2026-04-26T07:34:57.999Z</time></trkpt><trkpt lat="40.72620631457522" lon="17.57842962184895"><ele>240.66666666666666</ele><time>2026-04-26T07:34:59.999Z</time></trkpt><trkpt lat="40.72623689351543" lon="17.57834518649856"><ele>240.83333333333331</ele><time>2026-04-26T07:35:01.999Z</time></trkpt><trkpt lat="40.72624098621419" lon="17.578229057152097"><ele>241.0</ele><time>2026-04-26T07:35:03.999Z</time></trkpt><trkpt lat="40.72627836057403" lon="17.57815457671711"><ele>240.99999999999997</ele><time>2026-04-26T07:35:05.999Z</time></trkpt><trkpt lat="40.726332589205086" lon="17.57809189018854"><ele>241.0</ele><time>2026-04-26T07:35:07.999Z</time></trkpt><trkpt lat="40.72637658959915" lon="17.578021841887335"><ele>241.0</ele><time>2026-04-26T07:35:09.999Z</time></trkpt><trkpt lat="40.72640932740157" lon="17.57793239800839"><ele>241.0</ele><time>2026-04-26T07:35:11.999Z</time></trkpt><trkpt lat="40.72643563084967" lon="17.577840740128693"><ele>240.99999999999997</ele><time>2026-04-26T07:35:13.999Z</time></trkpt><trkpt lat="40.726492716908744" lon="17.57775289028807"><ele>241.0</ele><time>2026-04-26T07:35:15.999Z</time></trkpt><trkpt lat="40.7265431465984" lon="17.577674042819805"><ele>241.20000000000002</ele><time>2026-04-26T07:35:17.999Z</time></trkpt><trkpt lat="40.726582390196604" lon="17.577574009269846"><ele>241.40000000000003</ele><time>2026-04-26T07:35:19.999Z</time></trkpt><trkpt lat="40.72661451176667" lon="17.577442140069753"><ele>241.6</ele><time>2026-04-26T07:35:22Z</time></trkpt><trkpt lat="40.726644220358565" lon="17.577319863565354"><ele>241.8</ele><time>2026-04-26T07:35:24Z</time></trkpt><trkpt lat="40.726692628825354" lon="17.577234405143034"><ele>242.0</ele><time>2026-04-26T07:35:26Z</time></trkpt><trkpt lat="40.72673840162922" lon="17.57712141256908"><ele>242.0</ele><time>2026-04-26T07:35:28Z</time></trkpt><trkpt lat="40.72678229150009" lon="17.57701376758667"><ele>242.0</ele><time>2026-04-26T07:35:30Z</time></trkpt><trkpt lat="40.726813213892335" lon="17.57688047512181"><ele>242.0</ele><time>2026-04-26T07:35:32Z</time></trkpt><trkpt lat="40.72686266928592" lon="17.576758755246164"><ele>242.0</ele><time>2026-04-26T07:35:34Z</time></trkpt><trkpt lat="40.72688597711707" lon="17.576623011041523"><ele>242.0</ele><time>2026-04-26T07:35:36Z</time></trkpt><trkpt lat="40.72691690310058" lon="17.57648524638255"><ele>242.0</ele><time>2026-04-26T07:35:38Z</time></trkpt><trkpt lat="40.726978132652405" lon="17.576372009294875"><ele>242.0</ele><time>2026-04-26T07:35:40Z</time></trkpt><trkpt lat="40.726997078339686" lon="17.576291912939173"><ele>242.0</ele><time>2026-04-26T07:35:41Z</time></trkpt><trkpt lat="40.72701764590815" lon="17.57620432527898"><ele>242.0</ele><time>2026-04-26T07:35:42Z</time></trkpt><trkpt lat="40.72707473960513" lon="17.57607431279969"><ele>242.0</ele><time>2026-04-26T07:35:44Z</time></trkpt><trkpt lat="40.727123207461766" lon="17.57593428075481"><ele>242.0</ele><time>2026-04-26T07:35:46Z</time></trkpt><trkpt lat="40.72717410977401" lon="17.575806861769998"><ele>242.0</ele><time>2026-04-26T07:35:48Z</time></trkpt><trkpt lat="40.727221804162234" lon="17.57567731840871"><ele>242.0</ele><time>2026-04-26T07:35:50Z</time></trkpt><trkpt lat="40.72727917273039" lon="17.575552635864206"><ele>242.0</ele><time>2026-04-26T07:35:52Z</time></trkpt><trkpt lat="40.72732777624517" lon="17.57542738413218"><ele>242.0</ele><time>2026-04-26T07:35:54Z</time></trkpt><trkpt lat="40.727382573612864" lon="17.575313410049848"><ele>241.39999999999998</ele><time>2026-04-26T07:35:56Z</time></trkpt><trkpt lat="40.727428735429825" lon="17.575189468447878"><ele>240.79999999999998</ele><time>2026-04-26T07:35:58Z</time></trkpt><trkpt lat="40.72747190297633" lon="17.57507337775728"><ele>240.2</ele><time>2026-04-26T07:36:00Z</time></trkpt><trkpt lat="40.727520259608525" lon="17.57495464770831"><ele>239.6</ele><time>2026-04-26T07:36:02Z</time></trkpt><trkpt lat="40.727553219955205" lon="17.574812669161346"><ele>239.0</ele><time>2026-04-26T07:36:04Z</time></trkpt><trkpt lat="40.727595950617896" lon="17.574701251028472"><ele>239.0</ele><time>2026-04-26T07:36:06Z</time></trkpt><trkpt lat="40.72764848604406" lon="17.574586083374722"><ele>238.99999999999997</ele><time>2026-04-26T07:36:08Z</time></trkpt><trkpt lat="40.72768661709659" lon="17.57445357207781"><ele>238.99999999999997</ele><time>2026-04-26T07:36:10Z</time></trkpt><trkpt lat="40.72774387781076" lon="17.574347499194356"><ele>239.0</ele><time>2026-04-26T07:36:11.999Z</time></trkpt><trkpt lat="40.727820900675916" lon="17.574318107367016"><ele>239.0</ele><time>2026-04-26T07:36:12.999Z</time></trkpt><trkpt lat="40.727860004668365" lon="17.574220101197692"><ele>238.2</ele><time>2026-04-26T07:36:15.999Z</time></trkpt><trkpt lat="40.72789667577749" lon="17.574128198591755"><ele>237.39999999999998</ele><time>2026-04-26T07:36:17.999Z</time></trkpt><trkpt lat="40.72794265335869" lon="17.574040725982204"><ele>236.6</ele><time>2026-04-26T07:36:19.999Z</time></trkpt><trkpt lat="40.727985751558" lon="17.573907692971783"><ele>235.8</ele><time>2026-04-26T07:36:21.999Z</time></trkpt><trkpt lat="40.728029762664875" lon="17.573775473802478"><ele>235.0</ele><time>2026-04-26T07:36:23.999Z</time></trkpt><trkpt lat="40.7280789660864" lon="17.573642691636408"><ele>234.6</ele><time>2026-04-26T07:36:25.999Z</time></trkpt><trkpt lat="40.72813069228822" lon="17.573533630799073"><ele>234.2</ele><time>2026-04-26T07:36:27.999Z</time></trkpt><trkpt lat="40.728181341913206" lon="17.573407742933526"><ele>233.8</ele><time>2026-04-26T07:36:29.999Z</time></trkpt><trkpt lat="40.72822246039072" lon="17.573259201725413"><ele>233.4</ele><time>2026-04-26T07:36:31.999Z</time></trkpt><trkpt lat="40.72825982463253" lon="17.573124284873682"><ele>233.0</ele><time>2026-04-26T07:36:33.999Z</time></trkpt><trkpt lat="40.72829183801158" lon="17.572983678075612"><ele>232.60000000000002</ele><time>2026-04-26T07:36:35.999Z</time></trkpt><trkpt lat="40.72833108672851" lon="17.57284719308828"><ele>232.20000000000002</ele><time>2026-04-26T07:36:37.999Z</time></trkpt><trkpt lat="40.72836742768965" lon="17.572714332598082"><ele>231.8</ele><time>2026-04-26T07:36:39.999Z</time></trkpt><trkpt lat="40.72833115456941" lon="17.572569718108305"><ele>231.4</ele><time>2026-04-26T07:36:41.999Z</time></trkpt><trkpt lat="40.728299430991036" lon="17.572427013219453"><ele>231.0</ele><time>2026-04-26T07:36:43.999Z</time></trkpt><trkpt lat="40.72830276990846" lon="17.57228425162772"><ele>231.0</ele><time>2026-04-26T07:36:45.999Z</time></trkpt><trkpt lat="40.72830208026175" lon="17.572122500106264"><ele>231.00000000000003</ele><time>2026-04-26T07:36:47.999Z</time></trkpt><trkpt lat="40.72829509446972" lon="17.57195559900306"><ele>231.00000000000003</ele><time>2026-04-26T07:36:49.999Z</time></trkpt><trkpt lat="40.728287376564914" lon="17.571793460739034"><ele>231.0</ele><time>2026-04-26T07:36:51.999Z</time></trkpt><trkpt lat="40.72828137875621" lon="17.571707104019453"><ele>231.0</ele><time>2026-04-26T07:36:52.999Z</time></trkpt><trkpt lat="40.728282645036195" lon="17.57162147296694"><ele>231.25</ele><time>2026-04-26T07:36:53.999Z</time></trkpt><trkpt lat="40.728298102887884" lon="17.57146178401447"><ele>231.5</ele><time>2026-04-26T07:36:55.999Z</time></trkpt><trkpt lat="40.7282891112957" lon="17.571290072123798"><ele>231.75</ele><time>2026-04-26T07:36:57.999Z</time></trkpt><trkpt lat="40.72829096021647" lon="17.571137237351888"><ele>232.0</ele><time>2026-04-26T07:36:59.999Z</time></trkpt><trkpt lat="40.728292950434415" lon="17.57100214214707"><ele>232.2</ele><time>2026-04-26T07:37:01.999Z</time></trkpt><trkpt lat="40.72829381688788" lon="17.57087231158777"><ele>232.39999999999998</ele><time>2026-04-26T07:37:03.999Z</time></trkpt><trkpt lat="40.72828730639436" lon="17.57073640373119"><ele>232.60000000000002</ele><time>2026-04-26T07:37:05.999Z</time></trkpt><trkpt lat="40.728278339182566" lon="17.570582285425964"><ele>232.8</ele><time>2026-04-26T07:37:07.999Z</time></trkpt><trkpt lat="40.72829962785628" lon="17.57045478470533"><ele>233.0</ele><time>2026-04-26T07:37:09.999Z</time></trkpt><trkpt lat="40.728265755062885" lon="17.570327155616607"><ele>233.00000000000003</ele><time>2026-04-26T07:37:11.999Z</time></trkpt><trkpt lat="40.72829044152409" lon="17.57024269035403"><ele>233.0</ele><time>2026-04-26T07:37:12.998Z</time></trkpt><trkpt lat="40.72830557008338" lon="17.570118717087002"><ele>233.0</ele><time>2026-04-26T07:37:14.998Z</time></trkpt><trkpt lat="40.72831458416582" lon="17.570005353678322"><ele>233.0</ele><time>2026-04-26T07:37:16.998Z</time></trkpt><trkpt lat="40.728248616380334" lon="17.569926169137723"><ele>233.00000000000003</ele><time>2026-04-26T07:37:17.998Z</time></trkpt><trkpt lat="40.72830775876439" lon="17.56987770636891"><ele>233.0</ele><time>2026-04-26T07:37:18.998Z</time></trkpt><trkpt lat="40.72830775876362" lon="17.569785433187043"><ele>233.0</ele><time>2026-04-26T07:37:20.998Z</time></trkpt><trkpt lat="40.72829415714156" lon="17.56968141368509"><ele>233.0</ele><time>2026-04-26T07:37:22.998Z</time></trkpt><trkpt lat="40.7282623095536" lon="17.569560440603446"><ele>233.0</ele><time>2026-04-26T07:37:24.998Z</time></trkpt><trkpt lat="40.72822232303713" lon="17.569425288487007"><ele>233.0</ele><time>2026-04-26T07:37:26.998Z</time></trkpt><trkpt lat="40.72817661309538" lon="17.56930785626927"><ele>233.0</ele><time>2026-04-26T07:37:29Z</time></trkpt><trkpt lat="40.72816917431535" lon="17.56915762570237"><ele>232.8</ele><time>2026-04-26T07:37:31Z</time></trkpt><trkpt lat="40.72813444330242" lon="17.569018283225358"><ele>232.60000000000002</ele><time>2026-04-26T07:37:33Z</time></trkpt><trkpt lat="40.72810434209852" lon="17.568897516047187"><ele>232.39999999999998</ele><time>2026-04-26T07:37:35Z</time></trkpt><trkpt lat="40.72807715080963" lon="17.56875608218568"><ele>232.2</ele><time>2026-04-26T07:37:37Z</time></trkpt><trkpt lat="40.72805095485731" lon="17.568604017061855"><ele>232.0</ele><time>2026-04-26T07:37:39Z</time></trkpt><trkpt lat="40.72802680435955" lon="17.5684565697502"><ele>232.0</ele><time>2026-04-26T07:37:41Z</time></trkpt><trkpt lat="40.72799431624624" lon="17.568321332995154"><ele>232.0</ele><time>2026-04-26T07:37:43Z</time></trkpt><trkpt lat="40.72798480934871" lon="17.56820075930808"><ele>232.0</ele><time>2026-04-26T07:37:45Z</time></trkpt><trkpt lat="40.72795337652168" lon="17.568095929926024"><ele>232.0</ele><time>2026-04-26T07:37:47Z</time></trkpt><trkpt lat="40.727931619776115" lon="17.56797819514301"><ele>232.0</ele><time>2026-04-26T07:37:49Z</time></trkpt><trkpt lat="40.72790299296089" lon="17.56785023342047"><ele>232.0</ele><time>2026-04-26T07:37:51Z</time></trkpt><trkpt lat="40.727862391754144" lon="17.567720441251325"><ele>232.0</ele><time>2026-04-26T07:37:53Z</time></trkpt><trkpt lat="40.72782554005202" lon="17.567597074793145"><ele>232.0</ele><time>2026-04-26T07:37:55Z</time></trkpt><trkpt lat="40.72777836248303" lon="17.567485923441293"><ele>232.0</ele><time>2026-04-26T07:37:57Z</time></trkpt><trkpt lat="40.7277122198472" lon="17.567393835182976"><ele>232.0</ele><time>2026-04-26T07:37:59Z</time></trkpt><trkpt lat="40.727631567384954" lon="17.567312486958116"><ele>232.0</ele><time>2026-04-26T07:38:01Z</time></trkpt><trkpt lat="40.72755643878148" lon="17.567201933800863"><ele>232.0</ele><time>2026-04-26T07:38:03Z</time></trkpt><trkpt lat="40.727475311927165" lon="17.56709558197187"><ele>232.0</ele><time>2026-04-26T07:38:05Z</time></trkpt><trkpt lat="40.72739216649506" lon="17.56701803298785"><ele>232.0</ele><time>2026-04-26T07:38:07Z</time></trkpt><trkpt lat="40.727318380212516" lon="17.56691777638686"><ele>232.0</ele><time>2026-04-26T07:38:09Z</time></trkpt><trkpt lat="40.72725575347981" lon="17.566802083367595"><ele>232.8</ele><time>2026-04-26T07:38:11Z</time></trkpt><trkpt lat="40.7272188668591" lon="17.56666673039574"><ele>233.6</ele><time>2026-04-26T07:38:12.999Z</time></trkpt><trkpt lat="40.727198756189175" lon="17.56652411799671"><ele>234.40000000000003</ele><time>2026-04-26T07:38:14.999Z</time></trkpt><trkpt lat="40.727202508907794" lon="17.566383703804842"><ele>235.20000000000002</ele><time>2026-04-26T07:38:16.999Z</time></trkpt><trkpt lat="40.727258621470995" lon="17.56625627309842"><ele>236.0</ele><time>2026-04-26T07:38:18.999Z</time></trkpt><trkpt lat="40.727323402322206" lon="17.56614473883834"><ele>236.0</ele><time>2026-04-26T07:38:20.999Z</time></trkpt><trkpt lat="40.72740425012368" lon="17.56604178966571"><ele>236.00000000000003</ele><time>2026-04-26T07:38:22.999Z</time></trkpt><trkpt lat="40.727484908826426" lon="17.56594315580321"><ele>236.00000000000003</ele><time>2026-04-26T07:38:24.999Z</time></trkpt><trkpt lat="40.72759051601382" lon="17.56587209515108"><ele>236.0</ele><time>2026-04-26T07:38:26.999Z</time></trkpt><trkpt lat="40.7276876326918" lon="17.56581055599593"><ele>236.0</ele><time>2026-04-26T07:38:28.999Z</time></trkpt><trkpt lat="40.72778688847193" lon="17.565727584506938"><ele>236.00000000000003</ele><time>2026-04-26T07:38:30.999Z</time></trkpt><trkpt lat="40.72787997193966" lon="17.565641286014344"><ele>236.0</ele><time>2026-04-26T07:38:32.999Z</time></trkpt><trkpt lat="40.72798422626427" lon="17.565551486855888"><ele>236.0</ele><time>2026-04-26T07:38:34.999Z</time></trkpt><trkpt lat="40.72803572209912" lon="17.565501469088865"><ele>236.0</ele><time>2026-04-26T07:38:35.999Z</time></trkpt><trkpt lat="40.728086933833914" lon="17.565441306886058"><ele>236.00000000000003</ele><time>2026-04-26T07:38:36.999Z</time></trkpt><trkpt lat="40.728132968400836" lon="17.565362463633463"><ele>236.0</ele><time>2026-04-26T07:38:37.999Z</time></trkpt><trkpt lat="40.72817673057936" lon="17.565272982190265"><ele>235.33333333333334</ele><time>2026-04-26T07:38:38.999Z</time></trkpt><trkpt lat="40.72821985325985" lon="17.565183863106984"><ele>234.66666666666669</ele><time>2026-04-26T07:38:39.999Z</time></trkpt><trkpt lat="40.72825257680586" lon="17.565084159750448"><ele>234.0</ele><time>2026-04-26T07:38:40.999Z</time></trkpt><trkpt lat="40.72827658793831" lon="17.56497170927868"><ele>233.33333333333331</ele><time>2026-04-26T07:38:41.999Z</time></trkpt><trkpt lat="40.72828977502434" lon="17.56484794988573"><ele>232.66666666666666</ele><time>2026-04-26T07:38:42.999Z</time></trkpt><trkpt lat="40.72829198952082" lon="17.564722738367866"><ele>232.0</ele><time>2026-04-26T07:38:43.999Z</time></trkpt><trkpt lat="40.72828230936422" lon="17.564597887516854"><ele>231.2</ele><time>2026-04-26T07:38:44.999Z</time></trkpt><trkpt lat="40.728273311205385" lon="17.5644694635977"><ele>230.39999999999998</ele><time>2026-04-26T07:38:45.999Z</time></trkpt><trkpt lat="40.7282664586263" lon="17.564352857152095"><ele>229.60000000000002</ele><time>2026-04-26T07:38:46.999Z</time></trkpt><trkpt lat="40.72826511607946" lon="17.564238889695563"><ele>228.8</ele><time>2026-04-26T07:38:47.999Z</time></trkpt><trkpt lat="40.72825536658423" lon="17.564118767915744"><ele>228.0</ele><time>2026-04-26T07:38:48.999Z</time></trkpt><trkpt lat="40.728250927721184" lon="17.564005184146616"><ele>228.0</ele><time>2026-04-26T07:38:49.999Z</time></trkpt><trkpt lat="40.72825190995186" lon="17.563879164566853"><ele>228.0</ele><time>2026-04-26T07:38:50.999Z</time></trkpt><trkpt lat="40.7282604195362" lon="17.563760967188827"><ele>228.0</ele><time>2026-04-26T07:38:51.999Z</time></trkpt><trkpt lat="40.72825946132851" lon="17.563636136173088"><ele>228.0</ele><time>2026-04-26T07:38:52.999Z</time></trkpt><trkpt lat="40.72825166364108" lon="17.563509338151693"><ele>228.0</ele><time>2026-04-26T07:38:53.999Z</time></trkpt><trkpt lat="40.72823162778165" lon="17.563380886088858"><ele>226.60000000000002</ele><time>2026-04-26T07:38:54.999Z</time></trkpt><trkpt lat="40.72820179756228" lon="17.563251531367605"><ele>225.20000000000002</ele><time>2026-04-26T07:38:55.999Z</time></trkpt><trkpt lat="40.72817708927313" lon="17.56314188457249"><ele>223.8</ele><time>2026-04-26T07:38:56.999Z</time></trkpt><trkpt lat="40.7281602476437" lon="17.56302262188181"><ele>222.4</ele><time>2026-04-26T07:38:57.999Z</time></trkpt><trkpt lat="40.728135421859754" lon="17.562895444118453"><ele>221.0</ele><time>2026-04-26T07:38:58.999Z</time></trkpt><trkpt lat="40.72811280147253" lon="17.56276940620745"><ele>220.60000000000002</ele><time>2026-04-26T07:38:59.999Z</time></trkpt><trkpt lat="40.7280879742841" lon="17.56264448506334"><ele>220.20000000000002</ele><time>2026-04-26T07:39:00.999Z</time></trkpt><trkpt lat="40.72805980781941" lon="17.562505372411678"><ele>219.79999999999998</ele><time>2026-04-26T07:39:01.999Z</time></trkpt><trkpt lat="40.72803268730048" lon="17.56236974102438"><ele>219.39999999999998</ele><time>2026-04-26T07:39:02.999Z</time></trkpt><trkpt lat="40.72802013375356" lon="17.562236905489645"><ele>219.0</ele><time>2026-04-26T07:39:03.999Z</time></trkpt><trkpt lat="40.72801315553499" lon="17.562095207080162"><ele>219.0</ele><time>2026-04-26T07:39:04.999Z</time></trkpt><trkpt lat="40.72802728793952" lon="17.56197048036075"><ele>219.0</ele><time>2026-04-26T07:39:05.999Z</time></trkpt><trkpt lat="40.72803838313556" lon="17.561849085841004"><ele>219.0</ele><time>2026-04-26T07:39:06.999Z</time></trkpt><trkpt lat="40.728048141873266" lon="17.561738199245294"><ele>219.0</ele><time>2026-04-26T07:39:07.999Z</time></trkpt><trkpt lat="40.7280486443783" lon="17.5616306589919"><ele>219.0</ele><time>2026-04-26T07:39:08.999Z</time></trkpt><trkpt lat="40.72803286067914" lon="17.561521665032707"><ele>219.0</ele><time>2026-04-26T07:39:09.999Z</time></trkpt><trkpt lat="40.728004012626585" lon="17.561422710149486"><ele>219.0</ele><time>2026-04-26T07:39:10.999Z</time></trkpt><trkpt lat="40.727973002079494" lon="17.561337238419718"><ele>218.99999999999997</ele><time>2026-04-26T07:39:11.999Z</time></trkpt><trkpt lat="40.72794413878536" lon="17.561260993689064"><ele>218.99999999999997</ele><time>2026-04-26T07:39:12.999Z</time></trkpt><trkpt lat="40.72789057993271" lon="17.561128367498295"><ele>219.0</ele><time>2026-04-26T07:39:14.998Z</time></trkpt><trkpt lat="40.72784752886691" lon="17.561008517455345"><ele>219.0</ele><time>2026-04-26T07:39:16.998Z</time></trkpt><trkpt lat="40.727795196553004" lon="17.560896865214982"><ele>219.39999999999998</ele><time>2026-04-26T07:39:18.998Z</time></trkpt><trkpt lat="40.72776040000475" lon="17.560779601097646"><ele>219.79999999999998</ele><time>2026-04-26T07:39:20.998Z</time></trkpt><trkpt lat="40.72773998940934" lon="17.560665765091553"><ele>220.20000000000002</ele><time>2026-04-26T07:39:22.998Z</time></trkpt><trkpt lat="40.727793177952506" lon="17.56054988080261"><ele>220.60000000000002</ele><time>2026-04-26T07:39:24.998Z</time></trkpt><trkpt lat="40.72783845815705" lon="17.560444608277436"><ele>221.0</ele><time>2026-04-26T07:39:26.998Z</time></trkpt><trkpt lat="40.72788673210411" lon="17.560346089229203"><ele>221.66666666666669</ele><time>2026-04-26T07:39:28.998Z</time></trkpt><trkpt lat="40.72792705204719" lon="17.56023861989865"><ele>222.33333333333334</ele><time>2026-04-26T07:39:30.998Z</time></trkpt><trkpt lat="40.72796935109702" lon="17.56013214302437"><ele>223.0</ele><time>2026-04-26T07:39:32.998Z</time></trkpt><trkpt lat="40.72799933297762" lon="17.560017078781055"><ele>223.66666666666669</ele><time>2026-04-26T07:39:35Z</time></trkpt><trkpt lat="40.72805371594668" lon="17.55992712131415"><ele>224.33333333333334</ele><time>2026-04-26T07:39:37Z</time></trkpt><trkpt lat="40.728095559124114" lon="17.559840010059403"><ele>225.0</ele><time>2026-04-26T07:39:39Z</time></trkpt><trkpt lat="40.728132567939" lon="17.559746687189843"><ele>225.0</ele><time>2026-04-26T07:39:41Z</time></trkpt><trkpt lat="40.72817478300729" lon="17.55965715793791"><ele>225.0</ele><time>2026-04-26T07:39:43Z</time></trkpt><trkpt lat="40.728208150666205" lon="17.55954838999694"><ele>225.0</ele><time>2026-04-26T07:39:45Z</time></trkpt><trkpt lat="40.728239997227064" lon="17.559475189365358"><ele>225.0</ele><time>2026-04-26T07:39:47Z</time></trkpt><trkpt lat="40.728274602661216" lon="17.559384315157157"><ele>225.0</ele><time>2026-04-26T07:39:49Z</time></trkpt><trkpt lat="40.728308582726136" lon="17.559284945838378"><ele>225.0</ele><time>2026-04-26T07:39:51Z</time></trkpt><trkpt lat="40.728345201180716" lon="17.559188632874825"><ele>225.83333333333334</ele><time>2026-04-26T07:39:53Z</time></trkpt><trkpt lat="40.72838137022522" lon="17.559093488601317"><ele>226.66666666666669</ele><time>2026-04-26T07:39:55Z</time></trkpt><trkpt lat="40.728418964772054" lon="17.559000386537704"><ele>227.5</ele><time>2026-04-26T07:39:57Z</time></trkpt><trkpt lat="40.728457291052194" lon="17.558921927704777"><ele>228.33333333333334</ele><time>2026-04-26T07:39:59Z</time></trkpt><trkpt lat="40.72848800072674" lon="17.55883643805137"><ele>229.16666666666669</ele><time>2026-04-26T07:40:01Z</time></trkpt><trkpt lat="40.72852713599088" lon="17.558750336524973"><ele>230.0</ele><time>2026-04-26T07:40:03Z</time></trkpt><trkpt lat="40.72856983272807" lon="17.558654900755947"><ele>231.2</ele><time>2026-04-26T07:40:05Z</time></trkpt><trkpt lat="40.728607834490994" lon="17.55854956868798"><ele>232.4</ele><time>2026-04-26T07:40:07Z</time></trkpt><trkpt lat="40.72865424164855" lon="17.55844688678193"><ele>233.60000000000002</ele><time>2026-04-26T07:40:09Z</time></trkpt><trkpt lat="40.72870246010076" lon="17.558342600679563"><ele>234.8</ele><time>2026-04-26T07:40:11Z</time></trkpt><trkpt lat="40.728735410131264" lon="17.55823080823022"><ele>236.0</ele><time>2026-04-26T07:40:13Z</time></trkpt><trkpt lat="40.728746721900286" lon="17.558095458151705"><ele>236.0</ele><time>2026-04-26T07:40:15Z</time></trkpt><trkpt lat="40.72875580299165" lon="17.5579777440527"><ele>236.00000000000003</ele><time>2026-04-26T07:40:17Z</time></trkpt><trkpt lat="40.72874935490271" lon="17.55783792358416"><ele>236.00000000000003</ele><time>2026-04-26T07:40:19Z</time></trkpt><trkpt lat="40.72875492124038" lon="17.557706033026687"><ele>236.0</ele><time>2026-04-26T07:40:20.999Z</time></trkpt><trkpt lat="40.728787490287964" lon="17.557584485532207"><ele>236.0</ele><time>2026-04-26T07:40:22.999Z</time></trkpt><trkpt lat="40.72886215696272" lon="17.55749899417318"><ele>236.00000000000003</ele><time>2026-04-26T07:40:24.999Z</time></trkpt><trkpt lat="40.72893523767404" lon="17.55742844700451"><ele>236.0</ele><time>2026-04-26T07:40:26.999Z</time></trkpt><trkpt lat="40.729009010777695" lon="17.557370733693485"><ele>236.0</ele><time>2026-04-26T07:40:28.999Z</time></trkpt><trkpt lat="40.72908632497131" lon="17.557319591221084"><ele>236.0</ele><time>2026-04-26T07:40:30.999Z</time></trkpt><trkpt lat="40.729161496312784" lon="17.55725613820751"><ele>236.00000000000003</ele><time>2026-04-26T07:40:32.999Z</time></trkpt><trkpt lat="40.729239573208694" lon="17.557201696850523"><ele>236.0</ele><time>2026-04-26T07:40:34.999Z</time></trkpt><trkpt lat="40.729320056494835" lon="17.557141360277228"><ele>237.20000000000002</ele><time>2026-04-26T07:40:36.999Z</time></trkpt><trkpt lat="40.72940773499065" lon="17.557096774765558"><ele>238.40000000000003</ele><time>2026-04-26T07:40:38.999Z</time></trkpt><trkpt lat="40.729495522190774" lon="17.55704230865247"><ele>239.6</ele><time>2026-04-26T07:40:40.999Z</time></trkpt><trkpt lat="40.72957795099452" lon="17.556979341564407"><ele>240.8</ele><time>2026-04-26T07:40:42.999Z</time></trkpt><trkpt lat="40.72966605024296" lon="17.55693157423423"><ele>242.0</ele><time>2026-04-26T07:40:44.999Z</time></trkpt><trkpt lat="40.729753850037696" lon="17.55687803125959"><ele>242.0</ele><time>2026-04-26T07:40:46.999Z</time></trkpt><trkpt lat="40.72984350715695" lon="17.55681702155966"><ele>242.0</ele><time>2026-04-26T07:40:48.999Z</time></trkpt><trkpt lat="40.72992887918982" lon="17.556765658179383"><ele>242.0</ele><time>2026-04-26T07:40:50.999Z</time></trkpt><trkpt lat="40.73001110168112" lon="17.556714348569095"><ele>242.0</ele><time>2026-04-26T07:40:52.999Z</time></trkpt><trkpt lat="40.73008514577815" lon="17.556647324562714"><ele>242.0</ele><time>2026-04-26T07:40:54.999Z</time></trkpt><trkpt lat="40.73014768603892" lon="17.55655847507768"><ele>242.0</ele><time>2026-04-26T07:40:56.999Z</time></trkpt><trkpt lat="40.730199202990356" lon="17.556447402593573"><ele>242.0</ele><time>2026-04-26T07:40:58.999Z</time></trkpt><trkpt lat="40.730239388794104" lon="17.5563192701097"><ele>242.0</ele><time>2026-04-26T07:41:00.999Z</time></trkpt><trkpt lat="40.73028612409715" lon="17.556193127629882"><ele>242.0</ele><time>2026-04-26T07:41:02.999Z</time></trkpt><trkpt lat="40.73032938951915" lon="17.55606562055776"><ele>242.0</ele><time>2026-04-26T07:41:04.999Z</time></trkpt><trkpt lat="40.73037505863207" lon="17.555945710615497"><ele>243.6</ele><time>2026-04-26T07:41:06.999Z</time></trkpt><trkpt lat="40.730415131132176" lon="17.555815163823805"><ele>245.2</ele><time>2026-04-26T07:41:08.999Z</time></trkpt><trkpt lat="40.730450479216294" lon="17.55568505527839"><ele>246.8</ele><time>2026-04-26T07:41:10.999Z</time></trkpt><trkpt lat="40.73049997723947" lon="17.555561235950837"><ele>248.4</ele><time>2026-04-26T07:41:12.999Z</time></trkpt><trkpt lat="40.73054583176487" lon="17.555434093694515"><ele>250.0</ele><time>2026-04-26T07:41:14.999Z</time></trkpt><trkpt lat="40.73059258051269" lon="17.555307814971247"><ele>250.0</ele><time>2026-04-26T07:41:16.999Z</time></trkpt><trkpt lat="40.73064436405628" lon="17.555191678173394"><ele>250.0</ele><time>2026-04-26T07:41:18.999Z</time></trkpt><trkpt lat="40.73070329352532" lon="17.555088906991784"><ele>250.0</ele><time>2026-04-26T07:41:20.999Z</time></trkpt><trkpt lat="40.73076397643383" lon="17.554988557164172"><ele>250.0</ele><time>2026-04-26T07:41:22.999Z</time></trkpt><trkpt lat="40.7308361532626" lon="17.554894080417114"><ele>250.0</ele><time>2026-04-26T07:41:24.998Z</time></trkpt><trkpt lat="40.73089882577439" lon="17.55479608386192"><ele>250.0</ele><time>2026-04-26T07:41:26.998Z</time></trkpt><trkpt lat="40.73095610025817" lon="17.554690073319996"><ele>250.0</ele><time>2026-04-26T07:41:28.998Z</time></trkpt><trkpt lat="40.731004753836636" lon="17.554575543824985"><ele>250.0</ele><time>2026-04-26T07:41:30.998Z</time></trkpt><trkpt lat="40.73104885402903" lon="17.55445151420524"><ele>250.0</ele><time>2026-04-26T07:41:32.998Z</time></trkpt><trkpt lat="40.731100980364" lon="17.55433794577277"><ele>250.0</ele><time>2026-04-26T07:41:34.998Z</time></trkpt><trkpt lat="40.73115660460653" lon="17.55423361782138"><ele>251.6</ele><time>2026-04-26T07:41:36.998Z</time></trkpt><trkpt lat="40.73121447370434" lon="17.554121400927126"><ele>253.2</ele><time>2026-04-26T07:41:38.998Z</time></trkpt><trkpt lat="40.731280077269744" lon="17.554009514680693"><ele>254.8</ele><time>2026-04-26T07:41:41Z</time></trkpt><trkpt lat="40.731343100791186" lon="17.55390326957344"><ele>256.4</ele><time>2026-04-26T07:41:43Z</time></trkpt><trkpt lat="40.731411118970925" lon="17.553821397265683"><ele>258.0</ele><time>2026-04-26T07:41:45Z</time></trkpt><trkpt lat="40.73148228385124" lon="17.553729519566595"><ele>258.0</ele><time>2026-04-26T07:41:47Z</time></trkpt><trkpt lat="40.73155665574027" lon="17.55366986148946"><ele>258.0</ele><time>2026-04-26T07:41:49Z</time></trkpt><trkpt lat="40.731628633804775" lon="17.553639263292126"><ele>258.0</ele><time>2026-04-26T07:41:51Z</time></trkpt><trkpt lat="40.731706210938434" lon="17.553650752933525"><ele>258.0</ele><time>2026-04-26T07:41:53Z</time></trkpt><trkpt lat="40.73178617345509" lon="17.553679871124192"><ele>258.0</ele><time>2026-04-26T07:41:55Z</time></trkpt><trkpt lat="40.731852056211046" lon="17.553784717798617"><ele>258.0</ele><time>2026-04-26T07:41:57Z</time></trkpt><trkpt lat="40.73189884141939" lon="17.553861914311533"><ele>258.8333333333333</ele><time>2026-04-26T07:41:59Z</time></trkpt><trkpt lat="40.731963506646515" lon="17.553931010457276"><ele>259.6666666666667</ele><time>2026-04-26T07:42:01Z</time></trkpt><trkpt lat="40.732048734651634" lon="17.55395001179362"><ele>260.5</ele><time>2026-04-26T07:42:03Z</time></trkpt><trkpt lat="40.73212850151885" lon="17.553952023454812"><ele>261.33333333333337</ele><time>2026-04-26T07:42:05Z</time></trkpt><trkpt lat="40.73218692416857" lon="17.55389519303041"><ele>262.1666666666667</ele><time>2026-04-26T07:42:07Z</time></trkpt><trkpt lat="40.732240921292906" lon="17.55380948507625"><ele>263.0</ele><time>2026-04-26T07:42:09Z</time></trkpt><trkpt lat="40.73225914981206" lon="17.553719544363215"><ele>263.33333333333337</ele><time>2026-04-26T07:42:11Z</time></trkpt><trkpt lat="40.732298341545246" lon="17.55362813817506"><ele>263.6666666666667</ele><time>2026-04-26T07:42:13Z</time></trkpt><trkpt lat="40.73232988581127" lon="17.553533453142713"><ele>264.0</ele><time>2026-04-26T07:42:15Z</time></trkpt><trkpt lat="40.732352272784375" lon="17.553428113318105"><ele>264.3333333333333</ele><time>2026-04-26T07:42:17Z</time></trkpt><trkpt lat="40.732389668800515" lon="17.553332064549117"><ele>264.66666666666663</ele><time>2026-04-26T07:42:19Z</time></trkpt><trkpt lat="40.7324111801764" lon="17.55322438649346"><ele>265.0</ele><time>2026-04-26T07:42:21Z</time></trkpt><trkpt lat="40.73243524729524" lon="17.55312703204499"><ele>265.0</ele><time>2026-04-26T07:42:23Z</time></trkpt><trkpt lat="40.73243100108465" lon="17.553022013457774"><ele>265.0</ele><time>2026-04-26T07:42:25Z</time></trkpt><trkpt lat="40.7324560571414" lon="17.55289676695462"><ele>265.0</ele><time>2026-04-26T07:42:26.999Z</time></trkpt><trkpt lat="40.73248608268293" lon="17.552773301258057"><ele>265.0</ele><time>2026-04-26T07:42:28.999Z</time></trkpt><trkpt lat="40.73250889325924" lon="17.552691952397605"><ele>265.0</ele><time>2026-04-26T07:42:30.999Z</time></trkpt><trkpt lat="40.732538593987115" lon="17.552596831718837"><ele>265.0</ele><time>2026-04-26T07:42:32.999Z</time></trkpt><trkpt lat="40.73258360315571" lon="17.55250807053699"><ele>265.3333333333333</ele><time>2026-04-26T07:42:34.999Z</time></trkpt><trkpt lat="40.7325979120181" lon="17.552406369009525"><ele>265.66666666666663</ele><time>2026-04-26T07:42:36.999Z</time></trkpt><trkpt lat="40.73260528071362" lon="17.552292320817436"><ele>266.0</ele><time>2026-04-26T07:42:38.999Z</time></trkpt><trkpt lat="40.73261152407503" lon="17.552180019619353"><ele>266.3333333333333</ele><time>2026-04-26T07:42:40.999Z</time></trkpt><trkpt lat="40.732632714047504" lon="17.552067172638953"><ele>266.6666666666667</ele><time>2026-04-26T07:42:42.999Z</time></trkpt><trkpt lat="40.732656242482285" lon="17.55195371061406"><ele>267.0</ele><time>2026-04-26T07:42:44.999Z</time></trkpt><trkpt lat="40.73268233968303" lon="17.551848590006546"><ele>267.1666666666667</ele><time>2026-04-26T07:42:46.999Z</time></trkpt><trkpt lat="40.73271764745899" lon="17.5517349965582"><ele>267.3333333333333</ele><time>2026-04-26T07:42:48.999Z</time></trkpt><trkpt lat="40.732749491791196" lon="17.55163008987254"><ele>267.5</ele><time>2026-04-26T07:42:50.999Z</time></trkpt><trkpt lat="40.73278760923202" lon="17.551537431726306"><ele>267.66666666666663</ele><time>2026-04-26T07:42:52.999Z</time></trkpt><trkpt lat="40.732825985964716" lon="17.551441489594"><ele>267.8333333333333</ele><time>2026-04-26T07:42:54.999Z</time></trkpt><trkpt lat="40.73288543813194" lon="17.55136126094981"><ele>268.0</ele><time>2026-04-26T07:42:56.999Z</time></trkpt><trkpt lat="40.73295233053281" lon="17.551283873979905"><ele>269.4</ele><time>2026-04-26T07:42:58.999Z</time></trkpt><trkpt lat="40.73302512584282" lon="17.551211770423837"><ele>270.8</ele><time>2026-04-26T07:43:00.999Z</time></trkpt><trkpt lat="40.73310316033143" lon="17.551144320078357"><ele>272.2</ele><time>2026-04-26T07:43:02.999Z</time></trkpt><trkpt lat="40.73317883796361" lon="17.551070219129393"><ele>273.6</ele><time>2026-04-26T07:43:04.999Z</time></trkpt><trkpt lat="40.733259652659754" lon="17.551002502126735"><ele>275.0</ele><time>2026-04-26T07:43:06.999Z</time></trkpt><trkpt lat="40.73334187735169" lon="17.55092809223856"><ele>275.2</ele><time>2026-04-26T07:43:08.999Z</time></trkpt><trkpt lat="40.73341793542837" lon="17.55084793248044"><ele>275.4</ele><time>2026-04-26T07:43:10.999Z</time></trkpt><trkpt lat="40.733503911065675" lon="17.550788681975128"><ele>275.6</ele><time>2026-04-26T07:43:12.999Z</time></trkpt><trkpt lat="40.73358111550507" lon="17.55071388219336"><ele>275.8</ele><time>2026-04-26T07:43:14.999Z</time></trkpt><trkpt lat="40.733649821825416" lon="17.55063790742918"><ele>276.0</ele><time>2026-04-26T07:43:16.999Z</time></trkpt><trkpt lat="40.733727220545006" lon="17.550558491124846"><ele>276.6</ele><time>2026-04-26T07:43:18.999Z</time></trkpt><trkpt lat="40.733821333601526" lon="17.550499692823955"><ele>277.20000000000005</ele><time>2026-04-26T07:43:20.999Z</time></trkpt><trkpt lat="40.73390528428548" lon="17.550431668978053"><ele>277.79999999999995</ele><time>2026-04-26T07:43:22.999Z</time></trkpt><trkpt lat="40.733968306632164" lon="17.550329190688004"><ele>278.4</ele><time>2026-04-26T07:43:24.999Z</time></trkpt><trkpt lat="40.733980238045085" lon="17.55018553103393"><ele>279.0</ele><time>2026-04-26T07:43:26.999Z</time></trkpt><trkpt lat="40.73399814800177" lon="17.550059597096304"><ele>279.2</ele><time>2026-04-26T07:43:28.998Z</time></trkpt><trkpt lat="40.73397896075619" lon="17.549896945984816"><ele>279.4</ele><time>2026-04-26T07:43:30.998Z</time></trkpt><trkpt lat="40.73396610530343" lon="17.54977276099197"><ele>279.6</ele><time>2026-04-26T07:43:32.998Z</time></trkpt><trkpt lat="40.73393596966303" lon="17.54964340241066"><ele>279.8</ele><time>2026-04-26T07:43:34.998Z</time></trkpt><trkpt lat="40.73390855809159" lon="17.549499380237346"><ele>280.0</ele><time>2026-04-26T07:43:36.998Z</time></trkpt><trkpt lat="40.73388909791745" lon="17.549355479445616"><ele>280.0</ele><time>2026-04-26T07:43:38.998Z</time></trkpt><trkpt lat="40.73388462714401" lon="17.549208792790473"><ele>280.0</ele><time>2026-04-26T07:43:40.998Z</time></trkpt><trkpt lat="40.73387049828517" lon="17.54906798840224"><ele>280.0</ele><time>2026-04-26T07:43:42.998Z</time></trkpt><trkpt lat="40.73385727688725" lon="17.54892291214267"><ele>280.0</ele><time>2026-04-26T07:43:44.998Z</time></trkpt><trkpt lat="40.7338477288956" lon="17.548783436472828"><ele>280.0</ele><time>2026-04-26T07:43:47Z</time></trkpt><trkpt lat="40.733841485016676" lon="17.548649470711634"><ele>279.8</ele><time>2026-04-26T07:43:49Z</time></trkpt><trkpt lat="40.733834229304236" lon="17.548515235569354"><ele>279.6</ele><time>2026-04-26T07:43:51Z</time></trkpt><trkpt lat="40.73382068013468" lon="17.5483916140307"><ele>279.4</ele><time>2026-04-26T07:43:53Z</time></trkpt><trkpt lat="40.73379416076426" lon="17.548265708076713"><ele>279.2</ele><time>2026-04-26T07:43:55Z</time></trkpt><trkpt lat="40.73375837269726" lon="17.548133006296922"><ele>279.0</ele><time>2026-04-26T07:43:57Z</time></trkpt><trkpt lat="40.73371193046113" lon="17.548007451707036"><ele>278.2</ele><time>2026-04-26T07:43:59Z</time></trkpt><trkpt lat="40.73368329764273" lon="17.54787054611867"><ele>277.4</ele><time>2026-04-26T07:44:01Z</time></trkpt><trkpt lat="40.73373354699292" lon="17.54771183372805"><ele>276.6</ele><time>2026-04-26T07:44:03Z</time></trkpt><trkpt lat="40.733769565648416" lon="17.54763250608723"><ele>275.8</ele><time>2026-04-26T07:44:04Z</time></trkpt><trkpt lat="40.73381226936745" lon="17.54755768421374"><ele>275.0</ele><time>2026-04-26T07:44:05Z</time></trkpt><trkpt lat="40.73386360890004" lon="17.547490869060393"><ele>275.0</ele><time>2026-04-26T07:44:06Z</time></trkpt><trkpt lat="40.73391387041424" lon="17.547405170577044"><ele>275.0</ele><time>2026-04-26T07:44:07Z</time></trkpt><trkpt lat="40.73396215091607" lon="17.54730705102706"><ele>275.0</ele><time>2026-04-26T07:44:08Z</time></trkpt><trkpt lat="40.73401232644151" lon="17.54721597323958"><ele>275.0</ele><time>2026-04-26T07:44:09Z</time></trkpt><trkpt lat="40.73405794224489" lon="17.547113372572507"><ele>275.0</ele><time>2026-04-26T07:44:10Z</time></trkpt><trkpt lat="40.73411068143436" lon="17.54700968912614"><ele>275.0</ele><time>2026-04-26T07:44:11Z</time></trkpt><trkpt lat="40.734169418875474" lon="17.546914207510426"><ele>274.8</ele><time>2026-04-26T07:44:12Z</time></trkpt><trkpt lat="40.73423085509426" lon="17.546823757400965"><ele>274.6</ele><time>2026-04-26T07:44:13Z</time></trkpt><trkpt lat="40.73430231871701" lon="17.546746281940795"><ele>274.4</ele><time>2026-04-26T07:44:14Z</time></trkpt><trkpt lat="40.734375723702684" lon="17.546684829667868"><ele>274.2</ele><time>2026-04-26T07:44:15Z</time></trkpt><trkpt lat="40.73445512708366" lon="17.5466306106195"><ele>274.0</ele><time>2026-04-26T07:44:16Z</time></trkpt><trkpt lat="40.7345400416459" lon="17.546593227486078"><ele>273.8333333333333</ele><time>2026-04-26T07:44:17Z</time></trkpt><trkpt lat="40.73462689590671" lon="17.546572115435122"><ele>273.66666666666663</ele><time>2026-04-26T07:44:18Z</time></trkpt><trkpt lat="40.734709523611215" lon="17.546577586508075"><ele>273.5</ele><time>2026-04-26T07:44:19Z</time></trkpt><trkpt lat="40.73478243715968" lon="17.54656198577201"><ele>273.3333333333333</ele><time>2026-04-26T07:44:20Z</time></trkpt><trkpt lat="40.73485737595421" lon="17.54655015162071"><ele>273.1666666666667</ele><time>2026-04-26T07:44:21Z</time></trkpt><trkpt lat="40.73492392818398" lon="17.546524623544922"><ele>273.0</ele><time>2026-04-26T07:44:22Z</time></trkpt><trkpt lat="40.735012748962404" lon="17.54643347967548"><ele>273.0</ele><time>2026-04-26T07:44:24Z</time></trkpt><trkpt lat="40.7350933385351" lon="17.546354928634297"><ele>273.0</ele><time>2026-04-26T07:44:26Z</time></trkpt><trkpt lat="40.735185448839616" lon="17.546256975649907"><ele>273.0</ele><time>2026-04-26T07:44:28Z</time></trkpt><trkpt lat="40.73521810362241" lon="17.54618544820363"><ele>273.0</ele><time>2026-04-26T07:44:29Z</time></trkpt><trkpt lat="40.735309493197164" lon="17.546061983305467"><ele>273.0</ele><time>2026-04-26T07:44:31Z</time></trkpt><trkpt lat="40.735360715210845" lon="17.54599822900231"><ele>272.8</ele><time>2026-04-26T07:44:32Z</time></trkpt><trkpt lat="40.7353985585966" lon="17.545863752991668"><ele>272.6</ele><time>2026-04-26T07:44:33.999Z</time></trkpt><trkpt lat="40.73537402110688" lon="17.545778188068073"><ele>272.4</ele><time>2026-04-26T07:44:34.999Z</time></trkpt><trkpt lat="40.7353388053139" lon="17.545700923910708"><ele>272.2</ele><time>2026-04-26T07:44:35.999Z</time></trkpt><trkpt lat="40.7352933798495" lon="17.545570660505685"><ele>272.0</ele><time>2026-04-26T07:44:37.999Z</time></trkpt><trkpt lat="40.73525395875419" lon="17.545442394241835"><ele>271.6</ele><time>2026-04-26T07:44:39.999Z</time></trkpt><trkpt lat="40.73519300842069" lon="17.545308042979233"><ele>271.2</ele><time>2026-04-26T07:44:41.999Z</time></trkpt><trkpt lat="40.735147210879894" lon="17.545166517346487"><ele>270.8</ele><time>2026-04-26T07:44:43.999Z</time></trkpt><trkpt lat="40.73511807869134" lon="17.545000712519887"><ele>270.4</ele><time>2026-04-26T07:44:45.999Z</time></trkpt><trkpt lat="40.73509326503277" lon="17.54491467803366"><ele>270.0</ele><time>2026-04-26T07:44:46.999Z</time></trkpt><trkpt lat="40.73507492021634" lon="17.54482727035609"><ele>270.0</ele><time>2026-04-26T07:44:47.999Z</time></trkpt><trkpt lat="40.73506342856053" lon="17.544739950401514"><ele>270.0</ele><time>2026-04-26T07:44:48.999Z</time></trkpt><trkpt lat="40.73505632413402" lon="17.544651778094504"><ele>270.0</ele><time>2026-04-26T07:44:49.999Z</time></trkpt><trkpt lat="40.73505113158796" lon="17.544567663759043"><ele>270.0</ele><time>2026-04-26T07:44:50.999Z</time></trkpt><trkpt lat="40.73503824933336" lon="17.54447857921541"><ele>270.0</ele><time>2026-04-26T07:44:51.999Z</time></trkpt><trkpt lat="40.73502314592365" lon="17.544383000842146"><ele>270.0</ele><time>2026-04-26T07:44:52.999Z</time></trkpt><trkpt lat="40.73500658698717" lon="17.544236848401578"><ele>269.8333333333333</ele><time>2026-04-26T07:44:54.999Z</time></trkpt><trkpt lat="40.73498715299242" lon="17.54409219635193"><ele>269.6666666666667</ele><time>2026-04-26T07:44:56.999Z</time></trkpt><trkpt lat="40.73499075111694" lon="17.543999299783103"><ele>269.5</ele><time>2026-04-26T07:44:57.999Z</time></trkpt><trkpt lat="40.73497597148105" lon="17.54387261471398"><ele>269.33333333333337</ele><time>2026-04-26T07:44:58.999Z</time></trkpt><trkpt lat="40.734961587928616" lon="17.543768717105195"><ele>269.1666666666667</ele><time>2026-04-26T07:44:59.999Z</time></trkpt><trkpt lat="40.7349685606554" lon="17.543666730287267"><ele>269.0</ele><time>2026-04-26T07:45:00.999Z</time></trkpt><trkpt lat="40.734959939827036" lon="17.54355203832079"><ele>268.4</ele><time>2026-04-26T07:45:01.999Z</time></trkpt><trkpt lat="40.73495873191445" lon="17.54343906954363"><ele>267.79999999999995</ele><time>2026-04-26T07:45:02.999Z</time></trkpt><trkpt lat="40.734944750779576" lon="17.543307815974124"><ele>267.20000000000005</ele><time>2026-04-26T07:45:03.999Z</time></trkpt><trkpt lat="40.73494074010886" lon="17.543187197568667"><ele>266.6</ele><time>2026-04-26T07:45:04.999Z</time></trkpt><trkpt lat="40.734938585366706" lon="17.543066368799288"><ele>266.0</ele><time>2026-04-26T07:45:05.999Z</time></trkpt><trkpt lat="40.73493089652959" lon="17.54293934126162"><ele>264.6</ele><time>2026-04-26T07:45:06.999Z</time></trkpt><trkpt lat="40.734933357725915" lon="17.542814977757015"><ele>263.20000000000005</ele><time>2026-04-26T07:45:07.999Z</time></trkpt><trkpt lat="40.73494826501366" lon="17.542685356955705"><ele>261.79999999999995</ele><time>2026-04-26T07:45:08.999Z</time></trkpt><trkpt lat="40.73495877977788" lon="17.54255381698385"><ele>260.4</ele><time>2026-04-26T07:45:09.999Z</time></trkpt><trkpt lat="40.734987958691974" lon="17.54242920639489"><ele>259.0</ele><time>2026-04-26T07:45:10.999Z</time></trkpt><trkpt lat="40.735065505811036" lon="17.54232622201234"><ele>259.0</ele><time>2026-04-26T07:45:11.999Z</time></trkpt><trkpt lat="40.73517244558813" lon="17.542261141370926"><ele>259.0</ele><time>2026-04-26T07:45:12.999Z</time></trkpt><trkpt lat="40.73526265937317" lon="17.542196833427855"><ele>259.0</ele><time>2026-04-26T07:45:13.999Z</time></trkpt><trkpt lat="40.73535480657199" lon="17.542144593572317"><ele>259.0</ele><time>2026-04-26T07:45:14.999Z</time></trkpt><trkpt lat="40.73542255219029" lon="17.542085801319736"><ele>259.0</ele><time>2026-04-26T07:45:15.999Z</time></trkpt><trkpt lat="40.73547709263764" lon="17.542022365056347"><ele>259.2</ele><time>2026-04-26T07:45:16.999Z</time></trkpt><trkpt lat="40.735530349204424" lon="17.541958653676957"><ele>259.4</ele><time>2026-04-26T07:45:17.999Z</time></trkpt><trkpt lat="40.735605618904" lon="17.541838943467432"><ele>259.6</ele><time>2026-04-26T07:45:19.999Z</time></trkpt><trkpt lat="40.7356564419734" lon="17.541709780869663"><ele>259.8</ele><time>2026-04-26T07:45:21.999Z</time></trkpt><trkpt lat="40.73567368377922" lon="17.541552343381287"><ele>260.0</ele><time>2026-04-26T07:45:23.999Z</time></trkpt><trkpt lat="40.735649435072006" lon="17.54140953203554"><ele>260.0</ele><time>2026-04-26T07:45:25.999Z</time></trkpt><trkpt lat="40.73558808419522" lon="17.541262946465856"><ele>260.0</ele><time>2026-04-26T07:45:27.999Z</time></trkpt><trkpt lat="40.7355554750565" lon="17.541137304841264"><ele>260.0</ele><time>2026-04-26T07:45:29.999Z</time></trkpt><trkpt lat="40.735498795221154" lon="17.541009757157756"><ele>260.0</ele><time>2026-04-26T07:45:31.999Z</time></trkpt><trkpt lat="40.735437138530095" lon="17.54088133598556"><ele>260.2</ele><time>2026-04-26T07:45:33.999Z</time></trkpt><trkpt lat="40.73539748176916" lon="17.540739130009957"><ele>260.4</ele><time>2026-04-26T07:45:35.998Z</time></trkpt><trkpt lat="40.735399780897815" lon="17.540591463624207"><ele>260.6</ele><time>2026-04-26T07:45:37.998Z</time></trkpt><trkpt lat="40.73541428093843" lon="17.540455712004505"><ele>260.8</ele><time>2026-04-26T07:45:39.998Z</time></trkpt><trkpt lat="40.735448994438705" lon="17.540318897598233"><ele>261.0</ele><time>2026-04-26T07:45:41.998Z</time></trkpt><trkpt lat="40.73549726984747" lon="17.54019595142282"><ele>261.8</ele><time>2026-04-26T07:45:43.998Z</time></trkpt><trkpt lat="40.735548644602716" lon="17.540071568979005"><ele>262.6</ele><time>2026-04-26T07:45:45.998Z</time></trkpt><trkpt lat="40.735600570511835" lon="17.5399579432567"><ele>263.4</ele><time>2026-04-26T07:45:47.998Z</time></trkpt><trkpt lat="40.73566236815237" lon="17.53986476220508"><ele>264.2</ele><time>2026-04-26T07:45:49.998Z</time></trkpt><trkpt lat="40.73570139918348" lon="17.53973198705586"><ele>265.0</ele><time>2026-04-26T07:45:52Z</time></trkpt><trkpt lat="40.73574675069766" lon="17.539591789826446"><ele>264.8</ele><time>2026-04-26T07:45:54Z</time></trkpt><trkpt lat="40.73577492412296" lon="17.539454587018643"><ele>264.6</ele><time>2026-04-26T07:45:56Z</time></trkpt><trkpt lat="40.73580056231729" lon="17.53930908912752"><ele>264.4</ele><time>2026-04-26T07:45:58Z</time></trkpt><trkpt lat="40.73582600391796" lon="17.539207615228985"><ele>264.2</ele><time>2026-04-26T07:46:00Z</time></trkpt><trkpt lat="40.735834152920816" lon="17.53907477069142"><ele>264.0</ele><time>2026-04-26T07:46:02Z</time></trkpt><trkpt lat="40.73583001056042" lon="17.538940818102635"><ele>264.0</ele><time>2026-04-26T07:46:04Z</time></trkpt><trkpt lat="40.73579829854731" lon="17.538857703122865"><ele>264.0</ele><time>2026-04-26T07:46:05Z</time></trkpt><trkpt lat="40.735767183588024" lon="17.5387088215142"><ele>264.0</ele><time>2026-04-26T07:46:07Z</time></trkpt><trkpt lat="40.73578084422544" lon="17.538597674471987"><ele>264.0</ele><time>2026-04-26T07:46:09Z</time></trkpt><trkpt lat="40.73579652153029" lon="17.538510761331462"><ele>264.0</ele><time>2026-04-26T07:46:10Z</time></trkpt><trkpt lat="40.735780624031634" lon="17.538367486257044"><ele>263.8</ele><time>2026-04-26T07:46:12Z</time></trkpt><trkpt lat="40.73573477836329" lon="17.53823073393482"><ele>263.59999999999997</ele><time>2026-04-26T07:46:14Z</time></trkpt><trkpt lat="40.73565469534624" lon="17.53811207434348"><ele>263.4</ele><time>2026-04-26T07:46:16Z</time></trkpt><trkpt lat="40.735615287679586" lon="17.537990213136013"><ele>263.2</ele><time>2026-04-26T07:46:18Z</time></trkpt><trkpt lat="40.73556967958756" lon="17.537871924218003"><ele>263.0</ele><time>2026-04-26T07:46:20Z</time></trkpt><trkpt lat="40.73552109445463" lon="17.537751717803587"><ele>263.0</ele><time>2026-04-26T07:46:22Z</time></trkpt><trkpt lat="40.73548339001914" lon="17.53762620736193"><ele>263.0</ele><time>2026-04-26T07:46:24Z</time></trkpt><trkpt lat="40.73543454987467" lon="17.537492994462955"><ele>263.0</ele><time>2026-04-26T07:46:26Z</time></trkpt><trkpt lat="40.73538063940515" lon="17.53736557219583"><ele>263.0</ele><time>2026-04-26T07:46:28Z</time></trkpt><trkpt lat="40.73533630649731" lon="17.537221802283266"><ele>263.0</ele><time>2026-04-26T07:46:30Z</time></trkpt><trkpt lat="40.7352822172509" lon="17.537108096179814"><ele>263.8</ele><time>2026-04-26T07:46:32Z</time></trkpt><trkpt lat="40.73526907724331" lon="17.536983103989368"><ele>264.6</ele><time>2026-04-26T07:46:33.999Z</time></trkpt><trkpt lat="40.73522729026533" lon="17.536917033302977"><ele>265.4</ele><time>2026-04-26T07:46:34.999Z</time></trkpt><trkpt lat="40.73516257181778" lon="17.536783147655385"><ele>266.2</ele><time>2026-04-26T07:46:36.999Z</time></trkpt><trkpt lat="40.73515854180487" lon="17.53666111660974"><ele>267.0</ele><time>2026-04-26T07:46:38.999Z</time></trkpt><trkpt lat="40.73510189295137" lon="17.5365306384641"><ele>267.4</ele><time>2026-04-26T07:46:40.999Z</time></trkpt><trkpt lat="40.73504999448745" lon="17.53639536210779"><ele>267.79999999999995</ele><time>2026-04-26T07:46:42.999Z</time></trkpt><trkpt lat="40.73501186070451" lon="17.536262851614087"><ele>268.2</ele><time>2026-04-26T07:46:44.999Z</time></trkpt><trkpt lat="40.73498449332451" lon="17.536128347676716"><ele>268.59999999999997</ele><time>2026-04-26T07:46:46.999Z</time></trkpt><trkpt lat="40.73496229611541" lon="17.53598323902751"><ele>269.0</ele><time>2026-04-26T07:46:48.999Z</time></trkpt><trkpt lat="40.734959243635544" lon="17.535835401961464"><ele>269.59999999999997</ele><time>2026-04-26T07:46:50.999Z</time></trkpt><trkpt lat="40.73494353732482" lon="17.535695732491902"><ele>270.2</ele><time>2026-04-26T07:46:52.999Z</time></trkpt><trkpt lat="40.73493370346032" lon="17.53554759752563"><ele>270.79999999999995</ele><time>2026-04-26T07:46:54.999Z</time></trkpt><trkpt lat="40.73494120927074" lon="17.535406435687314"><ele>271.4</ele><time>2026-04-26T07:46:56.999Z</time></trkpt><trkpt lat="40.734950985862895" lon="17.535260603591226"><ele>272.0</ele><time>2026-04-26T07:46:58.999Z</time></trkpt><trkpt lat="40.734964736659926" lon="17.535116818495563"><ele>272.25</ele><time>2026-04-26T07:47:00.999Z</time></trkpt><trkpt lat="40.734983879187716" lon="17.534968257981443"><ele>272.5</ele><time>2026-04-26T07:47:02.999Z</time></trkpt><trkpt lat="40.735010634635664" lon="17.534821652503993"><ele>272.75</ele><time>2026-04-26T07:47:04.999Z</time></trkpt><trkpt lat="40.73504074396997" lon="17.534669856887582"><ele>273.0</ele><time>2026-04-26T07:47:06.999Z</time></trkpt><trkpt lat="40.73507176912296" lon="17.534520588441875"><ele>273.5</ele><time>2026-04-26T07:47:08.999Z</time></trkpt><trkpt lat="40.73510919808966" lon="17.53437791193876"><ele>274.0</ele><time>2026-04-26T07:47:10.999Z</time></trkpt><trkpt lat="40.73516477955535" lon="17.534239706342717"><ele>274.5</ele><time>2026-04-26T07:47:12.999Z</time></trkpt><trkpt lat="40.73520519081581" lon="17.53408944308697"><ele>275.0</ele><time>2026-04-26T07:47:14.999Z</time></trkpt><trkpt lat="40.735264771311364" lon="17.53395476690269"><ele>275.75</ele><time>2026-04-26T07:47:16.999Z</time></trkpt><trkpt lat="40.73533528385513" lon="17.533826692915717"><ele>276.5</ele><time>2026-04-26T07:47:18.999Z</time></trkpt><trkpt lat="40.73539996839785" lon="17.533702352220498"><ele>277.25</ele><time>2026-04-26T07:47:20.999Z</time></trkpt><trkpt lat="40.735477425637775" lon="17.533592148639688"><ele>278.0</ele><time>2026-04-26T07:47:22.999Z</time></trkpt><trkpt lat="40.73555300913573" lon="17.533480579859745"><ele>278.4</ele><time>2026-04-26T07:47:24.999Z</time></trkpt><trkpt lat="40.735634381012716" lon="17.533374963524732"><ele>278.8</ele><time>2026-04-26T07:47:26.999Z</time></trkpt><trkpt lat="40.735715639788204" lon="17.533281555583635"><ele>279.2</ele><time>2026-04-26T07:47:28.999Z</time></trkpt><trkpt lat="40.7357970570153" lon="17.533193582453585"><ele>279.6</ele><time>2026-04-26T07:47:30.999Z</time></trkpt><trkpt lat="40.73587569936892" lon="17.53310095997057"><ele>280.0</ele><time>2026-04-26T07:47:32.999Z</time></trkpt><trkpt lat="40.73595182706464" lon="17.533011280134428"><ele>280.0</ele><time>2026-04-26T07:47:34.999Z</time></trkpt><trkpt lat="40.73602761325999" lon="17.53293406605328"><ele>280.0</ele><time>2026-04-26T07:47:36.998Z</time></trkpt><trkpt lat="40.73610424550554" lon="17.53285657296746"><ele>280.0</ele><time>2026-04-26T07:47:38.998Z</time></trkpt><trkpt lat="40.736177853479475" lon="17.532765682663555"><ele>280.0</ele><time>2026-04-26T07:47:40.998Z</time></trkpt><trkpt lat="40.73625879097232" lon="17.532692005976163"><ele>280.0</ele><time>2026-04-26T07:47:42.998Z</time></trkpt><trkpt lat="40.736325445931655" lon="17.532602357279018"><ele>280.8</ele><time>2026-04-26T07:47:44.998Z</time></trkpt><trkpt lat="40.7363804633721" lon="17.532484715344765"><ele>281.6</ele><time>2026-04-26T07:47:46.998Z</time></trkpt><trkpt lat="40.73645333831358" lon="17.532393565124206"><ele>282.4</ele><time>2026-04-26T07:47:48.998Z</time></trkpt><trkpt lat="40.73652154912638" lon="17.53229176426535"><ele>283.2</ele><time>2026-04-26T07:47:50.998Z</time></trkpt><trkpt lat="40.73658947294502" lon="17.5321865956728"><ele>284.0</ele><time>2026-04-26T07:47:52.998Z</time></trkpt><trkpt lat="40.73665276342706" lon="17.532084196102637"><ele>284.4</ele><time>2026-04-26T07:47:54.998Z</time></trkpt><trkpt lat="40.73669360252364" lon="17.53196194379741"><ele>284.79999999999995</ele><time>2026-04-26T07:47:56.998Z</time></trkpt><trkpt lat="40.73677055627553" lon="17.53185418979881"><ele>285.20000000000005</ele><time>2026-04-26T07:47:59Z</time></trkpt><trkpt lat="40.73680406417526" lon="17.531713690817032"><ele>285.6</ele><time>2026-04-26T07:48:01Z</time></trkpt><trkpt lat="40.736830117347466" lon="17.53163462406429"><ele>286.0</ele><time>2026-04-26T07:48:02Z</time></trkpt><trkpt lat="40.73686035844886" lon="17.53149278743187"><ele>285.8333333333333</ele><time>2026-04-26T07:48:04Z</time></trkpt><trkpt lat="40.73690241211708" lon="17.53142944477043"><ele>285.66666666666663</ele><time>2026-04-26T07:48:05Z</time></trkpt><trkpt lat="40.7369224392728" lon="17.531316754127715"><ele>285.5</ele><time>2026-04-26T07:48:07Z</time></trkpt><trkpt lat="40.73694132261393" lon="17.531228089966678"><ele>285.3333333333333</ele><time>2026-04-26T07:48:08Z</time></trkpt><trkpt lat="40.73695226576764" lon="17.531105037437225"><ele>285.1666666666667</ele><time>2026-04-26T07:48:10Z</time></trkpt><trkpt lat="40.73698415042235" lon="17.530954442002475"><ele>285.0</ele><time>2026-04-26T07:48:12Z</time></trkpt><trkpt lat="40.73700295861814" lon="17.53082140004731"><ele>285.0</ele><time>2026-04-26T07:48:14Z</time></trkpt><trkpt lat="40.73703372195005" lon="17.530712976902663"><ele>285.0</ele><time>2026-04-26T07:48:16Z</time></trkpt><trkpt lat="40.737057053401784" lon="17.530586005427693"><ele>285.0</ele><time>2026-04-26T07:48:18Z</time></trkpt><trkpt lat="40.73707762022685" lon="17.530452854831097"><ele>285.0</ele><time>2026-04-26T07:48:20Z</time></trkpt><trkpt lat="40.73710280566351" lon="17.530325536443478"><ele>285.0</ele><time>2026-04-26T07:48:22Z</time></trkpt><trkpt lat="40.73713875832868" lon="17.53020363654406"><ele>285.2</ele><time>2026-04-26T07:48:24Z</time></trkpt><trkpt lat="40.73716031945233" lon="17.53006344151687"><ele>285.4</ele><time>2026-04-26T07:48:26Z</time></trkpt><trkpt lat="40.73719249744785" lon="17.52993772280743"><ele>285.6</ele><time>2026-04-26T07:48:28Z</time></trkpt><trkpt lat="40.73722937358372" lon="17.52981495581079"><ele>285.8</ele><time>2026-04-26T07:48:30Z</time></trkpt><trkpt lat="40.737251324502175" lon="17.52968370627666"><ele>286.0</ele><time>2026-04-26T07:48:32Z</time></trkpt><trkpt lat="40.73728358809927" lon="17.529547200271715"><ele>286.0</ele><time>2026-04-26T07:48:34Z</time></trkpt><trkpt lat="40.73730798584984" lon="17.529405073080596"><ele>286.0</ele><time>2026-04-26T07:48:35.999Z</time></trkpt><trkpt lat="40.7373340249359" lon="17.52925852260111"><ele>286.0</ele><time>2026-04-26T07:48:37.999Z</time></trkpt><trkpt lat="40.73735143471383" lon="17.529096084420036"><ele>286.0</ele><time>2026-04-26T07:48:39.999Z</time></trkpt><trkpt lat="40.73737336750231" lon="17.528943867847545"><ele>286.0</ele><time>2026-04-26T07:48:41.999Z</time></trkpt><trkpt lat="40.737397111767564" lon="17.528784741195892"><ele>286.0</ele><time>2026-04-26T07:48:43.999Z</time></trkpt><trkpt lat="40.73740541338204" lon="17.52870183735669"><ele>286.0</ele><time>2026-04-26T07:48:44.999Z</time></trkpt><trkpt lat="40.737410604137175" lon="17.52861808563042"><ele>286.0</ele><time>2026-04-26T07:48:45.999Z</time></trkpt><trkpt lat="40.737422064326886" lon="17.528457196397838"><ele>286.0</ele><time>2026-04-26T07:48:47.999Z</time></trkpt><trkpt lat="40.73742435441946" lon="17.52830667124581"><ele>286.2</ele><time>2026-04-26T07:48:49.999Z</time></trkpt><trkpt lat="40.7374266348092" lon="17.52815084371775"><ele>286.40000000000003</ele><time>2026-04-26T07:48:51.999Z</time></trkpt><trkpt lat="40.737437580513834" lon="17.52798951565562"><ele>286.6</ele><time>2026-04-26T07:48:53.999Z</time></trkpt><trkpt lat="40.73743240475335" lon="17.527829067185923"><ele>286.8</ele><time>2026-04-26T07:48:55.999Z</time></trkpt><trkpt lat="40.73742818792097" lon="17.52773321919274"><ele>287.0</ele><time>2026-04-26T07:48:56.999Z</time></trkpt><trkpt lat="40.73739824152536" lon="17.527590522014986"><ele>287.5</ele><time>2026-04-26T07:48:58.999Z</time></trkpt><trkpt lat="40.73738951496632" lon="17.527432019631675"><ele>288.0</ele><time>2026-04-26T07:49:00.999Z</time></trkpt><trkpt lat="40.73738276135218" lon="17.527267415312906"><ele>288.5</ele><time>2026-04-26T07:49:02.999Z</time></trkpt><trkpt lat="40.73737334698088" lon="17.527106048323013"><ele>289.0</ele><time>2026-04-26T07:49:04.999Z</time></trkpt><trkpt lat="40.737371750359706" lon="17.526947557944947"><ele>289.59999999999997</ele><time>2026-04-26T07:49:06.999Z</time></trkpt><trkpt lat="40.737361755846294" lon="17.52679765016058"><ele>290.2</ele><time>2026-04-26T07:49:08.999Z</time></trkpt><trkpt lat="40.737354974329435" lon="17.52665701690921"><ele>290.79999999999995</ele><time>2026-04-26T07:49:10.999Z</time></trkpt><trkpt lat="40.737339235492485" lon="17.52652437739171"><ele>291.4</ele><time>2026-04-26T07:49:12.999Z</time></trkpt><trkpt lat="40.737369161460066" lon="17.526450345529778"><ele>292.0</ele><time>2026-04-26T07:49:13.999Z</time></trkpt><trkpt lat="40.73733866374281" lon="17.526314504643228"><ele>292.4</ele><time>2026-04-26T07:49:15.999Z</time></trkpt><trkpt lat="40.73733622465266" lon="17.526179421974458"><ele>292.79999999999995</ele><time>2026-04-26T07:49:17.999Z</time></trkpt><trkpt lat="40.73732917391558" lon="17.526055481703878"><ele>293.2</ele><time>2026-04-26T07:49:19.999Z</time></trkpt><trkpt lat="40.737317299292144" lon="17.52592558564697"><ele>293.59999999999997</ele><time>2026-04-26T07:49:21.999Z</time></trkpt><trkpt lat="40.73731478830664" lon="17.52580936836561"><ele>294.0</ele><time>2026-04-26T07:49:23.999Z</time></trkpt><trkpt lat="40.73730410937779" lon="17.5256831336227"><ele>294.0</ele><time>2026-04-26T07:49:25.999Z</time></trkpt><trkpt lat="40.73727442930696" lon="17.52554382756652"><ele>294.0</ele><time>2026-04-26T07:49:27.999Z</time></trkpt><trkpt lat="40.73727641889101" lon="17.52541434092049"><ele>294.0</ele><time>2026-04-26T07:49:29.999Z</time></trkpt><trkpt lat="40.73727081922939" lon="17.52528554395262"><ele>294.0</ele><time>2026-04-26T07:49:31.999Z</time></trkpt><trkpt lat="40.737267506825994" lon="17.525165083082452"><ele>294.0</ele><time>2026-04-26T07:49:33.999Z</time></trkpt><trkpt lat="40.73726591388152" lon="17.525044145316063"><ele>294.8</ele><time>2026-04-26T07:49:35.999Z</time></trkpt><trkpt lat="40.737257093505605" lon="17.524921220131013"><ele>295.59999999999997</ele><time>2026-04-26T07:49:37.999Z</time></trkpt><trkpt lat="40.73724851128241" lon="17.52480576018581"><ele>296.4</ele><time>2026-04-26T07:49:39.998Z</time></trkpt><trkpt lat="40.73724417390002" lon="17.524682113056027"><ele>297.2</ele><time>2026-04-26T07:49:41.998Z</time></trkpt><trkpt lat="40.737235114347506" lon="17.524553499490075"><ele>298.0</ele><time>2026-04-26T07:49:43.998Z</time></trkpt><trkpt lat="40.73721997206177" lon="17.524416556190435"><ele>298.2</ele><time>2026-04-26T07:49:45.998Z</time></trkpt><trkpt lat="40.737219987634106" lon="17.52428851281522"><ele>298.4</ele><time>2026-04-26T07:49:47.998Z</time></trkpt><trkpt lat="40.73721812351274" lon="17.52415451578268"><ele>298.59999999999997</ele><time>2026-04-26T07:49:49.998Z</time></trkpt><trkpt lat="40.73722072258943" lon="17.524021946641735"><ele>298.8</ele><time>2026-04-26T07:49:51.998Z</time></trkpt><trkpt lat="40.73719814178344" lon="17.523881985105934"><ele>299.0</ele><time>2026-04-26T07:49:53.998Z</time></trkpt><trkpt lat="40.737193348397994" lon="17.523738015949643"><ele>298.5</ele><time>2026-04-26T07:49:55.998Z</time></trkpt><trkpt lat="40.73718179816617" lon="17.523585262524247"><ele>298.0</ele><time>2026-04-26T07:49:57.998Z</time></trkpt><trkpt lat="40.73716963013566" lon="17.52343342395477"><ele>297.5</ele><time>2026-04-26T07:49:59.998Z</time></trkpt><trkpt lat="40.73715170966454" lon="17.523280587513657"><ele>297.0</ele><time>2026-04-26T07:50:01.998Z</time></trkpt><trkpt lat="40.73715868252519" lon="17.523125890231267"><ele>297.0</ele><time>2026-04-26T07:50:04Z</time></trkpt><trkpt lat="40.73714813592384" lon="17.52297257476902"><ele>297.0</ele><time>2026-04-26T07:50:06Z</time></trkpt><trkpt lat="40.737138097437494" lon="17.522820196422707"><ele>297.0</ele><time>2026-04-26T07:50:08Z</time></trkpt><trkpt lat="40.7371137077238" lon="17.522672539749554"><ele>297.0</ele><time>2026-04-26T07:50:10Z</time></trkpt><trkpt lat="40.737118849330756" lon="17.52251452053193"><ele>296.8</ele><time>2026-04-26T07:50:12Z</time></trkpt><trkpt lat="40.737083467990246" lon="17.522443622411412"><ele>296.6</ele><time>2026-04-26T07:50:13Z</time></trkpt><trkpt lat="40.73707773369742" lon="17.52229418731008"><ele>296.40000000000003</ele><time>2026-04-26T07:50:15Z</time></trkpt><trkpt lat="40.73706332230532" lon="17.522143241175478"><ele>296.2</ele><time>2026-04-26T07:50:17Z</time></trkpt><trkpt lat="40.73705715458521" lon="17.521996219730664"><ele>296.0</ele><time>2026-04-26T07:50:19Z</time></trkpt><trkpt lat="40.73705043664274" lon="17.521848348766454"><ele>296.0</ele><time>2026-04-26T07:50:21Z</time></trkpt><trkpt lat="40.737040258037965" lon="17.52169304193873"><ele>296.0</ele><time>2026-04-26T07:50:23Z</time></trkpt><trkpt lat="40.737036083988414" lon="17.52154841103385"><ele>296.0</ele><time>2026-04-26T07:50:25Z</time></trkpt><trkpt lat="40.73702418839357" lon="17.521398868109802"><ele>296.0</ele><time>2026-04-26T07:50:27Z</time></trkpt><trkpt lat="40.7370062196336" lon="17.521251297819813"><ele>297.40000000000003</ele><time>2026-04-26T07:50:29Z</time></trkpt><trkpt lat="40.73699442543098" lon="17.521107833063628"><ele>298.8</ele><time>2026-04-26T07:50:31Z</time></trkpt><trkpt lat="40.736965453435744" lon="17.520962156305995"><ele>300.20000000000005</ele><time>2026-04-26T07:50:33Z</time></trkpt><trkpt lat="40.736975941871044" lon="17.520816338775692"><ele>301.6</ele><time>2026-04-26T07:50:35Z</time></trkpt><trkpt lat="40.73697789556717" lon="17.520669516580497"><ele>303.0</ele><time>2026-04-26T07:50:37Z</time></trkpt><trkpt lat="40.736965532524536" lon="17.52052143170831"><ele>303.8</ele><time>2026-04-26T07:50:39Z</time></trkpt><trkpt lat="40.73695071304885" lon="17.52036948702006"><ele>304.6</ele><time>2026-04-26T07:50:41Z</time></trkpt><trkpt lat="40.73695944421313" lon="17.520225684550436"><ele>305.4</ele><time>2026-04-26T07:50:43Z</time></trkpt><trkpt lat="40.736946207903465" lon="17.52007675298987"><ele>306.2</ele><time>2026-04-26T07:50:45Z</time></trkpt><trkpt lat="40.7369640106771" lon="17.51993303455625"><ele>307.0</ele><time>2026-04-26T07:50:46.999Z</time></trkpt><trkpt lat="40.73695043468079" lon="17.51978292923488"><ele>307.0</ele><time>2026-04-26T07:50:48.999Z</time></trkpt><trkpt lat="40.736931214942004" lon="17.51963526432209"><ele>307.0</ele><time>2026-04-26T07:50:50.999Z</time></trkpt><trkpt lat="40.73693220420122" lon="17.519489800004017"><ele>307.0</ele><time>2026-04-26T07:50:52.999Z</time></trkpt><trkpt lat="40.73691842539287" lon="17.519406169013372"><ele>307.0</ele><time>2026-04-26T07:50:53.999Z</time></trkpt><trkpt lat="40.7369216732121" lon="17.5192407196815"><ele>307.0</ele><time>2026-04-26T07:50:55.999Z</time></trkpt><trkpt lat="40.73689113802524" lon="17.519085525622746"><ele>305.6</ele><time>2026-04-26T07:50:57.999Z</time></trkpt><trkpt lat="40.73688173500741" lon="17.518920863985848"><ele>304.2</ele><time>2026-04-26T07:50:59.999Z</time></trkpt><trkpt lat="40.7368580370887" lon="17.518841633789723"><ele>302.8</ele><time>2026-04-26T07:51:00.999Z</time></trkpt><trkpt lat="40.736861487590886" lon="17.5186827964458"><ele>301.4</ele><time>2026-04-26T07:51:02.999Z</time></trkpt><trkpt lat="40.73683633068774" lon="17.51853253258746"><ele>300.0</ele><time>2026-04-26T07:51:04.999Z</time></trkpt><trkpt lat="40.736818322010926" lon="17.518369028790534"><ele>300.0</ele><time>2026-04-26T07:51:06.999Z</time></trkpt><trkpt lat="40.73681446026402" lon="17.51821278839728"><ele>300.0</ele><time>2026-04-26T07:51:08.999Z</time></trkpt><trkpt lat="40.73681459620364" lon="17.518053191765162"><ele>300.0</ele><time>2026-04-26T07:51:10.999Z</time></trkpt><trkpt lat="40.73678289795576" lon="17.517967374303907"><ele>300.0</ele><time>2026-04-26T07:51:11.999Z</time></trkpt><trkpt lat="40.73677341685962" lon="17.517805969246925"><ele>300.0</ele><time>2026-04-26T07:51:13.999Z</time></trkpt><trkpt lat="40.736770815898886" lon="17.517653293050618"><ele>300.0</ele><time>2026-04-26T07:51:15.999Z</time></trkpt><trkpt lat="40.736762502840634" lon="17.517496432957874"><ele>300.0</ele><time>2026-04-26T07:51:17.999Z</time></trkpt><trkpt lat="40.73675755837516" lon="17.51741193054495"><ele>300.0</ele><time>2026-04-26T07:51:18.999Z</time></trkpt><trkpt lat="40.736745136144755" lon="17.517256930147045"><ele>300.0</ele><time>2026-04-26T07:51:20.999Z</time></trkpt><trkpt lat="40.736731654016936" lon="17.51717400772003"><ele>300.0</ele><time>2026-04-26T07:51:21.999Z</time></trkpt><trkpt lat="40.73673824057028" lon="17.517014946952962"><ele>300.2</ele><time>2026-04-26T07:51:23.999Z</time></trkpt><trkpt lat="40.73674048011328" lon="17.51685292361841"><ele>300.4</ele><time>2026-04-26T07:51:25.999Z</time></trkpt><trkpt lat="40.736729151049936" lon="17.51669368475201"><ele>300.6</ele><time>2026-04-26T07:51:27.999Z</time></trkpt><trkpt lat="40.73671471446742" lon="17.516611909154843"><ele>300.8</ele><time>2026-04-26T07:51:28.999Z</time></trkpt><trkpt lat="40.736711715658245" lon="17.516528072968633"><ele>301.0</ele><time>2026-04-26T07:51:29.999Z</time></trkpt><trkpt lat="40.73671946123786" lon="17.516372098833767"><ele>301.3333333333333</ele><time>2026-04-26T07:51:31.999Z</time></trkpt><trkpt lat="40.736708566112036" lon="17.51620865200645"><ele>301.66666666666663</ele><time>2026-04-26T07:51:33.999Z</time></trkpt><trkpt lat="40.7366886648571" lon="17.5161190852312"><ele>302.0</ele><time>2026-04-26T07:51:34.999Z</time></trkpt><trkpt lat="40.73668264077878" lon="17.516036234742796"><ele>302.3333333333333</ele><time>2026-04-26T07:51:35.999Z</time></trkpt><trkpt lat="40.736688042947904" lon="17.515949385884422"><ele>302.6666666666667</ele><time>2026-04-26T07:51:36.999Z</time></trkpt><trkpt lat="40.73669070291594" lon="17.515858295530922"><ele>303.0</ele><time>2026-04-26T07:51:37.999Z</time></trkpt><trkpt lat="40.736689837421636" lon="17.515764331898843"><ele>303.0</ele><time>2026-04-26T07:51:38.999Z</time></trkpt><trkpt lat="40.73668664965038" lon="17.515671912907067"><ele>303.0</ele><time>2026-04-26T07:51:39.999Z</time></trkpt><trkpt lat="40.736687469708805" lon="17.515577751685566"><ele>303.0</ele><time>2026-04-26T07:51:40.999Z</time></trkpt><trkpt lat="40.7366835556051" lon="17.515477751664864"><ele>303.0</ele><time>2026-04-26T07:51:41.999Z</time></trkpt><trkpt lat="40.73669962760627" lon="17.51538066148446"><ele>303.0</ele><time>2026-04-26T07:51:42.999Z</time></trkpt><trkpt lat="40.73670673002502" lon="17.515279162275075"><ele>303.0</ele><time>2026-04-26T07:51:43.999Z</time></trkpt><trkpt lat="40.73671329717438" lon="17.515175566935223"><ele>303.0</ele><time>2026-04-26T07:51:44.999Z</time></trkpt><trkpt lat="40.73672693250385" lon="17.515077002294323"><ele>303.0</ele><time>2026-04-26T07:51:45.999Z</time></trkpt><trkpt lat="40.73673872460165" lon="17.514976154290324"><ele>303.0</ele><time>2026-04-26T07:51:46.999Z</time></trkpt><trkpt lat="40.736752277585246" lon="17.51487367067508"><ele>303.0</ele><time>2026-04-26T07:51:47.999Z</time></trkpt><trkpt lat="40.73676641293217" lon="17.514772704387788"><ele>303.0</ele><time>2026-04-26T07:51:48.999Z</time></trkpt><trkpt lat="40.73677570351962" lon="17.5146732312242"><ele>303.0</ele><time>2026-04-26T07:51:49.999Z</time></trkpt><trkpt lat="40.73679264157008" lon="17.51457313918333"><ele>303.0</ele><time>2026-04-26T07:51:50.999Z</time></trkpt><trkpt lat="40.73681392497401" lon="17.514468932638334"><ele>302.8333333333333</ele><time>2026-04-26T07:51:51.999Z</time></trkpt><trkpt lat="40.736834086613925" lon="17.5143640086841"><ele>302.6666666666667</ele><time>2026-04-26T07:51:52.999Z</time></trkpt><trkpt lat="40.736859981652614" lon="17.514258758901093"><ele>302.5</ele><time>2026-04-26T07:51:53.998Z</time></trkpt><trkpt lat="40.736889918455674" lon="17.5141506294274"><ele>302.33333333333337</ele><time>2026-04-26T07:51:54.998Z</time></trkpt><trkpt lat="40.73691707082408" lon="17.514051627568936"><ele>302.1666666666667</ele><time>2026-04-26T07:51:55.998Z</time></trkpt><trkpt lat="40.7369447049875" lon="17.513946211364498"><ele>302.0</ele><time>2026-04-26T07:51:56.998Z</time></trkpt><trkpt lat="40.73695898713319" lon="17.513852682168064"><ele>301.33333333333337</ele><time>2026-04-26T07:51:57.998Z</time></trkpt><trkpt lat="40.73701253874879" lon="17.513747987730017"><ele>300.6666666666667</ele><time>2026-04-26T07:51:58.998Z</time></trkpt><trkpt lat="40.73706076234385" lon="17.51363580334769"><ele>300.0</ele><time>2026-04-26T07:51:59.998Z</time></trkpt><trkpt lat="40.737104477452675" lon="17.5135526026713"><ele>299.3333333333333</ele><time>2026-04-26T07:52:00.998Z</time></trkpt><trkpt lat="40.737144637063544" lon="17.51346365650251"><ele>298.66666666666663</ele><time>2026-04-26T07:52:01.998Z</time></trkpt><trkpt lat="40.73718281922898" lon="17.513374269450395"><ele>298.0</ele><time>2026-04-26T07:52:02.998Z</time></trkpt><trkpt lat="40.737218374308526" lon="17.51328218782703"><ele>297.3333333333333</ele><time>2026-04-26T07:52:03.998Z</time></trkpt><trkpt lat="40.7372656495653" lon="17.513197048090504"><ele>296.66666666666663</ele><time>2026-04-26T07:52:04.998Z</time></trkpt><trkpt lat="40.73731114426509" lon="17.513108002928504"><ele>296.0</ele><time>2026-04-26T07:52:05.998Z</time></trkpt><trkpt lat="40.73734996809265" lon="17.513016382532523"><ele>295.3333333333333</ele><time>2026-04-26T07:52:06.998Z</time></trkpt><trkpt lat="40.737394163831226" lon="17.51292574792993"><ele>294.6666666666667</ele><time>2026-04-26T07:52:07.998Z</time></trkpt><trkpt lat="40.73744185885722" lon="17.512857015536422"><ele>294.0</ele><time>2026-04-26T07:52:08.998Z</time></trkpt><trkpt lat="40.73748304824877" lon="17.51276539012026"><ele>293.8333333333333</ele><time>2026-04-26T07:52:10Z</time></trkpt><trkpt lat="40.737529238633925" lon="17.512681795984673"><ele>293.6666666666667</ele><time>2026-04-26T07:52:11Z</time></trkpt><trkpt lat="40.7375760056533" lon="17.51258174140246"><ele>293.5</ele><time>2026-04-26T07:52:12Z</time></trkpt><trkpt lat="40.73761989848148" lon="17.51248768683065"><ele>293.33333333333337</ele><time>2026-04-26T07:52:13Z</time></trkpt><trkpt lat="40.73767115422384" lon="17.512392821474894"><ele>293.1666666666667</ele><time>2026-04-26T07:52:14Z</time></trkpt><trkpt lat="40.73772202430968" lon="17.512294745627415"><ele>293.0</ele><time>2026-04-26T07:52:15Z</time></trkpt><trkpt lat="40.737772032087356" lon="17.512200777517837"><ele>293.0</ele><time>2026-04-26T07:52:16Z</time></trkpt><trkpt lat="40.73781647302436" lon="17.512099060472288"><ele>293.0</ele><time>2026-04-26T07:52:17Z</time></trkpt><trkpt lat="40.73786822584873" lon="17.51200470488711"><ele>293.0</ele><time>2026-04-26T07:52:18Z</time></trkpt><trkpt lat="40.7379166841251" lon="17.51190478263378"><ele>293.0</ele><time>2026-04-26T07:52:19Z</time></trkpt><trkpt lat="40.73796524639496" lon="17.511801393602642"><ele>293.0</ele><time>2026-04-26T07:52:20Z</time></trkpt><trkpt lat="40.738013317005546" lon="17.511701632044048"><ele>293.0</ele><time>2026-04-26T07:52:21Z</time></trkpt><trkpt lat="40.73806520040913" lon="17.51160782565937"><ele>292.4</ele><time>2026-04-26T07:52:22Z</time></trkpt><trkpt lat="40.73812203668844" lon="17.511492833039803"><ele>291.8</ele><time>2026-04-26T07:52:23Z</time></trkpt><trkpt lat="40.738172145650616" lon="17.5113864193586"><ele>291.2</ele><time>2026-04-26T07:52:24Z</time></trkpt><trkpt lat="40.73822118546721" lon="17.511278381038952"><ele>290.6</ele><time>2026-04-26T07:52:25Z</time></trkpt><trkpt lat="40.73826885293691" lon="17.51117940181826"><ele>290.0</ele><time>2026-04-26T07:52:26Z</time></trkpt><trkpt lat="40.73831829651005" lon="17.511075692624452"><ele>288.4</ele><time>2026-04-26T07:52:27Z</time></trkpt><trkpt lat="40.7383734922594" lon="17.510974937436714"><ele>286.8</ele><time>2026-04-26T07:52:28Z</time></trkpt><trkpt lat="40.73842524796984" lon="17.51086998386614"><ele>285.2</ele><time>2026-04-26T07:52:29Z</time></trkpt><trkpt lat="40.73847650965474" lon="17.510768858894732"><ele>283.6</ele><time>2026-04-26T07:52:30Z</time></trkpt><trkpt lat="40.73852825976085" lon="17.51066773548528"><ele>282.0</ele><time>2026-04-26T07:52:31Z</time></trkpt><trkpt lat="40.73858077646544" lon="17.510564195400963"><ele>281.6</ele><time>2026-04-26T07:52:32Z</time></trkpt><trkpt lat="40.73863404702674" lon="17.510461756291058"><ele>281.2</ele><time>2026-04-26T07:52:33Z</time></trkpt><trkpt lat="40.73868833958939" lon="17.510359702562457"><ele>280.8</ele><time>2026-04-26T07:52:34Z</time></trkpt><trkpt lat="40.73874097979286" lon="17.510260117835085"><ele>280.4</ele><time>2026-04-26T07:52:35Z</time></trkpt><trkpt lat="40.738787560358794" lon="17.510158205722362"><ele>280.0</ele><time>2026-04-26T07:52:36Z</time></trkpt><trkpt lat="40.738833978129286" lon="17.510054891906297"><ele>278.5</ele><time>2026-04-26T07:52:37Z</time></trkpt><trkpt lat="40.73888249041539" lon="17.509960821956604"><ele>277.0</ele><time>2026-04-26T07:52:38Z</time></trkpt><trkpt lat="40.73893372081164" lon="17.50987541190221"><ele>275.5</ele><time>2026-04-26T07:52:39Z</time></trkpt><trkpt lat="40.73897929584826" lon="17.50978658670902"><ele>274.0</ele><time>2026-04-26T07:52:40Z</time></trkpt><trkpt lat="40.73902263017955" lon="17.509696141174416"><ele>272.5</ele><time>2026-04-26T07:52:41Z</time></trkpt><trkpt lat="40.7390625072299" lon="17.509605287843492"><ele>271.0</ele><time>2026-04-26T07:52:42Z</time></trkpt><trkpt lat="40.739103640548514" lon="17.50952015882955"><ele>270.57142857142856</ele><time>2026-04-26T07:52:43Z</time></trkpt><trkpt lat="40.739140148360114" lon="17.509435490874672"><ele>270.14285714285717</ele><time>2026-04-26T07:52:44Z</time></trkpt><trkpt lat="40.73917593754616" lon="17.50934810056302"><ele>269.7142857142857</ele><time>2026-04-26T07:52:45Z</time></trkpt><trkpt lat="40.73921172275866" lon="17.509266542088483"><ele>269.2857142857143</ele><time>2026-04-26T07:52:46Z</time></trkpt><trkpt lat="40.73924422861235" lon="17.509185112518903"><ele>268.85714285714283</ele><time>2026-04-26T07:52:47Z</time></trkpt><trkpt lat="40.73927746425873" lon="17.509106263839872"><ele>268.42857142857144</ele><time>2026-04-26T07:52:48Z</time></trkpt><trkpt lat="40.739307142873635" lon="17.509027495949265"><ele>268.0</ele><time>2026-04-26T07:52:49Z</time></trkpt><trkpt lat="40.73937428453523" lon="17.508888782599797"><ele>266.5</ele><time>2026-04-26T07:52:51Z</time></trkpt><trkpt lat="40.739427343805616" lon="17.50874209168242"><ele>265.0</ele><time>2026-04-26T07:52:53Z</time></trkpt><trkpt lat="40.73947363602138" lon="17.508600456134907"><ele>263.5</ele><time>2026-04-26T07:52:54.999Z</time></trkpt><trkpt lat="40.73952107386287" lon="17.508458102219322"><ele>262.0</ele><time>2026-04-26T07:52:56.999Z</time></trkpt><trkpt lat="40.7395554047123" lon="17.5083102642144"><ele>262.0</ele><time>2026-04-26T07:52:58.999Z</time></trkpt><trkpt lat="40.73958735687808" lon="17.508166514181408"><ele>262.0</ele><time>2026-04-26T07:53:00.999Z</time></trkpt><trkpt lat="40.73961874442571" lon="17.50803994759455"><ele>262.0</ele><time>2026-04-26T07:53:02.999Z</time></trkpt><trkpt lat="40.73964563231735" lon="17.507899674309247"><ele>262.0</ele><time>2026-04-26T07:53:04.999Z</time></trkpt><trkpt lat="40.73967424936812" lon="17.50776289307411"><ele>262.0</ele><time>2026-04-26T07:53:06.999Z</time></trkpt><trkpt lat="40.739685918915136" lon="17.50760403504271"><ele>265.25</ele><time>2026-04-26T07:53:08.999Z</time></trkpt><trkpt lat="40.739713216329974" lon="17.50744705335525"><ele>268.5</ele><time>2026-04-26T07:53:10.999Z</time></trkpt><trkpt lat="40.73972381781282" lon="17.507293284078163"><ele>271.75</ele><time>2026-04-26T07:53:12.999Z</time></trkpt><trkpt lat="40.7397285037866" lon="17.50714020000067"><ele>275.0</ele><time>2026-04-26T07:53:14.999Z</time></trkpt><trkpt lat="40.73972954291305" lon="17.50697991418091"><ele>276.8</ele><time>2026-04-26T07:53:16.999Z</time></trkpt><trkpt lat="40.73973008497488" lon="17.5068963011208"><ele>278.6</ele><time>2026-04-26T07:53:17.999Z</time></trkpt><trkpt lat="40.7397321120807" lon="17.50673800647563"><ele>280.4</ele><time>2026-04-26T07:53:19.999Z</time></trkpt><trkpt lat="40.73973597784415" lon="17.506579042172348"><ele>282.2</ele><time>2026-04-26T07:53:21.999Z</time></trkpt><trkpt lat="40.73973715090581" lon="17.506430971900777"><ele>284.0</ele><time>2026-04-26T07:53:23.999Z</time></trkpt><trkpt lat="40.73973436855414" lon="17.506344560214323"><ele>285.75</ele><time>2026-04-26T07:53:24.999Z</time></trkpt><trkpt lat="40.73973011781649" lon="17.506187703888003"><ele>287.5</ele><time>2026-04-26T07:53:26.999Z</time></trkpt><trkpt lat="40.73974363262063" lon="17.506025830949422"><ele>289.25</ele><time>2026-04-26T07:53:28.999Z</time></trkpt><trkpt lat="40.739747377122185" lon="17.505870125504924"><ele>291.0</ele><time>2026-04-26T07:53:30.999Z</time></trkpt><trkpt lat="40.73975364242957" lon="17.5057113315118"><ele>291.0</ele><time>2026-04-26T07:53:32.999Z</time></trkpt><trkpt lat="40.73974963486743" lon="17.505549516989348"><ele>291.0</ele><time>2026-04-26T07:53:34.999Z</time></trkpt><trkpt lat="40.73977174867699" lon="17.50538874287444"><ele>291.0</ele><time>2026-04-26T07:53:36.999Z</time></trkpt><trkpt lat="40.73980376389679" lon="17.50523458605939"><ele>291.0</ele><time>2026-04-26T07:53:38.999Z</time></trkpt><trkpt lat="40.739840390124385" lon="17.50508226911718"><ele>291.2</ele><time>2026-04-26T07:53:40.999Z</time></trkpt><trkpt lat="40.73985415960399" lon="17.50500010732131"><ele>291.40000000000003</ele><time>2026-04-26T07:53:41.999Z</time></trkpt><trkpt lat="40.73988662784194" lon="17.504847145611976"><ele>291.6</ele><time>2026-04-26T07:53:43.999Z</time></trkpt><trkpt lat="40.739912300066486" lon="17.504684154846487"><ele>291.8</ele><time>2026-04-26T07:53:45.999Z</time></trkpt><trkpt lat="40.73996469714234" lon="17.504529957778562"><ele>292.0</ele><time>2026-04-26T07:53:47.999Z</time></trkpt><trkpt lat="40.739995632660126" lon="17.504383265218287"><ele>292.2</ele><time>2026-04-26T07:53:49.999Z</time></trkpt><trkpt lat="40.74005724560599" lon="17.50423936430611"><ele>292.4</ele><time>2026-04-26T07:53:51.999Z</time></trkpt><trkpt lat="40.74008968910205" lon="17.50416384441317"><ele>292.6</ele><time>2026-04-26T07:53:52.999Z</time></trkpt><trkpt lat="40.74011943876008" lon="17.504087384538717"><ele>292.8</ele><time>2026-04-26T07:53:53.999Z</time></trkpt><trkpt lat="40.74017988016944" lon="17.503942725017737"><ele>293.0</ele><time>2026-04-26T07:53:55.999Z</time></trkpt><trkpt lat="40.74024108613597" lon="17.50379608718235"><ele>292.8</ele><time>2026-04-26T07:53:57.999Z</time></trkpt><trkpt lat="40.740272285847" lon="17.503723148925275"><ele>292.6</ele><time>2026-04-26T07:53:58.999Z</time></trkpt><trkpt lat="40.74033981642036" lon="17.503581874809328"><ele>292.4</ele><time>2026-04-26T07:54:00.998Z</time></trkpt><trkpt lat="40.74037273898201" lon="17.503507913757428"><ele>292.2</ele><time>2026-04-26T07:54:01.998Z</time></trkpt><trkpt lat="40.740439231715705" lon="17.50336751095012"><ele>292.0</ele><time>2026-04-26T07:54:03.998Z</time></trkpt><trkpt lat="40.74050861956559" lon="17.503230699627633"><ele>292.0</ele><time>2026-04-26T07:54:05.998Z</time></trkpt><trkpt lat="40.740573619260296" lon="17.503099657124725"><ele>292.0</ele><time>2026-04-26T07:54:07.998Z</time></trkpt><trkpt lat="40.740635188626506" lon="17.502965573203788"><ele>292.0</ele><time>2026-04-26T07:54:09.998Z</time></trkpt><trkpt lat="40.74071257023067" lon="17.502842681693828"><ele>292.0</ele><time>2026-04-26T07:54:11.998Z</time></trkpt><trkpt lat="40.74078460622423" lon="17.502715841652563"><ele>291.25</ele><time>2026-04-26T07:54:13.998Z</time></trkpt><trkpt lat="40.74084947517837" lon="17.502580058958966"><ele>290.5</ele><time>2026-04-26T07:54:16Z</time></trkpt><trkpt lat="40.740918379720775" lon="17.502456482597925"><ele>289.75</ele><time>2026-04-26T07:54:18Z</time></trkpt><trkpt lat="40.740983691300606" lon="17.502326100711326"><ele>289.0</ele><time>2026-04-26T07:54:20Z</time></trkpt><trkpt lat="40.74105249675931" lon="17.50219142969943"><ele>289.0</ele><time>2026-04-26T07:54:22Z</time></trkpt><trkpt lat="40.741083123064406" lon="17.502115120370473"><ele>289.0</ele><time>2026-04-26T07:54:23Z</time></trkpt><trkpt lat="40.74112141480733" lon="17.50203993504775"><ele>289.0</ele><time>2026-04-26T07:54:24Z</time></trkpt><trkpt lat="40.741194180974645" lon="17.50190061246781"><ele>289.0</ele><time>2026-04-26T07:54:26Z</time></trkpt><trkpt lat="40.74123218121743" lon="17.50182709027613"><ele>289.0</ele><time>2026-04-26T07:54:27Z</time></trkpt><trkpt lat="40.74126742476677" lon="17.501749918795603"><ele>289.0</ele><time>2026-04-26T07:54:28Z</time></trkpt><trkpt lat="40.74130417642281" lon="17.5016778459825"><ele>288.2857142857143</ele><time>2026-04-26T07:54:29Z</time></trkpt><trkpt lat="40.74134220857553" lon="17.501608841974555"><ele>287.57142857142856</ele><time>2026-04-26T07:54:30Z</time></trkpt><trkpt lat="40.74138196382444" lon="17.501543083154385"><ele>286.85714285714283</ele><time>2026-04-26T07:54:31Z</time></trkpt><trkpt lat="40.74141844312804" lon="17.501466171235865"><ele>286.1428571428571</ele><time>2026-04-26T07:54:32Z</time></trkpt><trkpt lat="40.74145631397653" lon="17.501396639293652"><ele>285.4285714285714</ele><time>2026-04-26T07:54:33Z</time></trkpt><trkpt lat="40.74149396282612" lon="17.501324330479573"><ele>284.7142857142857</ele><time>2026-04-26T07:54:34Z</time></trkpt><trkpt lat="40.741567379975805" lon="17.50120062995582"><ele>284.0</ele><time>2026-04-26T07:54:36Z</time></trkpt><trkpt lat="40.74164313078097" lon="17.50106940499942"><ele>284.0</ele><time>2026-04-26T07:54:38Z</time></trkpt><trkpt lat="40.74168274850407" lon="17.501004104104602"><ele>284.0</ele><time>2026-04-26T07:54:39Z</time></trkpt><trkpt lat="40.7417206892967" lon="17.500933836240204"><ele>284.0</ele><time>2026-04-26T07:54:40Z</time></trkpt><trkpt lat="40.741753971669596" lon="17.500862206294645"><ele>284.0</ele><time>2026-04-26T07:54:41Z</time></trkpt><trkpt lat="40.741828674168374" lon="17.500743749749024"><ele>284.0</ele><time>2026-04-26T07:54:43Z</time></trkpt><trkpt lat="40.74190405604826" lon="17.50063596387473"><ele>284.0</ele><time>2026-04-26T07:54:45Z</time></trkpt><trkpt lat="40.741972474674775" lon="17.500519567933992"><ele>284.8</ele><time>2026-04-26T07:54:47Z</time></trkpt><trkpt lat="40.74204674519636" lon="17.500401504590098"><ele>285.59999999999997</ele><time>2026-04-26T07:54:49Z</time></trkpt><trkpt lat="40.74211862424216" lon="17.500286860534153"><ele>286.4</ele><time>2026-04-26T07:54:51Z</time></trkpt><trkpt lat="40.74218963244169" lon="17.500186465067753"><ele>287.2</ele><time>2026-04-26T07:54:53Z</time></trkpt><trkpt lat="40.742252159959364" lon="17.500083965157827"><ele>288.0</ele><time>2026-04-26T07:54:55Z</time></trkpt><trkpt lat="40.74231315286219" lon="17.49998693845804"><ele>288.0</ele><time>2026-04-26T07:54:57Z</time></trkpt><trkpt lat="40.74237233749328" lon="17.49988643403308"><ele>288.0</ele><time>2026-04-26T07:54:59Z</time></trkpt><trkpt lat="40.742434527845106" lon="17.49978766870006"><ele>288.0</ele><time>2026-04-26T07:55:01Z</time></trkpt><trkpt lat="40.74250438595587" lon="17.499705763699932"><ele>288.0</ele><time>2026-04-26T07:55:02.999Z</time></trkpt><trkpt lat="40.74255877662255" lon="17.499604420873112"><ele>288.0</ele><time>2026-04-26T07:55:04.999Z</time></trkpt><trkpt lat="40.7426232587536" lon="17.499523961870178"><ele>288.2</ele><time>2026-04-26T07:55:06.999Z</time></trkpt><trkpt lat="40.742680975575915" lon="17.499422782582457"><ele>288.4</ele><time>2026-04-26T07:55:08.999Z</time></trkpt><trkpt lat="40.742739390962946" lon="17.499323495479928"><ele>288.59999999999997</ele><time>2026-04-26T07:55:10.999Z</time></trkpt><trkpt lat="40.74279870838862" lon="17.499222623044833"><ele>288.8</ele><time>2026-04-26T07:55:12.999Z</time></trkpt><trkpt lat="40.74286518094466" lon="17.49913267718337"><ele>289.0</ele><time>2026-04-26T07:55:14.999Z</time></trkpt><trkpt lat="40.7429280295848" lon="17.499036810721304"><ele>291.4</ele><time>2026-04-26T07:55:16.999Z</time></trkpt><trkpt lat="40.74299110535058" lon="17.498932067240972"><ele>293.79999999999995</ele><time>2026-04-26T07:55:18.999Z</time></trkpt><trkpt lat="40.743056471426826" lon="17.498831126376984"><ele>296.20000000000005</ele><time>2026-04-26T07:55:20.999Z</time></trkpt><trkpt lat="40.74311638461612" lon="17.498727670084683"><ele>298.6</ele><time>2026-04-26T07:55:22.999Z</time></trkpt><trkpt lat="40.74319061165264" lon="17.49864481778614"><ele>301.0</ele><time>2026-04-26T07:55:24.999Z</time></trkpt><trkpt lat="40.74325215453516" lon="17.498536488609165"><ele>301.2</ele><time>2026-04-26T07:55:26.999Z</time></trkpt><trkpt lat="40.743315863814885" lon="17.49842983442992"><ele>301.40000000000003</ele><time>2026-04-26T07:55:28.999Z</time></trkpt><trkpt lat="40.74338226677702" lon="17.498323874182486"><ele>301.6</ele><time>2026-04-26T07:55:30.999Z</time></trkpt><trkpt lat="40.74344476814345" lon="17.498218991537822"><ele>301.8</ele><time>2026-04-26T07:55:32.999Z</time></trkpt><trkpt lat="40.74350659811308" lon="17.498118948571307"><ele>302.0</ele><time>2026-04-26T07:55:34.999Z</time></trkpt><trkpt lat="40.74356934974785" lon="17.498017078548003"><ele>302.6</ele><time>2026-04-26T07:55:36.999Z</time></trkpt><trkpt lat="40.743632321958906" lon="17.49792583979705"><ele>303.2</ele><time>2026-04-26T07:55:38.999Z</time></trkpt><trkpt lat="40.74369985370779" lon="17.497832730139514"><ele>303.8</ele><time>2026-04-26T07:55:40.999Z</time></trkpt><trkpt lat="40.74376874448662" lon="17.497740700698234"><ele>304.4</ele><time>2026-04-26T07:55:42.999Z</time></trkpt><trkpt lat="40.743832923074336" lon="17.497636646458734"><ele>305.0</ele><time>2026-04-26T07:55:44.999Z</time></trkpt><trkpt lat="40.74390075930968" lon="17.497548681580632"><ele>305.2</ele><time>2026-04-26T07:55:46.999Z</time></trkpt><trkpt lat="40.74397146408157" lon="17.49745386208522"><ele>305.4</ele><time>2026-04-26T07:55:48.999Z</time></trkpt><trkpt lat="40.74402850513289" lon="17.497345620780408"><ele>305.6</ele><time>2026-04-26T07:55:50.999Z</time></trkpt><trkpt lat="40.74409217548064" lon="17.497239511399886"><ele>305.8</ele><time>2026-04-26T07:55:52.999Z</time></trkpt><trkpt lat="40.74415660377297" lon="17.49712932230493"><ele>306.0</ele><time>2026-04-26T07:55:54.999Z</time></trkpt><trkpt lat="40.7442240631426" lon="17.497017722515732"><ele>306.8</ele><time>2026-04-26T07:55:56.999Z</time></trkpt><trkpt lat="40.744293831974474" lon="17.496907115237473"><ele>307.6</ele><time>2026-04-26T07:55:58.999Z</time></trkpt><trkpt lat="40.74436604705525" lon="17.49679780189875"><ele>308.4</ele><time>2026-04-26T07:56:00.999Z</time></trkpt><trkpt lat="40.744436791462945" lon="17.496692622975544"><ele>309.2</ele><time>2026-04-26T07:56:02.999Z</time></trkpt><trkpt lat="40.744507984180814" lon="17.496588856798635"><ele>310.0</ele><time>2026-04-26T07:56:04.999Z</time></trkpt><trkpt lat="40.74457257441399" lon="17.496476535714297"><ele>310.0</ele><time>2026-04-26T07:56:06.999Z</time></trkpt><trkpt lat="40.74464080137903" lon="17.496365953236094"><ele>310.0</ele><time>2026-04-26T07:56:08.998Z</time></trkpt><trkpt lat="40.744710213987744" lon="17.496264965284773"><ele>310.0</ele><time>2026-04-26T07:56:10.998Z</time></trkpt><trkpt lat="40.74477766775967" lon="17.49615584460006"><ele>310.0</ele><time>2026-04-26T07:56:12.998Z</time></trkpt><trkpt lat="40.74484278989017" lon="17.496041281453554"><ele>310.0</ele><time>2026-04-26T07:56:14.998Z</time></trkpt><trkpt lat="40.74490701274834" lon="17.495920723887288"><ele>310.6</ele><time>2026-04-26T07:56:16.998Z</time></trkpt><trkpt lat="40.744979074990006" lon="17.495813864496707"><ele>311.2</ele><time>2026-04-26T07:56:18.998Z</time></trkpt><trkpt lat="40.74504562135229" lon="17.495699812722535"><ele>311.8</ele><time>2026-04-26T07:56:20.998Z</time></trkpt><trkpt lat="40.74510927618596" lon="17.49558038757924"><ele>312.4</ele><time>2026-04-26T07:56:23Z</time></trkpt><trkpt lat="40.745179914113756" lon="17.49545741090876"><ele>313.0</ele><time>2026-04-26T07:56:25Z</time></trkpt><trkpt lat="40.745250578404296" lon="17.495340271934484"><ele>314.0</ele><time>2026-04-26T07:56:27Z</time></trkpt><trkpt lat="40.74532063412247" lon="17.495212977738827"><ele>315.0</ele><time>2026-04-26T07:56:29Z</time></trkpt><trkpt lat="40.7453911404149" lon="17.495080609997245"><ele>316.0</ele><time>2026-04-26T07:56:31Z</time></trkpt><trkpt lat="40.7454591985303" lon="17.494944962346523"><ele>317.0</ele><time>2026-04-26T07:56:33Z</time></trkpt><trkpt lat="40.74553589302528" lon="17.494817732649377"><ele>317.0</ele><time>2026-04-26T07:56:35Z</time></trkpt><trkpt lat="40.7456014881937" lon="17.494685031118554"><ele>317.0</ele><time>2026-04-26T07:56:37Z</time></trkpt><trkpt lat="40.74567347613765" lon="17.49455556410386"><ele>317.0</ele><time>2026-04-26T07:56:39Z</time></trkpt><trkpt lat="40.745709177605946" lon="17.494486569331045"><ele>317.0</ele><time>2026-04-26T07:56:40Z</time></trkpt><trkpt lat="40.745796022996764" lon="17.494363207829604"><ele>317.0</ele><time>2026-04-26T07:56:42Z</time></trkpt><trkpt lat="40.745867772294616" lon="17.494240153828372"><ele>317.0</ele><time>2026-04-26T07:56:44Z</time></trkpt><trkpt lat="40.74590485350725" lon="17.494171752460257"><ele>317.0</ele><time>2026-04-26T07:56:45Z</time></trkpt><trkpt lat="40.745973331694884" lon="17.494038380299532"><ele>317.0</ele><time>2026-04-26T07:56:47Z</time></trkpt><trkpt lat="40.746045995614594" lon="17.49390428699197"><ele>317.0</ele><time>2026-04-26T07:56:49Z</time></trkpt><trkpt lat="40.7461183370255" lon="17.493777440617997"><ele>317.0</ele><time>2026-04-26T07:56:51Z</time></trkpt><trkpt lat="40.746193777308285" lon="17.493648293516152"><ele>318.25</ele><time>2026-04-26T07:56:53Z</time></trkpt><trkpt lat="40.74626296093576" lon="17.493513912843106"><ele>319.5</ele><time>2026-04-26T07:56:55Z</time></trkpt><trkpt lat="40.746334080676675" lon="17.493378007625456"><ele>320.75</ele><time>2026-04-26T07:56:57Z</time></trkpt><trkpt lat="40.74641699800308" lon="17.493261010636832"><ele>322.0</ele><time>2026-04-26T07:56:59Z</time></trkpt><trkpt lat="40.746484660517346" lon="17.493123737989457"><ele>322.0</ele><time>2026-04-26T07:57:01Z</time></trkpt><trkpt lat="40.74656114974162" lon="17.492991730250388"><ele>322.0</ele><time>2026-04-26T07:57:03Z</time></trkpt><trkpt lat="40.746600203428294" lon="17.492925175491315"><ele>322.0</ele><time>2026-04-26T07:57:04Z</time></trkpt><trkpt lat="40.7466807292896" lon="17.492802410011887"><ele>322.0</ele><time>2026-04-26T07:57:06Z</time></trkpt><trkpt lat="40.74675614405312" lon="17.49267564971776"><ele>322.0</ele><time>2026-04-26T07:57:08Z</time></trkpt><trkpt lat="40.746838789436474" lon="17.49255605157838"><ele>321.75</ele><time>2026-04-26T07:57:10Z</time></trkpt><trkpt lat="40.74692791677968" lon="17.492443350420455"><ele>321.5</ele><time>2026-04-26T07:57:12Z</time></trkpt><trkpt lat="40.74701595505975" lon="17.492333882232558"><ele>321.25</ele><time>2026-04-26T07:57:13.999Z</time></trkpt><trkpt lat="40.747106934630395" lon="17.492228376008764"><ele>321.0</ele><time>2026-04-26T07:57:15.999Z</time></trkpt><trkpt lat="40.7471987883219" lon="17.492125834937514"><ele>322.0</ele><time>2026-04-26T07:57:17.999Z</time></trkpt><trkpt lat="40.747294605534684" lon="17.49202007105676"><ele>323.0</ele><time>2026-04-26T07:57:19.999Z</time></trkpt><trkpt lat="40.7473934198283" lon="17.49193020962717"><ele>324.0</ele><time>2026-04-26T07:57:21.999Z</time></trkpt><trkpt lat="40.7474853511463" lon="17.49183194525981"><ele>325.0</ele><time>2026-04-26T07:57:23.999Z</time></trkpt><trkpt lat="40.7475804334003" lon="17.49173031290008"><ele>325.0</ele><time>2026-04-26T07:57:25.999Z</time></trkpt><trkpt lat="40.74767199811345" lon="17.491631123993123"><ele>325.0</ele><time>2026-04-26T07:57:27.999Z</time></trkpt><trkpt lat="40.74776114367475" lon="17.49155493478066"><ele>325.0</ele><time>2026-04-26T07:57:29.999Z</time></trkpt><trkpt lat="40.747839106547744" lon="17.491472459950586"><ele>325.0</ele><time>2026-04-26T07:57:31.999Z</time></trkpt><trkpt lat="40.74791212468581" lon="17.491393955513935"><ele>325.0</ele><time>2026-04-26T07:57:33.999Z</time></trkpt><trkpt lat="40.747975508431054" lon="17.491315714637846"><ele>325.0</ele><time>2026-04-26T07:57:35.999Z</time></trkpt><trkpt lat="40.7480447412243" lon="17.491272043825553"><ele>325.0</ele><time>2026-04-26T08:01:10Z</time></trkpt><trkpt lat="40.748102827805475" lon="17.491186665018574"><ele>325.0</ele><time>2026-04-26T08:01:53.999Z</time></trkpt><trkpt lat="40.74816859039406" lon="17.49111351754966"><ele>325.0</ele><time>2026-04-26T08:01:56.999Z</time></trkpt><trkpt lat="40.74823001796147" lon="17.491040503039624"><ele>325.0</ele><time>2026-04-26T08:01:58.999Z</time></trkpt><trkpt lat="40.74829091058293" lon="17.490985505139253"><ele>325.0</ele><time>2026-04-26T08:02:00.999Z</time></trkpt><trkpt lat="40.7483466877935" lon="17.490915227435437"><ele>325.0</ele><time>2026-04-26T08:02:02.999Z</time></trkpt><trkpt lat="40.74840422216204" lon="17.49085263462675"><ele>325.0</ele><time>2026-04-26T08:02:04.999Z</time></trkpt><trkpt lat="40.74846775310604" lon="17.490788907681097"><ele>325.0</ele><time>2026-04-26T08:02:06.999Z</time></trkpt><trkpt lat="40.748535614753884" lon="17.49071308639171"><ele>325.0</ele><time>2026-04-26T08:02:08.999Z</time></trkpt><trkpt lat="40.74861399251672" lon="17.490628057787298"><ele>325.0</ele><time>2026-04-26T08:02:10.999Z</time></trkpt><trkpt lat="40.74870535045522" lon="17.49053324739359"><ele>325.0</ele><time>2026-04-26T08:02:12.999Z</time></trkpt><trkpt lat="40.748813980132624" lon="17.490433407592512"><ele>325.0</ele><time>2026-04-26T08:02:14.999Z</time></trkpt><trkpt lat="40.74885384997123" lon="17.490362559622987"><ele>325.0</ele><time>2026-04-26T08:02:15.999Z</time></trkpt><trkpt lat="40.74890778334357" lon="17.490315375581773"><ele>325.0</ele><time>2026-04-26T08:02:16.998Z</time></trkpt><trkpt lat="40.74895873447685" lon="17.490260879304547"><ele>325.0</ele><time>2026-04-26T08:02:17.998Z</time></trkpt><trkpt lat="40.74900829965973" lon="17.49020796312257"><ele>325.0</ele><time>2026-04-26T08:02:18.998Z</time></trkpt><trkpt lat="40.74905871571912" lon="17.490147138362257"><ele>324.7142857142857</ele><time>2026-04-26T08:02:19.998Z</time></trkpt><trkpt lat="40.74911024128854" lon="17.490086269731723"><ele>324.42857142857144</ele><time>2026-04-26T08:02:20.998Z</time></trkpt><trkpt lat="40.74916320232881" lon="17.49003321704636"><ele>324.14285714285717</ele><time>2026-04-26T08:02:21.998Z</time></trkpt><trkpt lat="40.749218313554685" lon="17.489981219786028"><ele>323.8571428571429</ele><time>2026-04-26T08:02:22.998Z</time></trkpt><trkpt lat="40.74926582100451" lon="17.48992640458287"><ele>323.57142857142856</ele><time>2026-04-26T08:02:23.998Z</time></trkpt><trkpt lat="40.749314529285826" lon="17.48987136849322"><ele>323.28571428571433</ele><time>2026-04-26T08:02:24.998Z</time></trkpt><trkpt lat="40.749368294934676" lon="17.489814242019246"><ele>323.0</ele><time>2026-04-26T08:02:25.998Z</time></trkpt><trkpt lat="40.74941750429721" lon="17.48975755464994"><ele>323.0</ele><time>2026-04-26T08:02:26.998Z</time></trkpt><trkpt lat="40.749512524290985" lon="17.489679083180715"><ele>323.0</ele><time>2026-04-26T08:02:28.998Z</time></trkpt><trkpt lat="40.74957533437544" lon="17.48961298049183"><ele>323.0</ele><time>2026-04-26T08:02:30.998Z</time></trkpt><trkpt lat="40.74963876178267" lon="17.489546228122585"><ele>323.0</ele><time>2026-04-26T08:02:32.998Z</time></trkpt><trkpt lat="40.74970480258979" lon="17.489476725365833"><ele>323.0</ele><time>2026-04-26T08:02:34.998Z</time></trkpt><trkpt lat="40.74977320014311" lon="17.48939151233309"><ele>323.0</ele><time>2026-04-26T08:02:36.998Z</time></trkpt><trkpt lat="40.74984674875154" lon="17.4893111848905"><ele>323.0</ele><time>2026-04-26T08:02:39Z</time></trkpt><trkpt lat="40.749922928369465" lon="17.489226696800305"><ele>323.0</ele><time>2026-04-26T08:02:41Z</time></trkpt><trkpt lat="40.750005834871224" lon="17.48913900054302"><ele>323.0</ele><time>2026-04-26T08:02:43Z</time></trkpt><trkpt lat="40.7500868047761" lon="17.489057649891908"><ele>323.0</ele><time>2026-04-26T08:02:45Z</time></trkpt><trkpt lat="40.750149251175735" lon="17.488994707381934"><ele>323.0</ele><time>2026-04-26T08:02:47Z</time></trkpt><trkpt lat="40.75020315941313" lon="17.48893981818544"><ele>323.0</ele><time>2026-04-26T08:02:49Z</time></trkpt><trkpt lat="40.75026086320935" lon="17.488878002023533"><ele>323.0</ele><time>2026-04-26T08:02:51Z</time></trkpt><trkpt lat="40.75031822856864" lon="17.488815593908352"><ele>323.0</ele><time>2026-04-26T08:02:53Z</time></trkpt><trkpt lat="40.750393842814894" lon="17.48874490216713"><ele>323.0</ele><time>2026-04-26T08:02:55Z</time></trkpt><trkpt lat="40.750477863818354" lon="17.488654666848095"><ele>323.0</ele><time>2026-04-26T08:02:57Z</time></trkpt><trkpt lat="40.75055506987882" lon="17.48857179085476"><ele>323.59999999999997</ele><time>2026-04-26T08:02:59Z</time></trkpt><trkpt lat="40.75063328426313" lon="17.488516241736452"><ele>324.2</ele><time>2026-04-26T08:03:01Z</time></trkpt><trkpt lat="40.75070161250638" lon="17.48840338578028"><ele>324.8</ele><time>2026-04-26T08:03:03Z</time></trkpt><trkpt lat="40.750792325714116" lon="17.48831709850629"><ele>325.4</ele><time>2026-04-26T08:03:05Z</time></trkpt><trkpt lat="40.75085696453993" lon="17.488254613436393"><ele>326.0</ele><time>2026-04-26T08:03:07Z</time></trkpt><trkpt lat="40.75091479332024" lon="17.488189955726263"><ele>326.0</ele><time>2026-04-26T08:03:09Z</time></trkpt><trkpt lat="40.75090672569566" lon="17.48805600115327"><ele>326.0</ele><time>2026-04-26T08:03:12Z</time></trkpt><trkpt lat="40.75084345196904" lon="17.487968342872943"><ele>326.0</ele><time>2026-04-26T08:03:14Z</time></trkpt><trkpt lat="40.750804590931295" lon="17.487894960230744"><ele>326.0</ele><time>2026-04-26T08:03:16Z</time></trkpt><trkpt lat="40.750831341004115" lon="17.487819517145365"><ele>326.0</ele><time>2026-04-26T08:03:18Z</time></trkpt><trkpt lat="40.75090076906327" lon="17.487770956554535"><ele>326.0</ele><time>2026-04-26T08:03:20Z</time></trkpt><trkpt lat="40.7509910764766" lon="17.48770828334141"><ele>326.0</ele><time>2026-04-26T08:03:22Z</time></trkpt><trkpt lat="40.75108687809248" lon="17.48764462696141"><ele>326.0</ele><time>2026-04-26T08:03:24Z</time></trkpt><trkpt lat="40.7511508413814" lon="17.487597702879988"><ele>326.0</ele><time>2026-04-26T08:03:25.999Z</time></trkpt><trkpt lat="40.751205766418806" lon="17.48755303662452"><ele>326.0</ele><time>2026-04-26T08:03:27.999Z</time></trkpt><trkpt lat="40.7512826494033" lon="17.487504339339164"><ele>326.0</ele><time>2026-04-26T08:03:29.999Z</time></trkpt><trkpt lat="40.751386190567466" lon="17.487455219880346"><ele>326.0</ele><time>2026-04-26T08:03:31.999Z</time></trkpt><trkpt lat="40.751514542851794" lon="17.487466552693895"><ele>326.0</ele><time>2026-04-26T08:03:33.999Z</time></trkpt><trkpt lat="40.75162165390519" lon="17.487331840803833"><ele>326.0</ele><time>2026-04-26T08:03:35.999Z</time></trkpt><trkpt lat="40.75168706291126" lon="17.487212391746798"><ele>326.0</ele><time>2026-04-26T08:03:37.999Z</time></trkpt><trkpt lat="40.75170118537547" lon="17.487069586366594"><ele>326.0</ele><time>2026-04-26T08:03:39.999Z</time></trkpt><trkpt lat="40.75175139475238" lon="17.486994904600607"><ele>326.0</ele><time>2026-04-26T08:03:41.999Z</time></trkpt><trkpt lat="40.751786378616615" lon="17.486917417984255"><ele>326.20000000000005</ele><time>2026-04-26T08:03:44.999Z</time></trkpt><trkpt lat="40.75181914371731" lon="17.486806953705486"><ele>326.40000000000003</ele><time>2026-04-26T08:03:47.999Z</time></trkpt><trkpt lat="40.75189025677212" lon="17.486741082841604"><ele>326.6</ele><time>2026-04-26T08:03:49.999Z</time></trkpt><trkpt lat="40.751956418176874" lon="17.48663802798746"><ele>326.8</ele><time>2026-04-26T08:03:51.999Z</time></trkpt><trkpt lat="40.75200907143515" lon="17.48654283960714"><ele>327.0</ele><time>2026-04-26T08:03:53.999Z</time></trkpt><trkpt lat="40.75207608170747" lon="17.48646601152627"><ele>327.0</ele><time>2026-04-26T08:03:55.999Z</time></trkpt><trkpt lat="40.7521626471434" lon="17.486370415050835"><ele>327.0</ele><time>2026-04-26T08:03:57.999Z</time></trkpt><trkpt lat="40.75225600499998" lon="17.486284909938444"><ele>327.0</ele><time>2026-04-26T08:03:59.999Z</time></trkpt><trkpt lat="40.752322768264655" lon="17.486180863084186"><ele>327.0</ele><time>2026-04-26T08:04:01.999Z</time></trkpt><trkpt lat="40.75238689884419" lon="17.48607720542468"><ele>327.0</ele><time>2026-04-26T08:04:03.999Z</time></trkpt><trkpt lat="40.752481102432256" lon="17.485988622410304"><ele>326.40000000000003</ele><time>2026-04-26T08:04:05.999Z</time></trkpt><trkpt lat="40.752543946300975" lon="17.48596146374798"><ele>325.8</ele><time>2026-04-26T08:04:06.999Z</time></trkpt><trkpt lat="40.752628864813936" lon="17.485878576780635"><ele>325.2</ele><time>2026-04-26T08:04:08.999Z</time></trkpt><trkpt lat="40.75272823876778" lon="17.48580182283124"><ele>324.6</ele><time>2026-04-26T08:04:10.999Z</time></trkpt><trkpt lat="40.75279205790724" lon="17.485688070346324"><ele>324.0</ele><time>2026-04-26T08:04:12.999Z</time></trkpt><trkpt lat="40.75280345406995" lon="17.485601193103676"><ele>324.0</ele><time>2026-04-26T08:04:14.999Z</time></trkpt><trkpt lat="40.752735853286026" lon="17.485479256988583"><ele>324.0</ele><time>2026-04-26T08:04:16.999Z</time></trkpt><trkpt lat="40.75269655595995" lon="17.48540264116735"><ele>324.0</ele><time>2026-04-26T08:04:17.999Z</time></trkpt><trkpt lat="40.752641147053325" lon="17.485294426556045"><ele>324.0</ele><time>2026-04-26T08:04:19.999Z</time></trkpt><trkpt lat="40.752682082328725" lon="17.485182304785"><ele>324.0</ele><time>2026-04-26T08:04:22.999Z</time></trkpt><trkpt lat="40.75275652854367" lon="17.48513806254792"><ele>324.8333333333333</ele><time>2026-04-26T08:04:24.998Z</time></trkpt><trkpt lat="40.7528203120953" lon="17.485053740477923"><ele>325.6666666666667</ele><time>2026-04-26T08:04:26.998Z</time></trkpt><trkpt lat="40.75287136736985" lon="17.484967050172845"><ele>326.5</ele><time>2026-04-26T08:04:28.998Z</time></trkpt><trkpt lat="40.752926758804534" lon="17.48491275743695"><ele>327.33333333333337</ele><time>2026-04-26T08:04:30.998Z</time></trkpt><trkpt lat="40.7529899740685" lon="17.485009802629527"><ele>328.1666666666667</ele><time>2026-04-26T08:04:32.998Z</time></trkpt><trkpt lat="40.75304963212361" lon="17.485126398532657"><ele>329.0</ele><time>2026-04-26T08:04:34.998Z</time></trkpt><trkpt lat="40.75312766042847" lon="17.485144501154316"><ele>329.0</ele><time>2026-04-26T08:04:36.998Z</time></trkpt><trkpt lat="40.75320423206039" lon="17.485104757637394"><ele>329.0</ele><time>2026-04-26T08:04:38.998Z</time></trkpt><trkpt lat="40.75326659973146" lon="17.48504273361555"><ele>329.0</ele><time>2026-04-26T08:04:40.998Z</time></trkpt><trkpt lat="40.753334952871676" lon="17.48501127261766"><ele>329.0</ele><time>2026-04-26T08:04:42.998Z</time></trkpt><trkpt lat="40.753382517700445" lon="17.484916852325593"><ele>329.0</ele><time>2026-04-26T08:04:45Z</time></trkpt><trkpt lat="40.75343198614268" lon="17.484850929679837"><ele>329.0</ele><time>2026-04-26T08:04:47Z</time></trkpt><trkpt lat="40.75351808208782" lon="17.484848578450233"><ele>329.1666666666667</ele><time>2026-04-26T08:04:50Z</time></trkpt><trkpt lat="40.753597773192745" lon="17.48488632397783"><ele>329.33333333333337</ele><time>2026-04-26T08:04:53Z</time></trkpt><trkpt lat="40.753655575831246" lon="17.484938558948684"><ele>329.5</ele><time>2026-04-26T08:04:55Z</time></trkpt><trkpt lat="40.75372838499447" lon="17.484949123369628"><ele>329.6666666666667</ele><time>2026-04-26T08:04:57Z</time></trkpt><trkpt lat="40.753812635882355" lon="17.485012691672004"><ele>329.8333333333333</ele><time>2026-04-26T08:05:00Z</time></trkpt><trkpt lat="40.75383887902181" lon="17.485127534532037"><ele>330.0</ele><time>2026-04-26T08:05:03Z</time></trkpt><trkpt lat="40.75382455142199" lon="17.48522242562169"><ele>330.0</ele><time>2026-04-26T08:05:05Z</time></trkpt><trkpt lat="40.75387494586834" lon="17.485288866950835"><ele>330.0</ele><time>2026-04-26T08:05:08Z</time></trkpt><trkpt lat="40.75396033093809" lon="17.485308124595658"><ele>330.0</ele><time>2026-04-26T08:05:13Z</time></trkpt><trkpt lat="40.75402640172017" lon="17.48525255899988"><ele>330.0</ele><time>2026-04-26T08:05:17Z</time></trkpt><trkpt lat="40.75408115058483" lon="17.485201684968718"><ele>330.0</ele><time>2026-04-26T08:05:19Z</time></trkpt><trkpt lat="40.754138316350975" lon="17.485163778287696"><ele>330.0</ele><time>2026-04-26T08:05:21Z</time></trkpt><trkpt lat="40.754197973232586" lon="17.485051401506418"><ele>330.0</ele><time>2026-04-26T08:05:23Z</time></trkpt><trkpt lat="40.75426710719486" lon="17.48499697405275"><ele>330.0</ele><time>2026-04-26T08:05:25Z</time></trkpt><trkpt lat="40.754305495946596" lon="17.484918557899064"><ele>330.0</ele><time>2026-04-26T08:05:26.999Z</time></trkpt><trkpt lat="40.75432027689829" lon="17.484789712798275"><ele>330.0</ele><time>2026-04-26T08:05:28.999Z</time></trkpt><trkpt lat="40.754386475621914" lon="17.484706604026556"><ele>330.0</ele><time>2026-04-26T08:05:30.999Z</time></trkpt><trkpt lat="40.754431748225684" lon="17.484628471330804"><ele>330.0</ele><time>2026-04-26T08:05:32.999Z</time></trkpt><trkpt lat="40.754447626955425" lon="17.484530960711055"><ele>329.6666666666667</ele><time>2026-04-26T08:05:34.999Z</time></trkpt><trkpt lat="40.75450372553035" lon="17.48446422755656"><ele>329.3333333333333</ele><time>2026-04-26T08:05:36.999Z</time></trkpt><trkpt lat="40.75455981938259" lon="17.48439404573441"><ele>329.0</ele><time>2026-04-26T08:05:39.999Z</time></trkpt><trkpt lat="40.75459166669839" lon="17.484305534406793"><ele>328.66666666666663</ele><time>2026-04-26T08:05:41.999Z</time></trkpt><trkpt lat="40.75458922678531" lon="17.484198627173274"><ele>328.3333333333333</ele><time>2026-04-26T08:05:43.999Z</time></trkpt><trkpt lat="40.75460583364389" lon="17.484098134198494"><ele>328.0</ele><time>2026-04-26T08:05:46.999Z</time></trkpt><trkpt lat="40.75465174319086" lon="17.483978452577137"><ele>328.0</ele><time>2026-04-26T08:05:49.999Z</time></trkpt><trkpt lat="40.75469215471248" lon="17.483897536980347"><ele>328.0</ele><time>2026-04-26T08:05:51.999Z</time></trkpt><trkpt lat="40.75474891764632" lon="17.483812373056466"><ele>328.0</ele><time>2026-04-26T08:05:53.999Z</time></trkpt><trkpt lat="40.75475049175368" lon="17.483697973717845"><ele>328.0</ele><time>2026-04-26T08:05:56.999Z</time></trkpt><trkpt lat="40.754803405126886" lon="17.483603451871193"><ele>328.0</ele><time>2026-04-26T08:05:59.999Z</time></trkpt><trkpt lat="40.75485608357708" lon="17.483533199536556"><ele>328.0</ele><time>2026-04-26T08:06:01.999Z</time></trkpt><trkpt lat="40.75491134222119" lon="17.48345136922953"><ele>328.2857142857143</ele><time>2026-04-26T08:06:04.999Z</time></trkpt><trkpt lat="40.75494520572869" lon="17.483380112930686"><ele>328.57142857142856</ele><time>2026-04-26T08:06:06.999Z</time></trkpt><trkpt lat="40.75490969300523" lon="17.483301922809666"><ele>328.8571428571429</ele><time>2026-04-26T08:06:09.999Z</time></trkpt><trkpt lat="40.75486408643234" lon="17.48324458582217"><ele>329.1428571428571</ele><time>2026-04-26T08:06:11.999Z</time></trkpt><trkpt lat="40.75487133763314" lon="17.483155957908377"><ele>329.42857142857144</ele><time>2026-04-26T08:06:15.999Z</time></trkpt><trkpt lat="40.754931813707856" lon="17.48313041563306"><ele>329.7142857142857</ele><time>2026-04-26T08:06:19.999Z</time></trkpt><trkpt lat="40.75500401032872" lon="17.48316691048877"><ele>330.0</ele><time>2026-04-26T08:06:22.999Z</time></trkpt><trkpt lat="40.755085526241224" lon="17.483100578187074"><ele>330.0</ele><time>2026-04-26T08:06:24.999Z</time></trkpt><trkpt lat="40.75516025873137" lon="17.48306759032192"><ele>330.0</ele><time>2026-04-26T08:06:27.998Z</time></trkpt><trkpt lat="40.755226319978576" lon="17.482972634069135"><ele>330.0</ele><time>2026-04-26T08:06:30.998Z</time></trkpt><trkpt lat="40.755283134718184" lon="17.48291185919295"><ele>330.0</ele><time>2026-04-26T08:06:32.998Z</time></trkpt><trkpt lat="40.755362349883555" lon="17.482824672727162"><ele>330.0</ele><time>2026-04-26T08:06:35.998Z</time></trkpt><trkpt lat="40.75538159039719" lon="17.482717845155555"><ele>330.0</ele><time>2026-04-26T08:06:38.998Z</time></trkpt><trkpt lat="40.75534140690775" lon="17.482634977480416"><ele>330.0</ele><time>2026-04-26T08:06:40.998Z</time></trkpt><trkpt lat="40.75526478814035" lon="17.482569733716556"><ele>330.0</ele><time>2026-04-26T08:06:43.998Z</time></trkpt><trkpt lat="40.755211528645525" lon="17.48250335461413"><ele>330.0</ele><time>2026-04-26T08:06:45.998Z</time></trkpt><trkpt lat="40.755158016889666" lon="17.482431373468714"><ele>330.0</ele><time>2026-04-26T08:06:47.998Z</time></trkpt><trkpt lat="40.75509156244646" lon="17.482356197739065"><ele>330.0</ele><time>2026-04-26T08:06:49.998Z</time></trkpt><trkpt lat="40.75502961844989" lon="17.482255932110935"><ele>330.0</ele><time>2026-04-26T08:06:53Z</time></trkpt><trkpt lat="40.754970763656814" lon="17.482204647892367"><ele>330.8571428571429</ele><time>2026-04-26T08:06:55Z</time></trkpt><trkpt lat="40.75490125742548" lon="17.48215173956757"><ele>331.7142857142857</ele><time>2026-04-26T08:06:59Z</time></trkpt><trkpt lat="40.75492395096243" lon="17.482062564251194"><ele>332.57142857142856</ele><time>2026-04-26T08:07:02Z</time></trkpt><trkpt lat="40.75498204372089" lon="17.482008589056818"><ele>333.42857142857144</ele><time>2026-04-26T08:07:04Z</time></trkpt><trkpt lat="40.75502252071791" lon="17.48193406953229"><ele>334.2857142857143</ele><time>2026-04-26T08:07:06Z</time></trkpt><trkpt lat="40.755068455548304" lon="17.48186442347631"><ele>335.14285714285717</ele><time>2026-04-26T08:07:09Z</time></trkpt><trkpt lat="40.75512331935425" lon="17.481799459080356"><ele>336.0</ele><time>2026-04-26T08:07:11Z</time></trkpt><trkpt lat="40.75516234060965" lon="17.481725822217754"><ele>336.2857142857143</ele><time>2026-04-26T08:07:13Z</time></trkpt><trkpt lat="40.75520069077745" lon="17.481649996125867"><ele>336.57142857142856</ele><time>2026-04-26T08:07:15Z</time></trkpt><trkpt lat="40.755251491607524" lon="17.48157751469537"><ele>336.8571428571429</ele><time>2026-04-26T08:07:17Z</time></trkpt><trkpt lat="40.75530439792613" lon="17.481529604083317"><ele>337.1428571428571</ele><time>2026-04-26T08:07:19Z</time></trkpt><trkpt lat="40.755353139033694" lon="17.48145304190926"><ele>337.42857142857144</ele><time>2026-04-26T08:07:22Z</time></trkpt><trkpt lat="40.75541771963598" lon="17.4813934659841"><ele>337.7142857142857</ele><time>2026-04-26T08:07:25Z</time></trkpt><trkpt lat="40.755460119657435" lon="17.481298039899016"><ele>338.0</ele><time>2026-04-26T08:07:28Z</time></trkpt><trkpt lat="40.755527019602404" lon="17.481219060812663"><ele>339.1666666666667</ele><time>2026-04-26T08:07:30.999Z</time></trkpt><trkpt lat="40.75550304165619" lon="17.481127594818673"><ele>340.33333333333337</ele><time>2026-04-26T08:07:32.999Z</time></trkpt><trkpt lat="40.75554835966794" lon="17.48103756137109"><ele>341.5</ele><time>2026-04-26T08:07:34.999Z</time></trkpt><trkpt lat="40.755565022106005" lon="17.480951659212437"><ele>342.6666666666667</ele><time>2026-04-26T08:07:36.999Z</time></trkpt><trkpt lat="40.75559406607287" lon="17.480845973271553"><ele>343.8333333333333</ele><time>2026-04-26T08:07:39.999Z</time></trkpt><trkpt lat="40.75564006297169" lon="17.48076253130121"><ele>345.0</ele><time>2026-04-26T08:07:41.999Z</time></trkpt><trkpt lat="40.75568552777309" lon="17.4806798493322"><ele>345.0</ele><time>2026-04-26T08:07:43.999Z</time></trkpt><trkpt lat="40.75577686436905" lon="17.48058480620571"><ele>345.0</ele><time>2026-04-26T08:07:46.999Z</time></trkpt><trkpt lat="40.755846810038356" lon="17.480601380513537"><ele>345.0</ele><time>2026-04-26T08:07:47.999Z</time></trkpt><trkpt lat="40.75593051294789" lon="17.480613688953817"><ele>345.0</ele><time>2026-04-26T08:07:49.999Z</time></trkpt><trkpt lat="40.75600063430063" lon="17.480574234705312"><ele>345.0</ele><time>2026-04-26T08:07:51.999Z</time></trkpt><trkpt lat="40.75606532725189" lon="17.480499219258338"><ele>345.0</ele><time>2026-04-26T08:07:54.999Z</time></trkpt><trkpt lat="40.75609615838206" lon="17.48042351087851"><ele>345.3333333333333</ele><time>2026-04-26T08:07:56.999Z</time></trkpt><trkpt lat="40.75607459667664" lon="17.480336252507673"><ele>345.6666666666667</ele><time>2026-04-26T08:07:58.999Z</time></trkpt><trkpt lat="40.756107743454" lon="17.480264369711364"><ele>346.0</ele><time>2026-04-26T08:08:00.999Z</time></trkpt><trkpt lat="40.75617050244162" lon="17.48016432016181"><ele>346.33333333333337</ele><time>2026-04-26T08:08:03.999Z</time></trkpt><trkpt lat="40.75621836803929" lon="17.480071032094024"><ele>346.6666666666667</ele><time>2026-04-26T08:08:05.999Z</time></trkpt><trkpt lat="40.75627468241824" lon="17.48000173205922"><ele>347.0</ele><time>2026-04-26T08:08:07.999Z</time></trkpt><trkpt lat="40.756334854132305" lon="17.479943364522768"><ele>347.0</ele><time>2026-04-26T08:08:09.999Z</time></trkpt><trkpt lat="40.75634336752977" lon="17.479831431170293"><ele>347.0</ele><time>2026-04-26T08:08:12.999Z</time></trkpt><trkpt lat="40.75634075147273" lon="17.479718126025414"><ele>347.0</ele><time>2026-04-26T08:08:16.999Z</time></trkpt><trkpt lat="40.756369031896746" lon="17.479616070542576"><ele>347.0</ele><time>2026-04-26T08:08:21.999Z</time></trkpt><trkpt lat="40.75637414288771" lon="17.47953135471346"><ele>347.0</ele><time>2026-04-26T08:08:23.999Z</time></trkpt><trkpt lat="40.75634813760834" lon="17.47940069296631"><ele>347.0</ele><time>2026-04-26T08:08:26.999Z</time></trkpt><trkpt lat="40.756323384170585" lon="17.479313818579598"><ele>347.40000000000003</ele><time>2026-04-26T08:08:28.999Z</time></trkpt><trkpt lat="40.756293300401786" lon="17.479188500613105"><ele>347.8</ele><time>2026-04-26T08:08:30.999Z</time></trkpt><trkpt lat="40.756356741724915" lon="17.47906943070435"><ele>348.2</ele><time>2026-04-26T08:08:33.998Z</time></trkpt><trkpt lat="40.75641024743056" lon="17.47895599554621"><ele>348.6</ele><time>2026-04-26T08:08:35.998Z</time></trkpt><trkpt lat="40.75647290280192" lon="17.478883293344094"><ele>349.0</ele><time>2026-04-26T08:08:37.998Z</time></trkpt><trkpt lat="40.75653871747948" lon="17.478822968587654"><ele>349.0</ele><time>2026-04-26T08:08:39.998Z</time></trkpt><trkpt lat="40.75661075425344" lon="17.478789594884507"><ele>349.0</ele><time>2026-04-26T08:08:41.998Z</time></trkpt><trkpt lat="40.75662720790167" lon="17.478683744893328"><ele>349.0</ele><time>2026-04-26T08:08:44.998Z</time></trkpt><trkpt lat="40.75655497794976" lon="17.478623701616357"><ele>349.0</ele><time>2026-04-26T08:08:46.998Z</time></trkpt><trkpt lat="40.756466433689056" lon="17.47853481658067"><ele>349.0</ele><time>2026-04-26T08:08:48.998Z</time></trkpt><trkpt lat="40.75640183340212" lon="17.47851414087096"><ele>349.0</ele><time>2026-04-26T08:08:49.998Z</time></trkpt><trkpt lat="40.75633558416818" lon="17.47847473231085"><ele>348.79999999999995</ele><time>2026-04-26T08:08:50.998Z</time></trkpt><trkpt lat="40.75622743706853" lon="17.478418104962387"><ele>348.59999999999997</ele><time>2026-04-26T08:08:52.998Z</time></trkpt><trkpt lat="40.75613535004318" lon="17.47838603406681"><ele>348.4</ele><time>2026-04-26T08:08:54.998Z</time></trkpt><trkpt lat="40.75606982390755" lon="17.47836926057464"><ele>348.2</ele><time>2026-04-26T08:08:55.998Z</time></trkpt><trkpt lat="40.75598169684905" lon="17.478280107505494"><ele>348.0</ele><time>2026-04-26T08:08:58Z</time></trkpt><trkpt lat="40.755953521922876" lon="17.47814780150949"><ele>347.79999999999995</ele><time>2026-04-26T08:09:00Z</time></trkpt><trkpt lat="40.755947949423074" lon="17.478028036312992"><ele>347.6</ele><time>2026-04-26T08:09:02Z</time></trkpt><trkpt lat="40.755947631046666" lon="17.477941253771064"><ele>347.4</ele><time>2026-04-26T08:09:03Z</time></trkpt><trkpt lat="40.75592699427003" lon="17.47779852519988"><ele>347.20000000000005</ele><time>2026-04-26T08:09:05Z</time></trkpt><trkpt lat="40.75589988277962" lon="17.477661796481144"><ele>347.0</ele><time>2026-04-26T08:09:07Z</time></trkpt><trkpt lat="40.75591145923764" lon="17.47755377790405"><ele>347.0</ele><time>2026-04-26T08:09:09Z</time></trkpt><trkpt lat="40.755835798771585" lon="17.47753984314501"><ele>347.0</ele><time>2026-04-26T08:09:12Z</time></trkpt><trkpt lat="40.75576779332128" lon="17.477529456907835"><ele>347.0</ele><time>2026-04-26T08:09:13Z</time></trkpt><trkpt lat="40.75570416600643" lon="17.477497085241225"><ele>347.0</ele><time>2026-04-26T08:09:14Z</time></trkpt><trkpt lat="40.75563727759625" lon="17.477449730643965"><ele>347.0</ele><time>2026-04-26T08:09:15Z</time></trkpt><trkpt lat="40.75557612253609" lon="17.477402995194247"><ele>347.0</ele><time>2026-04-26T08:09:16Z</time></trkpt><trkpt lat="40.75549774559942" lon="17.477347192952404"><ele>347.0</ele><time>2026-04-26T08:09:17Z</time></trkpt><trkpt lat="40.75541554256829" lon="17.477274335335693"><ele>347.0</ele><time>2026-04-26T08:09:18Z</time></trkpt><trkpt lat="40.75533228929404" lon="17.477195311575333"><ele>347.0</ele><time>2026-04-26T08:09:19Z</time></trkpt><trkpt lat="40.75524416110833" lon="17.47712357210348"><ele>347.0</ele><time>2026-04-26T08:09:20Z</time></trkpt><trkpt lat="40.75514304725711" lon="17.477054660358824"><ele>347.0</ele><time>2026-04-26T08:09:21Z</time></trkpt><trkpt lat="40.755040959599924" lon="17.47698713070416"><ele>347.0</ele><time>2026-04-26T08:09:22Z</time></trkpt><trkpt lat="40.754965298933776" lon="17.476933286046982"><ele>344.5</ele><time>2026-04-26T08:09:23Z</time></trkpt><trkpt lat="40.7548636965395" lon="17.47689523554311"><ele>342.0</ele><time>2026-04-26T08:09:25Z</time></trkpt><trkpt lat="40.75479411517754" lon="17.476853448051727"><ele>339.5</ele><time>2026-04-26T08:09:27Z</time></trkpt><trkpt lat="40.75480522950766" lon="17.476765900280203"><ele>337.0</ele><time>2026-04-26T08:09:29Z</time></trkpt><trkpt lat="40.75487361941414" lon="17.476727967274094"><ele>334.5</ele><time>2026-04-26T08:09:30.999Z</time></trkpt><trkpt lat="40.75487814782506" lon="17.476614685611313"><ele>332.0</ele><time>2026-04-26T08:09:33.999Z</time></trkpt><trkpt lat="40.75482447141339" lon="17.476503446709415"><ele>332.0</ele><time>2026-04-26T08:09:35.999Z</time></trkpt><trkpt lat="40.754842026600286" lon="17.476417985690915"><ele>332.0</ele><time>2026-04-26T08:09:38.999Z</time></trkpt><trkpt lat="40.754866801841274" lon="17.476325791204843"><ele>332.0</ele><time>2026-04-26T08:09:41.999Z</time></trkpt><trkpt lat="40.75485806135099" lon="17.476227766161852"><ele>332.0</ele><time>2026-04-26T08:09:43.999Z</time></trkpt><trkpt lat="40.75487752443012" lon="17.4760995772007"><ele>332.0</ele><time>2026-04-26T08:09:46.999Z</time></trkpt><trkpt lat="40.75489434951172" lon="17.47596839308204"><ele>332.0</ele><time>2026-04-26T08:09:48.999Z</time></trkpt><trkpt lat="40.7549123992579" lon="17.475830506678076"><ele>331.33333333333337</ele><time>2026-04-26T08:09:50.999Z</time></trkpt><trkpt lat="40.754935624721924" lon="17.475692546103406"><ele>330.6666666666667</ele><time>2026-04-26T08:09:52.999Z</time></trkpt><trkpt lat="40.754969021641024" lon="17.475598507475258"><ele>330.0</ele><time>2026-04-26T08:09:54.999Z</time></trkpt><trkpt lat="40.755016444719466" lon="17.475534493051256"><ele>329.3333333333333</ele><time>2026-04-26T08:09:56.999Z</time></trkpt><trkpt lat="40.755095575757466" lon="17.475489365069855"><ele>328.66666666666663</ele><time>2026-04-26T08:09:59.999Z</time></trkpt><trkpt lat="40.75515097977114" lon="17.47543006670145"><ele>328.0</ele><time>2026-04-26T08:10:02.999Z</time></trkpt><trkpt lat="40.7552124327697" lon="17.4753964972658"><ele>328.0</ele><time>2026-04-26T08:10:04.999Z</time></trkpt><trkpt lat="40.75526408957196" lon="17.47534573715032"><ele>328.0</ele><time>2026-04-26T08:10:06.999Z</time></trkpt><trkpt lat="40.75533052850317" lon="17.475306829650787"><ele>328.0</ele><time>2026-04-26T08:10:08.999Z</time></trkpt><trkpt lat="40.7554091140699" lon="17.475205720259492"><ele>328.0</ele><time>2026-04-26T08:10:10.999Z</time></trkpt><trkpt lat="40.75545759405665" lon="17.475140683937443"><ele>328.0</ele><time>2026-04-26T08:10:11.999Z</time></trkpt><trkpt lat="40.75550804546216" lon="17.475083172736696"><ele>328.0</ele><time>2026-04-26T08:10:12.999Z</time></trkpt><trkpt lat="40.7555652332237" lon="17.475014406872784"><ele>327.99999999999994</ele><time>2026-04-26T08:10:13.999Z</time></trkpt><trkpt lat="40.755617562221765" lon="17.474958110480586"><ele>328.0</ele><time>2026-04-26T08:10:14.999Z</time></trkpt><trkpt lat="40.755669074465985" lon="17.474896583796493"><ele>328.0</ele><time>2026-04-26T08:10:15.999Z</time></trkpt><trkpt lat="40.755727813889735" lon="17.47484313891124"><ele>328.0</ele><time>2026-04-26T08:10:16.999Z</time></trkpt><trkpt lat="40.75578758481612" lon="17.474784825213085"><ele>328.0</ele><time>2026-04-26T08:10:17.999Z</time></trkpt><trkpt lat="40.75584931092798" lon="17.474753278641664"><ele>327.99999999999994</ele><time>2026-04-26T08:10:18.999Z</time></trkpt><trkpt lat="40.755921616180345" lon="17.474698769324075"><ele>328.0</ele><time>2026-04-26T08:10:19.999Z</time></trkpt><trkpt lat="40.755985225382865" lon="17.474646318916346"><ele>326.4</ele><time>2026-04-26T08:10:20.999Z</time></trkpt><trkpt lat="40.75604547873184" lon="17.47460376652213"><ele>324.79999999999995</ele><time>2026-04-26T08:10:21.999Z</time></trkpt><trkpt lat="40.75609692700753" lon="17.474546395107915"><ele>323.2</ele><time>2026-04-26T08:10:22.999Z</time></trkpt><trkpt lat="40.75617402301717" lon="17.474527695042305"><ele>321.6</ele><time>2026-04-26T08:10:23.999Z</time></trkpt><trkpt lat="40.756253171695924" lon="17.47446083761375"><ele>320.0</ele><time>2026-04-26T08:10:25.999Z</time></trkpt><trkpt lat="40.75631846511354" lon="17.47418691786997"><ele>320.0</ele><time>2026-04-26T08:10:32.999Z</time></trkpt><trkpt lat="40.75629838598868" lon="17.474057995316016"><ele>320.0</ele><time>2026-04-26T08:10:34.998Z</time></trkpt><trkpt lat="40.75628467459984" lon="17.473972677377258"><ele>320.0</ele><time>2026-04-26T08:10:37.998Z</time></trkpt><trkpt lat="40.756211669357064" lon="17.473903949422677"><ele>320.0</ele><time>2026-04-26T08:10:39.998Z</time></trkpt><trkpt lat="40.75614035830129" lon="17.473902102200764"><ele>320.0</ele><time>2026-04-26T08:10:40.998Z</time></trkpt><trkpt lat="40.75605037987885" lon="17.47382797220117"><ele>320.0</ele><time>2026-04-26T08:10:42.998Z</time></trkpt><trkpt lat="40.756011472556054" lon="17.473724549758106"><ele>318.83333333333337</ele><time>2026-04-26T08:10:44.998Z</time></trkpt><trkpt lat="40.756045624336686" lon="17.47362005442894"><ele>317.6666666666667</ele><time>2026-04-26T08:10:46.998Z</time></trkpt><trkpt lat="40.75599070429604" lon="17.47353982709703"><ele>316.5</ele><time>2026-04-26T08:10:49.998Z</time></trkpt><trkpt lat="40.75590325919771" lon="17.47355560265045"><ele>315.3333333333333</ele><time>2026-04-26T08:10:51.998Z</time></trkpt><trkpt lat="40.75584229403458" lon="17.4734703414758"><ele>314.16666666666663</ele><time>2026-04-26T08:10:53.998Z</time></trkpt><trkpt lat="40.7558077625256" lon="17.47336463906658"><ele>313.0</ele><time>2026-04-26T08:10:55.998Z</time></trkpt><trkpt lat="40.75574650408479" lon="17.473269936088855"><ele>313.0</ele><time>2026-04-26T08:10:57.998Z</time></trkpt><trkpt lat="40.75569789955948" lon="17.47313570802255"><ele>313.0</ele><time>2026-04-26T08:10:59.998Z</time></trkpt><trkpt lat="40.75570656509036" lon="17.473012580367953"><ele>313.0</ele><time>2026-04-26T08:11:01.998Z</time></trkpt><trkpt lat="40.75568933232295" lon="17.472895376348514"><ele>313.0</ele><time>2026-04-26T08:11:05Z</time></trkpt><trkpt lat="40.755649332527405" lon="17.472820318682526"><ele>313.0</ele><time>2026-04-26T08:11:08Z</time></trkpt><trkpt lat="40.75564831088657" lon="17.472698967908563"><ele>312.0</ele><time>2026-04-26T08:11:11Z</time></trkpt><trkpt lat="40.755642639854244" lon="17.472597960022885"><ele>311.0</ele><time>2026-04-26T08:11:13Z</time></trkpt><trkpt lat="40.75573101145617" lon="17.472586209538576"><ele>310.0</ele><time>2026-04-26T08:11:17Z</time></trkpt><trkpt lat="40.755776183127736" lon="17.47265289824882"><ele>309.0</ele><time>2026-04-26T08:11:20Z</time></trkpt><trkpt lat="40.75579630047585" lon="17.472737428487726"><ele>308.0</ele><time>2026-04-26T08:11:23Z</time></trkpt><trkpt lat="40.75586375588837" lon="17.472768560108516"><ele>307.0</ele><time>2026-04-26T08:11:27Z</time></trkpt><trkpt lat="40.75595441552112" lon="17.472656795399782"><ele>307.0</ele><time>2026-04-26T08:11:39Z</time></trkpt><trkpt lat="40.75593602888444" lon="17.47249660128159"><ele>307.0</ele><time>2026-04-26T08:11:55.999Z</time></trkpt><trkpt lat="40.75594358956932" lon="17.472401733249527"><ele>307.0</ele><time>2026-04-26T08:11:58.999Z</time></trkpt><trkpt lat="40.75598189017064" lon="17.47231897362572"><ele>307.0</ele><time>2026-04-26T08:12:00.999Z</time></trkpt><trkpt lat="40.756007004893604" lon="17.47222993731447"><ele>307.0</ele><time>2026-04-26T08:12:06.999Z</time></trkpt><trkpt lat="40.75600937172544" lon="17.47209444441561"><ele>307.0</ele><time>2026-04-26T08:12:09.999Z</time></trkpt><trkpt lat="40.75597042443874" lon="17.472011962611777"><ele>305.85714285714283</ele><time>2026-04-26T08:12:15.999Z</time></trkpt><trkpt lat="40.75595054292882" lon="17.471925742460307"><ele>304.7142857142857</ele><time>2026-04-26T08:12:21.999Z</time></trkpt><trkpt lat="40.755887807950124" lon="17.47189069084357"><ele>303.57142857142856</ele><time>2026-04-26T08:12:27.999Z</time></trkpt><trkpt lat="40.75584452451662" lon="17.471814496821384"><ele>302.42857142857144</ele><time>2026-04-26T08:12:30.999Z</time></trkpt><trkpt lat="40.75579917297948" lon="17.471737038772346"><ele>301.2857142857143</ele><time>2026-04-26T08:12:33.999Z</time></trkpt><trkpt lat="40.75571613006006" lon="17.471727619118482"><ele>300.1428571428571</ele><time>2026-04-26T08:12:36.999Z</time></trkpt><trkpt lat="40.7556372365537" lon="17.47172543346239"><ele>299.0</ele><time>2026-04-26T08:12:39.999Z</time></trkpt><trkpt lat="40.755632985374454" lon="17.471623509595073"><ele>299.0</ele><time>2026-04-26T08:12:41.999Z</time></trkpt><trkpt lat="40.755590474681114" lon="17.471543681327027"><ele>299.0</ele><time>2026-04-26T08:12:43.999Z</time></trkpt><trkpt lat="40.755615379554605" lon="17.471413116255043"><ele>299.0</ele><time>2026-04-26T08:12:47.999Z</time></trkpt><trkpt lat="40.75567378818421" lon="17.471326689232693"><ele>299.0</ele><time>2026-04-26T08:12:49.999Z</time></trkpt><trkpt lat="40.75571057721906" lon="17.471254236448743"><ele>299.0</ele><time>2026-04-26T08:12:54.998Z</time></trkpt><trkpt lat="40.75574364810822" lon="17.47116864336316"><ele>299.0</ele><time>2026-04-26T08:12:58.998Z</time></trkpt><trkpt lat="40.75581345890035" lon="17.471149571783673"><ele>298.1666666666667</ele><time>2026-04-26T08:13:02.998Z</time></trkpt><trkpt lat="40.75583270734612" lon="17.47103620941702"><ele>297.33333333333337</ele><time>2026-04-26T08:13:05.998Z</time></trkpt><trkpt lat="40.755883009697236" lon="17.47094893481988"><ele>296.5</ele><time>2026-04-26T08:13:11Z</time></trkpt><trkpt lat="40.75591863512628" lon="17.47082497001826"><ele>295.6666666666667</ele><time>2026-04-26T08:13:15Z</time></trkpt><trkpt lat="40.755962405525125" lon="17.470758595812192"><ele>294.8333333333333</ele><time>2026-04-26T08:13:19Z</time></trkpt><trkpt lat="40.755967450258005" lon="17.470662090346323"><ele>294.0</ele><time>2026-04-26T08:13:23Z</time></trkpt><trkpt lat="40.75594762748799" lon="17.47057847081338"><ele>294.0</ele><time>2026-04-26T08:13:33Z</time></trkpt><trkpt lat="40.75596936290068" lon="17.470486103257635"><ele>294.0</ele><time>2026-04-26T08:13:44Z</time></trkpt><trkpt lat="40.75595680526358" lon="17.470402896420495"><ele>294.0</ele><time>2026-04-26T08:13:48Z</time></trkpt><trkpt lat="40.7560139039017" lon="17.47031244498097"><ele>294.0</ele><time>2026-04-26T08:13:59.999Z</time></trkpt><trkpt lat="40.756068752731544" lon="17.470255937587265"><ele>294.0</ele><time>2026-04-26T08:15:43Z</time></trkpt><trkpt lat="40.756120416839856" lon="17.47016162300367"><ele>294.0</ele><time>2026-04-26T08:15:46Z</time></trkpt><trkpt lat="40.756166896148734" lon="17.47010245386677"><ele>294.0</ele><time>2026-04-26T08:15:48Z</time></trkpt><trkpt lat="40.75622517843593" lon="17.470039309714817"><ele>294.3333333333333</ele><time>2026-04-26T08:15:50Z</time></trkpt><trkpt lat="40.75629411778485" lon="17.469939787270246"><ele>294.6666666666667</ele><time>2026-04-26T08:15:52Z</time></trkpt><trkpt lat="40.75638099908317" lon="17.46982491063304"><ele>295.0</ele><time>2026-04-26T08:15:54Z</time></trkpt><trkpt lat="40.75641469685681" lon="17.469751842949684"><ele>295.33333333333337</ele><time>2026-04-26T08:15:55Z</time></trkpt><trkpt lat="40.75646073020988" lon="17.469681588971756"><ele>295.6666666666667</ele><time>2026-04-26T08:15:56Z</time></trkpt><trkpt lat="40.756529255487834" lon="17.469631233481728"><ele>296.0</ele><time>2026-04-26T08:15:57Z</time></trkpt><trkpt lat="40.75658698771267" lon="17.469573588093837"><ele>296.0</ele><time>2026-04-26T08:15:57.999Z</time></trkpt><trkpt lat="40.75665096689445" lon="17.469500560455813"><ele>296.0</ele><time>2026-04-26T08:15:58.999Z</time></trkpt><trkpt lat="40.756707540273545" lon="17.469416032801707"><ele>296.0</ele><time>2026-04-26T08:15:59.999Z</time></trkpt><trkpt lat="40.756785640548145" lon="17.469310684578385"><ele>296.0</ele><time>2026-04-26T08:16:00.999Z</time></trkpt><trkpt lat="40.756849811470516" lon="17.469250109831407"><ele>296.0</ele><time>2026-04-26T08:16:01.999Z</time></trkpt><trkpt lat="40.75691141002209" lon="17.469198230582858"><ele>296.0</ele><time>2026-04-26T08:16:02.999Z</time></trkpt><trkpt lat="40.75697999052715" lon="17.469132331171316"><ele>291.1666666666667</ele><time>2026-04-26T08:16:03.999Z</time></trkpt><trkpt lat="40.75704046118861" lon="17.469060007305035"><ele>286.33333333333337</ele><time>2026-04-26T08:16:04.999Z</time></trkpt><trkpt lat="40.75711604397073" lon="17.469003044967028"><ele>281.5</ele><time>2026-04-26T08:16:05.999Z</time></trkpt><trkpt lat="40.757181354022954" lon="17.468949334188007"><ele>276.6666666666667</ele><time>2026-04-26T08:16:06.999Z</time></trkpt><trkpt lat="40.75724528806231" lon="17.468873956483897"><ele>271.8333333333333</ele><time>2026-04-26T08:16:07.999Z</time></trkpt><trkpt lat="40.75733286429339" lon="17.46883302295281"><ele>267.0</ele><time>2026-04-26T08:16:08.999Z</time></trkpt><trkpt lat="40.757406991228535" lon="17.468785141045824"><ele>265.6666666666667</ele><time>2026-04-26T08:16:09.999Z</time></trkpt><trkpt lat="40.757472831111315" lon="17.46873801871045"><ele>264.3333333333333</ele><time>2026-04-26T08:16:10.999Z</time></trkpt><trkpt lat="40.75753285793186" lon="17.46867112982138"><ele>263.0</ele><time>2026-04-26T08:16:11.999Z</time></trkpt><trkpt lat="40.75760300520352" lon="17.46862900394963"><ele>261.66666666666663</ele><time>2026-04-26T08:16:12.999Z</time></trkpt><trkpt lat="40.75768795942342" lon="17.46855528909634"><ele>260.3333333333333</ele><time>2026-04-26T08:16:13.999Z</time></trkpt><trkpt lat="40.757758693357296" lon="17.468501125785966"><ele>259.0</ele><time>2026-04-26T08:16:14.999Z</time></trkpt><trkpt lat="40.757829119336556" lon="17.46843141252038"><ele>259.0</ele><time>2026-04-26T08:16:15.999Z</time></trkpt><trkpt lat="40.757918346062915" lon="17.46835795686013"><ele>259.0</ele><time>2026-04-26T08:16:16.999Z</time></trkpt><trkpt lat="40.75798886397722" lon="17.46828115011132"><ele>259.0</ele><time>2026-04-26T08:16:17.999Z</time></trkpt><trkpt lat="40.75805942173681" lon="17.4682161055616"><ele>259.0</ele><time>2026-04-26T08:16:18.999Z</time></trkpt><trkpt lat="40.758111032945855" lon="17.46813077303378"><ele>259.0</ele><time>2026-04-26T08:16:19.999Z</time></trkpt><trkpt lat="40.75816863709088" lon="17.46805422055297"><ele>259.0</ele><time>2026-04-26T08:16:20.999Z</time></trkpt><trkpt lat="40.75819354404333" lon="17.467947490529518"><ele>261.16666666666663</ele><time>2026-04-26T08:16:21.999Z</time></trkpt><trkpt lat="40.75823108180353" lon="17.467857435774253"><ele>263.3333333333333</ele><time>2026-04-26T08:16:22.999Z</time></trkpt><trkpt lat="40.75828619196948" lon="17.467786194951476"><ele>265.5</ele><time>2026-04-26T08:16:23.999Z</time></trkpt><trkpt lat="40.75832066059037" lon="17.467693825624973"><ele>267.6666666666667</ele><time>2026-04-26T08:16:24.999Z</time></trkpt><trkpt lat="40.75834295507538" lon="17.46759485388065"><ele>269.83333333333337</ele><time>2026-04-26T08:16:25.999Z</time></trkpt><trkpt lat="40.75834575296725" lon="17.467480921517495"><ele>272.0</ele><time>2026-04-26T08:16:26.999Z</time></trkpt><trkpt lat="40.75837968530477" lon="17.467352952549916"><ele>272.0</ele><time>2026-04-26T08:16:28.999Z</time></trkpt><trkpt lat="40.75842957597042" lon="17.467221833238625"><ele>272.0</ele><time>2026-04-26T08:16:30.999Z</time></trkpt><trkpt lat="40.75841993502793" lon="17.46711158322464"><ele>272.0</ele><time>2026-04-26T08:16:31.999Z</time></trkpt><trkpt lat="40.758427129045316" lon="17.466969960158437"><ele>272.0</ele><time>2026-04-26T08:16:33.999Z</time></trkpt><trkpt lat="40.75846368904275" lon="17.466891216092247"><ele>272.0</ele><time>2026-04-26T08:16:34.999Z</time></trkpt><trkpt lat="40.758486134465336" lon="17.466738297985547"><ele>272.6666666666667</ele><time>2026-04-26T08:16:36.999Z</time></trkpt><trkpt lat="40.75847947522537" lon="17.466631959658827"><ele>273.33333333333337</ele><time>2026-04-26T08:16:37.999Z</time></trkpt><trkpt lat="40.75847541668596" lon="17.466539436500828"><ele>274.0</ele><time>2026-04-26T08:16:38.999Z</time></trkpt><trkpt lat="40.758474682959644" lon="17.466380600088392"><ele>274.6666666666667</ele><time>2026-04-26T08:16:40.999Z</time></trkpt><trkpt lat="40.75848505431039" lon="17.46628472036438"><ele>275.3333333333333</ele><time>2026-04-26T08:16:41.999Z</time></trkpt><trkpt lat="40.75849662912324" lon="17.466199076591042"><ele>276.0</ele><time>2026-04-26T08:16:42.999Z</time></trkpt><trkpt lat="40.758529266275524" lon="17.466038020105092"><ele>276.5</ele><time>2026-04-26T08:16:44.999Z</time></trkpt><trkpt lat="40.75851145183948" lon="17.465860941038034"><ele>277.0</ele><time>2026-04-26T08:16:46.999Z</time></trkpt><trkpt lat="40.75854328520247" lon="17.46578211123476"><ele>277.5</ele><time>2026-04-26T08:16:47.999Z</time></trkpt><trkpt lat="40.75856117991155" lon="17.46569747123594"><ele>278.0</ele><time>2026-04-26T08:16:48.999Z</time></trkpt><trkpt lat="40.758578724185725" lon="17.465617049948015"><ele>278.5</ele><time>2026-04-26T08:16:49.999Z</time></trkpt><trkpt lat="40.758607865793955" lon="17.465481350345076"><ele>279.0</ele><time>2026-04-26T08:16:51.999Z</time></trkpt><trkpt lat="40.75860366635987" lon="17.465394814508883"><ele>271.59999999999997</ele><time>2026-04-26T08:16:52.999Z</time></trkpt><trkpt lat="40.758606980180836" lon="17.46530681243258"><ele>264.2</ele><time>2026-04-26T08:16:53.999Z</time></trkpt><trkpt lat="40.758595775024254" lon="17.465153110724895"><ele>256.79999999999995</ele><time>2026-04-26T08:16:55.999Z</time></trkpt><trkpt lat="40.75860486724558" lon="17.464999719570347"><ele>249.39999999999998</ele><time>2026-04-26T08:16:57.999Z</time></trkpt><trkpt lat="40.758627482554935" lon="17.46484925279729"><ele>242.0</ele><time>2026-04-26T08:16:59.999Z</time></trkpt><trkpt lat="40.75861156388174" lon="17.464744974118247"><ele>242.0</ele><time>2026-04-26T08:17:00.999Z</time></trkpt><trkpt lat="40.758621157610506" lon="17.46459935602176"><ele>242.0</ele><time>2026-04-26T08:17:02.998Z</time></trkpt><trkpt lat="40.75861804345178" lon="17.464472434928346"><ele>242.0</ele><time>2026-04-26T08:17:04.998Z</time></trkpt><trkpt lat="40.7586201492948" lon="17.464363578921176"><ele>242.0</ele><time>2026-04-26T08:17:06.998Z</time></trkpt><trkpt lat="40.75863210355561" lon="17.464236761714847"><ele>242.0</ele><time>2026-04-26T08:17:08.998Z</time></trkpt><trkpt lat="40.75868920988273" lon="17.464116951762655"><ele>242.00000000000003</ele><time>2026-04-26T08:17:11.998Z</time></trkpt><trkpt lat="40.758671859668716" lon="17.464003886392973"><ele>242.0</ele><time>2026-04-26T08:17:13.998Z</time></trkpt><trkpt lat="40.75867803873401" lon="17.463866939860296"><ele>242.0</ele><time>2026-04-26T08:17:15.998Z</time></trkpt><trkpt lat="40.75872770521922" lon="17.463805095703005"><ele>242.0</ele><time>2026-04-26T08:17:17.998Z</time></trkpt><trkpt lat="40.758715178995935" lon="17.463711332316628"><ele>242.00000000000003</ele><time>2026-04-26T08:17:21Z</time></trkpt><trkpt lat="40.758661371812885" lon="17.463643913460622"><ele>242.0</ele><time>2026-04-26T08:17:27Z</time></trkpt><trkpt lat="40.75869084330021" lon="17.463559910827268"><ele>243.50000000000003</ele><time>2026-04-26T08:20:29.999Z</time></trkpt><trkpt lat="40.75875074893101" lon="17.463440645535226"><ele>245.0</ele><time>2026-04-26T08:20:33.999Z</time></trkpt><trkpt lat="40.75878373145978" lon="17.46335648324408"><ele>246.5</ele><time>2026-04-26T08:20:35.999Z</time></trkpt><trkpt lat="40.75880258430113" lon="17.463238186014074"><ele>248.0</ele><time>2026-04-26T08:20:37.999Z</time></trkpt><trkpt lat="40.75883945595333" lon="17.4631506031998"><ele>249.50000000000003</ele><time>2026-04-26T08:20:39.999Z</time></trkpt><trkpt lat="40.75889041654223" lon="17.46307169423671"><ele>251.0</ele><time>2026-04-26T08:20:41.999Z</time></trkpt><trkpt lat="40.758936919619096" lon="17.46295454862863"><ele>254.00000000000003</ele><time>2026-04-26T08:20:43.999Z</time></trkpt><trkpt lat="40.75900021815281" lon="17.46282432536802"><ele>257.0</ele><time>2026-04-26T08:20:45.999Z</time></trkpt><trkpt lat="40.759078247024156" lon="17.462698959466998"><ele>260.0</ele><time>2026-04-26T08:20:47.999Z</time></trkpt><trkpt lat="40.759126321271566" lon="17.462637008589724"><ele>263.0</ele><time>2026-04-26T08:20:48.999Z</time></trkpt><trkpt lat="40.759150754272916" lon="17.46255941221382"><ele>266.0</ele><time>2026-04-26T08:20:49.999Z</time></trkpt><trkpt lat="40.75918873782634" lon="17.462489367017376"><ele>269.0</ele><time>2026-04-26T08:20:50.999Z</time></trkpt><trkpt lat="40.75923686045191" lon="17.462435024086734"><ele>269.0</ele><time>2026-04-26T08:20:51.999Z</time></trkpt><trkpt lat="40.759314810427696" lon="17.46232533234867"><ele>269.0</ele><time>2026-04-26T08:20:53.999Z</time></trkpt><trkpt lat="40.75938831877061" lon="17.46231001259693"><ele>269.0</ele><time>2026-04-26T08:20:54.999Z</time></trkpt><trkpt lat="40.75941653601539" lon="17.46223075187916"><ele>269.0</ele><time>2026-04-26T08:20:55.999Z</time></trkpt><trkpt lat="40.759452583202275" lon="17.4621617852245"><ele>269.0</ele><time>2026-04-26T08:20:56.999Z</time></trkpt><trkpt lat="40.75954265213951" lon="17.46205837260731"><ele>269.0</ele><time>2026-04-26T08:20:58.999Z</time></trkpt><trkpt lat="40.75955823496804" lon="17.46196995456707"><ele>266.8</ele><time>2026-04-26T08:20:59.999Z</time></trkpt><trkpt lat="40.75966145427958" lon="17.46189780921675"><ele>264.59999999999997</ele><time>2026-04-26T08:21:01.999Z</time></trkpt><trkpt lat="40.75971265553547" lon="17.461842373914436"><ele>262.4</ele><time>2026-04-26T08:21:02.999Z</time></trkpt><trkpt lat="40.759784087473456" lon="17.46180272989703"><ele>260.2</ele><time>2026-04-26T08:21:03.999Z</time></trkpt><trkpt lat="40.759840756014526" lon="17.46167242953057"><ele>258.0</ele><time>2026-04-26T08:21:05.999Z</time></trkpt><trkpt lat="40.759925878984824" lon="17.46155499816788"><ele>258.0</ele><time>2026-04-26T08:21:07.999Z</time></trkpt><trkpt lat="40.759974642318795" lon="17.461486578896263"><ele>258.0</ele><time>2026-04-26T08:21:08.999Z</time></trkpt><trkpt lat="40.76001636265513" lon="17.46141728072043"><ele>258.0</ele><time>2026-04-26T08:21:09.999Z</time></trkpt><trkpt lat="40.76005113963564" lon="17.461345803771053"><ele>258.0</ele><time>2026-04-26T08:21:10.999Z</time></trkpt><trkpt lat="40.76013507078371" lon="17.461248154516475"><ele>258.0</ele><time>2026-04-26T08:21:12.999Z</time></trkpt><trkpt lat="40.76021297829653" lon="17.461106372994312"><ele>258.0</ele><time>2026-04-26T08:21:14.998Z</time></trkpt><trkpt lat="40.76029266481091" lon="17.460989919154628"><ele>254.25</ele><time>2026-04-26T08:21:16.998Z</time></trkpt><trkpt lat="40.76036616021913" lon="17.46084566340927"><ele>250.5</ele><time>2026-04-26T08:21:18.998Z</time></trkpt><trkpt lat="40.76040182894182" lon="17.460698096149006"><ele>246.75</ele><time>2026-04-26T08:21:20.998Z</time></trkpt><trkpt lat="40.76045675708154" lon="17.460601068166614"><ele>243.0</ele><time>2026-04-26T08:21:22.998Z</time></trkpt><trkpt lat="40.760502607424954" lon="17.46046344633292"><ele>246.2</ele><time>2026-04-26T08:21:24.998Z</time></trkpt><trkpt lat="40.76056514100285" lon="17.460336752731273"><ele>249.4</ele><time>2026-04-26T08:21:26.998Z</time></trkpt><trkpt lat="40.76063641022526" lon="17.46018931216167"><ele>252.59999999999997</ele><time>2026-04-26T08:21:28.998Z</time></trkpt><trkpt lat="40.7606923413517" lon="17.460062086726083"><ele>255.79999999999998</ele><time>2026-04-26T08:21:30.998Z</time></trkpt><trkpt lat="40.76070810047621" lon="17.459970979408112"><ele>259.0</ele><time>2026-04-26T08:21:31.998Z</time></trkpt><trkpt lat="40.760742999200765" lon="17.459850600532942"><ele>259.0</ele><time>2026-04-26T08:21:33Z</time></trkpt><trkpt lat="40.76075974307818" lon="17.459766971957013"><ele>259.0</ele><time>2026-04-26T08:21:34Z</time></trkpt><trkpt lat="40.76080867470791" lon="17.459673074852425"><ele>259.0</ele><time>2026-04-26T08:21:36Z</time></trkpt><trkpt lat="40.76083044157505" lon="17.45954155962978"><ele>259.0</ele><time>2026-04-26T08:21:38Z</time></trkpt><trkpt lat="40.76082431652698" lon="17.45945498227472"><ele>259.0</ele><time>2026-04-26T08:21:39Z</time></trkpt><trkpt lat="40.760865337957476" lon="17.459320438865312"><ele>259.0</ele><time>2026-04-26T08:21:41Z</time></trkpt><trkpt lat="40.76091901539354" lon="17.459176389692846"><ele>261.0</ele><time>2026-04-26T08:21:43Z</time></trkpt><trkpt lat="40.76091245638153" lon="17.459005571256743"><ele>263.0</ele><time>2026-04-26T08:21:45Z</time></trkpt><trkpt lat="40.76092636147181" lon="17.45892133319898"><ele>265.0</ele><time>2026-04-26T08:21:46Z</time></trkpt><trkpt lat="40.760953842600614" lon="17.458768483298492"><ele>267.0</ele><time>2026-04-26T08:21:48Z</time></trkpt><trkpt lat="40.76095620184483" lon="17.458668828366484"><ele>269.0</ele><time>2026-04-26T08:21:49Z</time></trkpt><trkpt lat="40.76099048959992" lon="17.45854377592812"><ele>270.4</ele><time>2026-04-26T08:21:51Z</time></trkpt><trkpt lat="40.7609903965406" lon="17.45842933263775"><ele>271.79999999999995</ele><time>2026-04-26T08:21:53Z</time></trkpt><trkpt lat="40.76097755619846" lon="17.45831714522457"><ele>273.20000000000005</ele><time>2026-04-26T08:21:54Z</time></trkpt><trkpt lat="40.76100126555906" lon="17.45818377478035"><ele>274.6</ele><time>2026-04-26T08:21:56Z</time></trkpt><trkpt lat="40.760976728780555" lon="17.45804647985695"><ele>276.0</ele><time>2026-04-26T08:21:58Z</time></trkpt><trkpt lat="40.76097122938467" lon="17.45791344804844"><ele>277.0</ele><time>2026-04-26T08:22:00Z</time></trkpt><trkpt lat="40.76096691241034" lon="17.45781820377351"><ele>278.0</ele><time>2026-04-26T08:22:02Z</time></trkpt><trkpt lat="40.760955712341314" lon="17.457720552521664"><ele>279.0</ele><time>2026-04-26T08:22:04Z</time></trkpt><trkpt lat="40.76096090754885" lon="17.45762853914386"><ele>280.0</ele><time>2026-04-26T08:22:06Z</time></trkpt><trkpt lat="40.76094513236094" lon="17.457499746273243"><ele>281.0</ele><time>2026-04-26T08:22:09Z</time></trkpt><trkpt lat="40.7609456375976" lon="17.457376126464837"><ele>282.0</ele><time>2026-04-26T08:22:11Z</time></trkpt><trkpt lat="40.76094404229452" lon="17.45727147956062"><ele>282.0</ele><time>2026-04-26T08:22:13Z</time></trkpt><trkpt lat="40.76095960599308" lon="17.45718147131076"><ele>282.0</ele><time>2026-04-26T08:22:15Z</time></trkpt><trkpt lat="40.76094485605925" lon="17.45707249036205"><ele>282.0</ele><time>2026-04-26T08:22:16.999Z</time></trkpt><trkpt lat="40.76096499154557" lon="17.45693592799287"><ele>282.0</ele><time>2026-04-26T08:22:19.999Z</time></trkpt><trkpt lat="40.76096749573962" lon="17.456848852686687"><ele>282.0</ele><time>2026-04-26T08:22:21.999Z</time></trkpt><trkpt lat="40.760972102879514" lon="17.456708138948375"><ele>282.0</ele><time>2026-04-26T08:22:24.999Z</time></trkpt><trkpt lat="40.760939317324116" lon="17.456591960617015"><ele>282.6666666666667</ele><time>2026-04-26T08:22:26.999Z</time></trkpt><trkpt lat="40.76092633974644" lon="17.456505965224224"><ele>283.3333333333333</ele><time>2026-04-26T08:22:28.999Z</time></trkpt><trkpt lat="40.76090110013104" lon="17.456406163130588"><ele>284.0</ele><time>2026-04-26T08:22:30.999Z</time></trkpt><trkpt lat="40.760914825566616" lon="17.456296510080623"><ele>284.66666666666663</ele><time>2026-04-26T08:22:33.999Z</time></trkpt><trkpt lat="40.760933691239536" lon="17.456207278234718"><ele>285.3333333333333</ele><time>2026-04-26T08:22:35.999Z</time></trkpt><trkpt lat="40.7609608554671" lon="17.45611006415846"><ele>286.0</ele><time>2026-04-26T08:22:37.999Z</time></trkpt><trkpt lat="40.760986140766065" lon="17.456021222170083"><ele>287.3333333333333</ele><time>2026-04-26T08:22:39.999Z</time></trkpt><trkpt lat="40.76098774733349" lon="17.455923996996855"><ele>288.66666666666663</ele><time>2026-04-26T08:22:41.999Z</time></trkpt><trkpt lat="40.76101802882705" lon="17.455795966081745"><ele>290.0</ele><time>2026-04-26T08:22:44.999Z</time></trkpt><trkpt lat="40.76102888393938" lon="17.455703082250004"><ele>291.3333333333333</ele><time>2026-04-26T08:22:46.999Z</time></trkpt><trkpt lat="40.761032002337856" lon="17.45559731769006"><ele>292.6666666666667</ele><time>2026-04-26T08:22:48.999Z</time></trkpt><trkpt lat="40.761038087879804" lon="17.45551132638546"><ele>294.0</ele><time>2026-04-26T08:22:50.999Z</time></trkpt><trkpt lat="40.76107991807937" lon="17.455417292612353"><ele>291.1666666666667</ele><time>2026-04-26T08:22:52.999Z</time></trkpt><trkpt lat="40.761093808420526" lon="17.455317111930498"><ele>288.3333333333333</ele><time>2026-04-26T08:22:54.999Z</time></trkpt><trkpt lat="40.76110344594491" lon="17.455231131292418"><ele>285.5</ele><time>2026-04-26T08:22:56.999Z</time></trkpt><trkpt lat="40.761140130678186" lon="17.455133206112514"><ele>282.66666666666663</ele><time>2026-04-26T08:22:59.999Z</time></trkpt><trkpt lat="40.7611760770199" lon="17.455015954366427"><ele>279.8333333333333</ele><time>2026-04-26T08:23:01.999Z</time></trkpt><trkpt lat="40.76119687669747" lon="17.4549302785513"><ele>277.0</ele><time>2026-04-26T08:23:02.999Z</time></trkpt><trkpt lat="40.761269951678834" lon="17.45483228167566"><ele>277.0</ele><time>2026-04-26T08:23:05.999Z</time></trkpt><trkpt lat="40.761302578166045" lon="17.454719692182362"><ele>277.0</ele><time>2026-04-26T08:23:08.999Z</time></trkpt><trkpt lat="40.76128862253248" lon="17.45463093946803"><ele>277.0</ele><time>2026-04-26T08:23:10.999Z</time></trkpt><trkpt lat="40.76129045595666" lon="17.4545425432814"><ele>277.0</ele><time>2026-04-26T08:23:12.999Z</time></trkpt><trkpt lat="40.761333312881945" lon="17.454448810296196"><ele>277.0</ele><time>2026-04-26T08:23:15.999Z</time></trkpt><trkpt lat="40.7613739593391" lon="17.45436323261476"><ele>277.0</ele><time>2026-04-26T08:23:17.999Z</time></trkpt><trkpt lat="40.761427929179966" lon="17.45429206598542"><ele>279.66666666666663</ele><time>2026-04-26T08:23:19.998Z</time></trkpt><trkpt lat="40.76143344523639" lon="17.454155176238626"><ele>282.3333333333333</ele><time>2026-04-26T08:23:21.998Z</time></trkpt><trkpt lat="40.76145918409819" lon="17.454073999613183"><ele>285.0</ele><time>2026-04-26T08:23:23.998Z</time></trkpt><trkpt lat="40.76152021596431" lon="17.454014896471335"><ele>287.6666666666667</ele><time>2026-04-26T08:23:25.998Z</time></trkpt><trkpt lat="40.761567627829855" lon="17.453947800184984"><ele>290.33333333333337</ele><time>2026-04-26T08:23:27.998Z</time></trkpt><trkpt lat="40.76163444237769" lon="17.453861991183835"><ele>293.0</ele><time>2026-04-26T08:23:30.998Z</time></trkpt><trkpt lat="40.76169159735357" lon="17.4538218998066"><ele>292.57142857142856</ele><time>2026-04-26T08:23:32.998Z</time></trkpt><trkpt lat="40.76169521350925" lon="17.45373153519433"><ele>292.1428571428571</ele><time>2026-04-26T08:23:34.998Z</time></trkpt><trkpt lat="40.76170104582023" lon="17.453620521550214"><ele>291.7142857142857</ele><time>2026-04-26T08:23:37.998Z</time></trkpt><trkpt lat="40.76176730571597" lon="17.453584052988788"><ele>291.2857142857143</ele><time>2026-04-26T08:23:40Z</time></trkpt><trkpt lat="40.761807413324824" lon="17.45349753534063"><ele>290.8571428571429</ele><time>2026-04-26T08:23:42Z</time></trkpt><trkpt lat="40.76185927226546" lon="17.453414828443165"><ele>290.42857142857144</ele><time>2026-04-26T08:23:44Z</time></trkpt><trkpt lat="40.76191037650202" lon="17.453363167440102"><ele>290.0</ele><time>2026-04-26T08:23:46Z</time></trkpt><trkpt lat="40.76199818040466" lon="17.45327961720626"><ele>290.0</ele><time>2026-04-26T08:23:48Z</time></trkpt><trkpt lat="40.76205066151125" lon="17.45322504156575"><ele>290.0</ele><time>2026-04-26T08:23:50Z</time></trkpt><trkpt lat="40.76213858197489" lon="17.45316293108099"><ele>290.0</ele><time>2026-04-26T08:23:53Z</time></trkpt><trkpt lat="40.76220693958054" lon="17.4531173606021"><ele>290.0</ele><time>2026-04-26T08:23:55Z</time></trkpt><trkpt lat="40.76223889550034" lon="17.453013604492373"><ele>290.0</ele><time>2026-04-26T08:23:57Z</time></trkpt><trkpt lat="40.76230351470185" lon="17.452935341975827"><ele>290.0</ele><time>2026-04-26T08:24:00Z</time></trkpt><trkpt lat="40.76235868989049" lon="17.452866416767044"><ele>293.8571428571429</ele><time>2026-04-26T08:24:02Z</time></trkpt><trkpt lat="40.76239176814645" lon="17.452771103585476"><ele>297.7142857142857</ele><time>2026-04-26T08:24:05Z</time></trkpt><trkpt lat="40.76243736155338" lon="17.45269923901709"><ele>301.57142857142856</ele><time>2026-04-26T08:24:09Z</time></trkpt><trkpt lat="40.76238464250401" lon="17.452750985250084"><ele>305.42857142857144</ele><time>2026-04-26T08:24:19Z</time></trkpt><trkpt lat="40.76233381628248" lon="17.452803916008747"><ele>309.2857142857143</ele><time>2026-04-26T08:24:22Z</time></trkpt><trkpt lat="40.762266264496546" lon="17.452848444280573"><ele>313.14285714285717</ele><time>2026-04-26T08:24:26Z</time></trkpt><trkpt lat="40.762205511450524" lon="17.452894826749414"><ele>317.0</ele><time>2026-04-26T08:24:28.999Z</time></trkpt><trkpt lat="40.762134949251454" lon="17.4529498371854"><ele>316.5</ele><time>2026-04-26T08:24:32.999Z</time></trkpt><trkpt lat="40.76206957282551" lon="17.45298319690814"><ele>316.0</ele><time>2026-04-26T08:24:35.999Z</time></trkpt><trkpt lat="40.76201830273186" lon="17.453039089671968"><ele>315.5</ele><time>2026-04-26T08:24:37.999Z</time></trkpt><trkpt lat="40.76194014450805" lon="17.453085249135054"><ele>315.0</ele><time>2026-04-26T08:24:41.999Z</time></trkpt><trkpt lat="40.761873471332095" lon="17.453098918606887"><ele>314.5</ele><time>2026-04-26T08:24:44.999Z</time></trkpt><trkpt lat="40.76178724282845" lon="17.45311774983406"><ele>314.0</ele><time>2026-04-26T08:24:48.999Z</time></trkpt><trkpt lat="40.761715402958686" lon="17.453174218991798"><ele>314.0</ele><time>2026-04-26T08:24:51.999Z</time></trkpt><trkpt lat="40.76164305797394" lon="17.453213270236365"><ele>314.0</ele><time>2026-04-26T08:24:54.999Z</time></trkpt><trkpt lat="40.76157686036888" lon="17.45324080820498"><ele>314.0</ele><time>2026-04-26T08:24:56.999Z</time></trkpt><trkpt lat="40.761496271730365" lon="17.45328725509168"><ele>314.0</ele><time>2026-04-26T08:24:59.999Z</time></trkpt><trkpt lat="40.761415341764355" lon="17.45331898107344"><ele>314.0</ele><time>2026-04-26T08:25:02.999Z</time></trkpt><trkpt lat="40.76135464460073" lon="17.453378996427606"><ele>314.0</ele><time>2026-04-26T08:25:04.999Z</time></trkpt><trkpt lat="40.761298749385055" lon="17.453440940419856"><ele>314.0</ele><time>2026-04-26T08:25:06.999Z</time></trkpt><trkpt lat="40.76120968174621" lon="17.453485322394478"><ele>314.0</ele><time>2026-04-26T08:25:09.999Z</time></trkpt><trkpt lat="40.7611284023432" lon="17.453518687774157"><ele>314.0</ele><time>2026-04-26T08:25:12.999Z</time></trkpt><trkpt lat="40.76105399640756" lon="17.453607436849573"><ele>314.0</ele><time>2026-04-26T08:25:15.999Z</time></trkpt><trkpt lat="40.76100876539845" lon="17.45366865862673"><ele>314.0</ele><time>2026-04-26T08:25:17.999Z</time></trkpt><trkpt lat="40.760925299854165" lon="17.453683542856073"><ele>314.0</ele><time>2026-04-26T08:25:20.999Z</time></trkpt><trkpt lat="40.76085478265813" lon="17.453738043907133"><ele>314.5</ele><time>2026-04-26T08:25:24.999Z</time></trkpt><trkpt lat="40.760798046144366" lon="17.4538044678069"><ele>315.0</ele><time>2026-04-26T08:25:28.999Z</time></trkpt><trkpt lat="40.760728476178976" lon="17.453779608591933"><ele>315.5</ele><time>2026-04-26T08:25:31.998Z</time></trkpt><trkpt lat="40.76064310795732" lon="17.453821398155544"><ele>316.0</ele><time>2026-04-26T08:25:35.998Z</time></trkpt><trkpt lat="40.76073189338019" lon="17.45383800075949"><ele>316.5</ele><time>2026-04-26T08:25:45Z</time></trkpt><trkpt lat="40.76078601816613" lon="17.453794102480998"><ele>317.0</ele><time>2026-04-26T08:25:47Z</time></trkpt><trkpt lat="40.760757597223794" lon="17.453701804114107"><ele>318.2857142857143</ele><time>2026-04-26T08:25:52Z</time></trkpt><trkpt lat="40.76071691722474" lon="17.4536302110472"><ele>319.57142857142856</ele><time>2026-04-26T08:25:54Z</time></trkpt><trkpt lat="40.76072978880377" lon="17.453534160462134"><ele>320.8571428571429</ele><time>2026-04-26T08:26:01Z</time></trkpt><trkpt lat="40.7607710263132" lon="17.45345547079437"><ele>322.1428571428571</ele><time>2026-04-26T08:26:04Z</time></trkpt><trkpt lat="40.760792321683205" lon="17.45336846366456"><ele>323.4285714285714</ele><time>2026-04-26T08:26:07Z</time></trkpt><trkpt lat="40.76081756759121" lon="17.45326391134472"><ele>324.7142857142857</ele><time>2026-04-26T08:26:10Z</time></trkpt><trkpt lat="40.76087512573229" lon="17.45319646115767"><ele>326.0</ele><time>2026-04-26T08:26:13Z</time></trkpt><trkpt lat="40.7609075443881" lon="17.453106237371337"><ele>326.0</ele><time>2026-04-26T08:26:18Z</time></trkpt><trkpt lat="40.7609493454805" lon="17.45301249156346"><ele>326.0</ele><time>2026-04-26T08:26:21Z</time></trkpt><trkpt lat="40.761011339142726" lon="17.452954282566807"><ele>326.0</ele><time>2026-04-26T08:26:27Z</time></trkpt><trkpt lat="40.76105908848655" lon="17.452898170007483"><ele>326.0</ele><time>2026-04-26T08:26:32.999Z</time></trkpt><trkpt lat="40.76110181758801" lon="17.452828386657977"><ele>326.0</ele><time>2026-04-26T08:26:46.999Z</time></trkpt><trkpt lat="40.761152741171934" lon="17.452767314054142"><ele>326.0</ele><time>2026-04-26T08:26:55.999Z</time></trkpt><trkpt lat="40.76123933559391" lon="17.452715120072938"><ele>326.1666666666667</ele><time>2026-04-26T08:27:03.999Z</time></trkpt><trkpt lat="40.761293298299904" lon="17.452667238085166"><ele>326.33333333333337</ele><time>2026-04-26T08:27:06.999Z</time></trkpt><trkpt lat="40.76135696143004" lon="17.452589045222417"><ele>326.5</ele><time>2026-04-26T08:27:11.999Z</time></trkpt><trkpt lat="40.76142444769842" lon="17.452545221689068"><ele>326.6666666666667</ele><time>2026-04-26T08:27:14.999Z</time></trkpt><trkpt lat="40.76149322497261" lon="17.452514587950773"><ele>326.8333333333333</ele><time>2026-04-26T08:27:18.999Z</time></trkpt><trkpt lat="40.76155653860295" lon="17.452499162181027"><ele>327.0</ele><time>2026-04-26T08:27:21.999Z</time></trkpt><trkpt lat="40.76172112413337" lon="17.452395508534014"><ele>327.0</ele><time>2026-04-26T08:27:29.999Z</time></trkpt><trkpt lat="40.761789105213374" lon="17.452364650160092"><ele>327.0</ele><time>2026-04-26T08:27:32.999Z</time></trkpt><trkpt lat="40.76186975452523" lon="17.452288560860442"><ele>327.0</ele><time>2026-04-26T08:27:36.998Z</time></trkpt><trkpt lat="40.761916490339694" lon="17.4522010200328"><ele>327.0</ele><time>2026-04-26T08:27:40.998Z</time></trkpt><trkpt lat="40.76198631256093" lon="17.452144490611612"><ele>327.0</ele><time>2026-04-26T08:27:44.998Z</time></trkpt><trkpt lat="40.7620488827484" lon="17.452083189087087"><ele>327.0</ele><time>2026-04-26T08:27:47.998Z</time></trkpt><trkpt lat="40.762110884339606" lon="17.452009343030362"><ele>327.3333333333333</ele><time>2026-04-26T08:27:52Z</time></trkpt><trkpt lat="40.76217070450431" lon="17.451957275569665"><ele>327.6666666666667</ele><time>2026-04-26T08:27:55Z</time></trkpt><trkpt lat="40.76223683542111" lon="17.45190095435283"><ele>328.0</ele><time>2026-04-26T08:27:58Z</time></trkpt><trkpt lat="40.76227676052721" lon="17.451820505111257"><ele>328.33333333333337</ele><time>2026-04-26T08:28:01Z</time></trkpt><trkpt lat="40.76235536494975" lon="17.451809319343564"><ele>328.6666666666667</ele><time>2026-04-26T08:28:04Z</time></trkpt><trkpt lat="40.76243021792277" lon="17.451757547347828"><ele>329.0</ele><time>2026-04-26T08:28:07Z</time></trkpt><trkpt lat="40.7624771111943" lon="17.451696642075355"><ele>329.0</ele><time>2026-04-26T08:28:09Z</time></trkpt><trkpt lat="40.762536295107246" lon="17.451649174713083"><ele>329.0</ele><time>2026-04-26T08:28:11Z</time></trkpt><trkpt lat="40.76258801407493" lon="17.451584467020137"><ele>329.0</ele><time>2026-04-26T08:28:15Z</time></trkpt><trkpt lat="40.76268858101286" lon="17.45152365057083"><ele>329.0</ele><time>2026-04-26T08:28:22Z</time></trkpt><trkpt lat="40.76276709508749" lon="17.45146411210802"><ele>329.0</ele><time>2026-04-26T08:28:27Z</time></trkpt><trkpt lat="40.762833369997146" lon="17.45142649963181"><ele>329.0</ele><time>2026-04-26T08:28:30.999Z</time></trkpt><trkpt lat="40.762907362155026" lon="17.45138968038153"><ele>327.42857142857144</ele><time>2026-04-26T08:28:33.999Z</time></trkpt><trkpt lat="40.7629176368229" lon="17.451302426895918"><ele>325.8571428571429</ele><time>2026-04-26T08:28:36.999Z</time></trkpt><trkpt lat="40.76293133766136" lon="17.451205625272472"><ele>324.2857142857143</ele><time>2026-04-26T08:28:40.999Z</time></trkpt><trkpt lat="40.762917106198906" lon="17.451103733077222"><ele>322.7142857142857</ele><time>2026-04-26T08:28:44.999Z</time></trkpt><trkpt lat="40.76286279299575" lon="17.45102671995813"><ele>321.14285714285717</ele><time>2026-04-26T08:28:48.999Z</time></trkpt><trkpt lat="40.762821633950516" lon="17.45093634581922"><ele>319.57142857142856</ele><time>2026-04-26T08:28:52.999Z</time></trkpt><trkpt lat="40.762789594552174" lon="17.450857682804266"><ele>318.0</ele><time>2026-04-26T08:28:55.999Z</time></trkpt><trkpt lat="40.762728248869685" lon="17.450802972105652"><ele>318.8333333333333</ele><time>2026-04-26T08:28:58.999Z</time></trkpt><trkpt lat="40.7626792802968" lon="17.450713795496004"><ele>319.6666666666667</ele><time>2026-04-26T08:29:01.999Z</time></trkpt><trkpt lat="40.76261002140255" lon="17.450617182870495"><ele>320.5</ele><time>2026-04-26T08:29:03.999Z</time></trkpt><trkpt lat="40.762567988336514" lon="17.450519651099732"><ele>321.33333333333337</ele><time>2026-04-26T08:29:05.999Z</time></trkpt><trkpt lat="40.76251610530235" lon="17.45042802287175"><ele>322.1666666666667</ele><time>2026-04-26T08:29:08.999Z</time></trkpt><trkpt lat="40.76247108515797" lon="17.450359373844897"><ele>323.0</ele><time>2026-04-26T08:29:10.999Z</time></trkpt><trkpt lat="40.762417661292815" lon="17.450311399692215"><ele>323.0</ele><time>2026-04-26T08:29:12.999Z</time></trkpt><trkpt lat="40.76237291531053" lon="17.450222038021437"><ele>323.0</ele><time>2026-04-26T08:29:15.999Z</time></trkpt><trkpt lat="40.7623624435028" lon="17.450131096729578"><ele>323.0</ele><time>2026-04-26T08:29:19.999Z</time></trkpt><trkpt lat="40.762346532403576" lon="17.450010055254317"><ele>323.0</ele><time>2026-04-26T08:29:24.999Z</time></trkpt><trkpt lat="40.76231298685224" lon="17.449927560285637"><ele>323.0</ele><time>2026-04-26T08:29:28.999Z</time></trkpt><trkpt lat="40.76235595782638" lon="17.449829097078595"><ele>323.0</ele><time>2026-04-26T08:29:31.999Z</time></trkpt><trkpt lat="40.76237794348698" lon="17.449721654571704"><ele>322.5</ele><time>2026-04-26T08:29:36.998Z</time></trkpt><trkpt lat="40.762388459586646" lon="17.449607214373643"><ele>322.0</ele><time>2026-04-26T08:29:40.998Z</time></trkpt><trkpt lat="40.76238075463687" lon="17.449511610738025"><ele>321.5</ele><time>2026-04-26T08:29:43.998Z</time></trkpt><trkpt lat="40.762372038711916" lon="17.449418085915404"><ele>321.0</ele><time>2026-04-26T08:29:46.998Z</time></trkpt><trkpt lat="40.76235772832377" lon="17.449332522334036"><ele>320.5</ele><time>2026-04-26T08:30:12Z</time></trkpt><trkpt lat="40.762368608122394" lon="17.44921108270263"><ele>320.0</ele><time>2026-04-26T08:30:15Z</time></trkpt><trkpt lat="40.7623918423424" lon="17.449115585827332"><ele>320.0</ele><time>2026-04-26T08:30:17Z</time></trkpt><trkpt lat="40.7624376408834" lon="17.44901468850925"><ele>320.0</ele><time>2026-04-26T08:30:20Z</time></trkpt><trkpt lat="40.76245205811439" lon="17.448922468053958"><ele>320.0</ele><time>2026-04-26T08:30:22Z</time></trkpt><trkpt lat="40.76248028831994" lon="17.448839901323176"><ele>320.0</ele><time>2026-04-26T08:30:24Z</time></trkpt><trkpt lat="40.7624576812093" lon="17.44875360969762"><ele>320.0</ele><time>2026-04-26T08:30:26Z</time></trkpt><trkpt lat="40.762408703242116" lon="17.448672955001314"><ele>320.0</ele><time>2026-04-26T08:30:29Z</time></trkpt><trkpt lat="40.76235883976548" lon="17.448617084777702"><ele>320.0</ele><time>2026-04-26T08:30:32Z</time></trkpt><trkpt lat="40.76233373214089" lon="17.4484919899614"><ele>321.1428571428571</ele><time>2026-04-26T08:30:36Z</time></trkpt><trkpt lat="40.76232466787571" lon="17.448406225476646"><ele>322.2857142857143</ele><time>2026-04-26T08:30:38.999Z</time></trkpt><trkpt lat="40.762313576225246" lon="17.44827975327207"><ele>323.42857142857144</ele><time>2026-04-26T08:30:42.999Z</time></trkpt><trkpt lat="40.762320252964656" lon="17.448184848048292"><ele>324.57142857142856</ele><time>2026-04-26T08:30:46.999Z</time></trkpt><trkpt lat="40.76233584604507" lon="17.448084626489077"><ele>325.7142857142857</ele><time>2026-04-26T08:30:50.999Z</time></trkpt><trkpt lat="40.76229782648499" lon="17.44800378048169"><ele>326.85714285714283</ele><time>2026-04-26T08:30:52.999Z</time></trkpt><trkpt lat="40.762278442271224" lon="17.447923561352507"><ele>328.0</ele><time>2026-04-26T08:30:54.999Z</time></trkpt><trkpt lat="40.76231100494823" lon="17.447822524879093"><ele>328.66666666666663</ele><time>2026-04-26T08:30:56.999Z</time></trkpt><trkpt lat="40.76233344126567" lon="17.44770759762577"><ele>329.3333333333333</ele><time>2026-04-26T08:30:58.999Z</time></trkpt><trkpt lat="40.76236803722758" lon="17.44762330936929"><ele>330.0</ele><time>2026-04-26T08:31:02.999Z</time></trkpt><trkpt lat="40.762366334288565" lon="17.44751955360198"><ele>330.6666666666667</ele><time>2026-04-26T08:31:03.999Z</time></trkpt><trkpt lat="40.76236998594205" lon="17.447426112337634"><ele>331.33333333333337</ele><time>2026-04-26T08:31:04.999Z</time></trkpt><trkpt lat="40.76235284316275" lon="17.44727088262729"><ele>332.0</ele><time>2026-04-26T08:31:06.999Z</time></trkpt><trkpt lat="40.76235265176476" lon="17.44714742283213"><ele>333.1666666666667</ele><time>2026-04-26T08:31:08.999Z</time></trkpt><trkpt lat="40.7623431783257" lon="17.447010790667132"><ele>334.33333333333337</ele><time>2026-04-26T08:31:10.999Z</time></trkpt><trkpt lat="40.762361268099596" lon="17.446881668404615"><ele>335.5</ele><time>2026-04-26T08:31:12.999Z</time></trkpt><trkpt lat="40.762385700908816" lon="17.446780541521605"><ele>336.6666666666667</ele><time>2026-04-26T08:31:14.999Z</time></trkpt><trkpt lat="40.76238458547123" lon="17.446682930073205"><ele>337.8333333333333</ele><time>2026-04-26T08:31:17.999Z</time></trkpt><trkpt lat="40.76237849191176" lon="17.44659901340843"><ele>339.0</ele><time>2026-04-26T08:31:20.999Z</time></trkpt><trkpt lat="40.76243696344663" lon="17.44652439055008"><ele>339.0</ele><time>2026-04-26T08:31:23.999Z</time></trkpt><trkpt lat="40.76247618535673" lon="17.446458434112838"><ele>339.0</ele><time>2026-04-26T08:31:26.999Z</time></trkpt><trkpt lat="40.76254899856884" lon="17.446381416136074"><ele>339.0</ele><time>2026-04-26T08:31:30.999Z</time></trkpt><trkpt lat="40.76258723191225" lon="17.44630918302467"><ele>339.0</ele><time>2026-04-26T08:31:33.999Z</time></trkpt><trkpt lat="40.762618657164175" lon="17.446178506469135"><ele>339.0</ele><time>2026-04-26T08:31:36.999Z</time></trkpt><trkpt lat="40.762631475005996" lon="17.44609545539315"><ele>339.0</ele><time>2026-04-26T08:31:38.999Z</time></trkpt><trkpt lat="40.76267872482282" lon="17.4459863682187"><ele>339.8333333333333</ele><time>2026-04-26T08:31:41.999Z</time></trkpt><trkpt lat="40.76268860732997" lon="17.445894999712376"><ele>340.6666666666667</ele><time>2026-04-26T08:31:43.998Z</time></trkpt><trkpt lat="40.7627816415039" lon="17.445825117048866"><ele>341.5</ele><time>2026-04-26T08:31:46.998Z</time></trkpt><trkpt lat="40.76278674239101" lon="17.445737083592316"><ele>342.33333333333337</ele><time>2026-04-26T08:31:48.998Z</time></trkpt><trkpt lat="40.76282834111783" lon="17.445629413142147"><ele>343.1666666666667</ele><time>2026-04-26T08:31:50.998Z</time></trkpt><trkpt lat="40.76289936292319" lon="17.44555044278795"><ele>344.0</ele><time>2026-04-26T08:31:52.998Z</time></trkpt><trkpt lat="40.76295024454925" lon="17.445446024942495"><ele>344.0</ele><time>2026-04-26T08:31:56.998Z</time></trkpt><trkpt lat="40.762993970419394" lon="17.4453758176077"><ele>344.0</ele><time>2026-04-26T08:31:59.998Z</time></trkpt><trkpt lat="40.76304701532171" lon="17.44530961067725"><ele>344.0</ele><time>2026-04-26T08:32:03Z</time></trkpt><trkpt lat="40.76312957910351" lon="17.44522589801498"><ele>344.0</ele><time>2026-04-26T08:32:06Z</time></trkpt><trkpt lat="40.763157614662006" lon="17.44511387679873"><ele>344.0</ele><time>2026-04-26T08:32:09Z</time></trkpt><trkpt lat="40.76317980667321" lon="17.444990172150426"><ele>344.0</ele><time>2026-04-26T08:32:11Z</time></trkpt><trkpt lat="40.76322572770335" lon="17.44488086603968"><ele>344.0</ele><time>2026-04-26T08:32:13Z</time></trkpt><trkpt lat="40.76325631584461" lon="17.444782406128084"><ele>344.0</ele><time>2026-04-26T08:32:15Z</time></trkpt><trkpt lat="40.76327881058386" lon="17.44467009516509"><ele>344.0</ele><time>2026-04-26T08:32:18Z</time></trkpt><trkpt lat="40.76330146127559" lon="17.444543238033212"><ele>344.0</ele><time>2026-04-26T08:32:21Z</time></trkpt><trkpt lat="40.763346492135035" lon="17.444443098716846"><ele>344.0</ele><time>2026-04-26T08:32:24Z</time></trkpt><trkpt lat="40.76337836418967" lon="17.444327861921842"><ele>344.0</ele><time>2026-04-26T08:32:26Z</time></trkpt><trkpt lat="40.76334621548448" lon="17.444245798899605"><ele>344.5</ele><time>2026-04-26T08:32:29Z</time></trkpt><trkpt lat="40.763326035132025" lon="17.444158552139257"><ele>345.0</ele><time>2026-04-26T08:32:32Z</time></trkpt><trkpt lat="40.76340880987874" lon="17.44411710708249"><ele>345.5</ele><time>2026-04-26T08:32:36Z</time></trkpt><trkpt lat="40.76343229646169" lon="17.44402967918127"><ele>346.0</ele><time>2026-04-26T08:32:39Z</time></trkpt><trkpt lat="40.76348795852238" lon="17.443963695182568"><ele>346.5</ele><time>2026-04-26T08:32:42.999Z</time></trkpt><trkpt lat="40.76351912729138" lon="17.443870875464636"><ele>347.0</ele><time>2026-04-26T08:32:44.999Z</time></trkpt><trkpt lat="40.76356341225955" lon="17.44379023691648"><ele>345.1666666666667</ele><time>2026-04-26T08:32:47.999Z</time></trkpt><trkpt lat="40.76360443538477" lon="17.443684466717116"><ele>343.33333333333337</ele><time>2026-04-26T08:32:50.999Z</time></trkpt><trkpt lat="40.76361182020585" lon="17.443593575394335"><ele>341.5</ele><time>2026-04-26T08:32:53.999Z</time></trkpt><trkpt lat="40.76362142180642" lon="17.443493084212072"><ele>339.6666666666667</ele><time>2026-04-26T08:32:57.999Z</time></trkpt><trkpt lat="40.763686804331364" lon="17.443398072782966"><ele>337.8333333333333</ele><time>2026-04-26T08:33:00.999Z</time></trkpt><trkpt lat="40.76366204624482" lon="17.443303890483673"><ele>336.0</ele><time>2026-04-26T08:33:03.999Z</time></trkpt><trkpt lat="40.76365738881262" lon="17.443176525979446"><ele>336.0</ele><time>2026-04-26T08:33:06.999Z</time></trkpt><trkpt lat="40.763668165997935" lon="17.443059074771945"><ele>336.0</ele><time>2026-04-26T08:33:08.999Z</time></trkpt><trkpt lat="40.76368025786231" lon="17.442958369273303"><ele>336.0</ele><time>2026-04-26T08:33:10.999Z</time></trkpt><trkpt lat="40.763695086928756" lon="17.442854548281726"><ele>336.0</ele><time>2026-04-26T08:33:13.999Z</time></trkpt><trkpt lat="40.76372714811659" lon="17.44274697034914"><ele>336.0</ele><time>2026-04-26T08:33:16.999Z</time></trkpt><trkpt lat="40.763784169959514" lon="17.4426927597081"><ele>336.0</ele><time>2026-04-26T08:33:18.999Z</time></trkpt><trkpt lat="40.76381251547599" lon="17.44261652317976"><ele>336.5</ele><time>2026-04-26T08:33:21.999Z</time></trkpt><trkpt lat="40.763835769541664" lon="17.442519507161208"><ele>337.0</ele><time>2026-04-26T08:33:24.999Z</time></trkpt><trkpt lat="40.763873993825065" lon="17.442432961798257"><ele>337.5</ele><time>2026-04-26T08:33:27.999Z</time></trkpt><trkpt lat="40.76392544253891" lon="17.44233719321215"><ele>338.0</ele><time>2026-04-26T08:33:30.999Z</time></trkpt><trkpt lat="40.76395450513544" lon="17.442229378454954"><ele>338.5</ele><time>2026-04-26T08:33:33.999Z</time></trkpt><trkpt lat="40.76397742288969" lon="17.44213337243868"><ele>339.0</ele><time>2026-04-26T08:33:36.999Z</time></trkpt><trkpt lat="40.76400548753736" lon="17.442044293519583"><ele>339.1666666666667</ele><time>2026-04-26T08:33:39.999Z</time></trkpt><trkpt lat="40.764051757504596" lon="17.441967770200357"><ele>339.3333333333333</ele><time>2026-04-26T08:33:42.999Z</time></trkpt><trkpt lat="40.764126802989644" lon="17.44191920182455"><ele>339.5</ele><time>2026-04-26T08:33:45.999Z</time></trkpt><trkpt lat="40.76415617436769" lon="17.441813405240936"><ele>339.66666666666663</ele><time>2026-04-26T08:33:48.999Z</time></trkpt><trkpt lat="40.76420087012974" lon="17.441723485216688"><ele>339.8333333333333</ele><time>2026-04-26T08:33:51.998Z</time></trkpt><trkpt lat="40.764257302083486" lon="17.441600950740966"><ele>340.0</ele><time>2026-04-26T08:33:54.998Z</time></trkpt><trkpt lat="40.764332966438026" lon="17.44151882709091"><ele>340.0</ele><time>2026-04-26T08:33:57.998Z</time></trkpt><trkpt lat="40.76435035818344" lon="17.441435892467663"><ele>340.0</ele><time>2026-04-26T08:33:59.998Z</time></trkpt><trkpt lat="40.76440892580964" lon="17.44139573815874"><ele>340.0</ele><time>2026-04-26T08:34:02.998Z</time></trkpt><trkpt lat="40.7644431023536" lon="17.441307870785955"><ele>340.0</ele><time>2026-04-26T08:34:05.998Z</time></trkpt><trkpt lat="40.764491401996004" lon="17.441236146961"><ele>340.0</ele><time>2026-04-26T08:34:07.998Z</time></trkpt><trkpt lat="40.76452342148557" lon="17.441163233158214"><ele>340.0</ele><time>2026-04-26T08:34:11Z</time></trkpt><trkpt lat="40.76458017734533" lon="17.441076259425454"><ele>340.0</ele><time>2026-04-26T08:34:15Z</time></trkpt><trkpt lat="40.76463154095327" lon="17.44102566878865"><ele>337.5</ele><time>2026-04-26T08:34:18Z</time></trkpt><trkpt lat="40.76462175943187" lon="17.44093747607609"><ele>335.0</ele><time>2026-04-26T08:34:20Z</time></trkpt><trkpt lat="40.76457180467559" lon="17.440828003033335"><ele>332.5</ele><time>2026-04-26T08:34:24Z</time></trkpt><trkpt lat="40.764547423271196" lon="17.440750378956146"><ele>330.0</ele><time>2026-04-26T08:34:29Z</time></trkpt><trkpt lat="40.764523643520654" lon="17.440644754575867"><ele>327.5</ele><time>2026-04-26T08:34:37Z</time></trkpt><trkpt lat="40.76449779669175" lon="17.44055854359841"><ele>325.0</ele><time>2026-04-26T08:34:41Z</time></trkpt><trkpt lat="40.764486253588615" lon="17.440420417776284"><ele>325.0</ele><time>2026-04-26T08:34:45Z</time></trkpt><trkpt lat="40.7644432416764" lon="17.44033398679373"><ele>325.0</ele><time>2026-04-26T08:34:48Z</time></trkpt><trkpt lat="40.7644305956193" lon="17.440237611633243"><ele>325.0</ele><time>2026-04-26T08:34:50.999Z</time></trkpt><trkpt lat="40.7643773144271" lon="17.44013197135324"><ele>325.0</ele><time>2026-04-26T08:34:53.999Z</time></trkpt><trkpt lat="40.76433653057394" lon="17.440028286018073"><ele>325.0</ele><time>2026-04-26T08:34:57.999Z</time></trkpt><trkpt lat="40.76431088478111" lon="17.43994597898999"><ele>325.0</ele><time>2026-04-26T08:35:00.999Z</time></trkpt><trkpt lat="40.76426051525107" lon="17.439849007006888"><ele>325.0</ele><time>2026-04-26T08:35:04.999Z</time></trkpt><trkpt lat="40.76419984270858" lon="17.439770150598505"><ele>325.0</ele><time>2026-04-26T08:35:06.999Z</time></trkpt><trkpt lat="40.76414530691325" lon="17.439725959571142"><ele>325.0</ele><time>2026-04-26T08:35:09.999Z</time></trkpt><trkpt lat="40.764078081423314" lon="17.439671042860148"><ele>325.0</ele><time>2026-04-26T08:35:13.999Z</time></trkpt><trkpt lat="40.76403819948761" lon="17.439738061253596"><ele>325.0</ele><time>2026-04-26T08:35:23.999Z</time></trkpt><trkpt lat="40.76416564015298" lon="17.439732035634083"><ele>325.0</ele><time>2026-04-26T08:36:08.998Z</time></trkpt><trkpt lat="40.764105449002635" lon="17.439686804034952"><ele>325.0</ele><time>2026-04-26T08:36:57Z</time></trkpt><trkpt lat="40.764052284030555" lon="17.439740715824534"><ele>325.0</ele><time>2026-04-26T08:37:04.999Z</time></trkpt><trkpt lat="40.763953658775684" lon="17.43975505265038"><ele>325.0</ele><time>2026-04-26T08:38:19.998Z</time></trkpt><trkpt lat="40.76384858307468" lon="17.43982916956775"><ele>325.0</ele><time>2026-04-26T08:38:22Z</time></trkpt><trkpt lat="40.76375912024408" lon="17.439919097561873"><ele>325.0</ele><time>2026-04-26T08:38:24Z</time></trkpt><trkpt lat="40.763705705033686" lon="17.439975508045443"><ele>325.0</ele><time>2026-04-26T08:38:26Z</time></trkpt><trkpt lat="40.7636462369073" lon="17.440043664275912"><ele>325.0</ele><time>2026-04-26T08:38:28Z</time></trkpt><trkpt lat="40.76361921454724" lon="17.44013881122756"><ele>325.0</ele><time>2026-04-26T08:38:30Z</time></trkpt><trkpt lat="40.76356285950902" lon="17.440198117644865"><ele>325.0</ele><time>2026-04-26T08:38:33Z</time></trkpt><trkpt lat="40.76345656306665" lon="17.440205399089233"><ele>325.0</ele><time>2026-04-26T08:38:36Z</time></trkpt><trkpt lat="40.763351431673264" lon="17.44019056335077"><ele>325.0</ele><time>2026-04-26T08:38:38Z</time></trkpt><trkpt lat="40.763251566935914" lon="17.44020158277019"><ele>324.16666666666663</ele><time>2026-04-26T08:38:40Z</time></trkpt><trkpt lat="40.76318718506434" lon="17.44018049300051"><ele>323.3333333333333</ele><time>2026-04-26T08:38:41Z</time></trkpt><trkpt lat="40.76319795166433" lon="17.44009652814559"><ele>322.5</ele><time>2026-04-26T08:38:43Z</time></trkpt><trkpt lat="40.76325591453052" lon="17.440029256571044"><ele>321.6666666666667</ele><time>2026-04-26T08:38:45Z</time></trkpt><trkpt lat="40.76329433467893" lon="17.439934401113767"><ele>320.83333333333337</ele><time>2026-04-26T08:38:47Z</time></trkpt><trkpt lat="40.763326930920336" lon="17.439822147246637"><ele>320.0</ele><time>2026-04-26T08:38:49Z</time></trkpt><trkpt lat="40.763365726426066" lon="17.439707588372688"><ele>319.6</ele><time>2026-04-26T08:38:51Z</time></trkpt><trkpt lat="40.76340949871546" lon="17.43957852674944"><ele>319.2</ele><time>2026-04-26T08:38:53Z</time></trkpt><trkpt lat="40.76344954390044" lon="17.439450395579264"><ele>318.8</ele><time>2026-04-26T08:38:55Z</time></trkpt><trkpt lat="40.76349364317689" lon="17.439311325507415"><ele>318.4</ele><time>2026-04-26T08:38:57Z</time></trkpt><trkpt lat="40.76353752523495" lon="17.439173946394426"><ele>318.0</ele><time>2026-04-26T08:38:59Z</time></trkpt><trkpt lat="40.76356879933704" lon="17.439035013587173"><ele>318.0</ele><time>2026-04-26T08:39:01Z</time></trkpt><trkpt lat="40.76362007164666" lon="17.438904565643192"><ele>318.0</ele><time>2026-04-26T08:39:03Z</time></trkpt><trkpt lat="40.7636591101657" lon="17.438775477026542"><ele>318.0</ele><time>2026-04-26T08:39:05Z</time></trkpt><trkpt lat="40.763699020628245" lon="17.438649783878894"><ele>318.0</ele><time>2026-04-26T08:39:07Z</time></trkpt><trkpt lat="40.76373607052559" lon="17.438540682556354"><ele>318.0</ele><time>2026-04-26T08:39:09Z</time></trkpt><trkpt lat="40.76376851838005" lon="17.438419862700897"><ele>318.6666666666667</ele><time>2026-04-26T08:39:12Z</time></trkpt><trkpt lat="40.76379878695764" lon="17.43833625983656"><ele>319.3333333333333</ele><time>2026-04-26T08:39:14Z</time></trkpt><trkpt lat="40.76382204590835" lon="17.438258587808544"><ele>320.0</ele><time>2026-04-26T08:39:16Z</time></trkpt><trkpt lat="40.76384019357586" lon="17.438134713408488"><ele>320.66666666666663</ele><time>2026-04-26T08:39:18.999Z</time></trkpt><trkpt lat="40.7638641404099" lon="17.438007907343355"><ele>321.3333333333333</ele><time>2026-04-26T08:39:21.999Z</time></trkpt><trkpt lat="40.76386342011156" lon="17.437875974316036"><ele>322.0</ele><time>2026-04-26T08:39:24.999Z</time></trkpt><trkpt lat="40.76386095161307" lon="17.437745397296894"><ele>322.2857142857143</ele><time>2026-04-26T08:39:27.999Z</time></trkpt><trkpt lat="40.76385077580676" lon="17.437650770229546"><ele>322.57142857142856</ele><time>2026-04-26T08:39:29.999Z</time></trkpt><trkpt lat="40.76382576932437" lon="17.437563776063786"><ele>322.8571428571429</ele><time>2026-04-26T08:39:31.999Z</time></trkpt><trkpt lat="40.763804913959675" lon="17.437467325230582"><ele>323.1428571428571</ele><time>2026-04-26T08:39:33.999Z</time></trkpt><trkpt lat="40.76378167256934" lon="17.437379031155892"><ele>323.42857142857144</ele><time>2026-04-26T08:39:35.999Z</time></trkpt><trkpt lat="40.76375679916737" lon="17.437282262502706"><ele>323.7142857142857</ele><time>2026-04-26T08:39:37.999Z</time></trkpt><trkpt lat="40.76372237255098" lon="17.43720326618335"><ele>324.0</ele><time>2026-04-26T08:39:39.999Z</time></trkpt><trkpt lat="40.763673514222766" lon="17.437095492482037"><ele>324.0</ele><time>2026-04-26T08:39:42.999Z</time></trkpt><trkpt lat="40.76363091524337" lon="17.437015329498603"><ele>324.0</ele><time>2026-04-26T08:39:44.999Z</time></trkpt><trkpt lat="40.76357975753758" lon="17.43692412741183"><ele>324.0</ele><time>2026-04-26T08:39:46.999Z</time></trkpt><trkpt lat="40.763516463340046" lon="17.436854861382585"><ele>324.0</ele><time>2026-04-26T08:39:48.999Z</time></trkpt><trkpt lat="40.7634546433457" lon="17.436775078832742"><ele>324.0</ele><time>2026-04-26T08:39:50.999Z</time></trkpt><trkpt lat="40.763397760381366" lon="17.43670071498403"><ele>324.0</ele><time>2026-04-26T08:39:52.999Z</time></trkpt><trkpt lat="40.763328267803956" lon="17.436635647391704"><ele>326.0</ele><time>2026-04-26T08:39:54.999Z</time></trkpt><trkpt lat="40.76326459503685" lon="17.43655782378663"><ele>328.0</ele><time>2026-04-26T08:39:56.999Z</time></trkpt><trkpt lat="40.763200155609525" lon="17.436463955111112"><ele>330.0</ele><time>2026-04-26T08:39:58.999Z</time></trkpt><trkpt lat="40.76314542177145" lon="17.436371546451497"><ele>332.0</ele><time>2026-04-26T08:40:00.999Z</time></trkpt><trkpt lat="40.76309409266684" lon="17.436261873407727"><ele>334.0</ele><time>2026-04-26T08:40:02.999Z</time></trkpt><trkpt lat="40.76303132483724" lon="17.436163777258233"><ele>334.0</ele><time>2026-04-26T08:40:04.999Z</time></trkpt><trkpt lat="40.76297413509226" lon="17.43605864356644"><ele>334.0</ele><time>2026-04-26T08:40:06.999Z</time></trkpt><trkpt lat="40.76293071004069" lon="17.435953868651662"><ele>334.0</ele><time>2026-04-26T08:40:08.999Z</time></trkpt><trkpt lat="40.762886391311355" lon="17.435836457580994"><ele>334.0</ele><time>2026-04-26T08:40:10.999Z</time></trkpt><trkpt lat="40.762848667473364" lon="17.435702673830935"><ele>334.0</ele><time>2026-04-26T08:40:12.999Z</time></trkpt><trkpt lat="40.76282784468137" lon="17.43556033151677"><ele>333.25</ele><time>2026-04-26T08:40:14.999Z</time></trkpt><trkpt lat="40.76278678930263" lon="17.4354185283611"><ele>332.5</ele><time>2026-04-26T08:40:16.999Z</time></trkpt><trkpt lat="40.762762733856185" lon="17.43527322262644"><ele>331.75</ele><time>2026-04-26T08:40:18.999Z</time></trkpt><trkpt lat="40.76274616901073" lon="17.43511523949201"><ele>331.0</ele><time>2026-04-26T08:40:20.999Z</time></trkpt><trkpt lat="40.762718251575784" lon="17.434970432772914"><ele>332.8</ele><time>2026-04-26T08:40:22.999Z</time></trkpt><trkpt lat="40.76268631169137" lon="17.43482896111839"><ele>334.6</ele><time>2026-04-26T08:40:24.998Z</time></trkpt><trkpt lat="40.762672994345564" lon="17.434724655403226"><ele>336.4</ele><time>2026-04-26T08:40:25.998Z</time></trkpt><trkpt lat="40.76262250906461" lon="17.43460966373221"><ele>338.2</ele><time>2026-04-26T08:40:28Z</time></trkpt><trkpt lat="40.76256624857344" lon="17.43448222940487"><ele>340.0</ele><time>2026-04-26T08:40:30Z</time></trkpt><trkpt lat="40.762502021964025" lon="17.434366123300485"><ele>340.3333333333333</ele><time>2026-04-26T08:40:32Z</time></trkpt><trkpt lat="40.762438584800066" lon="17.434262741285792"><ele>340.66666666666663</ele><time>2026-04-26T08:40:34Z</time></trkpt><trkpt lat="40.762379277347264" lon="17.434174395333017"><ele>341.0</ele><time>2026-04-26T08:40:36Z</time></trkpt><trkpt lat="40.76233834177046" lon="17.434105226813514"><ele>341.3333333333333</ele><time>2026-04-26T08:40:38Z</time></trkpt><trkpt lat="40.76228803218131" lon="17.43404545094616"><ele>341.6666666666667</ele><time>2026-04-26T08:40:43Z</time></trkpt><trkpt lat="40.76231118714609" lon="17.43416511801505"><ele>342.0</ele><time>2026-04-26T08:40:51Z</time></trkpt><trkpt lat="40.76240890949576" lon="17.434221884442334"><ele>342.0</ele><time>2026-04-26T08:40:53Z</time></trkpt><trkpt lat="40.76250585520569" lon="17.434298679362275"><ele>342.0</ele><time>2026-04-26T08:40:55Z</time></trkpt><trkpt lat="40.76261266184737" lon="17.434380002617882"><ele>342.0</ele><time>2026-04-26T08:40:57Z</time></trkpt><trkpt lat="40.762675161788536" lon="17.43449970395086"><ele>342.0</ele><time>2026-04-26T08:40:59Z</time></trkpt><trkpt lat="40.762762768229614" lon="17.434548404105893"><ele>342.0</ele><time>2026-04-26T08:41:01Z</time></trkpt><trkpt lat="40.76278564671369" lon="17.43466024098508"><ele>339.25</ele><time>2026-04-26T08:41:06Z</time></trkpt><trkpt lat="40.76282974021396" lon="17.43481261059648"><ele>336.5</ele><time>2026-04-26T08:41:08Z</time></trkpt><trkpt lat="40.76285497822254" lon="17.434960609466753"><ele>333.75</ele><time>2026-04-26T08:41:10Z</time></trkpt><trkpt lat="40.762935515175634" lon="17.43508726851339"><ele>331.0</ele><time>2026-04-26T08:41:12Z</time></trkpt><trkpt lat="40.76302325729603" lon="17.435183026349744"><ele>331.0</ele><time>2026-04-26T08:41:14Z</time></trkpt><trkpt lat="40.763110970643886" lon="17.435268573701126"><ele>331.0</ele><time>2026-04-26T08:41:15.999Z</time></trkpt><trkpt lat="40.7631665523535" lon="17.43532892642458"><ele>331.0</ele><time>2026-04-26T08:41:17.999Z</time></trkpt><trkpt lat="40.7631954130418" lon="17.435418057389093"><ele>331.0</ele><time>2026-04-26T08:41:20.999Z</time></trkpt><trkpt lat="40.76325089318897" lon="17.43550721675155"><ele>331.0</ele><time>2026-04-26T08:41:22.999Z</time></trkpt><trkpt lat="40.76330736255602" lon="17.43559877679506"><ele>331.0</ele><time>2026-04-26T08:41:24.999Z</time></trkpt><trkpt lat="40.76328982581215" lon="17.435690292767912"><ele>331.6</ele><time>2026-04-26T08:41:25.999Z</time></trkpt><trkpt lat="40.763349264223336" lon="17.435721779866522"><ele>332.20000000000005</ele><time>2026-04-26T08:41:26.999Z</time></trkpt><trkpt lat="40.76342239791554" lon="17.4358258752965"><ele>332.79999999999995</ele><time>2026-04-26T08:41:28.999Z</time></trkpt><trkpt lat="40.76351784925981" lon="17.43592784051352"><ele>333.4</ele><time>2026-04-26T08:41:30.999Z</time></trkpt><trkpt lat="40.763572658160214" lon="17.43602655359142"><ele>334.0</ele><time>2026-04-26T08:41:32.999Z</time></trkpt><trkpt lat="40.76367591955111" lon="17.436098538672265"><ele>330.66666666666663</ele><time>2026-04-26T08:41:35.999Z</time></trkpt><trkpt lat="40.76383790778275" lon="17.43634480133922"><ele>327.3333333333333</ele><time>2026-04-26T08:41:41.999Z</time></trkpt><trkpt lat="40.76394664410999" lon="17.43644241069391"><ele>324.0</ele><time>2026-04-26T08:41:43.999Z</time></trkpt><trkpt lat="40.764027640949124" lon="17.43653032546978"><ele>324.0</ele><time>2026-04-26T08:41:45.999Z</time></trkpt><trkpt lat="40.76410453682513" lon="17.436535140807415"><ele>324.0</ele><time>2026-04-26T08:41:47.999Z</time></trkpt><trkpt lat="40.76415664169822" lon="17.436619084559464"><ele>324.0</ele><time>2026-04-26T08:41:54.999Z</time></trkpt><trkpt lat="40.764204121207364" lon="17.436697602588918"><ele>324.0</ele><time>2026-04-26T08:41:56.999Z</time></trkpt><trkpt lat="40.76425202821353" lon="17.436806940996384"><ele>324.0</ele><time>2026-04-26T08:41:58.999Z</time></trkpt><trkpt lat="40.76429173129673" lon="17.436922378959256"><ele>324.0</ele><time>2026-04-26T08:42:00.999Z</time></trkpt><trkpt lat="40.76434842624875" lon="17.43702713734545"><ele>321.5</ele><time>2026-04-26T08:42:02.999Z</time></trkpt><trkpt lat="40.76440788330191" lon="17.437113652186692"><ele>319.0</ele><time>2026-04-26T08:42:04.999Z</time></trkpt><trkpt lat="40.7644333117951" lon="17.43721653166334"><ele>316.5</ele><time>2026-04-26T08:42:09.999Z</time></trkpt><trkpt lat="40.76451109509383" lon="17.437261383520365"><ele>314.0</ele><time>2026-04-26T08:42:11.999Z</time></trkpt><trkpt lat="40.76454948544656" lon="17.437346447621362"><ele>311.5</ele><time>2026-04-26T08:42:13.999Z</time></trkpt><trkpt lat="40.76451448741872" lon="17.437448912214602"><ele>309.0</ele><time>2026-04-26T08:42:15.999Z</time></trkpt><trkpt lat="40.76444734832602" lon="17.437530355480593"><ele>309.0</ele><time>2026-04-26T08:42:17.999Z</time></trkpt><trkpt lat="40.76444710010921" lon="17.437656905716356"><ele>309.0</ele><time>2026-04-26T08:42:20.998Z</time></trkpt><trkpt lat="40.76448491711669" lon="17.437756908172062"><ele>309.0</ele><time>2026-04-26T08:42:22.998Z</time></trkpt><trkpt lat="40.76452400886588" lon="17.43788084780363"><ele>309.0</ele><time>2026-04-26T08:42:26.998Z</time></trkpt><trkpt lat="40.76446868201536" lon="17.437937872336782"><ele>309.0</ele><time>2026-04-26T08:42:27.998Z</time></trkpt><trkpt lat="40.764472181081125" lon="17.438022866149254"><ele>309.0</ele><time>2026-04-26T08:42:29.998Z</time></trkpt><trkpt lat="40.7644898457634" lon="17.438134483955963"><ele>308.3333333333333</ele><time>2026-04-26T08:42:33Z</time></trkpt><trkpt lat="40.76449478466114" lon="17.43822714930418"><ele>307.6666666666667</ele><time>2026-04-26T08:42:37Z</time></trkpt><trkpt lat="40.76442489756329" lon="17.4383221343729"><ele>307.0</ele><time>2026-04-26T08:42:40Z</time></trkpt><trkpt lat="40.76439431602193" lon="17.43840500163652"><ele>306.33333333333337</ele><time>2026-04-26T08:42:42Z</time></trkpt><trkpt lat="40.764487034423865" lon="17.438472508400945"><ele>305.6666666666667</ele><time>2026-04-26T08:42:45Z</time></trkpt><trkpt lat="40.76451305110041" lon="17.438567134819756"><ele>305.0</ele><time>2026-04-26T08:42:48Z</time></trkpt><trkpt lat="40.76448522565615" lon="17.43867070117152"><ele>305.0</ele><time>2026-04-26T08:42:52Z</time></trkpt><trkpt lat="40.76452968641789" lon="17.43877310783492"><ele>305.0</ele><time>2026-04-26T08:42:55Z</time></trkpt><trkpt lat="40.76453412134158" lon="17.43889083921516"><ele>305.0</ele><time>2026-04-26T08:42:58Z</time></trkpt><trkpt lat="40.76455193827462" lon="17.439015407936683"><ele>305.0</ele><time>2026-04-26T08:43:01Z</time></trkpt><trkpt lat="40.76457478229595" lon="17.439128046433268"><ele>305.0</ele><time>2026-04-26T08:43:04Z</time></trkpt><trkpt lat="40.76461948303895" lon="17.43923150543108"><ele>304.33333333333337</ele><time>2026-04-26T08:43:07Z</time></trkpt><trkpt lat="40.764664523640164" lon="17.43931734733548"><ele>303.6666666666667</ele><time>2026-04-26T08:43:10Z</time></trkpt><trkpt lat="40.76469516797697" lon="17.43940410837201"><ele>303.0</ele><time>2026-04-26T08:43:14Z</time></trkpt><trkpt lat="40.76471332094693" lon="17.43950661928169"><ele>302.3333333333333</ele><time>2026-04-26T08:43:16.999Z</time></trkpt><trkpt lat="40.76475023185627" lon="17.439603977546305"><ele>301.66666666666663</ele><time>2026-04-26T08:43:18.999Z</time></trkpt><trkpt lat="40.76482710127372" lon="17.439674043513918"><ele>301.0</ele><time>2026-04-26T08:43:20.999Z</time></trkpt><trkpt lat="40.764873588106944" lon="17.439756496734898"><ele>303.40000000000003</ele><time>2026-04-26T08:43:23.999Z</time></trkpt><trkpt lat="40.764872289636706" lon="17.439851423553257"><ele>305.8</ele><time>2026-04-26T08:43:26.999Z</time></trkpt><trkpt lat="40.76488076088278" lon="17.43993554466435"><ele>308.20000000000005</ele><time>2026-04-26T08:43:30.999Z</time></trkpt><trkpt lat="40.76500211778169" lon="17.440000107393644"><ele>310.6</ele><time>2026-04-26T08:44:27.998Z</time></trkpt><trkpt lat="40.765049277067845" lon="17.440098597825397"><ele>313.0</ele><time>2026-04-26T08:44:29.998Z</time></trkpt><trkpt lat="40.76511639196074" lon="17.440202194211512"><ele>313.0</ele><time>2026-04-26T08:44:31.998Z</time></trkpt><trkpt lat="40.76515101656988" lon="17.440316344500012"><ele>313.0</ele><time>2026-04-26T08:44:33.998Z</time></trkpt><trkpt lat="40.76519333276531" lon="17.440432783823763"><ele>313.0</ele><time>2026-04-26T08:44:35.998Z</time></trkpt><trkpt lat="40.76521290697656" lon="17.44055050517427"><ele>313.0</ele><time>2026-04-26T08:44:37.998Z</time></trkpt><trkpt lat="40.76523939117805" lon="17.440650513758946"><ele>313.0</ele><time>2026-04-26T08:44:40Z</time></trkpt><trkpt lat="40.76526056162873" lon="17.44074346470831"><ele>313.0</ele><time>2026-04-26T08:44:42Z</time></trkpt><trkpt lat="40.765293166938896" lon="17.44084052483446"><ele>309.8</ele><time>2026-04-26T08:44:44Z</time></trkpt><trkpt lat="40.76530031996591" lon="17.44095695938651"><ele>306.6</ele><time>2026-04-26T08:44:46Z</time></trkpt><trkpt lat="40.76536202092929" lon="17.441043385876792"><ele>303.4</ele><time>2026-04-26T08:44:51Z</time></trkpt><trkpt lat="40.7653622918728" lon="17.44112829081945"><ele>300.2</ele><time>2026-04-26T08:44:54Z</time></trkpt><trkpt lat="40.76542819906808" lon="17.441193872257024"><ele>297.0</ele><time>2026-04-26T08:44:59Z</time></trkpt><trkpt lat="40.765622986482974" lon="17.441203373840242"><ele>297.0</ele><time>2026-04-26T08:45:06Z</time></trkpt><trkpt lat="40.76576884798517" lon="17.44124013091964"><ele>297.0</ele><time>2026-04-26T08:45:13Z</time></trkpt><trkpt lat="40.765827920742204" lon="17.441307234666553"><ele>297.0</ele><time>2026-04-26T08:45:17Z</time></trkpt><trkpt lat="40.765925327104945" lon="17.441395089922583"><ele>297.0</ele><time>2026-04-26T08:45:19.999Z</time></trkpt><trkpt lat="40.76609800942527" lon="17.441386527020786"><ele>289.5</ele><time>2026-04-26T08:45:27.999Z</time></trkpt><trkpt lat="40.76613447681144" lon="17.441457381121342"><ele>282.0</ele><time>2026-04-26T08:45:29.999Z</time></trkpt><trkpt lat="40.76620378981126" lon="17.4415125631518"><ele>274.5</ele><time>2026-04-26T08:45:30.999Z</time></trkpt><trkpt lat="40.76646994114205" lon="17.441527210531792"><ele>267.0</ele><time>2026-04-26T08:45:36.999Z</time></trkpt><trkpt lat="40.76663153954017" lon="17.44154625239826"><ele>267.0</ele><time>2026-04-26T08:45:41.999Z</time></trkpt><trkpt lat="40.76670795024496" lon="17.441621639237514"><ele>267.0</ele><time>2026-04-26T08:45:44.999Z</time></trkpt><trkpt lat="40.76680866150899" lon="17.441662551270493"><ele>267.0</ele><time>2026-04-26T08:45:49.999Z</time></trkpt><trkpt lat="40.76690775757132" lon="17.441703713875246"><ele>267.0</ele><time>2026-04-26T08:45:55.999Z</time></trkpt><trkpt lat="40.76713551434386" lon="17.441724756191274"><ele>262.8333333333333</ele><time>2026-04-26T08:46:09.999Z</time></trkpt><trkpt lat="40.767204809450945" lon="17.441754295044493"><ele>258.6666666666667</ele><time>2026-04-26T08:46:12.999Z</time></trkpt><trkpt lat="40.76730090181552" lon="17.44176046580038"><ele>254.5</ele><time>2026-04-26T08:46:17.999Z</time></trkpt><trkpt lat="40.76737354884248" lon="17.44181459806172"><ele>250.33333333333334</ele><time>2026-04-26T08:46:21.999Z</time></trkpt><trkpt lat="40.76741121599663" lon="17.44191047408324"><ele>246.16666666666669</ele><time>2026-04-26T08:46:25.998Z</time></trkpt><trkpt lat="40.76742383835412" lon="17.442001579710666"><ele>242.0</ele><time>2026-04-26T08:46:29.998Z</time></trkpt><trkpt lat="40.767432777361435" lon="17.442089368323565"><ele>240.85714285714283</ele><time>2026-04-26T08:46:32.998Z</time></trkpt><trkpt lat="40.76743060775896" lon="17.44217308482203"><ele>239.7142857142857</ele><time>2026-04-26T08:46:35.998Z</time></trkpt><trkpt lat="40.76744269097529" lon="17.44228744237898"><ele>238.57142857142856</ele><time>2026-04-26T08:46:55Z</time></trkpt><trkpt lat="40.76741107292881" lon="17.442393973002495"><ele>237.42857142857144</ele><time>2026-04-26T08:47:00Z</time></trkpt><trkpt lat="40.7673772522739" lon="17.44246985009967"><ele>236.2857142857143</ele><time>2026-04-26T08:47:03Z</time></trkpt><trkpt lat="40.76735277334503" lon="17.44254780829391"><ele>235.14285714285717</ele><time>2026-04-26T08:47:06Z</time></trkpt><trkpt lat="40.76732638390174" lon="17.442632804742708"><ele>234.0</ele><time>2026-04-26T08:47:19Z</time></trkpt><trkpt lat="40.767259458560275" lon="17.442644421096656"><ele>234.0</ele><time>2026-04-26T08:47:30.999Z</time></trkpt><trkpt lat="40.767228013385754" lon="17.442759521393654"><ele>234.0</ele><time>2026-04-26T08:47:35.999Z</time></trkpt><trkpt lat="40.767184660480964" lon="17.442842828809727"><ele>234.0</ele><time>2026-04-26T08:47:37.999Z</time></trkpt><trkpt lat="40.76710284124005" lon="17.442866519483292"><ele>234.0</ele><time>2026-04-26T08:47:41.999Z</time></trkpt><trkpt lat="40.767101820716206" lon="17.442974503532636"><ele>234.0</ele><time>2026-04-26T08:47:45.999Z</time></trkpt><trkpt lat="40.76709880529026" lon="17.44305769283051"><ele>234.0</ele><time>2026-04-26T08:47:50.999Z</time></trkpt><trkpt lat="40.76701919649202" lon="17.443122613583316"><ele>234.42857142857144</ele><time>2026-04-26T08:47:53.999Z</time></trkpt><trkpt lat="40.76695433668794" lon="17.44316850299399"><ele>234.8571428571429</ele><time>2026-04-26T08:47:57.999Z</time></trkpt><trkpt lat="40.7668917316825" lon="17.443240312556693"><ele>235.28571428571428</ele><time>2026-04-26T08:48:01.999Z</time></trkpt><trkpt lat="40.76683247065738" lon="17.443290210339246"><ele>235.71428571428572</ele><time>2026-04-26T08:48:04.999Z</time></trkpt><trkpt lat="40.76677010913519" lon="17.443276561945467"><ele>236.14285714285714</ele><time>2026-04-26T08:48:07.999Z</time></trkpt><trkpt lat="40.76669791682842" lon="17.443328790149614"><ele>236.57142857142856</ele><time>2026-04-26T08:48:11.999Z</time></trkpt><trkpt lat="40.76664104223569" lon="17.4433934598627"><ele>236.99999999999997</ele><time>2026-04-26T08:48:14.999Z</time></trkpt><trkpt lat="40.76660239015142" lon="17.443482075054387"><ele>237.0</ele><time>2026-04-26T08:48:17.999Z</time></trkpt><trkpt lat="40.766556308885484" lon="17.443550319675637"><ele>237.0</ele><time>2026-04-26T08:48:20.999Z</time></trkpt><trkpt lat="40.76648338010703" lon="17.443645103451235"><ele>237.0</ele><time>2026-04-26T08:48:23.999Z</time></trkpt><trkpt lat="40.766441005458816" lon="17.443733610024672"><ele>237.0</ele><time>2026-04-26T08:48:25.999Z</time></trkpt><trkpt lat="40.76637893577518" lon="17.44379129221005"><ele>237.0</ele><time>2026-04-26T08:48:28.999Z</time></trkpt><trkpt lat="40.766313682251884" lon="17.44384183911851"><ele>237.0</ele><time>2026-04-26T08:48:31.999Z</time></trkpt><trkpt lat="40.766284613559556" lon="17.443964761805464"><ele>234.33333333333334</ele><time>2026-04-26T08:48:33.998Z</time></trkpt><trkpt lat="40.76625101934754" lon="17.444062160956474"><ele>231.66666666666669</ele><time>2026-04-26T08:48:36.998Z</time></trkpt><trkpt lat="40.76623583974379" lon="17.444144314217866"><ele>229.0</ele><time>2026-04-26T08:48:37.998Z</time></trkpt><trkpt lat="40.766192945548845" lon="17.444209815523458"><ele>226.33333333333334</ele><time>2026-04-26T08:48:40.998Z</time></trkpt><trkpt lat="40.76614144553354" lon="17.444280429626627"><ele>223.66666666666669</ele><time>2026-04-26T08:48:42.998Z</time></trkpt><trkpt lat="40.76611040507612" lon="17.444387019227516"><ele>221.0</ele><time>2026-04-26T08:48:44.998Z</time></trkpt><trkpt lat="40.766086124369046" lon="17.444486957576842"><ele>223.60000000000002</ele><time>2026-04-26T08:48:46.998Z</time></trkpt><trkpt lat="40.76601976566534" lon="17.444551709982495"><ele>226.20000000000002</ele><time>2026-04-26T08:48:48.998Z</time></trkpt><trkpt lat="40.76594903172652" lon="17.444638027646075"><ele>228.79999999999998</ele><time>2026-04-26T08:48:51Z</time></trkpt><trkpt lat="40.765921462472875" lon="17.44476210782287"><ele>231.39999999999998</ele><time>2026-04-26T08:48:53Z</time></trkpt><trkpt lat="40.76587484016567" lon="17.4448527498758"><ele>234.0</ele><time>2026-04-26T08:48:55Z</time></trkpt><trkpt lat="40.765829764382055" lon="17.444962549179177"><ele>234.0</ele><time>2026-04-26T08:48:57Z</time></trkpt><trkpt lat="40.765775617408615" lon="17.445064846224028"><ele>233.99999999999997</ele><time>2026-04-26T08:48:59Z</time></trkpt><trkpt lat="40.7657201685328" lon="17.445165765754087"><ele>233.99999999999997</ele><time>2026-04-26T08:49:01Z</time></trkpt><trkpt lat="40.765652819479925" lon="17.445243611267827"><ele>234.0</ele><time>2026-04-26T08:49:03Z</time></trkpt><trkpt lat="40.76558760030368" lon="17.445350903431855"><ele>234.0</ele><time>2026-04-26T08:49:05Z</time></trkpt><trkpt lat="40.76553235643064" lon="17.445439100214745"><ele>231.83333333333334</ele><time>2026-04-26T08:49:07Z</time></trkpt><trkpt lat="40.765478835640536" lon="17.445557689983616"><ele>229.66666666666669</ele><time>2026-04-26T08:49:09Z</time></trkpt><trkpt lat="40.76540059353381" lon="17.445662009823042"><ele>227.5</ele><time>2026-04-26T08:49:11Z</time></trkpt><trkpt lat="40.76535828139616" lon="17.445728845393454"><ele>225.33333333333334</ele><time>2026-04-26T08:49:12Z</time></trkpt><trkpt lat="40.76530928499238" lon="17.445815374243903"><ele>223.16666666666669</ele><time>2026-04-26T08:49:14Z</time></trkpt><trkpt lat="40.76527717467413" lon="17.445891638078567"><ele>221.0</ele><time>2026-04-26T08:49:16Z</time></trkpt><trkpt lat="40.7652049471782" lon="17.445976167517724"><ele>224.33333333333334</ele><time>2026-04-26T08:49:18Z</time></trkpt><trkpt lat="40.76513590313158" lon="17.446038537658602"><ele>227.66666666666669</ele><time>2026-04-26T08:49:20Z</time></trkpt><trkpt lat="40.76508971185266" lon="17.44612232835331"><ele>231.0</ele><time>2026-04-26T08:49:22Z</time></trkpt><trkpt lat="40.76505089222072" lon="17.44620031359696"><ele>234.33333333333331</ele><time>2026-04-26T08:49:24Z</time></trkpt><trkpt lat="40.76501073307745" lon="17.44629200055082"><ele>237.66666666666666</ele><time>2026-04-26T08:49:26Z</time></trkpt><trkpt lat="40.76496459844544" lon="17.446375385674727"><ele>241.0</ele><time>2026-04-26T08:49:28Z</time></trkpt><trkpt lat="40.76490352424108" lon="17.44645121100168"><ele>241.0</ele><time>2026-04-26T08:49:30Z</time></trkpt><trkpt lat="40.76484349800941" lon="17.44651894264224"><ele>241.00000000000003</ele><time>2026-04-26T08:49:32Z</time></trkpt><trkpt lat="40.76479756600527" lon="17.446593219115403"><ele>241.0</ele><time>2026-04-26T08:49:34Z</time></trkpt><trkpt lat="40.76474205541712" lon="17.446654910986982"><ele>241.0</ele><time>2026-04-26T08:49:36Z</time></trkpt><trkpt lat="40.76468010830818" lon="17.446692229358945"><ele>241.00000000000003</ele><time>2026-04-26T08:49:38Z</time></trkpt><trkpt lat="40.76462463458989" lon="17.446757624494445"><ele>241.0</ele><time>2026-04-26T08:49:40Z</time></trkpt><trkpt lat="40.76457020979925" lon="17.44680333416194"><ele>241.0</ele><time>2026-04-26T08:49:41.999Z</time></trkpt><trkpt lat="40.764506045222205" lon="17.4468800065764"><ele>240.99999999999997</ele><time>2026-04-26T08:49:44.999Z</time></trkpt><trkpt lat="40.76442040509238" lon="17.44692780024813"><ele>241.0</ele><time>2026-04-26T08:49:47.999Z</time></trkpt><trkpt lat="40.76438044550765" lon="17.446999368341633"><ele>241.0</ele><time>2026-04-26T08:49:49.999Z</time></trkpt><trkpt lat="40.76431558741191" lon="17.447076108202182"><ele>241.0</ele><time>2026-04-26T08:49:52.999Z</time></trkpt><trkpt lat="40.76425439008536" lon="17.44712856071532"><ele>240.99999999999997</ele><time>2026-04-26T08:49:55.999Z</time></trkpt><trkpt lat="40.764232071378686" lon="17.44721298117233"><ele>241.0</ele><time>2026-04-26T08:49:59.999Z</time></trkpt><trkpt lat="40.76415199514426" lon="17.44727318951403"><ele>243.71428571428572</ele><time>2026-04-26T08:50:02.999Z</time></trkpt><trkpt lat="40.76409833703077" lon="17.44736445695169"><ele>246.42857142857144</ele><time>2026-04-26T08:50:05.999Z</time></trkpt><trkpt lat="40.764053792640645" lon="17.4474339303801"><ele>249.14285714285717</ele><time>2026-04-26T08:50:08.999Z</time></trkpt><trkpt lat="40.7640127686815" lon="17.44749880250562"><ele>251.8571428571429</ele><time>2026-04-26T08:50:10.999Z</time></trkpt><trkpt lat="40.76398880824445" lon="17.447579219209775"><ele>254.57142857142858</ele><time>2026-04-26T08:50:12.999Z</time></trkpt><trkpt lat="40.763944452784855" lon="17.44766891373665"><ele>257.28571428571433</ele><time>2026-04-26T08:50:14.999Z</time></trkpt><trkpt lat="40.76397751061048" lon="17.447748229284006"><ele>260.0</ele><time>2026-04-26T08:50:17.999Z</time></trkpt><trkpt lat="40.76392604521034" lon="17.447831657352808"><ele>260.0</ele><time>2026-04-26T08:50:19.999Z</time></trkpt><trkpt lat="40.76393136498596" lon="17.44794089102261"><ele>260.0</ele><time>2026-04-26T08:50:21.999Z</time></trkpt><trkpt lat="40.763883445077" lon="17.448035591296684"><ele>260.0</ele><time>2026-04-26T08:50:23.999Z</time></trkpt><trkpt lat="40.76386296712246" lon="17.448134275175335"><ele>260.0</ele><time>2026-04-26T08:50:25.999Z</time></trkpt><trkpt lat="40.763837436105305" lon="17.448230984802013"><ele>260.0</ele><time>2026-04-26T08:50:27.999Z</time></trkpt><trkpt lat="40.76381354141878" lon="17.448320636110328"><ele>260.0</ele><time>2026-04-26T08:50:29.999Z</time></trkpt><trkpt lat="40.763784767879116" lon="17.44839952952913"><ele>260.0</ele><time>2026-04-26T08:50:31.999Z</time></trkpt><trkpt lat="40.76374092501569" lon="17.44849503525971"><ele>260.0</ele><time>2026-04-26T08:50:33.999Z</time></trkpt><trkpt lat="40.76373965528991" lon="17.448593581527266"><ele>260.0</ele><time>2026-04-26T08:50:35.999Z</time></trkpt><trkpt lat="40.76377745060663" lon="17.4486724718466"><ele>260.0</ele><time>2026-04-26T08:50:37.999Z</time></trkpt><trkpt lat="40.76376738520751" lon="17.448794323087096"><ele>260.0</ele><time>2026-04-26T08:50:39.999Z</time></trkpt><trkpt lat="40.76379127158429" lon="17.448901699651884"><ele>260.0</ele><time>2026-04-26T08:50:42.998Z</time></trkpt><trkpt lat="40.76381769225466" lon="17.44897871026502"><ele>260.0</ele><time>2026-04-26T08:50:44.998Z</time></trkpt><trkpt lat="40.76382249976938" lon="17.44907305380678"><ele>260.0</ele><time>2026-04-26T08:50:46.998Z</time></trkpt><trkpt lat="40.763831158429994" lon="17.44915786005488"><ele>260.0</ele><time>2026-04-26T08:50:48.998Z</time></trkpt><trkpt lat="40.76380791663745" lon="17.4492917821279"><ele>260.0</ele><time>2026-04-26T08:50:51.998Z</time></trkpt><trkpt lat="40.76381741590409" lon="17.4494114862497"><ele>260.0</ele><time>2026-04-26T08:50:54.998Z</time></trkpt><trkpt lat="40.76380602933629" lon="17.449514000909133"><ele>260.0</ele><time>2026-04-26T08:50:57Z</time></trkpt><trkpt lat="40.763878783622324" lon="17.44959327010526"><ele>262.5</ele><time>2026-04-26T08:51:00Z</time></trkpt><trkpt lat="40.763868634845885" lon="17.44970852478073"><ele>265.0</ele><time>2026-04-26T08:51:02Z</time></trkpt><trkpt lat="40.76385745430406" lon="17.44980247451987"><ele>267.5</ele><time>2026-04-26T08:51:04Z</time></trkpt><trkpt lat="40.763906102875836" lon="17.44991395593956"><ele>270.0</ele><time>2026-04-26T08:51:07Z</time></trkpt><trkpt lat="40.76393995237362" lon="17.449992500626657"><ele>272.5</ele><time>2026-04-26T08:51:09Z</time></trkpt><trkpt lat="40.76398145690301" lon="17.45010263646624"><ele>275.0</ele><time>2026-04-26T08:51:12Z</time></trkpt><trkpt lat="40.764001728028795" lon="17.45020397683039"><ele>275.0</ele><time>2026-04-26T08:51:15Z</time></trkpt><trkpt lat="40.76403685140358" lon="17.450321046479417"><ele>275.0</ele><time>2026-04-26T08:51:18Z</time></trkpt><trkpt lat="40.76406428500513" lon="17.45043127102185"><ele>275.0</ele><time>2026-04-26T08:51:22Z</time></trkpt><trkpt lat="40.764100136006725" lon="17.450562931504425"><ele>275.0</ele><time>2026-04-26T08:51:25Z</time></trkpt><trkpt lat="40.76412386721345" lon="17.450654149763604"><ele>275.0</ele><time>2026-04-26T08:51:27Z</time></trkpt><trkpt lat="40.764143840526884" lon="17.450755798905185"><ele>275.0</ele><time>2026-04-26T08:51:29Z</time></trkpt><trkpt lat="40.76415909463633" lon="17.450846069247685"><ele>277.0</ele><time>2026-04-26T08:51:32Z</time></trkpt><trkpt lat="40.764163330098704" lon="17.450940920982795"><ele>279.0</ele><time>2026-04-26T08:51:34Z</time></trkpt><trkpt lat="40.764179591096976" lon="17.451026843591205"><ele>281.0</ele><time>2026-04-26T08:51:36Z</time></trkpt><trkpt lat="40.76414623754265" lon="17.451110824751193"><ele>283.0</ele><time>2026-04-26T08:51:39Z</time></trkpt><trkpt lat="40.764145408848" lon="17.45122222939011"><ele>285.0</ele><time>2026-04-26T08:51:41Z</time></trkpt><trkpt lat="40.76416959416325" lon="17.45131654175333"><ele>287.0</ele><time>2026-04-26T08:51:44Z</time></trkpt><trkpt lat="40.7641573713671" lon="17.451424288630047"><ele>287.0</ele><time>2026-04-26T08:51:46.999Z</time></trkpt><trkpt lat="40.764104343791324" lon="17.451515969520383"><ele>287.0</ele><time>2026-04-26T08:51:48.999Z</time></trkpt><trkpt lat="40.76405341416135" lon="17.45159328657191"><ele>287.0</ele><time>2026-04-26T08:51:50.999Z</time></trkpt><trkpt lat="40.763978116225324" lon="17.451663641309892"><ele>287.0</ele><time>2026-04-26T08:51:53.999Z</time></trkpt><trkpt lat="40.76393222425205" lon="17.45176653349874"><ele>287.0</ele><time>2026-04-26T08:51:55.999Z</time></trkpt><trkpt lat="40.76385973676343" lon="17.451794012119556"><ele>287.0</ele><time>2026-04-26T08:51:58.999Z</time></trkpt><trkpt lat="40.76380719425094" lon="17.45185539977462"><ele>287.0</ele><time>2026-04-26T08:52:00.999Z</time></trkpt><trkpt lat="40.76375077424891" lon="17.451920991162655"><ele>287.0</ele><time>2026-04-26T08:52:03.999Z</time></trkpt><trkpt lat="40.76368026678526" lon="17.45195527485286"><ele>287.0</ele><time>2026-04-26T08:52:05.999Z</time></trkpt><trkpt lat="40.76359893169392" lon="17.452014524839417"><ele>287.0</ele><time>2026-04-26T08:52:08.999Z</time></trkpt><trkpt lat="40.763528527499325" lon="17.45208164296199"><ele>287.0</ele><time>2026-04-26T08:52:10.999Z</time></trkpt><trkpt lat="40.76343939383025" lon="17.452098367155735"><ele>287.0</ele><time>2026-04-26T08:52:13.999Z</time></trkpt><trkpt lat="40.76336495684457" lon="17.45208187863815"><ele>287.6666666666667</ele><time>2026-04-26T08:52:15.999Z</time></trkpt><trkpt lat="40.76328215379678" lon="17.452132165908115"><ele>288.33333333333337</ele><time>2026-04-26T08:52:18.999Z</time></trkpt><trkpt lat="40.76322189435906" lon="17.452164749007316"><ele>289.0</ele><time>2026-04-26T08:52:20.999Z</time></trkpt><trkpt lat="40.763164283993575" lon="17.45220343546317"><ele>289.6666666666667</ele><time>2026-04-26T08:52:22.999Z</time></trkpt><trkpt lat="40.763096477570976" lon="17.452208169769797"><ele>290.3333333333333</ele><time>2026-04-26T08:52:24.999Z</time></trkpt><trkpt lat="40.76302513906719" lon="17.452259205706202"><ele>291.0</ele><time>2026-04-26T08:52:27.999Z</time></trkpt><trkpt lat="40.76296492689188" lon="17.45234434405597"><ele>291.0</ele><time>2026-04-26T08:52:29.999Z</time></trkpt><trkpt lat="40.76287288403836" lon="17.45234972009228"><ele>291.0</ele><time>2026-04-26T08:52:31.999Z</time></trkpt><trkpt lat="40.76281796932334" lon="17.45243946668015"><ele>291.0</ele><time>2026-04-26T08:52:34.999Z</time></trkpt><trkpt lat="40.76274272135132" lon="17.452472872742074"><ele>291.0</ele><time>2026-04-26T08:52:37.999Z</time></trkpt><trkpt lat="40.76267028511203" lon="17.452528004916953"><ele>291.0</ele><time>2026-04-26T08:52:40.999Z</time></trkpt><trkpt lat="40.76259866728751" lon="17.452582297011144"><ele>291.0</ele><time>2026-04-26T08:52:43.999Z</time></trkpt><trkpt lat="40.762521138015416" lon="17.452639039410425"><ele>295.3333333333333</ele><time>2026-04-26T08:52:46.999Z</time></trkpt><trkpt lat="40.76245821079029" lon="17.45269178735224"><ele>299.6666666666667</ele><time>2026-04-26T08:52:48.998Z</time></trkpt><trkpt lat="40.762383757944306" lon="17.452731832688904"><ele>304.0</ele><time>2026-04-26T08:52:50.998Z</time></trkpt><trkpt lat="40.76231991290751" lon="17.45278348931981"><ele>308.33333333333337</ele><time>2026-04-26T08:52:53.998Z</time></trkpt><trkpt lat="40.76226188403228" lon="17.452818826064256"><ele>312.6666666666667</ele><time>2026-04-26T08:52:55.998Z</time></trkpt><trkpt lat="40.76218886326001" lon="17.452860987607544"><ele>317.0</ele><time>2026-04-26T08:52:58.998Z</time></trkpt><trkpt lat="40.76212106495271" lon="17.45292441470263"><ele>316.5</ele><time>2026-04-26T08:53:00.998Z</time></trkpt><trkpt lat="40.76204443769179" lon="17.452976283041817"><ele>316.0</ele><time>2026-04-26T08:53:04Z</time></trkpt><trkpt lat="40.76198265238689" lon="17.452997817608487"><ele>315.5</ele><time>2026-04-26T08:53:06Z</time></trkpt><trkpt lat="40.76191660555915" lon="17.453059630526802"><ele>315.0</ele><time>2026-04-26T08:53:08Z</time></trkpt><trkpt lat="40.76183703029852" lon="17.45309516130525"><ele>314.5</ele><time>2026-04-26T08:53:11Z</time></trkpt><trkpt lat="40.7617556969054" lon="17.45316782323887"><ele>314.0</ele><time>2026-04-26T08:53:14Z</time></trkpt><trkpt lat="40.7616630984837" lon="17.453203713026298"><ele>314.0</ele><time>2026-04-26T08:53:17Z</time></trkpt><trkpt lat="40.76156985678974" lon="17.45324578347604"><ele>314.0</ele><time>2026-04-26T08:53:20Z</time></trkpt><trkpt lat="40.76147929131484" lon="17.453291248541294"><ele>314.0</ele><time>2026-04-26T08:53:23Z</time></trkpt><trkpt lat="40.76137310616246" lon="17.45330116442249"><ele>314.0</ele><time>2026-04-26T08:53:26Z</time></trkpt><trkpt lat="40.761312795246425" lon="17.45337434587679"><ele>314.0</ele><time>2026-04-26T08:53:28Z</time></trkpt><trkpt lat="40.76124726277865" lon="17.453411536287618"><ele>314.0</ele><time>2026-04-26T08:53:30Z</time></trkpt><trkpt lat="40.76118592513299" lon="17.453431932325255"><ele>314.0</ele><time>2026-04-26T08:53:32Z</time></trkpt><trkpt lat="40.761125863655785" lon="17.453504432750623"><ele>314.0</ele><time>2026-04-26T08:53:34Z</time></trkpt><trkpt lat="40.7610375189242" lon="17.45354918425804"><ele>314.0</ele><time>2026-04-26T08:53:37Z</time></trkpt><trkpt lat="40.760963999824895" lon="17.453606547419387"><ele>314.0</ele><time>2026-04-26T08:53:40Z</time></trkpt><trkpt lat="40.76090796769254" lon="17.453651312059932"><ele>314.0</ele><time>2026-04-26T08:53:43Z</time></trkpt><trkpt lat="40.76085897077978" lon="17.453715188992437"><ele>314.5</ele><time>2026-04-26T08:53:46.999Z</time></trkpt><trkpt lat="40.76079598372407" lon="17.45372188364625"><ele>315.0</ele><time>2026-04-26T08:53:49.999Z</time></trkpt><trkpt lat="40.76073776565963" lon="17.453758730532126"><ele>315.5</ele><time>2026-04-26T08:53:52.999Z</time></trkpt><trkpt lat="40.76066693547672" lon="17.45380743550729"><ele>316.0</ele><time>2026-04-26T08:53:56.999Z</time></trkpt><trkpt lat="40.76060223351999" lon="17.453826131028737"><ele>316.5</ele><time>2026-04-26T08:53:59.999Z</time></trkpt><trkpt lat="40.760670446739084" lon="17.453752208137644"><ele>317.0</ele><time>2026-04-26T08:54:03.999Z</time></trkpt><trkpt lat="40.76080407858272" lon="17.45375361476488"><ele>317.0</ele><time>2026-04-26T08:54:08.999Z</time></trkpt><trkpt lat="40.76080865816845" lon="17.453661328437697"><ele>317.0</ele><time>2026-04-26T08:54:32.999Z</time></trkpt><trkpt lat="40.760754121351404" lon="17.453744296452175"><ele>317.0</ele><time>2026-04-26T08:54:35.999Z</time></trkpt><trkpt lat="40.76072126241937" lon="17.453816807281083"><ele>317.0</ele><time>2026-04-26T08:54:37.999Z</time></trkpt><trkpt lat="40.76066554438176" lon="17.453877259952566"><ele>317.0</ele><time>2026-04-26T08:54:40.999Z</time></trkpt><trkpt lat="40.76059368241633" lon="17.453942098068325"><ele>317.0</ele><time>2026-04-26T08:54:45.999Z</time></trkpt><trkpt lat="40.76052972556332" lon="17.45397729927597"><ele>317.0</ele><time>2026-04-26T08:54:48.998Z</time></trkpt><trkpt lat="40.760460900848265" lon="17.453988787953"><ele>317.0</ele><time>2026-04-26T08:54:51.998Z</time></trkpt><trkpt lat="40.760404210606964" lon="17.45404706152527"><ele>317.0</ele><time>2026-04-26T08:54:54.998Z</time></trkpt><trkpt lat="40.76042749214986" lon="17.454148242490916"><ele>317.0</ele><time>2026-04-26T08:55:02.998Z</time></trkpt><trkpt lat="40.76047258457956" lon="17.45422491657125"><ele>317.0</ele><time>2026-04-26T08:55:07.998Z</time></trkpt><trkpt lat="40.76054380584648" lon="17.454231543013123"><ele>317.0</ele><time>2026-04-26T08:55:11Z</time></trkpt><trkpt lat="40.7606103574073" lon="17.45429289654678"><ele>317.0</ele><time>2026-04-26T08:55:16Z</time></trkpt><trkpt lat="40.760657110905015" lon="17.45436878605022"><ele>317.0</ele><time>2026-04-26T08:55:19Z</time></trkpt><trkpt lat="40.76065267098171" lon="17.454463596400124"><ele>317.0</ele><time>2026-04-26T08:55:22Z</time></trkpt><trkpt lat="40.7606286376157" lon="17.454570398662252"><ele>317.0</ele><time>2026-04-26T08:55:24Z</time></trkpt><trkpt lat="40.76070213791474" lon="17.454556634226176"><ele>317.0</ele><time>2026-04-26T08:55:28Z</time></trkpt><trkpt lat="40.76077583047201" lon="17.454503728934423"><ele>317.0</ele><time>2026-04-26T08:55:30Z</time></trkpt><trkpt lat="40.760847222812664" lon="17.454451861105525"><ele>317.0</ele><time>2026-04-26T08:55:32Z</time></trkpt><trkpt lat="40.76089074047084" lon="17.45455037282568"><ele>315.2</ele><time>2026-04-26T08:55:40Z</time></trkpt><trkpt lat="40.760899211395774" lon="17.454639486494585"><ele>313.4</ele><time>2026-04-26T08:55:42Z</time></trkpt><trkpt lat="40.76091553846316" lon="17.454781021327534"><ele>311.6</ele><time>2026-04-26T08:55:45Z</time></trkpt><trkpt lat="40.76091673514787" lon="17.45490497981519"><ele>309.8</ele><time>2026-04-26T08:55:47Z</time></trkpt><trkpt lat="40.76088219452155" lon="17.45502509453208"><ele>308.0</ele><time>2026-04-26T08:55:49Z</time></trkpt><trkpt lat="40.76094381955211" lon="17.45515869381424"><ele>308.0</ele><time>2026-04-26T08:55:52Z</time></trkpt><trkpt lat="40.760931006995975" lon="17.4552474985534"><ele>308.0</ele><time>2026-04-26T08:55:54.999Z</time></trkpt><trkpt lat="40.76100502333415" lon="17.45522423182801"><ele>308.0</ele><time>2026-04-26T08:56:00.999Z</time></trkpt><trkpt lat="40.761078070190315" lon="17.455163337273156"><ele>308.0</ele><time>2026-04-26T08:56:02.999Z</time></trkpt><trkpt lat="40.76110449322592" lon="17.455079603834147"><ele>308.0</ele><time>2026-04-26T08:56:05.999Z</time></trkpt><trkpt lat="40.76110278917869" lon="17.454988205101"><ele>308.0</ele><time>2026-04-26T08:56:40.999Z</time></trkpt><trkpt lat="40.761147819791525" lon="17.454920366974942"><ele>308.0</ele><time>2026-04-26T08:56:45.999Z</time></trkpt><trkpt lat="40.76119879418885" lon="17.454834108620652"><ele>302.83333333333337</ele><time>2026-04-26T08:56:50.999Z</time></trkpt><trkpt lat="40.76122505972306" lon="17.454739594581728"><ele>297.6666666666667</ele><time>2026-04-26T08:56:54.999Z</time></trkpt><trkpt lat="40.761262390097706" lon="17.45463632496254"><ele>292.5</ele><time>2026-04-26T08:56:58.998Z</time></trkpt><trkpt lat="40.76132656603939" lon="17.454655421929836"><ele>287.3333333333333</ele><time>2026-04-26T08:57:03.998Z</time></trkpt><trkpt lat="40.76136178711678" lon="17.454747219054532"><ele>282.16666666666663</ele><time>2026-04-26T08:57:07.998Z</time></trkpt><trkpt lat="40.76132409529226" lon="17.454814357905132"><ele>277.0</ele><time>2026-04-26T08:57:10.998Z</time></trkpt><trkpt lat="40.761295652308185" lon="17.45492190545249"><ele>277.0</ele><time>2026-04-26T08:57:13.998Z</time></trkpt><trkpt lat="40.76126159926037" lon="17.45499682154059"><ele>277.0</ele><time>2026-04-26T08:57:17Z</time></trkpt><trkpt lat="40.76125947253751" lon="17.455082292641002"><ele>277.0</ele><time>2026-04-26T08:57:20Z</time></trkpt><trkpt lat="40.761269940368905" lon="17.45519250088355"><ele>277.0</ele><time>2026-04-26T08:57:23Z</time></trkpt><trkpt lat="40.76122838010375" lon="17.45525674638529"><ele>277.0</ele><time>2026-04-26T08:57:25Z</time></trkpt><trkpt lat="40.761240786638446" lon="17.45542553945314"><ele>277.0</ele><time>2026-04-26T08:57:29Z</time></trkpt><trkpt lat="40.76119378361152" lon="17.45554633549403"><ele>273.6</ele><time>2026-04-26T08:57:33Z</time></trkpt><trkpt lat="40.76128586884645" lon="17.455667645045896"><ele>270.2</ele><time>2026-04-26T08:57:36Z</time></trkpt><trkpt lat="40.7613390498359" lon="17.455755937145856"><ele>266.8</ele><time>2026-04-26T08:57:39Z</time></trkpt><trkpt lat="40.76144130737193" lon="17.455798585680498"><ele>263.4</ele><time>2026-04-26T08:57:45Z</time></trkpt><trkpt lat="40.7614869617121" lon="17.45589187952028"><ele>260.0</ele><time>2026-04-26T08:57:48Z</time></trkpt><trkpt lat="40.76157377397109" lon="17.455999206679813"><ele>260.0</ele><time>2026-04-26T08:57:53Z</time></trkpt><trkpt lat="40.7616367972963" lon="17.45605465001066"><ele>260.0</ele><time>2026-04-26T08:57:55Z</time></trkpt><trkpt lat="40.761733959924314" lon="17.456097873832263"><ele>260.0</ele><time>2026-04-26T08:57:59.999Z</time></trkpt><trkpt lat="40.76185687568104" lon="17.456109433494507"><ele>260.0</ele><time>2026-04-26T08:58:03.999Z</time></trkpt><trkpt lat="40.761926731630034" lon="17.456080790861737"><ele>260.0</ele><time>2026-04-26T08:58:05.999Z</time></trkpt><trkpt lat="40.76198969333218" lon="17.456022639960707"><ele>254.66666666666669</ele><time>2026-04-26T08:58:08.999Z</time></trkpt><trkpt lat="40.762101992798165" lon="17.455992563394155"><ele>249.33333333333334</ele><time>2026-04-26T09:00:05Z</time></trkpt><trkpt lat="40.762086984038405" lon="17.45590680892286"><ele>244.0</ele><time>2026-04-26T09:00:07.999Z</time></trkpt><trkpt lat="40.762099425863916" lon="17.45581473766201"><ele>238.66666666666669</ele><time>2026-04-26T09:00:09.999Z</time></trkpt><trkpt lat="40.76210262327523" lon="17.45572246324372"><ele>233.33333333333334</ele><time>2026-04-26T09:00:11.999Z</time></trkpt><trkpt lat="40.762166002474125" lon="17.455609553838222"><ele>228.0</ele><time>2026-04-26T09:00:13.999Z</time></trkpt><trkpt lat="40.762212541513506" lon="17.45555075341133"><ele>231.2</ele><time>2026-04-26T09:00:14.999Z</time></trkpt><trkpt lat="40.76231466054668" lon="17.455437059526652"><ele>234.4</ele><time>2026-04-26T09:00:16.999Z</time></trkpt><trkpt lat="40.762329849362565" lon="17.455332981268878"><ele>237.59999999999997</ele><time>2026-04-26T09:00:17.999Z</time></trkpt><trkpt lat="40.762430260860334" lon="17.455195817062"><ele>240.79999999999998</ele><time>2026-04-26T09:00:19.999Z</time></trkpt><trkpt lat="40.76248704491172" lon="17.455158662702637"><ele>244.0</ele><time>2026-04-26T09:00:20.999Z</time></trkpt><trkpt lat="40.76254313715918" lon="17.45510999164698"><ele>243.99999999999997</ele><time>2026-04-26T09:00:21.999Z</time></trkpt><trkpt lat="40.762631979262096" lon="17.455013791010284"><ele>244.0</ele><time>2026-04-26T09:00:23.999Z</time></trkpt><trkpt lat="40.762706319526465" lon="17.45499177868262"><ele>244.0</ele><time>2026-04-26T09:00:24.999Z</time></trkpt><trkpt lat="40.7627607102189" lon="17.45494479930909"><ele>244.0</ele><time>2026-04-26T09:00:25.999Z</time></trkpt><trkpt lat="40.762819222608265" lon="17.454877712268896"><ele>243.99999999999997</ele><time>2026-04-26T09:00:26.999Z</time></trkpt><trkpt lat="40.76289312395009" lon="17.45480649139025"><ele>244.0</ele><time>2026-04-26T09:00:27.999Z</time></trkpt><trkpt lat="40.76301765882325" lon="17.454727223970643"><ele>244.16666666666666</ele><time>2026-04-26T09:00:29.999Z</time></trkpt><trkpt lat="40.7630993604011" lon="17.454685348791806"><ele>244.33333333333331</ele><time>2026-04-26T09:00:30.999Z</time></trkpt><trkpt lat="40.76316310860534" lon="17.4546521789502"><ele>244.5</ele><time>2026-04-26T09:00:31.999Z</time></trkpt><trkpt lat="40.76324378058549" lon="17.454588178187723"><ele>244.66666666666669</ele><time>2026-04-26T09:00:32.999Z</time></trkpt><trkpt lat="40.76330533292961" lon="17.454520646375236"><ele>244.83333333333334</ele><time>2026-04-26T09:00:33.999Z</time></trkpt><trkpt lat="40.763357304506194" lon="17.454457361737173"><ele>245.0</ele><time>2026-04-26T09:00:34.999Z</time></trkpt><trkpt lat="40.76347018870831" lon="17.45439311626791"><ele>241.83333333333334</ele><time>2026-04-26T09:00:36.999Z</time></trkpt><trkpt lat="40.76359986827126" lon="17.454356934445062"><ele>238.66666666666669</ele><time>2026-04-26T09:00:38.999Z</time></trkpt><trkpt lat="40.76366312051859" lon="17.454305518463663"><ele>235.5</ele><time>2026-04-26T09:00:39.999Z</time></trkpt><trkpt lat="40.763723810546495" lon="17.454269840419425"><ele>232.33333333333331</ele><time>2026-04-26T09:00:40.999Z</time></trkpt><trkpt lat="40.763792036612095" lon="17.45423796605201"><ele>229.16666666666666</ele><time>2026-04-26T09:00:41.999Z</time></trkpt><trkpt lat="40.76385056338999" lon="17.454200820964527"><ele>226.0</ele><time>2026-04-26T09:00:42.999Z</time></trkpt><trkpt lat="40.76393015810025" lon="17.4541592055424"><ele>226.0</ele><time>2026-04-26T09:00:43.999Z</time></trkpt><trkpt lat="40.764052807718535" lon="17.454103451503766"><ele>226.00000000000003</ele><time>2026-04-26T09:00:45.999Z</time></trkpt><trkpt lat="40.76411284866363" lon="17.45404175200487"><ele>226.00000000000003</ele><time>2026-04-26T09:00:46.999Z</time></trkpt><trkpt lat="40.76418409259013" lon="17.45401249671788"><ele>226.0</ele><time>2026-04-26T09:00:47.999Z</time></trkpt><trkpt lat="40.76426813376781" lon="17.454023305309562"><ele>226.0</ele><time>2026-04-26T09:00:48.999Z</time></trkpt><trkpt lat="40.7643782019198" lon="17.454032439536217"><ele>222.0</ele><time>2026-04-26T09:00:49.999Z</time></trkpt><trkpt lat="40.76446919719983" lon="17.454031903841095"><ele>218.0</ele><time>2026-04-26T09:00:50.999Z</time></trkpt><trkpt lat="40.76456585589826" lon="17.454026812543795"><ele>214.0</ele><time>2026-04-26T09:00:51.999Z</time></trkpt><trkpt lat="40.76475974384763" lon="17.453962974985853"><ele>210.0</ele><time>2026-04-26T09:00:52.999Z</time></trkpt><trkpt lat="40.765022801989666" lon="17.453973836271164"><ele>210.0</ele><time>2026-04-26T09:00:54.999Z</time></trkpt><trkpt lat="40.76514919821949" lon="17.45397279433152"><ele>210.0</ele><time>2026-04-26T09:00:55.999Z</time></trkpt><trkpt lat="40.76524623816173" lon="17.453916309374858"><ele>210.0</ele><time>2026-04-26T09:00:56.999Z</time></trkpt><trkpt lat="40.76532688417014" lon="17.45391284948821"><ele>210.0</ele><time>2026-04-26T09:00:57.999Z</time></trkpt><trkpt lat="40.76541422220608" lon="17.453896517497803"><ele>210.0</ele><time>2026-04-26T09:00:58.999Z</time></trkpt><trkpt lat="40.765571346464895" lon="17.453887679033105"><ele>208.83333333333334</ele><time>2026-04-26T09:01:00.999Z</time></trkpt><trkpt lat="40.76564484713099" lon="17.453857798867112"><ele>207.66666666666669</ele><time>2026-04-26T09:01:01.999Z</time></trkpt><trkpt lat="40.765728670613164" lon="17.453883973916533"><ele>206.5</ele><time>2026-04-26T09:01:05.999Z</time></trkpt><trkpt lat="40.76577972795836" lon="17.453809737815583"><ele>205.33333333333334</ele><time>2026-04-26T09:01:08.999Z</time></trkpt><trkpt lat="40.76581965341626" lon="17.453695081610036"><ele>204.16666666666669</ele><time>2026-04-26T09:01:11.998Z</time></trkpt><trkpt lat="40.76584221327559" lon="17.453604722791518"><ele>203.0</ele><time>2026-04-26T09:01:13.998Z</time></trkpt><trkpt lat="40.76586031626556" lon="17.453512713949458"><ele>203.0</ele><time>2026-04-26T09:01:15.998Z</time></trkpt><trkpt lat="40.76589044776137" lon="17.453424017711804"><ele>203.0</ele><time>2026-04-26T09:01:17.998Z</time></trkpt><trkpt lat="40.765923834606674" lon="17.453313452702062"><ele>203.0</ele><time>2026-04-26T09:01:19.998Z</time></trkpt><trkpt lat="40.765972571469064" lon="17.453235997277496"><ele>203.0</ele><time>2026-04-26T09:01:21.998Z</time></trkpt><trkpt lat="40.76602493702643" lon="17.45311353253112"><ele>203.0</ele><time>2026-04-26T09:01:23.998Z</time></trkpt><trkpt lat="40.766069798598274" lon="17.452989128923555"><ele>201.60000000000002</ele><time>2026-04-26T09:01:25.998Z</time></trkpt><trkpt lat="40.766106418085904" lon="17.45285150024845"><ele>200.20000000000002</ele><time>2026-04-26T09:01:28Z</time></trkpt><trkpt lat="40.76616188237436" lon="17.45274478645844"><ele>198.8</ele><time>2026-04-26T09:01:30Z</time></trkpt><trkpt lat="40.76619840558935" lon="17.45262539830886"><ele>197.4</ele><time>2026-04-26T09:01:32Z</time></trkpt><trkpt lat="40.766235472275554" lon="17.45249529723371"><ele>196.0</ele><time>2026-04-26T09:01:34Z</time></trkpt><trkpt lat="40.7662505378843" lon="17.452384444723588"><ele>195.99999999999997</ele><time>2026-04-26T09:01:36Z</time></trkpt><trkpt lat="40.76626164041979" lon="17.452287884876416"><ele>196.0</ele><time>2026-04-26T09:01:38Z</time></trkpt><trkpt lat="40.76631626822847" lon="17.452222191106113"><ele>196.0</ele><time>2026-04-26T09:01:41Z</time></trkpt><trkpt lat="40.76639958738545" lon="17.452195062885462"><ele>196.0</ele><time>2026-04-26T09:01:44Z</time></trkpt><trkpt lat="40.76649164633871" lon="17.45224160145911"><ele>195.99999999999997</ele><time>2026-04-26T09:01:46Z</time></trkpt><trkpt lat="40.76657467375462" lon="17.45231461324621"><ele>196.0</ele><time>2026-04-26T09:01:48Z</time></trkpt><trkpt lat="40.766697985666674" lon="17.452390516590015"><ele>195.99999999999997</ele><time>2026-04-26T09:01:50Z</time></trkpt><trkpt lat="40.766780853490005" lon="17.452431930053272"><ele>196.0</ele><time>2026-04-26T09:01:51Z</time></trkpt><trkpt lat="40.766842317871124" lon="17.452462558790156"><ele>196.0</ele><time>2026-04-26T09:01:52Z</time></trkpt><trkpt lat="40.76690928881255" lon="17.452496323767843"><ele>196.0</ele><time>2026-04-26T09:01:53Z</time></trkpt><trkpt lat="40.76704626399285" lon="17.452569151579187"><ele>195.99999999999997</ele><time>2026-04-26T09:01:55Z</time></trkpt><trkpt lat="40.7671159388886" lon="17.45259858064833"><ele>196.0</ele><time>2026-04-26T09:01:56Z</time></trkpt><trkpt lat="40.76718935834894" lon="17.452633206588565"><ele>194.66666666666666</ele><time>2026-04-26T09:01:57Z</time></trkpt><trkpt lat="40.767254544675446" lon="17.452687810744738"><ele>193.33333333333331</ele><time>2026-04-26T09:01:58Z</time></trkpt><trkpt lat="40.76732300840501" lon="17.452737531570946"><ele>192.0</ele><time>2026-04-26T09:01:59Z</time></trkpt><trkpt lat="40.76739777122248" lon="17.452780526680325"><ele>190.66666666666666</ele><time>2026-04-26T09:02:00Z</time></trkpt><trkpt lat="40.767481178598125" lon="17.452821315105613"><ele>189.33333333333331</ele><time>2026-04-26T09:02:01Z</time></trkpt><trkpt lat="40.76755411840622" lon="17.452860166136027"><ele>188.0</ele><time>2026-04-26T09:02:02Z</time></trkpt><trkpt lat="40.767631589977604" lon="17.452894585149735"><ele>187.16666666666666</ele><time>2026-04-26T09:02:03Z</time></trkpt><trkpt lat="40.76770299252241" lon="17.45291459849801"><ele>186.33333333333331</ele><time>2026-04-26T09:02:04Z</time></trkpt><trkpt lat="40.76777932860468" lon="17.452953630387107"><ele>185.5</ele><time>2026-04-26T09:02:05Z</time></trkpt><trkpt lat="40.76784555192939" lon="17.453004067132916"><ele>184.66666666666666</ele><time>2026-04-26T09:02:06Z</time></trkpt><trkpt lat="40.76792040522574" lon="17.453044795480032"><ele>183.83333333333334</ele><time>2026-04-26T09:02:07Z</time></trkpt><trkpt lat="40.767980414735206" lon="17.453084441919625"><ele>183.0</ele><time>2026-04-26T09:02:08Z</time></trkpt><trkpt lat="40.76804933977586" lon="17.453119001967874"><ele>182.5</ele><time>2026-04-26T09:02:08.999Z</time></trkpt><trkpt lat="40.768171608095756" lon="17.45318934430169"><ele>182.0</ele><time>2026-04-26T09:02:10.999Z</time></trkpt><trkpt lat="40.76824390230217" lon="17.453232290605307"><ele>181.5</ele><time>2026-04-26T09:02:11.999Z</time></trkpt><trkpt lat="40.76831117790351" lon="17.453268061353537"><ele>181.0</ele><time>2026-04-26T09:02:12.999Z</time></trkpt><trkpt lat="40.768383641724085" lon="17.45329981171598"><ele>180.5</ele><time>2026-04-26T09:02:13.999Z</time></trkpt><trkpt lat="40.768447270705785" lon="17.453330659784054"><ele>180.0</ele><time>2026-04-26T09:02:14.999Z</time></trkpt><trkpt lat="40.768526777659716" lon="17.453390315715204"><ele>179.83333333333334</ele><time>2026-04-26T09:02:16.999Z</time></trkpt><trkpt lat="40.76858944332948" lon="17.45349766120548"><ele>179.66666666666666</ele><time>2026-04-26T09:02:18.999Z</time></trkpt><trkpt lat="40.76857558041953" lon="17.453584112047164"><ele>179.5</ele><time>2026-04-26T09:02:19.999Z</time></trkpt><trkpt lat="40.768547259455836" lon="17.453660341729883"><ele>179.33333333333331</ele><time>2026-04-26T09:02:20.999Z</time></trkpt><trkpt lat="40.768485625075954" lon="17.453804952467408"><ele>179.16666666666666</ele><time>2026-04-26T09:02:22.999Z</time></trkpt><trkpt lat="40.76844733954829" lon="17.45387949534252"><ele>179.0</ele><time>2026-04-26T09:02:23.999Z</time></trkpt><trkpt lat="40.76840485341629" lon="17.45394847601541"><ele>179.0</ele><time>2026-04-26T09:02:24.999Z</time></trkpt><trkpt lat="40.768335287289815" lon="17.45405462437375"><ele>179.0</ele><time>2026-04-26T09:02:26.999Z</time></trkpt><trkpt lat="40.7682722269406" lon="17.454163380362683"><ele>179.0</ele><time>2026-04-26T09:02:28.999Z</time></trkpt><trkpt lat="40.768188554109834" lon="17.454273840554954"><ele>179.0</ele><time>2026-04-26T09:02:30.999Z</time></trkpt><trkpt lat="40.76811275439565" lon="17.45439356349653"><ele>179.0</ele><time>2026-04-26T09:02:32.999Z</time></trkpt><trkpt lat="40.7680540133078" lon="17.45448630685072"><ele>179.6</ele><time>2026-04-26T09:02:34.999Z</time></trkpt><trkpt lat="40.76802572195098" lon="17.45462594529599"><ele>180.2</ele><time>2026-04-26T09:02:36.999Z</time></trkpt><trkpt lat="40.76800441903325" lon="17.454725232583684"><ele>180.79999999999998</ele><time>2026-04-26T09:02:38.999Z</time></trkpt><trkpt lat="40.767944274363" lon="17.454828611468947"><ele>181.39999999999998</ele><time>2026-04-26T09:02:40.999Z</time></trkpt><trkpt lat="40.76788428544147" lon="17.45489653022538"><ele>182.0</ele><time>2026-04-26T09:02:42.999Z</time></trkpt><trkpt lat="40.76785083546641" lon="17.455006076159176"><ele>182.0</ele><time>2026-04-26T09:02:44.999Z</time></trkpt><trkpt lat="40.76783802537006" lon="17.455123435587556"><ele>182.0</ele><time>2026-04-26T09:02:46.999Z</time></trkpt><trkpt lat="40.76787917463214" lon="17.455236214258093"><ele>182.0</ele><time>2026-04-26T09:02:48.999Z</time></trkpt><trkpt lat="40.76790745006467" lon="17.455337874316935"><ele>182.0</ele><time>2026-04-26T09:02:50.999Z</time></trkpt><trkpt lat="40.76799438957501" lon="17.455382021761547"><ele>182.0</ele><time>2026-04-26T09:02:53.999Z</time></trkpt><trkpt lat="40.76798916485454" lon="17.45547097388356"><ele>182.0</ele><time>2026-04-26T09:02:55.999Z</time></trkpt><trkpt lat="40.76791021765067" lon="17.4554689788053"><ele>182.16666666666666</ele><time>2026-04-26T09:02:56.999Z</time></trkpt><trkpt lat="40.76788516251009" lon="17.455561083833505"><ele>182.33333333333331</ele><time>2026-04-26T09:02:58.999Z</time></trkpt><trkpt lat="40.76787425467177" lon="17.45567202862426"><ele>182.5</ele><time>2026-04-26T09:03:00.999Z</time></trkpt><trkpt lat="40.7678754429925" lon="17.455797958708366"><ele>182.66666666666666</ele><time>2026-04-26T09:03:02.999Z</time></trkpt><trkpt lat="40.76779987741793" lon="17.45582538777138"><ele>182.83333333333334</ele><time>2026-04-26T09:03:04.999Z</time></trkpt><trkpt lat="40.76773486339253" lon="17.45588990873629"><ele>183.0</ele><time>2026-04-26T09:03:06.999Z</time></trkpt><trkpt lat="40.767689003396434" lon="17.45601216768975"><ele>183.0</ele><time>2026-04-26T09:03:08.999Z</time></trkpt><trkpt lat="40.76760190637497" lon="17.456095480202087"><ele>183.0</ele><time>2026-04-26T09:03:10.999Z</time></trkpt><trkpt lat="40.76751026073558" lon="17.45608286870503"><ele>183.0</ele><time>2026-04-26T09:03:12.998Z</time></trkpt><trkpt lat="40.76746482215218" lon="17.456157886271708"><ele>183.0</ele><time>2026-04-26T09:03:14.998Z</time></trkpt><trkpt lat="40.767417128269635" lon="17.45629159329193"><ele>183.0</ele><time>2026-04-26T09:03:16.998Z</time></trkpt><trkpt lat="40.767355816002556" lon="17.456444248289493"><ele>183.0</ele><time>2026-04-26T09:03:18.998Z</time></trkpt><trkpt lat="40.76732547989993" lon="17.456523495292725"><ele>183.0</ele><time>2026-04-26T09:03:19.998Z</time></trkpt><trkpt lat="40.76728958787991" lon="17.45667580126908"><ele>183.0</ele><time>2026-04-26T09:03:21.998Z</time></trkpt><trkpt lat="40.76724288894059" lon="17.456814518395024"><ele>183.0</ele><time>2026-04-26T09:03:23.998Z</time></trkpt><trkpt lat="40.76717651329517" lon="17.456962026913143"><ele>183.0</ele><time>2026-04-26T09:03:25.998Z</time></trkpt><trkpt lat="40.76713075296728" lon="17.457110407341045"><ele>182.60000000000002</ele><time>2026-04-26T09:03:27.998Z</time></trkpt><trkpt lat="40.767102282471484" lon="17.45719249654852"><ele>182.20000000000002</ele><time>2026-04-26T09:03:28.998Z</time></trkpt><trkpt lat="40.76705166600572" lon="17.457334035428325"><ele>181.8</ele><time>2026-04-26T09:03:30.998Z</time></trkpt><trkpt lat="40.76703311134441" lon="17.45741828287001"><ele>181.4</ele><time>2026-04-26T09:03:31.998Z</time></trkpt><trkpt lat="40.767000900891105" lon="17.457560581729954"><ele>181.0</ele><time>2026-04-26T09:03:34Z</time></trkpt><trkpt lat="40.766983491547236" lon="17.45768933228315"><ele>181.0</ele><time>2026-04-26T09:03:36Z</time></trkpt><trkpt lat="40.766931641725314" lon="17.457760751786733"><ele>181.0</ele><time>2026-04-26T09:03:40Z</time></trkpt><trkpt lat="40.76685571541965" lon="17.45776164777769"><ele>181.0</ele><time>2026-04-26T09:03:42Z</time></trkpt><trkpt lat="40.76678336019224" lon="17.45774439846241"><ele>181.0</ele><time>2026-04-26T09:03:44Z</time></trkpt><trkpt lat="40.766714183663034" lon="17.457799475360375"><ele>181.0</ele><time>2026-04-26T09:03:46Z</time></trkpt><trkpt lat="40.76667158145418" lon="17.4579020039022"><ele>181.0</ele><time>2026-04-26T09:03:48Z</time></trkpt><trkpt lat="40.766642042786685" lon="17.458036481446452"><ele>180.20000000000002</ele><time>2026-04-26T09:03:50Z</time></trkpt><trkpt lat="40.766593641380375" lon="17.45813620230021"><ele>179.4</ele><time>2026-04-26T09:03:52Z</time></trkpt><trkpt lat="40.766579434911336" lon="17.458228686714442"><ele>178.6</ele><time>2026-04-26T09:03:54Z</time></trkpt><trkpt lat="40.76646205059032" lon="17.45828888169415"><ele>177.8</ele><time>2026-04-26T09:03:56Z</time></trkpt><trkpt lat="40.76643033971975" lon="17.458417304658376"><ele>177.0</ele><time>2026-04-26T09:03:58Z</time></trkpt><trkpt lat="40.76647780326697" lon="17.45849684502402"><ele>177.0</ele><time>2026-04-26T09:03:59Z</time></trkpt><trkpt lat="40.766518308961935" lon="17.458562912036502"><ele>177.0</ele><time>2026-04-26T09:04:00Z</time></trkpt><trkpt lat="40.7665417419387" lon="17.458698722884986"><ele>177.0</ele><time>2026-04-26T09:04:02Z</time></trkpt><trkpt lat="40.76650043870076" lon="17.45877267489969"><ele>177.0</ele><time>2026-04-26T09:04:03Z</time></trkpt><trkpt lat="40.766449625082316" lon="17.458869973446344"><ele>177.0</ele><time>2026-04-26T09:04:04Z</time></trkpt><trkpt lat="40.76633137032012" lon="17.45897580013657"><ele>176.6</ele><time>2026-04-26T09:04:06Z</time></trkpt><trkpt lat="40.766285501426886" lon="17.45905026872359"><ele>176.2</ele><time>2026-04-26T09:04:07Z</time></trkpt><trkpt lat="40.76619798476155" lon="17.459196168060018"><ele>175.8</ele><time>2026-04-26T09:04:09Z</time></trkpt><trkpt lat="40.766172223349116" lon="17.45927551663394"><ele>175.4</ele><time>2026-04-26T09:04:10Z</time></trkpt><trkpt lat="40.76613531631154" lon="17.459424598721366"><ele>175.0</ele><time>2026-04-26T09:04:12Z</time></trkpt><trkpt lat="40.766132135965194" lon="17.459512723311626"><ele>173.8</ele><time>2026-04-26T09:04:13Z</time></trkpt><trkpt lat="40.76621562822744" lon="17.45966491183526"><ele>172.6</ele><time>2026-04-26T09:04:14.999Z</time></trkpt><trkpt lat="40.76627511839857" lon="17.45973615300735"><ele>171.39999999999998</ele><time>2026-04-26T09:04:15.999Z</time></trkpt><trkpt lat="40.7663792053103" lon="17.459828397877086"><ele>170.2</ele><time>2026-04-26T09:04:17.999Z</time></trkpt><trkpt lat="40.766444631042425" lon="17.45988547623537"><ele>169.0</ele><time>2026-04-26T09:04:18.999Z</time></trkpt><trkpt lat="40.76651743392348" lon="17.459940488786714"><ele>169.0</ele><time>2026-04-26T09:04:19.999Z</time></trkpt><trkpt lat="40.76658739019599" lon="17.46000424825697"><ele>169.0</ele><time>2026-04-26T09:04:20.999Z</time></trkpt><trkpt lat="40.76662498375439" lon="17.460101652480972"><ele>169.0</ele><time>2026-04-26T09:04:21.999Z</time></trkpt><trkpt lat="40.76666041048062" lon="17.460216493094773"><ele>169.0</ele><time>2026-04-26T09:04:22.999Z</time></trkpt><trkpt lat="40.766683497501425" lon="17.460308707141056"><ele>169.0</ele><time>2026-04-26T09:04:23.999Z</time></trkpt><trkpt lat="40.76676889781563" lon="17.46044350194284"><ele>168.66666666666669</ele><time>2026-04-26T09:04:25.999Z</time></trkpt><trkpt lat="40.76683605110789" lon="17.46050135128172"><ele>168.33333333333334</ele><time>2026-04-26T09:04:26.999Z</time></trkpt><trkpt lat="40.766896851612664" lon="17.460537951609165"><ele>168.0</ele><time>2026-04-26T09:04:27.999Z</time></trkpt><trkpt lat="40.76698571965536" lon="17.46055631634004"><ele>167.66666666666666</ele><time>2026-04-26T09:04:28.999Z</time></trkpt><trkpt lat="40.76706955651738" lon="17.46053787498396"><ele>167.33333333333331</ele><time>2026-04-26T09:04:29.999Z</time></trkpt><trkpt lat="40.76713480020483" lon="17.460528495975826"><ele>167.0</ele><time>2026-04-26T09:04:30.999Z</time></trkpt><trkpt lat="40.76719734564626" lon="17.460542085081542"><ele>166.39999999999998</ele><time>2026-04-26T09:04:31.999Z</time></trkpt><trkpt lat="40.76729857697895" lon="17.46050068093268"><ele>165.79999999999998</ele><time>2026-04-26T09:04:33.999Z</time></trkpt><trkpt lat="40.767359571489315" lon="17.460472606411365"><ele>165.2</ele><time>2026-04-26T09:04:34.999Z</time></trkpt><trkpt lat="40.767463770098054" lon="17.46041962996356"><ele>164.6</ele><time>2026-04-26T09:04:36.999Z</time></trkpt><trkpt lat="40.76752111097586" lon="17.460380980272394"><ele>164.0</ele><time>2026-04-26T09:04:37.999Z</time></trkpt><trkpt lat="40.76762862445823" lon="17.460347889839706"><ele>162.2</ele><time>2026-04-26T09:04:39.999Z</time></trkpt><trkpt lat="40.7677319683942" lon="17.46032527208577"><ele>160.39999999999998</ele><time>2026-04-26T09:04:41.999Z</time></trkpt><trkpt lat="40.767834113230066" lon="17.46024597163256"><ele>158.6</ele><time>2026-04-26T09:04:43.999Z</time></trkpt><trkpt lat="40.767899516533326" lon="17.46022191759634"><ele>156.8</ele><time>2026-04-26T09:04:44.999Z</time></trkpt><trkpt lat="40.76795802325034" lon="17.460190455317747"><ele>155.0</ele><time>2026-04-26T09:04:45.999Z</time></trkpt><trkpt lat="40.76802649889564" lon="17.460053720610002"><ele>155.0</ele><time>2026-04-26T09:04:47.999Z</time></trkpt><trkpt lat="40.76811177013369" lon="17.459981521984833"><ele>155.0</ele><time>2026-04-26T09:04:49.999Z</time></trkpt><trkpt lat="40.76820933944785" lon="17.459926235432093"><ele>155.0</ele><time>2026-04-26T09:04:51.999Z</time></trkpt><trkpt lat="40.768300377711746" lon="17.459882273024235"><ele>155.0</ele><time>2026-04-26T09:04:53.999Z</time></trkpt><trkpt lat="40.768400739476384" lon="17.459821018362806"><ele>155.0</ele><time>2026-04-26T09:04:55.999Z</time></trkpt><trkpt lat="40.76846573057176" lon="17.459800318439388"><ele>154.33333333333331</ele><time>2026-04-26T09:04:56.999Z</time></trkpt><trkpt lat="40.76853102250869" lon="17.459773659065785"><ele>153.66666666666666</ele><time>2026-04-26T09:04:57.999Z</time></trkpt><trkpt lat="40.76864244742273" lon="17.459724272286422"><ele>153.0</ele><time>2026-04-26T09:04:59.999Z</time></trkpt><trkpt lat="40.768713843293924" lon="17.459717889307136"><ele>152.33333333333334</ele><time>2026-04-26T09:05:00.999Z</time></trkpt><trkpt lat="40.76878088030122" lon="17.459717440342413"><ele>151.66666666666669</ele><time>2026-04-26T09:05:01.999Z</time></trkpt><trkpt lat="40.76887974201568" lon="17.459683735398375"><ele>151.0</ele><time>2026-04-26T09:05:03.999Z</time></trkpt><trkpt lat="40.76896750846736" lon="17.45958105955776"><ele>151.00000000000003</ele><time>2026-04-26T09:05:05.999Z</time></trkpt><trkpt lat="40.76901335681436" lon="17.459494624263105"><ele>151.0</ele><time>2026-04-26T09:05:06.999Z</time></trkpt><trkpt lat="40.769051004892745" lon="17.459418920966765"><ele>151.0</ele><time>2026-04-26T09:05:07.999Z</time></trkpt><trkpt lat="40.76910346516405" lon="17.45936540482682"><ele>151.0</ele><time>2026-04-26T09:05:10.999Z</time></trkpt><trkpt lat="40.76914098748773" lon="17.45943452702909"><ele>151.0</ele><time>2026-04-26T09:05:12.999Z</time></trkpt><trkpt lat="40.769211130698054" lon="17.45947774424128"><ele>151.00000000000003</ele><time>2026-04-26T09:05:14.999Z</time></trkpt><trkpt lat="40.769284350369794" lon="17.459512556025356"><ele>151.0</ele><time>2026-04-26T09:05:15.999Z</time></trkpt><trkpt lat="40.76934502019657" lon="17.459476202313237"><ele>149.16666666666669</ele><time>2026-04-26T09:05:16.999Z</time></trkpt><trkpt lat="40.76940889005214" lon="17.45945900445957"><ele>147.33333333333334</ele><time>2026-04-26T09:05:17.999Z</time></trkpt><trkpt lat="40.76949812072559" lon="17.45943329512706"><ele>145.5</ele><time>2026-04-26T09:05:19.998Z</time></trkpt><trkpt lat="40.76956109032815" lon="17.45945373052889"><ele>143.66666666666666</ele><time>2026-04-26T09:05:20.998Z</time></trkpt><trkpt lat="40.76964275867515" lon="17.45956496042515"><ele>141.83333333333331</ele><time>2026-04-26T09:05:22.998Z</time></trkpt><trkpt lat="40.76973795921081" lon="17.45962380036588"><ele>140.0</ele><time>2026-04-26T09:05:24.998Z</time></trkpt><trkpt lat="40.769858433537706" lon="17.459587901691144"><ele>140.0</ele><time>2026-04-26T09:05:26.998Z</time></trkpt><trkpt lat="40.769979574952224" lon="17.45957286173093"><ele>140.0</ele><time>2026-04-26T09:05:28.998Z</time></trkpt><trkpt lat="40.77003928563361" lon="17.45960858298779"><ele>140.0</ele><time>2026-04-26T09:05:29.998Z</time></trkpt><trkpt lat="40.770092833353736" lon="17.459664678745725"><ele>140.0</ele><time>2026-04-26T09:05:30.998Z</time></trkpt><trkpt lat="40.77018788061666" lon="17.45977580766781"><ele>140.0</ele><time>2026-04-26T09:05:32.998Z</time></trkpt><trkpt lat="40.77023732068447" lon="17.459839570340883"><ele>139.16666666666666</ele><time>2026-04-26T09:05:33.998Z</time></trkpt><trkpt lat="40.770310707219586" lon="17.459940015999912"><ele>138.33333333333331</ele><time>2026-04-26T09:05:35.998Z</time></trkpt><trkpt lat="40.770322275015424" lon="17.460049395101077"><ele>137.5</ele><time>2026-04-26T09:05:37.998Z</time></trkpt><trkpt lat="40.770266956930854" lon="17.46015071030826"><ele>136.66666666666666</ele><time>2026-04-26T09:05:40Z</time></trkpt><trkpt lat="40.77022371017473" lon="17.460220495719017"><ele>135.83333333333334</ele><time>2026-04-26T09:05:42Z</time></trkpt><trkpt lat="40.77016590040412" lon="17.460310099607405"><ele>135.0</ele><time>2026-04-26T09:05:44Z</time></trkpt><trkpt lat="40.77009597863628" lon="17.460414824396242"><ele>134.8</ele><time>2026-04-26T09:05:46Z</time></trkpt><trkpt lat="40.7700301697072" lon="17.460518877647146"><ele>134.6</ele><time>2026-04-26T09:05:48Z</time></trkpt><trkpt lat="40.76996984099745" lon="17.460607326132884"><ele>134.4</ele><time>2026-04-26T09:05:50Z</time></trkpt><trkpt lat="40.76990624423458" lon="17.460700662386397"><ele>134.2</ele><time>2026-04-26T09:05:52Z</time></trkpt><trkpt lat="40.76984779580741" lon="17.460805864512466"><ele>134.0</ele><time>2026-04-26T09:05:54Z</time></trkpt><trkpt lat="40.769848043727826" lon="17.460896545824326"><ele>134.0</ele><time>2026-04-26T09:05:56Z</time></trkpt><trkpt lat="40.76991111681894" lon="17.460951740772312"><ele>134.0</ele><time>2026-04-26T09:05:58Z</time></trkpt><trkpt lat="40.77000747116278" lon="17.461006881271576"><ele>134.0</ele><time>2026-04-26T09:06:00Z</time></trkpt><trkpt lat="40.770113251244204" lon="17.461038688828978"><ele>134.0</ele><time>2026-04-26T09:06:02Z</time></trkpt><trkpt lat="40.77020823209136" lon="17.461076962747715"><ele>134.0</ele><time>2026-04-26T09:06:04Z</time></trkpt><trkpt lat="40.77033205984828" lon="17.46112416313075"><ele>133.16666666666666</ele><time>2026-04-26T09:06:06Z</time></trkpt><trkpt lat="40.770393537354764" lon="17.461149102532126"><ele>132.33333333333331</ele><time>2026-04-26T09:06:07Z</time></trkpt><trkpt lat="40.7704539077664" lon="17.46117965443547"><ele>131.5</ele><time>2026-04-26T09:06:08Z</time></trkpt><trkpt lat="40.770515319201124" lon="17.461214514446702"><ele>130.66666666666666</ele><time>2026-04-26T09:06:09Z</time></trkpt><trkpt lat="40.77062348692979" lon="17.461278879327622"><ele>129.83333333333334</ele><time>2026-04-26T09:06:11Z</time></trkpt><trkpt lat="40.770674175777955" lon="17.461344121223487"><ele>129.0</ele><time>2026-04-26T09:06:12Z</time></trkpt><trkpt lat="40.77072535485562" lon="17.461421017619344"><ele>128.42857142857142</ele><time>2026-04-26T09:06:13Z</time></trkpt><trkpt lat="40.7707712744948" lon="17.461495598426954"><ele>127.85714285714286</ele><time>2026-04-26T09:06:14Z</time></trkpt><trkpt lat="40.77081903959021" lon="17.461556877198642"><ele>127.28571428571428</ele><time>2026-04-26T09:06:15Z</time></trkpt><trkpt lat="40.77087505316278" lon="17.46161895650568"><ele>126.71428571428571</ele><time>2026-04-26T09:06:16Z</time></trkpt><trkpt lat="40.770926364342486" lon="17.461669376001495"><ele>126.14285714285714</ele><time>2026-04-26T09:06:17Z</time></trkpt><trkpt lat="40.770981566505576" lon="17.461723554672123"><ele>125.57142857142857</ele><time>2026-04-26T09:06:18Z</time></trkpt><trkpt lat="40.771035260176404" lon="17.46176718445815"><ele>125.0</ele><time>2026-04-26T09:06:19Z</time></trkpt><trkpt lat="40.771135363019134" lon="17.461880839725332"><ele>124.4</ele><time>2026-04-26T09:06:20.999Z</time></trkpt><trkpt lat="40.771234438983164" lon="17.461969670730117"><ele>123.8</ele><time>2026-04-26T09:06:22.999Z</time></trkpt><trkpt lat="40.771298134649385" lon="17.4620101324575"><ele>123.19999999999999</ele><time>2026-04-26T09:06:23.999Z</time></trkpt><trkpt lat="40.77135404214772" lon="17.462053141207374"><ele>122.6</ele><time>2026-04-26T09:06:24.999Z</time></trkpt><trkpt lat="40.77142408474995" lon="17.46215544379517"><ele>122.0</ele><time>2026-04-26T09:06:26.999Z</time></trkpt><trkpt lat="40.771474747353764" lon="17.46229749779476"><ele>121.83333333333333</ele><time>2026-04-26T09:06:28.999Z</time></trkpt><trkpt lat="40.77149403422515" lon="17.46244707615812"><ele>121.66666666666666</ele><time>2026-04-26T09:06:30.999Z</time></trkpt><trkpt lat="40.77145995764887" lon="17.462531793598412"><ele>121.5</ele><time>2026-04-26T09:06:31.999Z</time></trkpt><trkpt lat="40.7714228177543" lon="17.462607482961936"><ele>121.33333333333334</ele><time>2026-04-26T09:06:32.999Z</time></trkpt><trkpt lat="40.77138204190316" lon="17.462677938141564"><ele>121.16666666666667</ele><time>2026-04-26T09:06:33.999Z</time></trkpt><trkpt lat="40.7712923888976" lon="17.46277704083677"><ele>121.0</ele><time>2026-04-26T09:06:35.999Z</time></trkpt><trkpt lat="40.77123653234312" lon="17.462821352960226"><ele>121.0</ele><time>2026-04-26T09:06:36.999Z</time></trkpt><trkpt lat="40.771177491152095" lon="17.46285633204228"><ele>121.0</ele><time>2026-04-26T09:06:37.999Z</time></trkpt><trkpt lat="40.77107315945326" lon="17.46286323359608"><ele>121.0</ele><time>2026-04-26T09:06:39.999Z</time></trkpt><trkpt lat="40.77096514268125" lon="17.46291467372253"><ele>121.0</ele><time>2026-04-26T09:06:41.999Z</time></trkpt><trkpt lat="40.77089936034241" lon="17.463015048271952"><ele>121.0</ele><time>2026-04-26T09:06:43.999Z</time></trkpt><trkpt lat="40.77083312857947" lon="17.463112501951837"><ele>121.19999999999999</ele><time>2026-04-26T09:06:45.999Z</time></trkpt><trkpt lat="40.77074625771253" lon="17.463195578494275"><ele>121.39999999999999</ele><time>2026-04-26T09:06:47.999Z</time></trkpt><trkpt lat="40.77064195590851" lon="17.463215487361282"><ele>121.6</ele><time>2026-04-26T09:06:49.999Z</time></trkpt><trkpt lat="40.77054464718584" lon="17.463248872948345"><ele>121.8</ele><time>2026-04-26T09:06:51.999Z</time></trkpt><trkpt lat="40.77046259811087" lon="17.46329157172697"><ele>122.0</ele><time>2026-04-26T09:06:53.999Z</time></trkpt><trkpt lat="40.77039030882807" lon="17.463367363641396"><ele>121.99999999999999</ele><time>2026-04-26T09:06:55.999Z</time></trkpt><trkpt lat="40.77031588231908" lon="17.46345072679162"><ele>122.0</ele><time>2026-04-26T09:06:57.999Z</time></trkpt><trkpt lat="40.770227002412284" lon="17.4634979368619"><ele>122.0</ele><time>2026-04-26T09:06:59.999Z</time></trkpt><trkpt lat="40.770141912713136" lon="17.463501434622334"><ele>122.0</ele><time>2026-04-26T09:07:01.999Z</time></trkpt><trkpt lat="40.770086180833175" lon="17.463541131665377"><ele>121.99999999999999</ele><time>2026-04-26T09:07:03.999Z</time></trkpt><trkpt lat="40.77005572425702" lon="17.463645865395513"><ele>122.0</ele><time>2026-04-26T09:07:05.999Z</time></trkpt><trkpt lat="40.76999198576707" lon="17.463770229967185"><ele>122.39999999999999</ele><time>2026-04-26T09:07:07.999Z</time></trkpt><trkpt lat="40.769953692917326" lon="17.463900883378017"><ele>122.79999999999998</ele><time>2026-04-26T09:07:09.999Z</time></trkpt><trkpt lat="40.76988479065812" lon="17.4640327303463"><ele>123.2</ele><time>2026-04-26T09:07:11.999Z</time></trkpt><trkpt lat="40.769830286410915" lon="17.464148813094315"><ele>123.6</ele><time>2026-04-26T09:07:13.999Z</time></trkpt><trkpt lat="40.76977321864854" lon="17.464282369118944"><ele>124.0</ele><time>2026-04-26T09:07:15.999Z</time></trkpt><trkpt lat="40.769705251426345" lon="17.46438888060918"><ele>124.0</ele><time>2026-04-26T09:07:17.999Z</time></trkpt><trkpt lat="40.769661897451286" lon="17.464507645047004"><ele>124.0</ele><time>2026-04-26T09:07:19.999Z</time></trkpt><trkpt lat="40.769610172999656" lon="17.464628805083986"><ele>124.0</ele><time>2026-04-26T09:07:21.999Z</time></trkpt><trkpt lat="40.76957422587569" lon="17.464700104256135"><ele>124.0</ele><time>2026-04-26T09:07:22.999Z</time></trkpt><trkpt lat="40.76951325493077" lon="17.464831946233293"><ele>124.0</ele><time>2026-04-26T09:07:24.999Z</time></trkpt><trkpt lat="40.76949436957723" lon="17.464916192695856"><ele>123.0</ele><time>2026-04-26T09:07:25.998Z</time></trkpt><trkpt lat="40.7694775238604" lon="17.465079455203576"><ele>122.0</ele><time>2026-04-26T09:07:27.998Z</time></trkpt><trkpt lat="40.769454837678595" lon="17.46523953854522"><ele>121.0</ele><time>2026-04-26T09:07:29.998Z</time></trkpt><trkpt lat="40.76942089839506" lon="17.46539734662697"><ele>120.0</ele><time>2026-04-26T09:07:31.998Z</time></trkpt><trkpt lat="40.76939746277325" lon="17.465549656894158"><ele>119.66666666666667</ele><time>2026-04-26T09:07:33.998Z</time></trkpt><trkpt lat="40.7693738245309" lon="17.465685631417454"><ele>119.33333333333334</ele><time>2026-04-26T09:07:35.998Z</time></trkpt><trkpt lat="40.7693625584707" lon="17.465768367065937"><ele>119.0</ele><time>2026-04-26T09:07:36.998Z</time></trkpt><trkpt lat="40.76934883528391" lon="17.465849686251286"><ele>118.66666666666667</ele><time>2026-04-26T09:07:37.998Z</time></trkpt><trkpt lat="40.76933727228041" lon="17.465934565159813"><ele>118.33333333333334</ele><time>2026-04-26T09:07:38.998Z</time></trkpt><trkpt lat="40.769309531348505" lon="17.466087327808935"><ele>118.0</ele><time>2026-04-26T09:07:40.998Z</time></trkpt><trkpt lat="40.76928137673818" lon="17.466242692581154"><ele>119.0</ele><time>2026-04-26T09:07:42.998Z</time></trkpt><trkpt lat="40.76926634415954" lon="17.466328769857316"><ele>120.00000000000001</ele><time>2026-04-26T09:07:43.998Z</time></trkpt><trkpt lat="40.76924156618602" lon="17.46647138904721"><ele>121.00000000000001</ele><time>2026-04-26T09:07:46Z</time></trkpt><trkpt lat="40.76923575678051" lon="17.466561111033744"><ele>122.0</ele><time>2026-04-26T09:07:47Z</time></trkpt><trkpt lat="40.76922570201757" lon="17.466708187865294"><ele>123.0</ele><time>2026-04-26T09:07:49Z</time></trkpt><trkpt lat="40.76922746539019" lon="17.4668413733608"><ele>123.0</ele><time>2026-04-26T09:07:51Z</time></trkpt><trkpt lat="40.76927166474174" lon="17.466915324331893"><ele>123.00000000000001</ele><time>2026-04-26T09:07:54Z</time></trkpt><trkpt lat="40.76942435962919" lon="17.466913185353043"><ele>123.00000000000001</ele><time>2026-04-26T09:07:57Z</time></trkpt><trkpt lat="40.769535864034665" lon="17.46690336923032"><ele>123.0</ele><time>2026-04-26T09:07:59Z</time></trkpt><trkpt lat="40.76959926904932" lon="17.46691121382944"><ele>123.0</ele><time>2026-04-26T09:08:00Z</time></trkpt><trkpt lat="40.7696701734088" lon="17.466919157700538"><ele>121.75</ele><time>2026-04-26T09:08:01Z</time></trkpt><trkpt lat="40.769781201145896" lon="17.466921687408792"><ele>120.5</ele><time>2026-04-26T09:08:03Z</time></trkpt><trkpt lat="40.76990237243636" lon="17.466933548645628"><ele>119.25</ele><time>2026-04-26T09:08:05Z</time></trkpt><trkpt lat="40.77004636142176" lon="17.466952786791865"><ele>118.0</ele><time>2026-04-26T09:08:07Z</time></trkpt><trkpt lat="40.77016326656223" lon="17.46698451237634"><ele>117.4</ele><time>2026-04-26T09:08:09Z</time></trkpt><trkpt lat="40.77024318352093" lon="17.46697279909023"><ele>116.80000000000001</ele><time>2026-04-26T09:08:10Z</time></trkpt><trkpt lat="40.770354059701816" lon="17.467004990751875"><ele>116.2</ele><time>2026-04-26T09:08:12Z</time></trkpt><trkpt lat="40.77047001700186" lon="17.46702928545715"><ele>115.6</ele><time>2026-04-26T09:08:14Z</time></trkpt><trkpt lat="40.7705367599562" lon="17.467047849711324"><ele>115.0</ele><time>2026-04-26T09:08:15Z</time></trkpt><trkpt lat="40.770650560867004" lon="17.46707621842299"><ele>114.85714285714283</ele><time>2026-04-26T09:08:17Z</time></trkpt><trkpt lat="40.77071020751591" lon="17.46713215956786"><ele>114.71428571428571</ele><time>2026-04-26T09:08:18Z</time></trkpt><trkpt lat="40.77077586432551" lon="17.46714582515942"><ele>114.57142857142856</ele><time>2026-04-26T09:08:19Z</time></trkpt><trkpt lat="40.770842971139466" lon="17.467159792546973"><ele>114.42857142857142</ele><time>2026-04-26T09:08:20Z</time></trkpt><trkpt lat="40.77091065181401" lon="17.46717387938014"><ele>114.28571428571428</ele><time>2026-04-26T09:08:21Z</time></trkpt><trkpt lat="40.77098125264782" lon="17.467188574002247"><ele>114.14285714285714</ele><time>2026-04-26T09:08:22Z</time></trkpt><trkpt lat="40.77104999264734" lon="17.467202881321253"><ele>114.0</ele><time>2026-04-26T09:08:23Z</time></trkpt><trkpt lat="40.771114837955274" lon="17.467217012673704"><ele>113.71428571428571</ele><time>2026-04-26T09:08:24Z</time></trkpt><trkpt lat="40.77117809039638" lon="17.467231313421994"><ele>113.42857142857142</ele><time>2026-04-26T09:08:25Z</time></trkpt><trkpt lat="40.77125697510402" lon="17.46724914846786"><ele>113.14285714285714</ele><time>2026-04-26T09:08:26Z</time></trkpt><trkpt lat="40.77132422992923" lon="17.467264354107805"><ele>112.85714285714286</ele><time>2026-04-26T09:08:27Z</time></trkpt><trkpt lat="40.771397155592126" lon="17.467248274168522"><ele>112.57142857142857</ele><time>2026-04-26T09:08:28Z</time></trkpt><trkpt lat="40.77147972660478" lon="17.46728024925747"><ele>112.28571428571428</ele><time>2026-04-26T09:08:29Z</time></trkpt><trkpt lat="40.77155266941384" lon="17.46728196838292"><ele>112.0</ele><time>2026-04-26T09:08:30Z</time></trkpt><trkpt lat="40.77162501561519" lon="17.467298290013062"><ele>112.00000000000001</ele><time>2026-04-26T09:08:31Z</time></trkpt><trkpt lat="40.77169473684216" lon="17.46732116956463"><ele>112.0</ele><time>2026-04-26T09:08:32Z</time></trkpt><trkpt lat="40.77177673820372" lon="17.467333496385393"><ele>112.0</ele><time>2026-04-26T09:08:33Z</time></trkpt><trkpt lat="40.771866436453685" lon="17.467370830602416"><ele>112.0</ele><time>2026-04-26T09:08:34.999Z</time></trkpt><trkpt lat="40.77186762760763" lon="17.467515747122516"><ele>112.00000000000001</ele><time>2026-04-26T09:08:36.999Z</time></trkpt><trkpt lat="40.77183306480329" lon="17.467588430328533"><ele>112.0</ele><time>2026-04-26T09:08:37.999Z</time></trkpt><trkpt lat="40.77175247427257" lon="17.467705714905186"><ele>112.0</ele><time>2026-04-26T09:08:39.999Z</time></trkpt><trkpt lat="40.771687578651076" lon="17.467835293400366"><ele>112.0</ele><time>2026-04-26T09:08:41.999Z</time></trkpt><trkpt lat="40.771622612377726" lon="17.46796712409165"><ele>112.0</ele><time>2026-04-26T09:08:43.999Z</time></trkpt><trkpt lat="40.771559976925175" lon="17.468089752355986"><ele>112.0</ele><time>2026-04-26T09:08:45.999Z</time></trkpt><trkpt lat="40.7715036723188" lon="17.468210345746343"><ele>111.8</ele><time>2026-04-26T09:08:47.999Z</time></trkpt><trkpt lat="40.77144293381311" lon="17.468337691993828"><ele>111.6</ele><time>2026-04-26T09:08:49.999Z</time></trkpt><trkpt lat="40.771381350459414" lon="17.46846744625856"><ele>111.39999999999999</ele><time>2026-04-26T09:08:51.999Z</time></trkpt><trkpt lat="40.7713597858242" lon="17.468550482957998"><ele>111.19999999999999</ele><time>2026-04-26T09:08:52.999Z</time></trkpt><trkpt lat="40.77128946723685" lon="17.468666797567654"><ele>111.0</ele><time>2026-04-26T09:08:54.999Z</time></trkpt><trkpt lat="40.771254030184146" lon="17.468737217435805"><ele>110.8</ele><time>2026-04-26T09:08:55.999Z</time></trkpt><trkpt lat="40.77119091964812" lon="17.46884466116397"><ele>110.6</ele><time>2026-04-26T09:08:57.999Z</time></trkpt><trkpt lat="40.77114588140048" lon="17.468999468541995"><ele>110.4</ele><time>2026-04-26T09:08:59.999Z</time></trkpt><trkpt lat="40.77116779554023" lon="17.46908881810583"><ele>110.2</ele><time>2026-04-26T09:09:00.999Z</time></trkpt><trkpt lat="40.77122828444323" lon="17.46915008152636"><ele>110.0</ele><time>2026-04-26T09:09:01.999Z</time></trkpt><trkpt lat="40.77132226565761" lon="17.469222098132082"><ele>110.0</ele><time>2026-04-26T09:09:03.999Z</time></trkpt><trkpt lat="40.77141268533517" lon="17.469306746056407"><ele>110.0</ele><time>2026-04-26T09:09:05.999Z</time></trkpt><trkpt lat="40.77149683746521" lon="17.469390963098643"><ele>110.0</ele><time>2026-04-26T09:09:07.999Z</time></trkpt><trkpt lat="40.77157849517232" lon="17.46946048879908"><ele>110.0</ele><time>2026-04-26T09:09:09.999Z</time></trkpt><trkpt lat="40.7716691267392" lon="17.46955000056228"><ele>110.0</ele><time>2026-04-26T09:09:11.999Z</time></trkpt><trkpt lat="40.771746870186504" lon="17.469645245548854"><ele>109.75</ele><time>2026-04-26T09:09:13.999Z</time></trkpt><trkpt lat="40.77185062063793" lon="17.469737920635826"><ele>109.5</ele><time>2026-04-26T09:09:15.999Z</time></trkpt><trkpt lat="40.77193765363415" lon="17.469830719648062"><ele>109.25</ele><time>2026-04-26T09:09:17.999Z</time></trkpt><trkpt lat="40.772037797569084" lon="17.46992666111621"><ele>109.0</ele><time>2026-04-26T09:09:19.999Z</time></trkpt><trkpt lat="40.77213188937925" lon="17.470018041182993"><ele>108.6</ele><time>2026-04-26T09:09:21.999Z</time></trkpt><trkpt lat="40.77222597667003" lon="17.470113739306267"><ele>108.2</ele><time>2026-04-26T09:09:23.999Z</time></trkpt><trkpt lat="40.772334111358035" lon="17.470226939092978"><ele>107.79999999999998</ele><time>2026-04-26T09:09:25.999Z</time></trkpt><trkpt lat="40.77242202433789" lon="17.47029993985061"><ele>107.39999999999999</ele><time>2026-04-26T09:09:27.999Z</time></trkpt><trkpt lat="40.77248423726929" lon="17.470346064043472"><ele>107.0</ele><time>2026-04-26T09:09:28.999Z</time></trkpt><trkpt lat="40.77258957979545" lon="17.470417482651442"><ele>105.75</ele><time>2026-04-26T09:09:30.999Z</time></trkpt><trkpt lat="40.77269199742568" lon="17.470509549290547"><ele>104.5</ele><time>2026-04-26T09:09:32.999Z</time></trkpt><trkpt lat="40.77279175072723" lon="17.47058701392548"><ele>103.25</ele><time>2026-04-26T09:09:34.999Z</time></trkpt><trkpt lat="40.772896103248534" lon="17.470671507072023"><ele>102.0</ele><time>2026-04-26T09:09:36.999Z</time></trkpt><trkpt lat="40.77300354934819" lon="17.470761091288267"><ele>102.0</ele><time>2026-04-26T09:09:38.998Z</time></trkpt><trkpt lat="40.773056737623655" lon="17.47080793099267"><ele>102.0</ele><time>2026-04-26T09:09:39.998Z</time></trkpt><trkpt lat="40.773153003768286" lon="17.470905461973864"><ele>102.0</ele><time>2026-04-26T09:09:41.998Z</time></trkpt><trkpt lat="40.773259039997036" lon="17.471004430982617"><ele>102.0</ele><time>2026-04-26T09:09:43.998Z</time></trkpt><trkpt lat="40.773367350987826" lon="17.471058826666344"><ele>102.0</ele><time>2026-04-26T09:09:45.998Z</time></trkpt><trkpt lat="40.77347587663126" lon="17.47114299506428"><ele>102.0</ele><time>2026-04-26T09:09:47.998Z</time></trkpt><trkpt lat="40.7735276000186" lon="17.471191790466683"><ele>102.0</ele><time>2026-04-26T09:09:48.998Z</time></trkpt><trkpt lat="40.77363424665927" lon="17.47127573249619"><ele>102.0</ele><time>2026-04-26T09:09:51Z</time></trkpt><trkpt lat="40.77369201963753" lon="17.471316826317334"><ele>102.0</ele><time>2026-04-26T09:09:52Z</time></trkpt><trkpt lat="40.77379412111249" lon="17.471409189177027"><ele>102.0</ele><time>2026-04-26T09:09:54Z</time></trkpt><trkpt lat="40.773908070695555" lon="17.47149502638926"><ele>102.19999999999999</ele><time>2026-04-26T09:09:56Z</time></trkpt><trkpt lat="40.77399925892954" lon="17.471569589656895"><ele>102.4</ele><time>2026-04-26T09:09:58Z</time></trkpt><trkpt lat="40.774101630330065" lon="17.471658105333468"><ele>102.6</ele><time>2026-04-26T09:10:00Z</time></trkpt><trkpt lat="40.774157971680204" lon="17.471710339596818"><ele>102.80000000000001</ele><time>2026-04-26T09:10:01Z</time></trkpt><trkpt lat="40.774214732177924" lon="17.471756558870105"><ele>103.0</ele><time>2026-04-26T09:10:02Z</time></trkpt><trkpt lat="40.77431345713472" lon="17.471842942198183"><ele>102.71428571428571</ele><time>2026-04-26T09:10:04Z</time></trkpt><trkpt lat="40.774370565434005" lon="17.471889033051667"><ele>102.42857142857143</ele><time>2026-04-26T09:10:05Z</time></trkpt><trkpt lat="40.77442764952263" lon="17.471935025474544"><ele>102.14285714285714</ele><time>2026-04-26T09:10:06Z</time></trkpt><trkpt lat="40.77448614574155" lon="17.47197713407328"><ele>101.85714285714286</ele><time>2026-04-26T09:10:07Z</time></trkpt><trkpt lat="40.77453943526321" lon="17.47202251250059"><ele>101.57142857142857</ele><time>2026-04-26T09:10:08Z</time></trkpt><trkpt lat="40.77459676159645" lon="17.47207017103795"><ele>101.28571428571428</ele><time>2026-04-26T09:10:09Z</time></trkpt><trkpt lat="40.77465203961346" lon="17.472112577092954"><ele>101.0</ele><time>2026-04-26T09:10:10Z</time></trkpt><trkpt lat="40.774708548854335" lon="17.472151473683994"><ele>100.49999999999999</ele><time>2026-04-26T09:10:11Z</time></trkpt><trkpt lat="40.77476356082599" lon="17.472196828973114"><ele>100.0</ele><time>2026-04-26T09:10:12Z</time></trkpt><trkpt lat="40.77486392887739" lon="17.472284722347666"><ele>99.5</ele><time>2026-04-26T09:10:14Z</time></trkpt><trkpt lat="40.77497390452338" lon="17.47237264889029"><ele>99.0</ele><time>2026-04-26T09:10:16Z</time></trkpt><trkpt lat="40.775028222067526" lon="17.472420356133682"><ele>98.49999999999999</ele><time>2026-04-26T09:10:17Z</time></trkpt><trkpt lat="40.77508551091354" lon="17.47245832931114"><ele>98.0</ele><time>2026-04-26T09:10:18Z</time></trkpt><trkpt lat="40.77513873212658" lon="17.472504233401022"><ele>97.80000000000001</ele><time>2026-04-26T09:10:19Z</time></trkpt><trkpt lat="40.77519669944704" lon="17.472548366136692"><ele>97.6</ele><time>2026-04-26T09:10:20Z</time></trkpt><trkpt lat="40.77530499385075" lon="17.472640716789908"><ele>97.4</ele><time>2026-04-26T09:10:22Z</time></trkpt><trkpt lat="40.775360172277644" lon="17.472684779015363"><ele>97.19999999999999</ele><time>2026-04-26T09:10:23Z</time></trkpt><trkpt lat="40.77546377476303" lon="17.47277355516056"><ele>97.0</ele><time>2026-04-26T09:10:25Z</time></trkpt><trkpt lat="40.77556383251708" lon="17.472856712672954"><ele>97.0</ele><time>2026-04-26T09:10:27Z</time></trkpt><trkpt lat="40.77561959823021" lon="17.472898642279002"><ele>97.0</ele><time>2026-04-26T09:10:28Z</time></trkpt><trkpt lat="40.77572053495253" lon="17.47298573425469"><ele>97.0</ele><time>2026-04-26T09:10:30Z</time></trkpt><trkpt lat="40.77583096955746" lon="17.47307249423909"><ele>97.0</ele><time>2026-04-26T09:10:32Z</time></trkpt><trkpt lat="40.77593522363257" lon="17.473159060847216"><ele>97.0</ele><time>2026-04-26T09:10:34Z</time></trkpt><trkpt lat="40.77603692603004" lon="17.473248668601276"><ele>96.66666666666667</ele><time>2026-04-26T09:10:36Z</time></trkpt><trkpt lat="40.776092936408695" lon="17.473289841982695"><ele>96.33333333333334</ele><time>2026-04-26T09:10:37Z</time></trkpt><trkpt lat="40.77615504912924" lon="17.473329225178862"><ele>96.0</ele><time>2026-04-26T09:10:38Z</time></trkpt><trkpt lat="40.776209976939114" lon="17.473371270406577"><ele>95.66666666666667</ele><time>2026-04-26T09:10:38.999Z</time></trkpt><trkpt lat="40.77630984618711" lon="17.473467068794076"><ele>95.33333333333334</ele><time>2026-04-26T09:10:40.999Z</time></trkpt><trkpt lat="40.776373566470355" lon="17.473520426538425"><ele>95.0</ele><time>2026-04-26T09:10:41.999Z</time></trkpt><trkpt lat="40.776432912190764" lon="17.473569441755266"><ele>95.0</ele><time>2026-04-26T09:10:42.999Z</time></trkpt><trkpt lat="40.77649000102021" lon="17.473612634699343"><ele>95.0</ele><time>2026-04-26T09:10:43.999Z</time></trkpt><trkpt lat="40.776547266023655" lon="17.47365710898075"><ele>95.0</ele><time>2026-04-26T09:10:44.999Z</time></trkpt><trkpt lat="40.77660209360457" lon="17.473702048298318"><ele>95.0</ele><time>2026-04-26T09:10:45.999Z</time></trkpt><trkpt lat="40.77665434155337" lon="17.473749538197254"><ele>95.0</ele><time>2026-04-26T09:10:46.999Z</time></trkpt><trkpt lat="40.776763544905194" lon="17.47381269180345"><ele>95.0</ele><time>2026-04-26T09:10:48.999Z</time></trkpt><trkpt lat="40.776819840683345" lon="17.473863403029565"><ele>95.0</ele><time>2026-04-26T09:10:49.999Z</time></trkpt><trkpt lat="40.77691990924936" lon="17.47394582076838"><ele>94.2</ele><time>2026-04-26T09:10:51.999Z</time></trkpt><trkpt lat="40.776998210820985" lon="17.474017424254303"><ele>93.4</ele><time>2026-04-26T09:10:53.999Z</time></trkpt><trkpt lat="40.77702551136564" lon="17.474107384998362"><ele>92.6</ele><time>2026-04-26T09:10:55.999Z</time></trkpt><trkpt lat="40.77699436231721" lon="17.474228564199063"><ele>91.8</ele><time>2026-04-26T09:10:57.999Z</time></trkpt><trkpt lat="40.776959655401086" lon="17.47434332888918"><ele>91.0</ele><time>2026-04-26T09:10:59.999Z</time></trkpt><trkpt lat="40.77693485469893" lon="17.474478239111065"><ele>91.19999999999999</ele><time>2026-04-26T09:11:01.999Z</time></trkpt><trkpt lat="40.7769137815545" lon="17.474622565907058"><ele>91.39999999999999</ele><time>2026-04-26T09:11:03.999Z</time></trkpt><trkpt lat="40.77690130132146" lon="17.47475727632069"><ele>91.6</ele><time>2026-04-26T09:11:05.999Z</time></trkpt><trkpt lat="40.77687889867063" lon="17.474889916679082"><ele>91.8</ele><time>2026-04-26T09:11:07.999Z</time></trkpt><trkpt lat="40.77685514097532" lon="17.47503035272825"><ele>92.0</ele><time>2026-04-26T09:11:09.999Z</time></trkpt><trkpt lat="40.776833590604554" lon="17.47517317294496"><ele>92.0</ele><time>2026-04-26T09:11:11.999Z</time></trkpt><trkpt lat="40.77681711070693" lon="17.47531272008482"><ele>92.0</ele><time>2026-04-26T09:11:13.999Z</time></trkpt><trkpt lat="40.77676833611179" lon="17.475429742548485"><ele>92.0</ele><time>2026-04-26T09:11:15.999Z</time></trkpt><trkpt lat="40.77675882616274" lon="17.475521376550336"><ele>92.0</ele><time>2026-04-26T09:11:16.999Z</time></trkpt><trkpt lat="40.77674260474203" lon="17.475665877621324"><ele>92.0</ele><time>2026-04-26T09:11:18.999Z</time></trkpt><trkpt lat="40.776723611213924" lon="17.475807529457462"><ele>92.0</ele><time>2026-04-26T09:11:20.999Z</time></trkpt><trkpt lat="40.77666539818601" lon="17.47591937182272"><ele>92.0</ele><time>2026-04-26T09:11:22.999Z</time></trkpt><trkpt lat="40.776617388237504" lon="17.476051345360364"><ele>92.0</ele><time>2026-04-26T09:11:24.999Z</time></trkpt><trkpt lat="40.7765760661105" lon="17.476170138439528"><ele>92.0</ele><time>2026-04-26T09:11:26.999Z</time></trkpt><trkpt lat="40.77650133389989" lon="17.476258213484194"><ele>92.0</ele><time>2026-04-26T09:11:28.999Z</time></trkpt><trkpt lat="40.776467507115214" lon="17.476380389100264"><ele>92.0</ele><time>2026-04-26T09:11:30.999Z</time></trkpt><trkpt lat="40.77643856010214" lon="17.476467632955014"><ele>92.0</ele><time>2026-04-26T09:11:31.999Z</time></trkpt><trkpt lat="40.77641190979235" lon="17.476621364275193"><ele>92.0</ele><time>2026-04-26T09:11:33.999Z</time></trkpt><trkpt lat="40.776355500549464" lon="17.47675458333709"><ele>92.0</ele><time>2026-04-26T09:11:35.999Z</time></trkpt><trkpt lat="40.77631083502994" lon="17.47688583890376"><ele>92.0</ele><time>2026-04-26T09:11:37.999Z</time></trkpt><trkpt lat="40.776277634697635" lon="17.476978591483352"><ele>92.0</ele><time>2026-04-26T09:11:38.999Z</time></trkpt><trkpt lat="40.77622544724998" lon="17.47710604183596"><ele>92.0</ele><time>2026-04-26T09:11:40.999Z</time></trkpt><trkpt lat="40.77618755270226" lon="17.477224308036615"><ele>92.0</ele><time>2026-04-26T09:11:42.998Z</time></trkpt><trkpt lat="40.77613613692027" lon="17.477356701279668"><ele>92.0</ele><time>2026-04-26T09:11:44.998Z</time></trkpt><trkpt lat="40.77607405285799" lon="17.477461552799188"><ele>92.0</ele><time>2026-04-26T09:11:46.998Z</time></trkpt><trkpt lat="40.77599287090538" lon="17.47757473762413"><ele>92.0</ele><time>2026-04-26T09:11:48.998Z</time></trkpt><trkpt lat="40.775971947546786" lon="17.477656023643817"><ele>92.0</ele><time>2026-04-26T09:11:49.998Z</time></trkpt><trkpt lat="40.77597026056929" lon="17.47779913420236"><ele>92.0</ele><time>2026-04-26T09:11:51.998Z</time></trkpt><trkpt lat="40.77593420446361" lon="17.47791771766299"><ele>92.0</ele><time>2026-04-26T09:11:53.998Z</time></trkpt><trkpt lat="40.77592193336234" lon="17.478047738732744"><ele>92.0</ele><time>2026-04-26T09:11:55.998Z</time></trkpt><trkpt lat="40.7759066921132" lon="17.478176303013537"><ele>92.0</ele><time>2026-04-26T09:11:58Z</time></trkpt><trkpt lat="40.77592725093878" lon="17.478307398890404"><ele>92.0</ele><time>2026-04-26T09:12:00Z</time></trkpt><trkpt lat="40.77593052262325" lon="17.478395162389383"><ele>92.0</ele><time>2026-04-26T09:12:01Z</time></trkpt><trkpt lat="40.77593640405511" lon="17.47847848625695"><ele>92.0</ele><time>2026-04-26T09:12:02Z</time></trkpt><trkpt lat="40.77593228535056" lon="17.47860284640655"><ele>92.0</ele><time>2026-04-26T09:12:04Z</time></trkpt><trkpt lat="40.775918817654265" lon="17.478720594585642"><ele>92.0</ele><time>2026-04-26T09:12:06Z</time></trkpt><trkpt lat="40.77589254550577" lon="17.478809604421354"><ele>92.0</ele><time>2026-04-26T09:12:07Z</time></trkpt><trkpt lat="40.775873094743694" lon="17.47893287056605"><ele>92.0</ele><time>2026-04-26T09:12:09Z</time></trkpt><trkpt lat="40.77585704751971" lon="17.47901756340548"><ele>92.0</ele><time>2026-04-26T09:12:10Z</time></trkpt><trkpt lat="40.7758478223732" lon="17.479169517433434"><ele>92.0</ele><time>2026-04-26T09:12:12Z</time></trkpt><trkpt lat="40.775839614683505" lon="17.479298198082656"><ele>92.0</ele><time>2026-04-26T09:12:14Z</time></trkpt><trkpt lat="40.77583971545642" lon="17.47938647989857"><ele>92.0</ele><time>2026-04-26T09:12:16Z</time></trkpt><trkpt lat="40.77588729047505" lon="17.47946659898398"><ele>92.0</ele><time>2026-04-26T09:12:19Z</time></trkpt><trkpt lat="40.775982629030864" lon="17.479531578705963"><ele>92.0</ele><time>2026-04-26T09:12:21Z</time></trkpt><trkpt lat="40.77619817006904" lon="17.47957790593015"><ele>92.0</ele><time>2026-04-26T09:12:25Z</time></trkpt><trkpt lat="40.77626369556735" lon="17.479601693891244"><ele>92.0</ele><time>2026-04-26T09:12:26Z</time></trkpt><trkpt lat="40.77637364451192" lon="17.479649804671602"><ele>91.6</ele><time>2026-04-26T09:12:28Z</time></trkpt><trkpt lat="40.77648041695778" lon="17.479694053175205"><ele>91.19999999999999</ele><time>2026-04-26T09:12:30Z</time></trkpt><trkpt lat="40.77658935857789" lon="17.479725257515323"><ele>90.8</ele><time>2026-04-26T09:12:32Z</time></trkpt><trkpt lat="40.776693365594724" lon="17.47975759672619"><ele>90.4</ele><time>2026-04-26T09:12:34Z</time></trkpt><trkpt lat="40.776793160820176" lon="17.47979632357196"><ele>90.0</ele><time>2026-04-26T09:12:36Z</time></trkpt><trkpt lat="40.7769028728939" lon="17.479831152073814"><ele>89.6</ele><time>2026-04-26T09:12:38Z</time></trkpt><trkpt lat="40.776971296145504" lon="17.479884084363093"><ele>89.2</ele><time>2026-04-26T09:12:40Z</time></trkpt><trkpt lat="40.77708616925686" lon="17.479925328599574"><ele>88.80000000000001</ele><time>2026-04-26T09:12:42Z</time></trkpt><trkpt lat="40.77714005866718" lon="17.47999912954746"><ele>88.4</ele><time>2026-04-26T09:12:44Z</time></trkpt><trkpt lat="40.777265192901645" lon="17.480011160946024"><ele>88.0</ele><time>2026-04-26T09:12:48Z</time></trkpt><trkpt lat="40.77731056423915" lon="17.479923024164002"><ele>88.0</ele><time>2026-04-26T09:12:52.999Z</time></trkpt><trkpt lat="40.777237861055674" lon="17.479911718802736"><ele>88.0</ele><time>2026-04-26T09:13:03.999Z</time></trkpt><trkpt lat="40.777176584923716" lon="17.47998319997647"><ele>88.0</ele><time>2026-04-26T09:13:09.999Z</time></trkpt><trkpt lat="40.7772454746925" lon="17.479991948035646"><ele>88.0</ele><time>2026-04-26T09:13:31.999Z</time></trkpt><trkpt lat="40.777588513958015" lon="17.480056124494787"><ele>88.0</ele><time>2026-04-26T09:14:23Z</time></trkpt><trkpt lat="40.77748230910049" lon="17.480036474205246"><ele>88.0</ele><time>2026-04-26T09:14:30Z</time></trkpt><trkpt lat="40.77751355715186" lon="17.480127727629128"><ele>88.0</ele><time>2026-04-26T09:14:34Z</time></trkpt><trkpt lat="40.77745275796471" lon="17.47999982322284"><ele>88.0</ele><time>2026-04-26T09:14:41Z</time></trkpt><trkpt lat="40.77735041089938" lon="17.480057561498572"><ele>88.0</ele><time>2026-04-26T09:14:48Z</time></trkpt><trkpt lat="40.777286667503525" lon="17.48002603346086"><ele>88.0</ele><time>2026-04-26T09:19:21.999Z</time></trkpt><trkpt lat="40.77723610741797" lon="17.479950410775896"><ele>88.0</ele><time>2026-04-26T09:19:54.999Z</time></trkpt><trkpt lat="40.777168909005525" lon="17.479960596205906"><ele>88.0</ele><time>2026-04-26T09:22:36.998Z</time></trkpt><trkpt lat="40.77708715722556" lon="17.479949512239436"><ele>88.0</ele><time>2026-04-26T09:22:39.998Z</time></trkpt><trkpt lat="40.77699992093592" lon="17.479962092640648"><ele>88.0</ele><time>2026-04-26T09:22:43Z</time></trkpt><trkpt lat="40.776918107729585" lon="17.47992456735766"><ele>88.0</ele><time>2026-04-26T09:22:45Z</time></trkpt><trkpt lat="40.77686042244577" lon="17.479865613996918"><ele>88.4</ele><time>2026-04-26T09:22:47Z</time></trkpt><trkpt lat="40.776772990800296" lon="17.479795530852268"><ele>88.80000000000001</ele><time>2026-04-26T09:22:50Z</time></trkpt><trkpt lat="40.7766763146534" lon="17.479777996754482"><ele>89.2</ele><time>2026-04-26T09:22:52Z</time></trkpt><trkpt lat="40.77658985983055" lon="17.479738394500014"><ele>89.6</ele><time>2026-04-26T09:22:54Z</time></trkpt><trkpt lat="40.776523602131135" lon="17.479738662914684"><ele>90.0</ele><time>2026-04-26T09:22:56Z</time></trkpt><trkpt lat="40.77642969521085" lon="17.479704507970084"><ele>90.0</ele><time>2026-04-26T09:22:58Z</time></trkpt><trkpt lat="40.7763503397655" lon="17.479661404557152"><ele>90.0</ele><time>2026-04-26T09:23:00Z</time></trkpt><trkpt lat="40.776255768814146" lon="17.47964553269748"><ele>90.0</ele><time>2026-04-26T09:23:02Z</time></trkpt><trkpt lat="40.77619130183516" lon="17.4795997836003"><ele>90.0</ele><time>2026-04-26T09:23:04Z</time></trkpt><trkpt lat="40.77612489228535" lon="17.479573276167756"><ele>90.0</ele><time>2026-04-26T09:23:07Z</time></trkpt><trkpt lat="40.77604061279674" lon="17.479538005742445"><ele>90.0</ele><time>2026-04-26T09:23:09Z</time></trkpt><trkpt lat="40.775948471872894" lon="17.479500475291395"><ele>90.2</ele><time>2026-04-26T09:23:12Z</time></trkpt><trkpt lat="40.775884110624325" lon="17.479481684964075"><ele>90.4</ele><time>2026-04-26T09:23:14Z</time></trkpt><trkpt lat="40.77584556539222" lon="17.479637963889203"><ele>90.6</ele><time>2026-04-26T09:23:19.999Z</time></trkpt><trkpt lat="40.7758424343103" lon="17.479746994149345"><ele>90.8</ele><time>2026-04-26T09:23:21.999Z</time></trkpt><trkpt lat="40.77585464850861" lon="17.479872934313306"><ele>91.0</ele><time>2026-04-26T09:23:23.999Z</time></trkpt><trkpt lat="40.775826315159065" lon="17.47999209595903"><ele>91.0</ele><time>2026-04-26T09:23:25.999Z</time></trkpt><trkpt lat="40.77582160922485" lon="17.480088081034182"><ele>91.0</ele><time>2026-04-26T09:23:27.999Z</time></trkpt><trkpt lat="40.77582052666106" lon="17.480197686067672"><ele>91.0</ele><time>2026-04-26T09:23:29.999Z</time></trkpt><trkpt lat="40.775807023170486" lon="17.480302407299376"><ele>91.0</ele><time>2026-04-26T09:23:31.999Z</time></trkpt><trkpt lat="40.77579603795544" lon="17.480421432358828"><ele>91.0</ele><time>2026-04-26T09:23:33.999Z</time></trkpt><trkpt lat="40.775777405627316" lon="17.4805253394372"><ele>91.0</ele><time>2026-04-26T09:23:35.999Z</time></trkpt><trkpt lat="40.775755314261374" lon="17.480653651481003"><ele>90.8</ele><time>2026-04-26T09:23:37.999Z</time></trkpt><trkpt lat="40.775750607333606" lon="17.480786598657232"><ele>90.6</ele><time>2026-04-26T09:23:39.999Z</time></trkpt><trkpt lat="40.775719609695855" lon="17.480914158666767"><ele>90.4</ele><time>2026-04-26T09:23:41.999Z</time></trkpt><trkpt lat="40.77568589750365" lon="17.481054718534836"><ele>90.2</ele><time>2026-04-26T09:23:43.999Z</time></trkpt><trkpt lat="40.77563861302036" lon="17.481186014591184"><ele>90.0</ele><time>2026-04-26T09:23:45.999Z</time></trkpt><trkpt lat="40.77560241299002" lon="17.48126554543416"><ele>89.66666666666667</ele><time>2026-04-26T09:23:46.999Z</time></trkpt><trkpt lat="40.77556314057789" lon="17.481341005176507"><ele>89.33333333333333</ele><time>2026-04-26T09:23:47.999Z</time></trkpt><trkpt lat="40.77556305369306" lon="17.481482711541247"><ele>89.0</ele><time>2026-04-26T09:23:49.999Z</time></trkpt><trkpt lat="40.77551998993436" lon="17.481597209905704"><ele>88.66666666666666</ele><time>2026-04-26T09:23:51.999Z</time></trkpt><trkpt lat="40.77546690774378" lon="17.48164847344093"><ele>88.33333333333333</ele><time>2026-04-26T09:23:52.999Z</time></trkpt><trkpt lat="40.775442196414254" lon="17.481749624779294"><ele>88.0</ele><time>2026-04-26T09:23:54.999Z</time></trkpt><trkpt lat="40.77544277809624" lon="17.481853981874472"><ele>88.0</ele><time>2026-04-26T09:23:56.999Z</time></trkpt><trkpt lat="40.7754180158578" lon="17.481981169759905"><ele>88.0</ele><time>2026-04-26T09:23:58.999Z</time></trkpt><trkpt lat="40.77538763720927" lon="17.48207736216678"><ele>88.0</ele><time>2026-04-26T09:24:00.999Z</time></trkpt><trkpt lat="40.77536467087384" lon="17.48222078905476"><ele>88.0</ele><time>2026-04-26T09:24:02.999Z</time></trkpt><trkpt lat="40.77534084906772" lon="17.482344883915342"><ele>88.0</ele><time>2026-04-26T09:24:04.999Z</time></trkpt><trkpt lat="40.77532263271911" lon="17.482462588333615"><ele>88.0</ele><time>2026-04-26T09:24:06.999Z</time></trkpt><trkpt lat="40.77528519776508" lon="17.482583448558618"><ele>88.0</ele><time>2026-04-26T09:24:08.999Z</time></trkpt><trkpt lat="40.77525064154649" lon="17.482705921318676"><ele>88.0</ele><time>2026-04-26T09:24:10.999Z</time></trkpt><trkpt lat="40.775217779508104" lon="17.482837620730315"><ele>88.0</ele><time>2026-04-26T09:24:12.999Z</time></trkpt><trkpt lat="40.77517649986408" lon="17.482954575926282"><ele>88.0</ele><time>2026-04-26T09:24:14.999Z</time></trkpt><trkpt lat="40.77513221658776" lon="17.48307740968934"><ele>88.0</ele><time>2026-04-26T09:24:16.999Z</time></trkpt><trkpt lat="40.775099908613655" lon="17.483210517407105"><ele>88.0</ele><time>2026-04-26T09:24:18.999Z</time></trkpt><trkpt lat="40.775069063339586" lon="17.483344516796457"><ele>88.0</ele><time>2026-04-26T09:24:20.999Z</time></trkpt><trkpt lat="40.775058571924866" lon="17.483490944532104"><ele>88.0</ele><time>2026-04-26T09:24:22.999Z</time></trkpt><trkpt lat="40.775022053984245" lon="17.483626497768075"><ele>88.0</ele><time>2026-04-26T09:24:24.999Z</time></trkpt><trkpt lat="40.77499988526884" lon="17.483765095022914"><ele>87.80000000000001</ele><time>2026-04-26T09:24:26.999Z</time></trkpt><trkpt lat="40.774965292635756" lon="17.483899975441172"><ele>87.6</ele><time>2026-04-26T09:24:28.999Z</time></trkpt><trkpt lat="40.77492852182977" lon="17.484030763627292"><ele>87.4</ele><time>2026-04-26T09:24:30.999Z</time></trkpt><trkpt lat="40.77488678066568" lon="17.484161393659114"><ele>87.19999999999999</ele><time>2026-04-26T09:24:32.999Z</time></trkpt><trkpt lat="40.774840324037726" lon="17.484293813297786"><ele>87.0</ele><time>2026-04-26T09:24:34.999Z</time></trkpt><trkpt lat="40.77481831759796" lon="17.48443970723882"><ele>87.0</ele><time>2026-04-26T09:24:36.999Z</time></trkpt><trkpt lat="40.77478856716056" lon="17.48457585361382"><ele>87.0</ele><time>2026-04-26T09:24:38.998Z</time></trkpt><trkpt lat="40.774756459259876" lon="17.48471325186061"><ele>87.0</ele><time>2026-04-26T09:24:40.998Z</time></trkpt><trkpt lat="40.77472425824675" lon="17.484854240939185"><ele>87.0</ele><time>2026-04-26T09:24:42.998Z</time></trkpt><trkpt lat="40.77469243430369" lon="17.484990885616696"><ele>87.0</ele><time>2026-04-26T09:24:44.998Z</time></trkpt><trkpt lat="40.774664597420134" lon="17.485136191688465"><ele>87.0</ele><time>2026-04-26T09:24:47Z</time></trkpt><trkpt lat="40.774634351389444" lon="17.485285426661108"><ele>87.0</ele><time>2026-04-26T09:24:49Z</time></trkpt><trkpt lat="40.774596380087964" lon="17.48543501479105"><ele>87.0</ele><time>2026-04-26T09:24:51Z</time></trkpt><trkpt lat="40.77454721272232" lon="17.48558091948243"><ele>87.0</ele><time>2026-04-26T09:24:53Z</time></trkpt><trkpt lat="40.77451450568743" lon="17.48572605008934"><ele>86.75</ele><time>2026-04-26T09:24:55Z</time></trkpt><trkpt lat="40.77452299555023" lon="17.485884157997738"><ele>86.5</ele><time>2026-04-26T09:24:57Z</time></trkpt><trkpt lat="40.77450222903391" lon="17.486045140773648"><ele>86.25</ele><time>2026-04-26T09:24:59Z</time></trkpt><trkpt lat="40.774511883050344" lon="17.486192506696362"><ele>86.0</ele><time>2026-04-26T09:25:01Z</time></trkpt><trkpt lat="40.77449379982048" lon="17.486355534396345"><ele>85.8</ele><time>2026-04-26T09:25:03Z</time></trkpt><trkpt lat="40.77446175381301" lon="17.48649705006943"><ele>85.6</ele><time>2026-04-26T09:25:05Z</time></trkpt><trkpt lat="40.774457875484636" lon="17.48658363964804"><ele>85.4</ele><time>2026-04-26T09:25:06Z</time></trkpt><trkpt lat="40.774435840721964" lon="17.486738232539494"><ele>85.2</ele><time>2026-04-26T09:25:08Z</time></trkpt><trkpt lat="40.77442738687022" lon="17.486896994963796"><ele>85.0</ele><time>2026-04-26T09:25:10Z</time></trkpt><trkpt lat="40.77440270493145" lon="17.48705137165667"><ele>84.83333333333333</ele><time>2026-04-26T09:25:12Z</time></trkpt><trkpt lat="40.77439038146801" lon="17.48721520741563"><ele>84.66666666666666</ele><time>2026-04-26T09:25:14Z</time></trkpt><trkpt lat="40.77438152997237" lon="17.48730245464849"><ele>84.5</ele><time>2026-04-26T09:25:15Z</time></trkpt><trkpt lat="40.77436321023871" lon="17.48746935396763"><ele>84.33333333333333</ele><time>2026-04-26T09:25:17Z</time></trkpt><trkpt lat="40.77435187064973" lon="17.48755210163562"><ele>84.16666666666667</ele><time>2026-04-26T09:25:18Z</time></trkpt><trkpt lat="40.774346902377914" lon="17.487636778343283"><ele>84.0</ele><time>2026-04-26T09:25:19Z</time></trkpt><trkpt lat="40.774341790528005" lon="17.487722193728928"><ele>84.2</ele><time>2026-04-26T09:25:20Z</time></trkpt><trkpt lat="40.77432228272415" lon="17.48788989939532"><ele>84.4</ele><time>2026-04-26T09:25:22Z</time></trkpt><trkpt lat="40.774305524917665" lon="17.487972062689465"><ele>84.6</ele><time>2026-04-26T09:25:23Z</time></trkpt><trkpt lat="40.774283822324655" lon="17.488053988357574"><ele>84.8</ele><time>2026-04-26T09:25:24Z</time></trkpt><trkpt lat="40.77421805552479" lon="17.48818668904705"><ele>85.0</ele><time>2026-04-26T09:25:26Z</time></trkpt><trkpt lat="40.774153159141115" lon="17.48832063208704"><ele>85.0</ele><time>2026-04-26T09:25:28Z</time></trkpt><trkpt lat="40.774122470658156" lon="17.48839470599747"><ele>85.0</ele><time>2026-04-26T09:25:29Z</time></trkpt><trkpt lat="40.77406203365384" lon="17.48852234676827"><ele>85.0</ele><time>2026-04-26T09:25:31Z</time></trkpt><trkpt lat="40.77403036149958" lon="17.488594591432513"><ele>85.0</ele><time>2026-04-26T09:25:32Z</time></trkpt><trkpt lat="40.773973580947704" lon="17.488715095960185"><ele>85.0</ele><time>2026-04-26T09:25:33.999Z</time></trkpt><trkpt lat="40.7739109002955" lon="17.488850612270074"><ele>84.4</ele><time>2026-04-26T09:25:35.999Z</time></trkpt><trkpt lat="40.773872695227894" lon="17.48891804209392"><ele>83.8</ele><time>2026-04-26T09:25:36.999Z</time></trkpt><trkpt lat="40.77381569348923" lon="17.48903326218838"><ele>83.19999999999999</ele><time>2026-04-26T09:25:38.999Z</time></trkpt><trkpt lat="40.7737557848533" lon="17.489170288607276"><ele>82.6</ele><time>2026-04-26T09:25:40.999Z</time></trkpt><trkpt lat="40.773703152769144" lon="17.489289458234268"><ele>82.0</ele><time>2026-04-26T09:25:42.999Z</time></trkpt><trkpt lat="40.77362713983574" lon="17.489403881143797"><ele>82.0</ele><time>2026-04-26T09:25:44.999Z</time></trkpt><trkpt lat="40.773571935259476" lon="17.48953014742965"><ele>82.0</ele><time>2026-04-26T09:25:46.999Z</time></trkpt><trkpt lat="40.773535308618854" lon="17.489669619673677"><ele>82.0</ele><time>2026-04-26T09:25:48.999Z</time></trkpt><trkpt lat="40.77347722439247" lon="17.489781290891298"><ele>82.0</ele><time>2026-04-26T09:25:50.999Z</time></trkpt><trkpt lat="40.77340974488963" lon="17.48987926954526"><ele>82.0</ele><time>2026-04-26T09:25:52.999Z</time></trkpt><trkpt lat="40.77333428861225" lon="17.489981640830443"><ele>82.19999999999999</ele><time>2026-04-26T09:25:54.999Z</time></trkpt><trkpt lat="40.77326011220577" lon="17.490082472977864"><ele>82.4</ele><time>2026-04-26T09:25:56.999Z</time></trkpt><trkpt lat="40.77319003234415" lon="17.490188173840416"><ele>82.6</ele><time>2026-04-26T09:25:58.999Z</time></trkpt><trkpt lat="40.773116771210134" lon="17.49029371104064"><ele>82.80000000000001</ele><time>2026-04-26T09:26:00.999Z</time></trkpt><trkpt lat="40.773044963871364" lon="17.49040879730724"><ele>83.0</ele><time>2026-04-26T09:26:02.999Z</time></trkpt><trkpt lat="40.77297171673607" lon="17.490525271201562"><ele>83.0</ele><time>2026-04-26T09:26:04.999Z</time></trkpt><trkpt lat="40.77289299636853" lon="17.49063287978199"><ele>83.0</ele><time>2026-04-26T09:26:06.999Z</time></trkpt><trkpt lat="40.77281318015988" lon="17.49074944106329"><ele>83.0</ele><time>2026-04-26T09:26:08.999Z</time></trkpt><trkpt lat="40.77274204985094" lon="17.490762114180775"><ele>83.0</ele><time>2026-04-26T09:26:09.999Z</time></trkpt><trkpt lat="40.77267501243929" lon="17.490863972506205"><ele>83.0</ele><time>2026-04-26T09:26:11.999Z</time></trkpt><trkpt lat="40.772599387845055" lon="17.490981580254633"><ele>83.0</ele><time>2026-04-26T09:26:13.999Z</time></trkpt><trkpt lat="40.77252208827071" lon="17.491102369922075"><ele>83.0</ele><time>2026-04-26T09:26:15.999Z</time></trkpt><trkpt lat="40.77245380445937" lon="17.49123455381668"><ele>83.0</ele><time>2026-04-26T09:26:17.999Z</time></trkpt><trkpt lat="40.772367449003234" lon="17.4913355349865"><ele>83.0</ele><time>2026-04-26T09:26:19.999Z</time></trkpt><trkpt lat="40.772304624386805" lon="17.491477038075605"><ele>83.0</ele><time>2026-04-26T09:26:21.999Z</time></trkpt><trkpt lat="40.772220260477646" lon="17.491579190511846"><ele>83.0</ele><time>2026-04-26T09:26:23.999Z</time></trkpt><trkpt lat="40.772169387803864" lon="17.491635402563322"><ele>83.0</ele><time>2026-04-26T09:26:24.999Z</time></trkpt><trkpt lat="40.7720708356827" lon="17.491719977495062"><ele>83.0</ele><time>2026-04-26T09:26:26.999Z</time></trkpt><trkpt lat="40.77197558421235" lon="17.491816317518513"><ele>83.0</ele><time>2026-04-26T09:26:28.999Z</time></trkpt><trkpt lat="40.77192423266996" lon="17.491866307178128"><ele>83.2</ele><time>2026-04-26T09:26:29.999Z</time></trkpt><trkpt lat="40.771832186528684" lon="17.491957528216638"><ele>83.4</ele><time>2026-04-26T09:26:31.999Z</time></trkpt><trkpt lat="40.77173516390153" lon="17.492047263289145"><ele>83.60000000000001</ele><time>2026-04-26T09:26:33.999Z</time></trkpt><trkpt lat="40.77163314087212" lon="17.492142026673612"><ele>83.80000000000001</ele><time>2026-04-26T09:26:35.999Z</time></trkpt><trkpt lat="40.771582647750584" lon="17.492194925552297"><ele>84.0</ele><time>2026-04-26T09:26:36.999Z</time></trkpt><trkpt lat="40.7715358194333" lon="17.492253603639526"><ele>84.0</ele><time>2026-04-26T09:26:37.999Z</time></trkpt><trkpt lat="40.7714523399064" lon="17.492324887203765"><ele>84.0</ele><time>2026-04-26T09:26:39.999Z</time></trkpt><trkpt lat="40.77140862431427" lon="17.492390937701497"><ele>84.0</ele><time>2026-04-26T09:26:40.999Z</time></trkpt><trkpt lat="40.77130787905741" lon="17.492492503455452"><ele>84.0</ele><time>2026-04-26T09:26:42.999Z</time></trkpt><trkpt lat="40.77124627819548" lon="17.492536697817755"><ele>84.0</ele><time>2026-04-26T09:26:43.999Z</time></trkpt><trkpt lat="40.771135971386514" lon="17.49260975733963"><ele>84.0</ele><time>2026-04-26T09:26:45.999Z</time></trkpt><trkpt lat="40.77107658435659" lon="17.492650367652253"><ele>84.0</ele><time>2026-04-26T09:26:46.999Z</time></trkpt><trkpt lat="40.77096713731664" lon="17.49271894389309"><ele>84.0</ele><time>2026-04-26T09:26:48.999Z</time></trkpt><trkpt lat="40.770912947658395" lon="17.492796808704615"><ele>84.0</ele><time>2026-04-26T09:26:49.999Z</time></trkpt><trkpt lat="40.77084784151259" lon="17.492949299100122"><ele>84.0</ele><time>2026-04-26T09:26:51.999Z</time></trkpt><trkpt lat="40.770768406470765" lon="17.493061130768346"><ele>84.2</ele><time>2026-04-26T09:26:54Z</time></trkpt><trkpt lat="40.77072160767185" lon="17.49313485479007"><ele>84.4</ele><time>2026-04-26T09:26:55Z</time></trkpt><trkpt lat="40.77065830579752" lon="17.493263568971376"><ele>84.6</ele><time>2026-04-26T09:26:57Z</time></trkpt><trkpt lat="40.7705970041072" lon="17.493387125212106"><ele>84.8</ele><time>2026-04-26T09:26:59Z</time></trkpt><trkpt lat="40.770531014193274" lon="17.493521810071158"><ele>85.0</ele><time>2026-04-26T09:27:01Z</time></trkpt><trkpt lat="40.770457475012215" lon="17.493648249794628"><ele>84.8</ele><time>2026-04-26T09:27:03Z</time></trkpt><trkpt lat="40.770386016383156" lon="17.493777876859397"><ele>84.6</ele><time>2026-04-26T09:27:05Z</time></trkpt><trkpt lat="40.77035234696756" lon="17.493849371283744"><ele>84.4</ele><time>2026-04-26T09:27:06Z</time></trkpt><trkpt lat="40.770282390707855" lon="17.49398119481968"><ele>84.2</ele><time>2026-04-26T09:27:08Z</time></trkpt><trkpt lat="40.77020687560453" lon="17.494111994786376"><ele>84.0</ele><time>2026-04-26T09:27:10Z</time></trkpt><trkpt lat="40.770139084647035" lon="17.494246412894206"><ele>84.16666666666667</ele><time>2026-04-26T09:27:12Z</time></trkpt><trkpt lat="40.77003340476203" lon="17.49434684576031"><ele>84.33333333333333</ele><time>2026-04-26T09:27:14Z</time></trkpt><trkpt lat="40.76999678218289" lon="17.494421913011056"><ele>84.5</ele><time>2026-04-26T09:27:15Z</time></trkpt><trkpt lat="40.76993291537685" lon="17.49455505120719"><ele>84.66666666666666</ele><time>2026-04-26T09:27:17Z</time></trkpt><trkpt lat="40.76989793457919" lon="17.49462797278096"><ele>84.83333333333333</ele><time>2026-04-26T09:27:18Z</time></trkpt><trkpt lat="40.769863823786174" lon="17.494699080631992"><ele>85.0</ele><time>2026-04-26T09:27:19Z</time></trkpt><trkpt lat="40.76982932569848" lon="17.494770682413982"><ele>85.0</ele><time>2026-04-26T09:27:20Z</time></trkpt><trkpt lat="40.76976180702402" lon="17.494903596210936"><ele>85.0</ele><time>2026-04-26T09:27:22Z</time></trkpt><trkpt lat="40.76969646756529" lon="17.4950342022097"><ele>85.0</ele><time>2026-04-26T09:27:24Z</time></trkpt><trkpt lat="40.76966163934602" lon="17.49510876468269"><ele>85.0</ele><time>2026-04-26T09:27:25Z</time></trkpt><trkpt lat="40.7696423695093" lon="17.49520009632007"><ele>85.0</ele><time>2026-04-26T09:27:26Z</time></trkpt><trkpt lat="40.769590617946925" lon="17.495330495373757"><ele>85.0</ele><time>2026-04-26T09:27:28Z</time></trkpt><trkpt lat="40.76956865287297" lon="17.49541330569725"><ele>85.0</ele><time>2026-04-26T09:27:29Z</time></trkpt><trkpt lat="40.769522385715426" lon="17.495478534466322"><ele>85.0</ele><time>2026-04-26T09:27:30Z</time></trkpt><trkpt lat="40.769477953329385" lon="17.495623656585927"><ele>85.0</ele><time>2026-04-26T09:27:32Z</time></trkpt><trkpt lat="40.7694267834612" lon="17.49576280130673"><ele>85.0</ele><time>2026-04-26T09:27:34Z</time></trkpt><trkpt lat="40.769396230167786" lon="17.49583845445639"><ele>85.0</ele><time>2026-04-26T09:27:35Z</time></trkpt><trkpt lat="40.76934284875305" lon="17.495982266386413"><ele>85.4</ele><time>2026-04-26T09:27:37Z</time></trkpt><trkpt lat="40.769297842920096" lon="17.496127906530383"><ele>85.8</ele><time>2026-04-26T09:27:39Z</time></trkpt><trkpt lat="40.76927505928086" lon="17.496208824954852"><ele>86.19999999999999</ele><time>2026-04-26T09:27:40Z</time></trkpt><trkpt lat="40.76921575694867" lon="17.49632200703874"><ele>86.6</ele><time>2026-04-26T09:27:42Z</time></trkpt><trkpt lat="40.769154272126826" lon="17.496453013948408"><ele>87.0</ele><time>2026-04-26T09:27:44Z</time></trkpt><trkpt lat="40.769126303957" lon="17.49658477633568"><ele>87.0</ele><time>2026-04-26T09:27:45.999Z</time></trkpt><trkpt lat="40.76908478493322" lon="17.496685128256676"><ele>87.0</ele><time>2026-04-26T09:27:47.999Z</time></trkpt><trkpt lat="40.76904721691957" lon="17.496803750211562"><ele>87.0</ele><time>2026-04-26T09:27:49.999Z</time></trkpt><trkpt lat="40.76900891903037" lon="17.496923580929188"><ele>87.0</ele><time>2026-04-26T09:27:51.999Z</time></trkpt><trkpt lat="40.76897084555995" lon="17.497047647803225"><ele>87.0</ele><time>2026-04-26T09:27:53.999Z</time></trkpt><trkpt lat="40.76893744344869" lon="17.49715145759063"><ele>86.6</ele><time>2026-04-26T09:27:55.999Z</time></trkpt><trkpt lat="40.768901768476375" lon="17.497251465122318"><ele>86.19999999999999</ele><time>2026-04-26T09:27:57.999Z</time></trkpt><trkpt lat="40.76888140309639" lon="17.497361721634153"><ele>85.8</ele><time>2026-04-26T09:27:59.999Z</time></trkpt><trkpt lat="40.76884061679539" lon="17.497495456619554"><ele>85.4</ele><time>2026-04-26T09:28:01.999Z</time></trkpt><trkpt lat="40.76878865878282" lon="17.49761623645068"><ele>85.0</ele><time>2026-04-26T09:28:03.999Z</time></trkpt><trkpt lat="40.76873198510024" lon="17.497729493341346"><ele>85.0</ele><time>2026-04-26T09:28:05.999Z</time></trkpt><trkpt lat="40.76865701867003" lon="17.497831092555476"><ele>85.0</ele><time>2026-04-26T09:28:07.999Z</time></trkpt><trkpt lat="40.7685644066673" lon="17.497838961521243"><ele>85.0</ele><time>2026-04-26T09:28:09.999Z</time></trkpt><trkpt lat="40.768473234428086" lon="17.497785295116458"><ele>85.0</ele><time>2026-04-26T09:28:11.999Z</time></trkpt><trkpt lat="40.768371437688714" lon="17.497754268890834"><ele>85.0</ele><time>2026-04-26T09:28:13.999Z</time></trkpt><trkpt lat="40.76826469892098" lon="17.49775214978367"><ele>85.6</ele><time>2026-04-26T09:28:15.999Z</time></trkpt><trkpt lat="40.76817806513176" lon="17.497803673244896"><ele>86.2</ele><time>2026-04-26T09:28:17.999Z</time></trkpt><trkpt lat="40.768140275629285" lon="17.49792633152453"><ele>86.80000000000001</ele><time>2026-04-26T09:28:19.999Z</time></trkpt><trkpt lat="40.768096734532364" lon="17.498062844445908"><ele>87.4</ele><time>2026-04-26T09:28:21.999Z</time></trkpt><trkpt lat="40.76809181219121" lon="17.49819790314012"><ele>88.0</ele><time>2026-04-26T09:28:23.999Z</time></trkpt><trkpt lat="40.76807211246748" lon="17.498333630560765"><ele>88.0</ele><time>2026-04-26T09:28:25.999Z</time></trkpt><trkpt lat="40.768038181764766" lon="17.49846854147991"><ele>88.0</ele><time>2026-04-26T09:28:27.999Z</time></trkpt><trkpt lat="40.76799147206833" lon="17.498594372387775"><ele>88.0</ele><time>2026-04-26T09:28:29.999Z</time></trkpt><trkpt lat="40.767957857797995" lon="17.49872998932598"><ele>88.0</ele><time>2026-04-26T09:28:31.999Z</time></trkpt><trkpt lat="40.767923539899726" lon="17.498874660648397"><ele>88.0</ele><time>2026-04-26T09:28:33.999Z</time></trkpt><trkpt lat="40.767880150174804" lon="17.4990164570423"><ele>88.25</ele><time>2026-04-26T09:28:35.999Z</time></trkpt><trkpt lat="40.76783400295046" lon="17.499158909880602"><ele>88.5</ele><time>2026-04-26T09:28:37.999Z</time></trkpt><trkpt lat="40.767784447977704" lon="17.49927920342288"><ele>88.75</ele><time>2026-04-26T09:28:39.999Z</time></trkpt><trkpt lat="40.7677069242417" lon="17.499375879177236"><ele>89.0</ele><time>2026-04-26T09:28:41.999Z</time></trkpt><trkpt lat="40.76763211531621" lon="17.499511388378945"><ele>88.5</ele><time>2026-04-26T09:28:43.999Z</time></trkpt><trkpt lat="40.76756153454391" lon="17.499648081587257"><ele>88.0</ele><time>2026-04-26T09:28:45.999Z</time></trkpt><trkpt lat="40.76749742274806" lon="17.499773345153876"><ele>87.5</ele><time>2026-04-26T09:28:47.999Z</time></trkpt><trkpt lat="40.76743455793437" lon="17.49990134324243"><ele>87.0</ele><time>2026-04-26T09:28:49.999Z</time></trkpt><trkpt lat="40.76736473320377" lon="17.49998798865037"><ele>87.0</ele><time>2026-04-26T09:28:51.999Z</time></trkpt><trkpt lat="40.76730806190778" lon="17.500116754509584"><ele>87.0</ele><time>2026-04-26T09:28:53.999Z</time></trkpt><trkpt lat="40.767271651407825" lon="17.500272884406463"><ele>87.0</ele><time>2026-04-26T09:28:55.999Z</time></trkpt><trkpt lat="40.76723725149011" lon="17.500418534260348"><ele>87.0</ele><time>2026-04-26T09:28:57.999Z</time></trkpt><trkpt lat="40.76720042559215" lon="17.500558072351474"><ele>86.8</ele><time>2026-04-26T09:29:00Z</time></trkpt><trkpt lat="40.76716437248086" lon="17.50068504473721"><ele>86.6</ele><time>2026-04-26T09:29:02Z</time></trkpt><trkpt lat="40.76713215570012" lon="17.500800056887336"><ele>86.39999999999999</ele><time>2026-04-26T09:29:04Z</time></trkpt><trkpt lat="40.767109061824925" lon="17.500881390701323"><ele>86.19999999999999</ele><time>2026-04-26T09:29:05Z</time></trkpt><trkpt lat="40.76707997148887" lon="17.501001657937447"><ele>86.0</ele><time>2026-04-26T09:29:07Z</time></trkpt><trkpt lat="40.76704192017207" lon="17.501142727135232"><ele>85.6</ele><time>2026-04-26T09:29:09Z</time></trkpt><trkpt lat="40.767010638877586" lon="17.501269270059527"><ele>85.19999999999999</ele><time>2026-04-26T09:29:11Z</time></trkpt><trkpt lat="40.76695390298071" lon="17.50140546217091"><ele>84.80000000000001</ele><time>2026-04-26T09:29:13Z</time></trkpt><trkpt lat="40.766942258825104" lon="17.501491481609296"><ele>84.4</ele><time>2026-04-26T09:29:14Z</time></trkpt><trkpt lat="40.766937765148086" lon="17.50157487975023"><ele>84.0</ele><time>2026-04-26T09:29:15Z</time></trkpt><trkpt lat="40.76689494909042" lon="17.501722762803485"><ele>84.0</ele><time>2026-04-26T09:29:17Z</time></trkpt><trkpt lat="40.766871712710255" lon="17.501877169881638"><ele>84.0</ele><time>2026-04-26T09:29:19Z</time></trkpt><trkpt lat="40.76681973392034" lon="17.501942638720344"><ele>84.0</ele><time>2026-04-26T09:29:20Z</time></trkpt><trkpt lat="40.76678772812238" lon="17.50202782686671"><ele>84.0</ele><time>2026-04-26T09:29:21Z</time></trkpt><trkpt lat="40.7667402029577" lon="17.502137806031673"><ele>84.0</ele><time>2026-04-26T09:29:23Z</time></trkpt><trkpt lat="40.766751343366664" lon="17.502243863630312"><ele>84.0</ele><time>2026-04-26T09:29:25Z</time></trkpt><trkpt lat="40.766724064891385" lon="17.5023530636769"><ele>84.6</ele><time>2026-04-26T09:29:27Z</time></trkpt><trkpt lat="40.766746843119925" lon="17.502530216070145"><ele>85.2</ele><time>2026-04-26T09:29:29Z</time></trkpt><trkpt lat="40.76672305015195" lon="17.5026144179574"><ele>85.8</ele><time>2026-04-26T09:29:31Z</time></trkpt><trkpt lat="40.76668377525338" lon="17.50271434181385"><ele>86.39999999999999</ele><time>2026-04-26T09:29:33Z</time></trkpt><trkpt lat="40.76667229725821" lon="17.502803339983615"><ele>87.0</ele><time>2026-04-26T09:29:35Z</time></trkpt><trkpt lat="40.76664962249994" lon="17.502921969197008"><ele>87.19999999999999</ele><time>2026-04-26T09:29:37Z</time></trkpt><trkpt lat="40.7666450546954" lon="17.50304887206176"><ele>87.4</ele><time>2026-04-26T09:29:39Z</time></trkpt><trkpt lat="40.76664084306114" lon="17.503190816108614"><ele>87.6</ele><time>2026-04-26T09:29:41Z</time></trkpt><trkpt lat="40.76661227375854" lon="17.503332780356175"><ele>87.80000000000001</ele><time>2026-04-26T09:29:43Z</time></trkpt><trkpt lat="40.766597277701855" lon="17.503461212848606"><ele>88.0</ele><time>2026-04-26T09:29:45Z</time></trkpt><trkpt lat="40.76659743656885" lon="17.503597103612574"><ele>88.0</ele><time>2026-04-26T09:29:47Z</time></trkpt><trkpt lat="40.76662635907724" lon="17.503710424343613"><ele>88.0</ele><time>2026-04-26T09:29:48.999Z</time></trkpt><trkpt lat="40.76664944497612" lon="17.503813285032784"><ele>88.0</ele><time>2026-04-26T09:29:50.999Z</time></trkpt><trkpt lat="40.76663186264871" lon="17.50392050728962"><ele>88.0</ele><time>2026-04-26T09:29:52.999Z</time></trkpt><trkpt lat="40.766647952665195" lon="17.504016897250153"><ele>88.0</ele><time>2026-04-26T09:30:15.999Z</time></trkpt><trkpt lat="40.76665989359078" lon="17.504127122174395"><ele>88.0</ele><time>2026-04-26T09:30:17.999Z</time></trkpt><trkpt lat="40.766668048493635" lon="17.504265336074592"><ele>88.0</ele><time>2026-04-26T09:30:19.999Z</time></trkpt><trkpt lat="40.76666240738048" lon="17.50439534955276"><ele>88.0</ele><time>2026-04-26T09:30:21.999Z</time></trkpt><trkpt lat="40.76664177942354" lon="17.50457001028834"><ele>88.0</ele><time>2026-04-26T09:30:23.999Z</time></trkpt><trkpt lat="40.7666255774944" lon="17.504732402962013"><ele>88.0</ele><time>2026-04-26T09:30:25.999Z</time></trkpt><trkpt lat="40.76664964059165" lon="17.50487677320684"><ele>88.0</ele><time>2026-04-26T09:30:27.999Z</time></trkpt><trkpt lat="40.76663315022307" lon="17.505021557521292"><ele>88.0</ele><time>2026-04-26T09:30:29.999Z</time></trkpt><trkpt lat="40.76657965928531" lon="17.505070509934246"><ele>88.0</ele><time>2026-04-26T09:30:31.999Z</time></trkpt><trkpt lat="40.7665458636248" lon="17.5051411616269"><ele>88.0</ele><time>2026-04-26T09:30:32.999Z</time></trkpt><trkpt lat="40.76649041398598" lon="17.50525956907426"><ele>88.0</ele><time>2026-04-26T09:30:33.999Z</time></trkpt><trkpt lat="40.76644979107582" lon="17.505338400533113"><ele>88.0</ele><time>2026-04-26T09:30:34.999Z</time></trkpt><trkpt lat="40.766398638587404" lon="17.505404790819753"><ele>87.66666666666666</ele><time>2026-04-26T09:30:35.999Z</time></trkpt><trkpt lat="40.76633720948381" lon="17.50544856301875"><ele>87.33333333333333</ele><time>2026-04-26T09:30:36.999Z</time></trkpt><trkpt lat="40.76630588404922" lon="17.505524452092896"><ele>87.0</ele><time>2026-04-26T09:30:37.999Z</time></trkpt><trkpt lat="40.766258592184414" lon="17.50565463342333"><ele>86.66666666666667</ele><time>2026-04-26T09:30:39.999Z</time></trkpt><trkpt lat="40.766164654794224" lon="17.505674327838648"><ele>86.33333333333334</ele><time>2026-04-26T09:30:41.999Z</time></trkpt><trkpt lat="40.766093321119115" lon="17.505595000905213"><ele>86.0</ele><time>2026-04-26T09:30:43.999Z</time></trkpt><trkpt lat="40.76602403267476" lon="17.505505777678458"><ele>86.0</ele><time>2026-04-26T09:30:45.999Z</time></trkpt><trkpt lat="40.76592787016933" lon="17.505571967180156"><ele>86.0</ele><time>2026-04-26T09:30:47.999Z</time></trkpt><trkpt lat="40.76583447724373" lon="17.50556300769606"><ele>86.0</ele><time>2026-04-26T09:30:49.999Z</time></trkpt><trkpt lat="40.765746067327" lon="17.505521029264372"><ele>86.0</ele><time>2026-04-26T09:30:51.999Z</time></trkpt><trkpt lat="40.765711348822066" lon="17.505411392050213"><ele>86.0</ele><time>2026-04-26T09:30:53.999Z</time></trkpt><trkpt lat="40.76571257930762" lon="17.505299173930013"><ele>86.0</ele><time>2026-04-26T09:30:55.999Z</time></trkpt><trkpt lat="40.76566917479145" lon="17.50520544954519"><ele>86.0</ele><time>2026-04-26T09:30:57.999Z</time></trkpt><trkpt lat="40.76560007813778" lon="17.505135842242023"><ele>86.0</ele><time>2026-04-26T09:30:59.999Z</time></trkpt><trkpt lat="40.76555910913967" lon="17.505043459339884"><ele>86.0</ele><time>2026-04-26T09:31:01.999Z</time></trkpt><trkpt lat="40.76552336018181" lon="17.504916482702434"><ele>86.0</ele><time>2026-04-26T09:31:03.999Z</time></trkpt><trkpt lat="40.76550368768774" lon="17.504787414614896"><ele>86.0</ele><time>2026-04-26T09:31:06Z</time></trkpt><trkpt lat="40.76543810696377" lon="17.50467705251201"><ele>86.0</ele><time>2026-04-26T09:31:08Z</time></trkpt><trkpt lat="40.76542832790292" lon="17.504586045133095"><ele>86.0</ele><time>2026-04-26T09:31:10Z</time></trkpt><trkpt lat="40.76546951472384" lon="17.5044984384211"><ele>86.0</ele><time>2026-04-26T09:31:12Z</time></trkpt><trkpt lat="40.765452807532824" lon="17.504415965226585"><ele>86.0</ele><time>2026-04-26T09:31:14Z</time></trkpt><trkpt lat="40.765387708590765" lon="17.50435913574773"><ele>86.0</ele><time>2026-04-26T09:31:16Z</time></trkpt><trkpt lat="40.76533321141221" lon="17.50430581414156"><ele>86.4</ele><time>2026-04-26T09:31:17Z</time></trkpt><trkpt lat="40.76524309786195" lon="17.504263430656618"><ele>86.8</ele><time>2026-04-26T09:31:19Z</time></trkpt><trkpt lat="40.76515607851944" lon="17.504236830168395"><ele>87.2</ele><time>2026-04-26T09:31:21Z</time></trkpt><trkpt lat="40.76505313131174" lon="17.504246985267855"><ele>87.60000000000001</ele><time>2026-04-26T09:31:23Z</time></trkpt><trkpt lat="40.764961451780906" lon="17.50418672554423"><ele>88.0</ele><time>2026-04-26T09:31:25Z</time></trkpt><trkpt lat="40.764872113019614" lon="17.50415343150718"><ele>88.2</ele><time>2026-04-26T09:31:27Z</time></trkpt><trkpt lat="40.764776557873205" lon="17.504158895480586"><ele>88.4</ele><time>2026-04-26T09:31:29Z</time></trkpt><trkpt lat="40.76470559072159" lon="17.504146913924462"><ele>88.60000000000001</ele><time>2026-04-26T09:31:30Z</time></trkpt><trkpt lat="40.764617707379244" lon="17.504115490072024"><ele>88.80000000000001</ele><time>2026-04-26T09:31:32Z</time></trkpt><trkpt lat="40.764527603829414" lon="17.504066327677446"><ele>89.0</ele><time>2026-04-26T09:31:34Z</time></trkpt><trkpt lat="40.76442564741464" lon="17.504033964657708"><ele>89.2</ele><time>2026-04-26T09:31:36Z</time></trkpt><trkpt lat="40.76432635842771" lon="17.50404728807644"><ele>89.4</ele><time>2026-04-26T09:31:38Z</time></trkpt><trkpt lat="40.764241300488855" lon="17.50408740494026"><ele>89.6</ele><time>2026-04-26T09:31:40Z</time></trkpt><trkpt lat="40.764158117956036" lon="17.50414496120551"><ele>89.8</ele><time>2026-04-26T09:31:42Z</time></trkpt><trkpt lat="40.76408146932337" lon="17.504236437682767"><ele>90.0</ele><time>2026-04-26T09:31:44Z</time></trkpt><trkpt lat="40.76401920827475" lon="17.504358343777128"><ele>90.0</ele><time>2026-04-26T09:31:46Z</time></trkpt><trkpt lat="40.76397181758473" lon="17.504463126347208"><ele>90.0</ele><time>2026-04-26T09:31:48Z</time></trkpt><trkpt lat="40.76396302515104" lon="17.504607037315417"><ele>90.0</ele><time>2026-04-26T09:31:50Z</time></trkpt><trkpt lat="40.76396660539396" lon="17.50474938782378"><ele>90.0</ele><time>2026-04-26T09:31:52Z</time></trkpt><trkpt lat="40.76397392292766" lon="17.504893311464432"><ele>90.0</ele><time>2026-04-26T09:31:54Z</time></trkpt><trkpt lat="40.76399108956344" lon="17.504977763850164"><ele>89.6</ele><time>2026-04-26T09:31:55Z</time></trkpt><trkpt lat="40.76396370504989" lon="17.505115080933"><ele>89.2</ele><time>2026-04-26T09:31:56.999Z</time></trkpt><trkpt lat="40.763918660510264" lon="17.505217894486655"><ele>88.80000000000001</ele><time>2026-04-26T09:31:58.999Z</time></trkpt><trkpt lat="40.763881570925406" lon="17.505301096922423"><ele>88.4</ele><time>2026-04-26T09:32:00.999Z</time></trkpt><trkpt lat="40.76380242031769" lon="17.50532466911761"><ele>88.0</ele><time>2026-04-26T09:32:02.999Z</time></trkpt><trkpt lat="40.763711980447354" lon="17.505259961349687"><ele>88.0</ele><time>2026-04-26T09:32:04.999Z</time></trkpt><trkpt lat="40.76363667101059" lon="17.505204133226236"><ele>88.0</ele><time>2026-04-26T09:32:07.999Z</time></trkpt><trkpt lat="40.76356564270826" lon="17.505186533801332"><ele>88.0</ele><time>2026-04-26T09:32:09.999Z</time></trkpt><trkpt lat="40.76349426913221" lon="17.505201039104367"><ele>88.0</ele><time>2026-04-26T09:32:10.999Z</time></trkpt><trkpt lat="40.76342018610949" lon="17.505248084294145"><ele>88.0</ele><time>2026-04-26T09:32:11.999Z</time></trkpt><trkpt lat="40.763378043074056" lon="17.505344788694366"><ele>88.0</ele><time>2026-04-26T09:32:12.999Z</time></trkpt><trkpt lat="40.76329674661445" lon="17.505433237356456"><ele>88.75</ele><time>2026-04-26T09:32:14.999Z</time></trkpt><trkpt lat="40.76321138302034" lon="17.505527433645113"><ele>89.5</ele><time>2026-04-26T09:32:16.999Z</time></trkpt><trkpt lat="40.763122114271795" lon="17.505625647890426"><ele>90.25</ele><time>2026-04-26T09:32:18.999Z</time></trkpt><trkpt lat="40.76303992288713" lon="17.50572505268851"><ele>91.0</ele><time>2026-04-26T09:32:20.999Z</time></trkpt><trkpt lat="40.76294389665084" lon="17.50581591569893"><ele>91.0</ele><time>2026-04-26T09:32:22.999Z</time></trkpt><trkpt lat="40.76286168528587" lon="17.50591977412871"><ele>91.0</ele><time>2026-04-26T09:32:24.999Z</time></trkpt><trkpt lat="40.762794060463115" lon="17.5059956519778"><ele>91.0</ele><time>2026-04-26T09:32:26.999Z</time></trkpt><trkpt lat="40.76271296338944" lon="17.505914375030162"><ele>91.0</ele><time>2026-04-26T09:32:28.999Z</time></trkpt><trkpt lat="40.76266557717313" lon="17.50585294236073"><ele>91.0</ele><time>2026-04-26T09:32:29.999Z</time></trkpt><trkpt lat="40.76256649696537" lon="17.505759856034796"><ele>91.4</ele><time>2026-04-26T09:32:31.999Z</time></trkpt><trkpt lat="40.762461937916946" lon="17.505668677771876"><ele>91.8</ele><time>2026-04-26T09:32:33.999Z</time></trkpt><trkpt lat="40.76241309288888" lon="17.505611458676842"><ele>92.2</ele><time>2026-04-26T09:32:34.999Z</time></trkpt><trkpt lat="40.76232543892781" lon="17.505487171063027"><ele>92.60000000000001</ele><time>2026-04-26T09:32:36.999Z</time></trkpt><trkpt lat="40.76227910118511" lon="17.505426551721822"><ele>93.0</ele><time>2026-04-26T09:32:37.999Z</time></trkpt><trkpt lat="40.76219067233402" lon="17.505310861956445"><ele>93.0</ele><time>2026-04-26T09:32:39.999Z</time></trkpt><trkpt lat="40.76208500119487" lon="17.50521866265693"><ele>93.0</ele><time>2026-04-26T09:32:41.999Z</time></trkpt><trkpt lat="40.76197261842414" lon="17.505144911001185"><ele>93.0</ele><time>2026-04-26T09:32:43.999Z</time></trkpt><trkpt lat="40.76186282238322" lon="17.50506906593243"><ele>93.0</ele><time>2026-04-26T09:32:45.999Z</time></trkpt><trkpt lat="40.7617520503284" lon="17.50502016485096"><ele>93.33333333333333</ele><time>2026-04-26T09:32:47.999Z</time></trkpt><trkpt lat="40.761694270950535" lon="17.5049856129309"><ele>93.66666666666667</ele><time>2026-04-26T09:32:48.999Z</time></trkpt><trkpt lat="40.76162838021251" lon="17.504959354677734"><ele>94.0</ele><time>2026-04-26T09:32:49.999Z</time></trkpt><trkpt lat="40.761523651991226" lon="17.5048938607611"><ele>94.33333333333334</ele><time>2026-04-26T09:32:51.999Z</time></trkpt><trkpt lat="40.761468750737755" lon="17.504851926314476"><ele>94.66666666666667</ele><time>2026-04-26T09:32:52.999Z</time></trkpt><trkpt lat="40.76136642004906" lon="17.504798265348843"><ele>95.0</ele><time>2026-04-26T09:32:54.999Z</time></trkpt><trkpt lat="40.76125368224946" lon="17.50473914825848"><ele>95.0</ele><time>2026-04-26T09:32:56.999Z</time></trkpt><trkpt lat="40.76113855988224" lon="17.504713237398658"><ele>95.0</ele><time>2026-04-26T09:32:58.999Z</time></trkpt><trkpt lat="40.76107648369708" lon="17.50469654655497"><ele>95.0</ele><time>2026-04-26T09:32:59.999Z</time></trkpt><trkpt lat="40.76096007577906" lon="17.50469654994736"><ele>95.0</ele><time>2026-04-26T09:33:01.999Z</time></trkpt><trkpt lat="40.76086501740477" lon="17.50469408471396"><ele>95.0</ele><time>2026-04-26T09:33:03.999Z</time></trkpt><trkpt lat="40.76074929081428" lon="17.50466259546634"><ele>96.25</ele><time>2026-04-26T09:33:05.999Z</time></trkpt><trkpt lat="40.760636297991304" lon="17.504654161964208"><ele>97.5</ele><time>2026-04-26T09:33:07.999Z</time></trkpt><trkpt lat="40.76051792187234" lon="17.504645801840805"><ele>98.75</ele><time>2026-04-26T09:33:09.998Z</time></trkpt><trkpt lat="40.76040080104909" lon="17.504637941595156"><ele>100.0</ele><time>2026-04-26T09:33:12Z</time></trkpt><trkpt lat="40.760283949433834" lon="17.50461486869342"><ele>100.4</ele><time>2026-04-26T09:33:14Z</time></trkpt><trkpt lat="40.76016270376817" lon="17.50460468084536"><ele>100.8</ele><time>2026-04-26T09:33:16Z</time></trkpt><trkpt lat="40.76004120065441" lon="17.504597853437026"><ele>101.19999999999999</ele><time>2026-04-26T09:33:18Z</time></trkpt><trkpt lat="40.75997658717917" lon="17.50459733499117"><ele>101.6</ele><time>2026-04-26T09:33:19Z</time></trkpt><trkpt lat="40.75985702392264" lon="17.50459459425249"><ele>102.0</ele><time>2026-04-26T09:33:21Z</time></trkpt><trkpt lat="40.75978487658765" lon="17.50458847157588"><ele>102.0</ele><time>2026-04-26T09:33:22Z</time></trkpt><trkpt lat="40.75965633858103" lon="17.504580876808305"><ele>102.0</ele><time>2026-04-26T09:33:24Z</time></trkpt><trkpt lat="40.75954805620252" lon="17.50458050654226"><ele>102.0</ele><time>2026-04-26T09:33:26Z</time></trkpt><trkpt lat="40.75942204364917" lon="17.504569472819988"><ele>102.0</ele><time>2026-04-26T09:33:28Z</time></trkpt><trkpt lat="40.75935763808351" lon="17.504566959019737"><ele>102.0</ele><time>2026-04-26T09:33:29Z</time></trkpt><trkpt lat="40.75924887557914" lon="17.504553060613702"><ele>102.6</ele><time>2026-04-26T09:33:31Z</time></trkpt><trkpt lat="40.75912340820823" lon="17.50454459468795"><ele>103.19999999999999</ele><time>2026-04-26T09:33:33Z</time></trkpt><trkpt lat="40.759058914058464" lon="17.504544977579993"><ele>103.8</ele><time>2026-04-26T09:33:34Z</time></trkpt><trkpt lat="40.758935826237625" lon="17.50454013671398"><ele>104.4</ele><time>2026-04-26T09:33:36Z</time></trkpt><trkpt lat="40.75881042362961" lon="17.504549457279758"><ele>105.0</ele><time>2026-04-26T09:33:38Z</time></trkpt><trkpt lat="40.7587493491731" lon="17.504521974505156"><ele>105.0</ele><time>2026-04-26T09:33:39Z</time></trkpt><trkpt lat="40.75862576513376" lon="17.50449241754327"><ele>105.0</ele><time>2026-04-26T09:33:41Z</time></trkpt><trkpt lat="40.75851592947891" lon="17.504480105046664"><ele>105.0</ele><time>2026-04-26T09:33:43Z</time></trkpt><trkpt lat="40.758451829292724" lon="17.50442629078393"><ele>105.0</ele><time>2026-04-26T09:33:45Z</time></trkpt><trkpt lat="40.75837183226449" lon="17.504454676480186"><ele>105.0</ele><time>2026-04-26T09:33:46Z</time></trkpt><trkpt lat="40.75825425668891" lon="17.504441782400427"><ele>105.4</ele><time>2026-04-26T09:33:48Z</time></trkpt><trkpt lat="40.75816930377083" lon="17.50442038650792"><ele>105.8</ele><time>2026-04-26T09:33:49Z</time></trkpt><trkpt lat="40.75810366854588" lon="17.504416695694502"><ele>106.19999999999999</ele><time>2026-04-26T09:33:50Z</time></trkpt><trkpt lat="40.75800975193569" lon="17.504422502387087"><ele>106.6</ele><time>2026-04-26T09:33:52Z</time></trkpt><trkpt lat="40.75791084770462" lon="17.504425741747923"><ele>107.0</ele><time>2026-04-26T09:33:54Z</time></trkpt><trkpt lat="40.75780073794025" lon="17.50439996480757"><ele>107.33333333333333</ele><time>2026-04-26T09:33:56Z</time></trkpt><trkpt lat="40.75768482936226" lon="17.504351378930423"><ele>107.66666666666666</ele><time>2026-04-26T09:33:58Z</time></trkpt><trkpt lat="40.757599254914375" lon="17.504312228326082"><ele>108.0</ele><time>2026-04-26T09:34:00Z</time></trkpt><trkpt lat="40.75751609810503" lon="17.504341226632445"><ele>108.33333333333334</ele><time>2026-04-26T09:34:02.999Z</time></trkpt><trkpt lat="40.757531451207576" lon="17.504437725987234"><ele>108.66666666666667</ele><time>2026-04-26T09:34:04.999Z</time></trkpt><trkpt lat="40.7575754603676" lon="17.504504769236693"><ele>109.0</ele><time>2026-04-26T09:34:06.999Z</time></trkpt><trkpt lat="40.75757800335261" lon="17.504621295327716"><ele>109.14285714285714</ele><time>2026-04-26T09:34:09.999Z</time></trkpt><trkpt lat="40.75759362306534" lon="17.504713207308168"><ele>109.28571428571429</ele><time>2026-04-26T09:34:12.999Z</time></trkpt><trkpt lat="40.757588478040255" lon="17.50479688853425"><ele>109.42857142857142</ele><time>2026-04-26T09:34:14.999Z</time></trkpt><trkpt lat="40.75761027606178" lon="17.50488532869955"><ele>109.57142857142857</ele><time>2026-04-26T09:34:16.999Z</time></trkpt><trkpt lat="40.75760196122178" lon="17.50500278295219"><ele>109.71428571428571</ele><time>2026-04-26T09:34:19.999Z</time></trkpt><trkpt lat="40.757599787398945" lon="17.505103322620414"><ele>109.85714285714285</ele><time>2026-04-26T09:34:21.999Z</time></trkpt><trkpt lat="40.75760180670224" lon="17.505196586698048"><ele>110.0</ele><time>2026-04-26T09:34:23.999Z</time></trkpt><trkpt lat="40.75761781412084" lon="17.505320293021654"><ele>109.99999999999999</ele><time>2026-04-26T09:34:26.999Z</time></trkpt><trkpt lat="40.757622555662024" lon="17.505413658633486"><ele>110.0</ele><time>2026-04-26T09:34:28.999Z</time></trkpt><trkpt lat="40.75759393492823" lon="17.50530677820784"><ele>110.0</ele><time>2026-04-26T09:35:02.999Z</time></trkpt><trkpt lat="40.75758559055991" lon="17.505194470871274"><ele>110.0</ele><time>2026-04-26T09:35:05.999Z</time></trkpt><trkpt lat="40.757595133796514" lon="17.505082303220465"><ele>109.99999999999999</ele><time>2026-04-26T09:35:08.999Z</time></trkpt><trkpt lat="40.75759376114944" lon="17.504982074598257"><ele>110.0</ele><time>2026-04-26T09:35:10.999Z</time></trkpt><trkpt lat="40.75758138985438" lon="17.504891937072188"><ele>109.99999999999999</ele><time>2026-04-26T09:35:12.999Z</time></trkpt><trkpt lat="40.757579359125074" lon="17.504767935135423"><ele>110.0</ele><time>2026-04-26T09:35:15.999Z</time></trkpt><trkpt lat="40.757567886385054" lon="17.504658760885015"><ele>110.0</ele><time>2026-04-26T09:35:19Z</time></trkpt><trkpt lat="40.7575566379809" lon="17.50456598413687"><ele>110.0</ele><time>2026-04-26T09:35:21Z</time></trkpt><trkpt lat="40.757581819511465" lon="17.504489213515093"><ele>109.99999999999999</ele><time>2026-04-26T09:35:24Z</time></trkpt><trkpt lat="40.75756366430048" lon="17.504368474014118"><ele>110.0</ele><time>2026-04-26T09:35:27Z</time></trkpt><trkpt lat="40.757543374632284" lon="17.504267865059244"><ele>109.99999999999999</ele><time>2026-04-26T09:35:30Z</time></trkpt><trkpt lat="40.75757940144682" lon="17.504344374952844"><ele>110.0</ele><time>2026-04-26T09:35:58Z</time></trkpt><trkpt lat="40.75757339048602" lon="17.50442742630059"><ele>110.0</ele><time>2026-04-26T09:36:59.999Z</time></trkpt><trkpt lat="40.7575862485046" lon="17.504529059347963"><ele>110.0</ele><time>2026-04-26T09:37:02.999Z</time></trkpt><trkpt lat="40.75758015497028" lon="17.504613975008525"><ele>110.0</ele><time>2026-04-26T09:37:06.999Z</time></trkpt><trkpt lat="40.75757736873434" lon="17.50470106476023"><ele>109.99999999999999</ele><time>2026-04-26T09:37:08.999Z</time></trkpt><trkpt lat="40.75760482720977" lon="17.50478061269434"><ele>110.0</ele><time>2026-04-26T09:37:14.999Z</time></trkpt><trkpt lat="40.757606059590174" lon="17.504875898127395"><ele>110.0</ele><time>2026-04-26T09:37:29Z</time></trkpt><trkpt lat="40.75758862165837" lon="17.50497558555869"><ele>110.0</ele><time>2026-04-26T09:37:31Z</time></trkpt><trkpt lat="40.757596051038746" lon="17.50508988073761"><ele>110.0</ele><time>2026-04-26T09:37:33Z</time></trkpt><trkpt lat="40.75760930643697" lon="17.505209599641063"><ele>110.0</ele><time>2026-04-26T09:37:35Z</time></trkpt><trkpt lat="40.75762546207449" lon="17.505346966337047"><ele>110.0</ele><time>2026-04-26T09:37:37Z</time></trkpt><trkpt lat="40.75762193008744" lon="17.505471760929765"><ele>109.6</ele><time>2026-04-26T09:37:39Z</time></trkpt><trkpt lat="40.75762922517529" lon="17.505599528490826"><ele>109.2</ele><time>2026-04-26T09:37:41Z</time></trkpt><trkpt lat="40.75761894144272" lon="17.505728491664474"><ele>108.80000000000001</ele><time>2026-04-26T09:37:43Z</time></trkpt><trkpt lat="40.75762046002317" lon="17.505861502111728"><ele>108.4</ele><time>2026-04-26T09:37:45Z</time></trkpt><trkpt lat="40.75763431148118" lon="17.50599353875363"><ele>108.0</ele><time>2026-04-26T09:37:47Z</time></trkpt><trkpt lat="40.75761773093434" lon="17.506130651939213"><ele>107.4</ele><time>2026-04-26T09:37:49Z</time></trkpt><trkpt lat="40.75761852484431" lon="17.5062586712794"><ele>106.80000000000001</ele><time>2026-04-26T09:37:51Z</time></trkpt><trkpt lat="40.75762877208892" lon="17.506381418187104"><ele>106.2</ele><time>2026-04-26T09:37:53Z</time></trkpt><trkpt lat="40.75762305875989" lon="17.5064846757406"><ele>105.6</ele><time>2026-04-26T09:37:55Z</time></trkpt><trkpt lat="40.75762244590164" lon="17.506621139745263"><ele>105.0</ele><time>2026-04-26T09:37:57Z</time></trkpt><trkpt lat="40.75761674813815" lon="17.506742350686046"><ele>105.0</ele><time>2026-04-26T09:37:59Z</time></trkpt><trkpt lat="40.757606218531606" lon="17.50689489422633"><ele>105.0</ele><time>2026-04-26T09:38:01Z</time></trkpt><trkpt lat="40.75760228317404" lon="17.507038950332603"><ele>105.0</ele><time>2026-04-26T09:38:03Z</time></trkpt><trkpt lat="40.75762646672247" lon="17.5071693869562"><ele>105.0</ele><time>2026-04-26T09:38:05Z</time></trkpt><trkpt lat="40.757617201692064" lon="17.507294578149455"><ele>105.0</ele><time>2026-04-26T09:38:07Z</time></trkpt><trkpt lat="40.75761500413309" lon="17.50745255044552"><ele>105.0</ele><time>2026-04-26T09:38:09Z</time></trkpt><trkpt lat="40.75761831519636" lon="17.507542725018066"><ele>105.0</ele><time>2026-04-26T09:38:10Z</time></trkpt><trkpt lat="40.75760907056641" lon="17.507626358102083"><ele>105.0</ele><time>2026-04-26T09:38:11Z</time></trkpt><trkpt lat="40.757596165494974" lon="17.507783877230374"><ele>105.0</ele><time>2026-04-26T09:38:13Z</time></trkpt><trkpt lat="40.75762053980533" lon="17.50793952794526"><ele>105.0</ele><time>2026-04-26T09:38:15Z</time></trkpt><trkpt lat="40.75761818634968" lon="17.508024458325075"><ele>105.0</ele><time>2026-04-26T09:38:16Z</time></trkpt><trkpt lat="40.757608371071804" lon="17.508172650428815"><ele>105.2</ele><time>2026-04-26T09:38:17.999Z</time></trkpt><trkpt lat="40.75762008595078" lon="17.508323137356186"><ele>105.4</ele><time>2026-04-26T09:38:19.999Z</time></trkpt><trkpt lat="40.757634503315565" lon="17.508465486432765"><ele>105.6</ele><time>2026-04-26T09:38:21.999Z</time></trkpt><trkpt lat="40.75762073796674" lon="17.50859830452126"><ele>105.8</ele><time>2026-04-26T09:38:23.999Z</time></trkpt><trkpt lat="40.75763757412846" lon="17.508679209370676"><ele>106.0</ele><time>2026-04-26T09:38:24.999Z</time></trkpt><trkpt lat="40.75762807514447" lon="17.50880390020825"><ele>106.19999999999999</ele><time>2026-04-26T09:38:26.999Z</time></trkpt><trkpt lat="40.75760698902799" lon="17.50891436976405"><ele>106.39999999999999</ele><time>2026-04-26T09:38:28.999Z</time></trkpt><trkpt lat="40.75759258362307" lon="17.509036469141193"><ele>106.6</ele><time>2026-04-26T09:38:30.999Z</time></trkpt><trkpt lat="40.75760211681324" lon="17.50912511121416"><ele>106.8</ele><time>2026-04-26T09:38:31.999Z</time></trkpt><trkpt lat="40.75763287094713" lon="17.5092726726024"><ele>107.0</ele><time>2026-04-26T09:38:33.999Z</time></trkpt><trkpt lat="40.75763719702416" lon="17.509405259156857"><ele>106.99999999999999</ele><time>2026-04-26T09:38:35.999Z</time></trkpt><trkpt lat="40.757643538524526" lon="17.509520190866194"><ele>107.0</ele><time>2026-04-26T09:38:37.999Z</time></trkpt><trkpt lat="40.75768505789023" lon="17.50961867079816"><ele>107.0</ele><time>2026-04-26T09:38:39.999Z</time></trkpt><trkpt lat="40.75773576670467" lon="17.509743125218698"><ele>107.0</ele><time>2026-04-26T09:38:41.999Z</time></trkpt><trkpt lat="40.75779493470558" lon="17.509851237349974"><ele>106.99999999999999</ele><time>2026-04-26T09:38:43.999Z</time></trkpt><trkpt lat="40.75782093666837" lon="17.509927592733707"><ele>107.0</ele><time>2026-04-26T09:38:44.999Z</time></trkpt><trkpt lat="40.75787806646003" lon="17.510047525828202"><ele>106.8</ele><time>2026-04-26T09:38:46.999Z</time></trkpt><trkpt lat="40.757899086479256" lon="17.510149019330065"><ele>106.6</ele><time>2026-04-26T09:38:48.999Z</time></trkpt><trkpt lat="40.75783694983788" lon="17.51020808850617"><ele>106.39999999999999</ele><time>2026-04-26T09:38:50.999Z</time></trkpt><trkpt lat="40.75775300872669" lon="17.5101769657689"><ele>106.19999999999999</ele><time>2026-04-26T09:38:52.999Z</time></trkpt><trkpt lat="40.75764296730821" lon="17.51014260242575"><ele>106.0</ele><time>2026-04-26T09:38:54.999Z</time></trkpt><trkpt lat="40.75753570772624" lon="17.51010049132361"><ele>106.00000000000001</ele><time>2026-04-26T09:38:56.999Z</time></trkpt><trkpt lat="40.75743583077623" lon="17.510073425729864"><ele>106.0</ele><time>2026-04-26T09:38:58.999Z</time></trkpt><trkpt lat="40.75735510809011" lon="17.510072688576237"><ele>106.0</ele><time>2026-04-26T09:39:00.999Z</time></trkpt><trkpt lat="40.75730481297497" lon="17.51014001546147"><ele>106.0</ele><time>2026-04-26T09:39:02.999Z</time></trkpt><trkpt lat="40.757216108996325" lon="17.510235389072083"><ele>106.00000000000001</ele><time>2026-04-26T09:39:04.999Z</time></trkpt><trkpt lat="40.757155856211035" lon="17.510273963934694"><ele>106.0</ele><time>2026-04-26T09:39:05.999Z</time></trkpt><trkpt lat="40.7570999434837" lon="17.51032573021272"><ele>106.0</ele><time>2026-04-26T09:39:06.999Z</time></trkpt><trkpt lat="40.7570279117872" lon="17.510443171183493"><ele>106.0</ele><time>2026-04-26T09:39:08.999Z</time></trkpt><trkpt lat="40.757015610108105" lon="17.510536717702365"><ele>106.0</ele><time>2026-04-26T09:39:09.999Z</time></trkpt><trkpt lat="40.756973314636845" lon="17.510700675567158"><ele>106.0</ele><time>2026-04-26T09:39:11.999Z</time></trkpt><trkpt lat="40.75695071340496" lon="17.51086191175097"><ele>106.0</ele><time>2026-04-26T09:39:13.999Z</time></trkpt><trkpt lat="40.756962584566665" lon="17.51096024858098"><ele>106.0</ele><time>2026-04-26T09:39:14.999Z</time></trkpt><trkpt lat="40.756898926833905" lon="17.51109281283739"><ele>106.0</ele><time>2026-04-26T09:39:16.999Z</time></trkpt><trkpt lat="40.75684988884701" lon="17.51115008075335"><ele>106.0</ele><time>2026-04-26T09:39:17.999Z</time></trkpt><trkpt lat="40.75681451386774" lon="17.511293231639915"><ele>106.0</ele><time>2026-04-26T09:39:19.999Z</time></trkpt><trkpt lat="40.756763706724385" lon="17.511433002500343"><ele>106.0</ele><time>2026-04-26T09:39:21.999Z</time></trkpt><trkpt lat="40.756721551119725" lon="17.511559151095565"><ele>106.33333333333334</ele><time>2026-04-26T09:39:23.999Z</time></trkpt><trkpt lat="40.756663233485895" lon="17.51168607285984"><ele>106.66666666666667</ele><time>2026-04-26T09:39:25.998Z</time></trkpt><trkpt lat="40.75663466004655" lon="17.51179527003018"><ele>107.0</ele><time>2026-04-26T09:39:27.998Z</time></trkpt><trkpt lat="40.7566401603452" lon="17.511905630433766"><ele>107.33333333333334</ele><time>2026-04-26T09:39:30Z</time></trkpt><trkpt lat="40.756594079715526" lon="17.511985964730233"><ele>107.66666666666667</ele><time>2026-04-26T09:39:32Z</time></trkpt><trkpt lat="40.75658715707558" lon="17.512095134823312"><ele>108.0</ele><time>2026-04-26T09:39:35Z</time></trkpt><trkpt lat="40.756523414008754" lon="17.51219424749217"><ele>108.2</ele><time>2026-04-26T09:39:37Z</time></trkpt><trkpt lat="40.756464738301176" lon="17.512244048780353"><ele>108.4</ele><time>2026-04-26T09:39:38Z</time></trkpt><trkpt lat="40.756367820855935" lon="17.512339544523073"><ele>108.60000000000001</ele><time>2026-04-26T09:39:40Z</time></trkpt><trkpt lat="40.756289779564426" lon="17.51243726559265"><ele>108.80000000000001</ele><time>2026-04-26T09:39:42Z</time></trkpt><trkpt lat="40.75623173297979" lon="17.512560638036383"><ele>109.0</ele><time>2026-04-26T09:39:44Z</time></trkpt><trkpt lat="40.756177531528984" lon="17.5126575276386"><ele>109.0</ele><time>2026-04-26T09:39:46Z</time></trkpt><trkpt lat="40.75613403815474" lon="17.512753505211577"><ele>109.0</ele><time>2026-04-26T09:39:48Z</time></trkpt><trkpt lat="40.75610197297073" lon="17.512879228868687"><ele>109.0</ele><time>2026-04-26T09:39:50Z</time></trkpt><trkpt lat="40.75605519580482" lon="17.513024938021847"><ele>109.0</ele><time>2026-04-26T09:39:52Z</time></trkpt><trkpt lat="40.75601435103231" lon="17.51316435751406"><ele>109.0</ele><time>2026-04-26T09:39:54Z</time></trkpt><trkpt lat="40.75597136389644" lon="17.513310707304495"><ele>109.4</ele><time>2026-04-26T09:39:56Z</time></trkpt><trkpt lat="40.7559472613931" lon="17.51345716484703"><ele>109.80000000000001</ele><time>2026-04-26T09:39:58Z</time></trkpt><trkpt lat="40.75590494884724" lon="17.513594094798517"><ele>110.19999999999999</ele><time>2026-04-26T09:40:00Z</time></trkpt><trkpt lat="40.755879286876585" lon="17.513671080736113"><ele>110.6</ele><time>2026-04-26T09:40:01Z</time></trkpt><trkpt lat="40.75582433434883" lon="17.513803487895697"><ele>111.0</ele><time>2026-04-26T09:40:03Z</time></trkpt><trkpt lat="40.755791774676645" lon="17.513955107267883"><ele>111.0</ele><time>2026-04-26T09:40:05Z</time></trkpt><trkpt lat="40.75574102901703" lon="17.51410780839974"><ele>111.0</ele><time>2026-04-26T09:40:07Z</time></trkpt><trkpt lat="40.75571057285253" lon="17.51424895810817"><ele>111.0</ele><time>2026-04-26T09:40:09Z</time></trkpt><trkpt lat="40.755686803547064" lon="17.51433514772568"><ele>111.0</ele><time>2026-04-26T09:40:10Z</time></trkpt><trkpt lat="40.7556426338932" lon="17.51447965832177"><ele>111.0</ele><time>2026-04-26T09:40:12Z</time></trkpt><trkpt lat="40.7555969670036" lon="17.514598497084744"><ele>111.0</ele><time>2026-04-26T09:40:14Z</time></trkpt><trkpt lat="40.75557667416318" lon="17.51467930783485"><ele>111.0</ele><time>2026-04-26T09:40:15Z</time></trkpt><trkpt lat="40.75556046444939" lon="17.514760254161953"><ele>111.0</ele><time>2026-04-26T09:40:16Z</time></trkpt><trkpt lat="40.75551241838304" lon="17.51489492477453"><ele>111.0</ele><time>2026-04-26T09:40:18Z</time></trkpt><trkpt lat="40.755463981521096" lon="17.515043311029608"><ele>111.0</ele><time>2026-04-26T09:40:19.999Z</time></trkpt><trkpt lat="40.75542810915678" lon="17.515186437540198"><ele>111.0</ele><time>2026-04-26T09:40:21.999Z</time></trkpt><trkpt lat="40.755402097224234" lon="17.51534159525981"><ele>111.0</ele><time>2026-04-26T09:40:23.999Z</time></trkpt><trkpt lat="40.755362238272326" lon="17.5154860529575"><ele>111.0</ele><time>2026-04-26T09:40:25.999Z</time></trkpt><trkpt lat="40.75531700770574" lon="17.515621837471652"><ele>111.0</ele><time>2026-04-26T09:40:27.999Z</time></trkpt><trkpt lat="40.7552979801749" lon="17.515707335868104"><ele>111.0</ele><time>2026-04-26T09:40:28.999Z</time></trkpt><trkpt lat="40.755288625667504" lon="17.515796447895813"><ele>110.8</ele><time>2026-04-26T09:40:29.999Z</time></trkpt><trkpt lat="40.755283829542705" lon="17.515891247615027"><ele>110.6</ele><time>2026-04-26T09:40:30.999Z</time></trkpt><trkpt lat="40.75527343055925" lon="17.515977402581665"><ele>110.4</ele><time>2026-04-26T09:40:31.999Z</time></trkpt><trkpt lat="40.7552584657896" lon="17.516140077245804"><ele>110.2</ele><time>2026-04-26T09:40:33.999Z</time></trkpt><trkpt lat="40.75527919275822" lon="17.51627760953878"><ele>110.0</ele><time>2026-04-26T09:40:35.999Z</time></trkpt><trkpt lat="40.755332790214446" lon="17.51641498239004"><ele>109.8</ele><time>2026-04-26T09:40:37.999Z</time></trkpt><trkpt lat="40.75534172316544" lon="17.516513390279673"><ele>109.6</ele><time>2026-04-26T09:40:38.999Z</time></trkpt><trkpt lat="40.75533965053239" lon="17.5166493309217"><ele>109.4</ele><time>2026-04-26T09:40:40.999Z</time></trkpt><trkpt lat="40.75532099150662" lon="17.51677954002054"><ele>109.2</ele><time>2026-04-26T09:40:42.999Z</time></trkpt><trkpt lat="40.75529364619943" lon="17.516907597259948"><ele>109.0</ele><time>2026-04-26T09:40:44.999Z</time></trkpt><trkpt lat="40.75529650671216" lon="17.517057749174647"><ele>109.00000000000001</ele><time>2026-04-26T09:40:46.999Z</time></trkpt><trkpt lat="40.75530131645127" lon="17.517224214288625"><ele>109.0</ele><time>2026-04-26T09:40:48.999Z</time></trkpt><trkpt lat="40.755308814273555" lon="17.51731014384375"><ele>109.0</ele><time>2026-04-26T09:40:49.999Z</time></trkpt><trkpt lat="40.75532148327619" lon="17.517469947138647"><ele>109.0</ele><time>2026-04-26T09:40:51.999Z</time></trkpt><trkpt lat="40.755340302538976" lon="17.51755278389998"><ele>109.00000000000001</ele><time>2026-04-26T09:40:52.999Z</time></trkpt><trkpt lat="40.75536031690858" lon="17.51763879496945"><ele>109.0</ele><time>2026-04-26T09:40:53.999Z</time></trkpt><trkpt lat="40.755360949359215" lon="17.51779564895638"><ele>108.80000000000001</ele><time>2026-04-26T09:40:55.999Z</time></trkpt><trkpt lat="40.75534792011316" lon="17.517958247280795"><ele>108.60000000000001</ele><time>2026-04-26T09:40:57.999Z</time></trkpt><trkpt lat="40.75534815362736" lon="17.51804180898367"><ele>108.4</ele><time>2026-04-26T09:40:58.999Z</time></trkpt><trkpt lat="40.75535243641062" lon="17.518199490539125"><ele>108.2</ele><time>2026-04-26T09:41:00.999Z</time></trkpt><trkpt lat="40.75536037176694" lon="17.518284379552853"><ele>108.0</ele><time>2026-04-26T09:41:01.999Z</time></trkpt><trkpt lat="40.755345492215916" lon="17.51841599017267"><ele>108.0</ele><time>2026-04-26T09:41:03.999Z</time></trkpt><trkpt lat="40.755264533463134" lon="17.518456029124376"><ele>108.0</ele><time>2026-04-26T09:41:05.999Z</time></trkpt><trkpt lat="40.755187090514816" lon="17.51843393354292"><ele>108.0</ele><time>2026-04-26T09:41:07.999Z</time></trkpt><trkpt lat="40.755111088788595" lon="17.518414518542524"><ele>108.0</ele><time>2026-04-26T09:41:09.999Z</time></trkpt><trkpt lat="40.75503178429462" lon="17.518389640861958"><ele>108.0</ele><time>2026-04-26T09:41:11.999Z</time></trkpt><trkpt lat="40.75496655364045" lon="17.518363785829386"><ele>108.0</ele><time>2026-04-26T09:41:13.999Z</time></trkpt><trkpt lat="40.7548942957973" lon="17.518350044496124"><ele>108.83333333333333</ele><time>2026-04-26T09:41:15.999Z</time></trkpt><trkpt lat="40.75480671915754" lon="17.518313628410116"><ele>109.66666666666666</ele><time>2026-04-26T09:41:17.999Z</time></trkpt><trkpt lat="40.75472557513921" lon="17.518281589142823"><ele>110.5</ele><time>2026-04-26T09:41:19.999Z</time></trkpt><trkpt lat="40.75464536018882" lon="17.518258757952914"><ele>111.33333333333333</ele><time>2026-04-26T09:41:21.999Z</time></trkpt><trkpt lat="40.75456371972297" lon="17.51823540327118"><ele>112.16666666666666</ele><time>2026-04-26T09:41:23.999Z</time></trkpt><trkpt lat="40.75447908484838" lon="17.51822066420462"><ele>113.0</ele><time>2026-04-26T09:41:25.998Z</time></trkpt><trkpt lat="40.75438262776329" lon="17.51819223474924"><ele>114.2</ele><time>2026-04-26T09:41:27.998Z</time></trkpt><trkpt lat="40.75429598936894" lon="17.518133291169914"><ele>115.4</ele><time>2026-04-26T09:41:29.998Z</time></trkpt><trkpt lat="40.75425025960539" lon="17.51802519772049"><ele>116.60000000000001</ele><time>2026-04-26T09:41:31.998Z</time></trkpt><trkpt lat="40.754194134700136" lon="17.517921808932414"><ele>117.80000000000001</ele><time>2026-04-26T09:41:33.998Z</time></trkpt><trkpt lat="40.75413087584101" lon="17.51782239019311"><ele>119.0</ele><time>2026-04-26T09:41:36Z</time></trkpt><trkpt lat="40.75409827815551" lon="17.517721226897578"><ele>119.2</ele><time>2026-04-26T09:41:38Z</time></trkpt><trkpt lat="40.754069833063696" lon="17.517589748554293"><ele>119.4</ele><time>2026-04-26T09:41:40Z</time></trkpt><trkpt lat="40.75406842529071" lon="17.51746048028482"><ele>119.6</ele><time>2026-04-26T09:41:42Z</time></trkpt><trkpt lat="40.75402589687833" lon="17.517351919845712"><ele>119.8</ele><time>2026-04-26T09:41:44Z</time></trkpt><trkpt lat="40.7539672345007" lon="17.51731932213508"><ele>120.0</ele><time>2026-04-26T09:41:45Z</time></trkpt><trkpt lat="40.75386807316902" lon="17.51728034164425"><ele>120.0</ele><time>2026-04-26T09:41:47Z</time></trkpt><trkpt lat="40.75376915745959" lon="17.517222104005295"><ele>120.0</ele><time>2026-04-26T09:41:49Z</time></trkpt><trkpt lat="40.75364384769341" lon="17.517181412814963"><ele>120.0</ele><time>2026-04-26T09:41:51Z</time></trkpt><trkpt lat="40.753582889232064" lon="17.51715739764515"><ele>120.0</ele><time>2026-04-26T09:41:52Z</time></trkpt><trkpt lat="40.753500641276325" lon="17.517113291417736"><ele>120.0</ele><time>2026-04-26T09:41:54Z</time></trkpt><trkpt lat="40.75343392522057" lon="17.517067967248508"><ele>120.4</ele><time>2026-04-26T09:41:55Z</time></trkpt><trkpt lat="40.75332548001274" lon="17.51702728396705"><ele>120.8</ele><time>2026-04-26T09:41:57Z</time></trkpt><trkpt lat="40.75321903537882" lon="17.516999592639948"><ele>121.19999999999999</ele><time>2026-04-26T09:41:59Z</time></trkpt><trkpt lat="40.75310680649215" lon="17.516968086517196"><ele>121.6</ele><time>2026-04-26T09:42:01Z</time></trkpt><trkpt lat="40.753003103055164" lon="17.516915859303943"><ele>122.0</ele><time>2026-04-26T09:42:03Z</time></trkpt><trkpt lat="40.75291163096133" lon="17.516825344836235"><ele>122.0</ele><time>2026-04-26T09:42:05Z</time></trkpt><trkpt lat="40.752806314915595" lon="17.516773999884098"><ele>122.0</ele><time>2026-04-26T09:42:07Z</time></trkpt><trkpt lat="40.75269823026544" lon="17.51674993450326"><ele>122.0</ele><time>2026-04-26T09:42:09Z</time></trkpt><trkpt lat="40.75258474774684" lon="17.516790596539906"><ele>122.0</ele><time>2026-04-26T09:42:11Z</time></trkpt><trkpt lat="40.75248978619718" lon="17.51688252877906"><ele>122.16666666666666</ele><time>2026-04-26T09:42:13Z</time></trkpt><trkpt lat="40.75242109659415" lon="17.516990734022208"><ele>122.33333333333333</ele><time>2026-04-26T09:42:15Z</time></trkpt><trkpt lat="40.75238478398812" lon="17.517064160083034"><ele>122.5</ele><time>2026-04-26T09:42:16Z</time></trkpt><trkpt lat="40.75236075949125" lon="17.517145207808102"><ele>122.66666666666666</ele><time>2026-04-26T09:42:17Z</time></trkpt><trkpt lat="40.752320579938925" lon="17.517255761771903"><ele>122.83333333333333</ele><time>2026-04-26T09:42:19Z</time></trkpt><trkpt lat="40.752275471609146" lon="17.517384457300896"><ele>123.0</ele><time>2026-04-26T09:42:20.999Z</time></trkpt><trkpt lat="40.7522227328852" lon="17.51750985308692"><ele>124.0</ele><time>2026-04-26T09:42:22.999Z</time></trkpt><trkpt lat="40.75219371502898" lon="17.517657762457272"><ele>125.00000000000001</ele><time>2026-04-26T09:42:24.999Z</time></trkpt><trkpt lat="40.75218058075972" lon="17.51782049364736"><ele>126.00000000000001</ele><time>2026-04-26T09:42:26.999Z</time></trkpt><trkpt lat="40.75215128407221" lon="17.517894199250215"><ele>127.0</ele><time>2026-04-26T09:42:27.999Z</time></trkpt><trkpt lat="40.752111753935594" lon="17.517961730850544"><ele>128.0</ele><time>2026-04-26T09:42:28.999Z</time></trkpt><trkpt lat="40.752035408237546" lon="17.51807675229632"><ele>128.4</ele><time>2026-04-26T09:42:30.999Z</time></trkpt><trkpt lat="40.75196524503453" lon="17.518186173501267"><ele>128.8</ele><time>2026-04-26T09:42:32.999Z</time></trkpt><trkpt lat="40.75191176849549" lon="17.518318645118537"><ele>129.2</ele><time>2026-04-26T09:42:34.999Z</time></trkpt><trkpt lat="40.75183490235574" lon="17.51842934964236"><ele>129.6</ele><time>2026-04-26T09:42:36.999Z</time></trkpt><trkpt lat="40.75174038190209" lon="17.518507828558835"><ele>130.0</ele><time>2026-04-26T09:42:38.999Z</time></trkpt><trkpt lat="40.751681715654996" lon="17.51861535133564"><ele>129.8</ele><time>2026-04-26T09:42:40.999Z</time></trkpt><trkpt lat="40.75173394714077" lon="17.518728663565792"><ele>129.6</ele><time>2026-04-26T09:42:42.999Z</time></trkpt><trkpt lat="40.75180761470138" lon="17.518832657352053"><ele>129.4</ele><time>2026-04-26T09:42:44.999Z</time></trkpt><trkpt lat="40.75187736080612" lon="17.518974039830155"><ele>129.2</ele><time>2026-04-26T09:42:46.999Z</time></trkpt><trkpt lat="40.75192296948109" lon="17.519040562766804"><ele>129.0</ele><time>2026-04-26T09:42:47.999Z</time></trkpt><trkpt lat="40.75200531887081" lon="17.519168715780744"><ele>129.0</ele><time>2026-04-26T09:42:49.999Z</time></trkpt><trkpt lat="40.752056347582986" lon="17.51922404536419"><ele>129.0</ele><time>2026-04-26T09:42:50.999Z</time></trkpt><trkpt lat="40.75211084265277" lon="17.519277354755857"><ele>129.0</ele><time>2026-04-26T09:42:51.999Z</time></trkpt><trkpt lat="40.75220364702391" lon="17.519357063989858"><ele>129.0</ele><time>2026-04-26T09:42:53.999Z</time></trkpt><trkpt lat="40.75231134590366" lon="17.51931682779269"><ele>129.0</ele><time>2026-04-26T09:42:55.999Z</time></trkpt><trkpt lat="40.75237120579695" lon="17.519276825429166"><ele>129.0</ele><time>2026-04-26T09:42:57.999Z</time></trkpt><trkpt lat="40.7523272718604" lon="17.519353103293582"><ele>129.0</ele><time>2026-04-26T09:43:02.999Z</time></trkpt><trkpt lat="40.75226967659677" lon="17.51941159420786"><ele>129.0</ele><time>2026-04-26T09:43:04.999Z</time></trkpt><trkpt lat="40.75217947664461" lon="17.519504958883385"><ele>129.0</ele><time>2026-04-26T09:43:06.999Z</time></trkpt><trkpt lat="40.75213414951417" lon="17.519573574499518"><ele>129.0</ele><time>2026-04-26T09:43:07.999Z</time></trkpt><trkpt lat="40.752060897045155" lon="17.51966655160246"><ele>129.0</ele><time>2026-04-26T09:43:09.999Z</time></trkpt><trkpt lat="40.7520061764114" lon="17.519749033305363"><ele>129.0</ele><time>2026-04-26T09:43:11.999Z</time></trkpt><trkpt lat="40.752060775390014" lon="17.519863043293"><ele>128.8</ele><time>2026-04-26T09:43:13.999Z</time></trkpt><trkpt lat="40.752131033998424" lon="17.519985034541815"><ele>128.60000000000002</ele><time>2026-04-26T09:43:15.999Z</time></trkpt><trkpt lat="40.75216705247233" lon="17.52005390053693"><ele>128.4</ele><time>2026-04-26T09:43:16.999Z</time></trkpt><trkpt lat="40.75219409950743" lon="17.52020760920519"><ele>128.20000000000002</ele><time>2026-04-26T09:43:18.999Z</time></trkpt><trkpt lat="40.75223208619068" lon="17.520359281988767"><ele>128.0</ele><time>2026-04-26T09:43:20.999Z</time></trkpt><trkpt lat="40.75224127199494" lon="17.520504773498352"><ele>128.4</ele><time>2026-04-26T09:43:22.999Z</time></trkpt><trkpt lat="40.75223015080521" lon="17.52065442948357"><ele>128.8</ele><time>2026-04-26T09:43:24.999Z</time></trkpt><trkpt lat="40.75219224693375" lon="17.52077040417237"><ele>129.2</ele><time>2026-04-26T09:43:26.998Z</time></trkpt><trkpt lat="40.75213521189671" lon="17.52088897386142"><ele>129.6</ele><time>2026-04-26T09:43:28.998Z</time></trkpt><trkpt lat="40.75210207623797" lon="17.52101688576682"><ele>130.0</ele><time>2026-04-26T09:43:30.998Z</time></trkpt><trkpt lat="40.752090529825836" lon="17.521162387032895"><ele>129.8</ele><time>2026-04-26T09:43:32.998Z</time></trkpt><trkpt lat="40.752074721432336" lon="17.52132137736293"><ele>129.6</ele><time>2026-04-26T09:43:34.998Z</time></trkpt><trkpt lat="40.75204737309221" lon="17.521469825294297"><ele>129.4</ele><time>2026-04-26T09:43:36.998Z</time></trkpt><trkpt lat="40.75204149636977" lon="17.521558524963474"><ele>129.2</ele><time>2026-04-26T09:43:37.998Z</time></trkpt><trkpt lat="40.75201276773728" lon="17.52170590585325"><ele>129.0</ele><time>2026-04-26T09:43:39.998Z</time></trkpt><trkpt lat="40.75196853329151" lon="17.52185941368342"><ele>129.0</ele><time>2026-04-26T09:43:42Z</time></trkpt><trkpt lat="40.75188880657563" lon="17.521982438476837"><ele>129.0</ele><time>2026-04-26T09:43:44Z</time></trkpt><trkpt lat="40.751794353413466" lon="17.522068251899253"><ele>129.0</ele><time>2026-04-26T09:43:46Z</time></trkpt><trkpt lat="40.751704056073436" lon="17.522150126528608"><ele>129.0</ele><time>2026-04-26T09:43:48Z</time></trkpt><trkpt lat="40.75165346062369" lon="17.522203543285343"><ele>129.0</ele><time>2026-04-26T09:43:49Z</time></trkpt><trkpt lat="40.751601782623275" lon="17.522256877451834"><ele>130.2</ele><time>2026-04-26T09:43:50Z</time></trkpt><trkpt lat="40.75155360338768" lon="17.522310804084217"><ele>131.4</ele><time>2026-04-26T09:43:51Z</time></trkpt><trkpt lat="40.751462559714234" lon="17.522433525301246"><ele>132.6</ele><time>2026-04-26T09:43:53Z</time></trkpt><trkpt lat="40.751357220891116" lon="17.522495702634444"><ele>133.8</ele><time>2026-04-26T09:43:55Z</time></trkpt><trkpt lat="40.75126173644005" lon="17.52254372928425"><ele>135.0</ele><time>2026-04-26T09:43:57Z</time></trkpt><trkpt lat="40.75117491607955" lon="17.52258528027857"><ele>135.0</ele><time>2026-04-26T09:44:00Z</time></trkpt><trkpt lat="40.75111674246182" lon="17.522634530931565"><ele>135.0</ele><time>2026-04-26T09:44:02Z</time></trkpt><trkpt lat="40.75104409335782" lon="17.522699222907033"><ele>135.0</ele><time>2026-04-26T09:44:05Z</time></trkpt><trkpt lat="40.75101017449002" lon="17.52279163750494"><ele>135.0</ele><time>2026-04-26T09:44:06Z</time></trkpt><trkpt lat="40.750978750328315" lon="17.52293153314864"><ele>135.0</ele><time>2026-04-26T09:44:08Z</time></trkpt><trkpt lat="40.75099087437666" lon="17.523013618119"><ele>135.0</ele><time>2026-04-26T09:44:09Z</time></trkpt><trkpt lat="40.7509645458057" lon="17.523159561519627"><ele>135.2</ele><time>2026-04-26T09:44:11Z</time></trkpt><trkpt lat="40.750973152874174" lon="17.523262059865218"><ele>135.4</ele><time>2026-04-26T09:44:12Z</time></trkpt><trkpt lat="40.750929753546444" lon="17.523407108941143"><ele>135.6</ele><time>2026-04-26T09:44:14Z</time></trkpt><trkpt lat="40.75092047399902" lon="17.523565809882967"><ele>135.8</ele><time>2026-04-26T09:44:16Z</time></trkpt><trkpt lat="40.75090828665354" lon="17.523650956786913"><ele>136.0</ele><time>2026-04-26T09:44:17Z</time></trkpt><trkpt lat="40.75087899064365" lon="17.523818941385983"><ele>135.14285714285714</ele><time>2026-04-26T09:44:19Z</time></trkpt><trkpt lat="40.75086113611082" lon="17.523900127691395"><ele>134.28571428571428</ele><time>2026-04-26T09:44:20Z</time></trkpt><trkpt lat="40.750826401571295" lon="17.52405750679401"><ele>133.42857142857144</ele><time>2026-04-26T09:44:22Z</time></trkpt><trkpt lat="40.750817992974305" lon="17.524143272521613"><ele>132.57142857142856</ele><time>2026-04-26T09:44:23Z</time></trkpt><trkpt lat="40.750800950924855" lon="17.524228272452582"><ele>131.71428571428572</ele><time>2026-04-26T09:44:24Z</time></trkpt><trkpt lat="40.75079823817569" lon="17.524312152445603"><ele>130.85714285714286</ele><time>2026-04-26T09:44:25Z</time></trkpt><trkpt lat="40.750789024047386" lon="17.524396788165244"><ele>130.0</ele><time>2026-04-26T09:44:26Z</time></trkpt><trkpt lat="40.75076390704781" lon="17.524480947262205"><ele>129.5</ele><time>2026-04-26T09:44:26.999Z</time></trkpt><trkpt lat="40.75074435636009" lon="17.524638940749178"><ele>129.0</ele><time>2026-04-26T09:44:28.999Z</time></trkpt><trkpt lat="40.7507146414222" lon="17.52479963600034"><ele>128.5</ele><time>2026-04-26T09:44:30.999Z</time></trkpt><trkpt lat="40.750698178979206" lon="17.524965375922203"><ele>128.0</ele><time>2026-04-26T09:44:32.999Z</time></trkpt><trkpt lat="40.75067400746313" lon="17.525126799254814"><ele>127.99999999999999</ele><time>2026-04-26T09:44:34.999Z</time></trkpt><trkpt lat="40.75066632906346" lon="17.525210759581086"><ele>128.0</ele><time>2026-04-26T09:44:35.999Z</time></trkpt><trkpt lat="40.75064702331585" lon="17.52536353382443"><ele>128.0</ele><time>2026-04-26T09:44:37.999Z</time></trkpt><trkpt lat="40.75064330151087" lon="17.5254482899462"><ele>128.0</ele><time>2026-04-26T09:44:38.999Z</time></trkpt><trkpt lat="40.75062971272837" lon="17.52553042501676"><ele>127.99999999999999</ele><time>2026-04-26T09:44:39.999Z</time></trkpt><trkpt lat="40.75062641501072" lon="17.525685727192243"><ele>128.0</ele><time>2026-04-26T09:44:41.999Z</time></trkpt><trkpt lat="40.75062041100565" lon="17.525831969032957"><ele>127.60000000000001</ele><time>2026-04-26T09:44:43.999Z</time></trkpt><trkpt lat="40.750598378102104" lon="17.525970027502773"><ele>127.20000000000002</ele><time>2026-04-26T09:44:45.999Z</time></trkpt><trkpt lat="40.750605415551426" lon="17.526107603853013"><ele>126.8</ele><time>2026-04-26T09:44:47.999Z</time></trkpt><trkpt lat="40.75060701746049" lon="17.52622029099807"><ele>126.4</ele><time>2026-04-26T09:44:50.999Z</time></trkpt><trkpt lat="40.750588960717515" lon="17.52633054993925"><ele>126.0</ele><time>2026-04-26T09:44:53.999Z</time></trkpt><trkpt lat="40.7505180642856" lon="17.526403541005426"><ele>126.0</ele><time>2026-04-26T09:44:56.999Z</time></trkpt><trkpt lat="40.750583347008124" lon="17.526394116411474"><ele>126.0</ele><time>2026-04-26T09:45:00.999Z</time></trkpt><trkpt lat="40.75058256750628" lon="17.526294727151672"><ele>126.0</ele><time>2026-04-26T09:45:02.999Z</time></trkpt><trkpt lat="40.75059173107937" lon="17.526190535950523"><ele>126.0</ele><time>2026-04-26T09:45:04.999Z</time></trkpt><trkpt lat="40.75067624158603" lon="17.526209688879018"><ele>126.0</ele><time>2026-04-26T09:45:07.999Z</time></trkpt><trkpt lat="40.75073781071932" lon="17.526234918365578"><ele>126.0</ele><time>2026-04-26T09:45:08.999Z</time></trkpt><trkpt lat="40.75079985889036" lon="17.526264316449733"><ele>126.0</ele><time>2026-04-26T09:45:09.999Z</time></trkpt><trkpt lat="40.75086170445917" lon="17.5263070720495"><ele>126.0</ele><time>2026-04-26T09:45:10.999Z</time></trkpt><trkpt lat="40.750923514232085" lon="17.5263674146696"><ele>126.0</ele><time>2026-04-26T09:45:11.999Z</time></trkpt><trkpt lat="40.750994985893165" lon="17.52641786461582"><ele>126.0</ele><time>2026-04-26T09:45:12.999Z</time></trkpt><trkpt lat="40.75106491938703" lon="17.526476699195882"><ele>126.0</ele><time>2026-04-26T09:45:13.999Z</time></trkpt><trkpt lat="40.75111445666931" lon="17.52654543956271"><ele>126.0</ele><time>2026-04-26T09:45:14.999Z</time></trkpt><trkpt lat="40.75118440953075" lon="17.52662765927299"><ele>126.0</ele><time>2026-04-26T09:45:15.999Z</time></trkpt><trkpt lat="40.75125089780527" lon="17.526695441852016"><ele>124.83333333333333</ele><time>2026-04-26T09:45:16.999Z</time></trkpt><trkpt lat="40.751316594590314" lon="17.526744805128963"><ele>123.66666666666666</ele><time>2026-04-26T09:45:17.999Z</time></trkpt><trkpt lat="40.75137917447113" lon="17.52682515439816"><ele>122.5</ele><time>2026-04-26T09:45:18.999Z</time></trkpt><trkpt lat="40.75143592337499" lon="17.526925047843896"><ele>121.33333333333333</ele><time>2026-04-26T09:45:19.999Z</time></trkpt><trkpt lat="40.75149297658039" lon="17.527022726577123"><ele>120.16666666666666</ele><time>2026-04-26T09:45:20.999Z</time></trkpt><trkpt lat="40.75155206807242" lon="17.527100017756045"><ele>119.0</ele><time>2026-04-26T09:45:21.999Z</time></trkpt><trkpt lat="40.7516123087402" lon="17.527145098222093"><ele>118.66666666666666</ele><time>2026-04-26T09:45:22.999Z</time></trkpt><trkpt lat="40.75170643333912" lon="17.52717356563355"><ele>118.33333333333333</ele><time>2026-04-26T09:45:23.999Z</time></trkpt><trkpt lat="40.75179596910221" lon="17.52718738267652"><ele>118.0</ele><time>2026-04-26T09:45:24.999Z</time></trkpt><trkpt lat="40.7518825425897" lon="17.527201175613573"><ele>117.66666666666666</ele><time>2026-04-26T09:45:25.999Z</time></trkpt><trkpt lat="40.75196943683241" lon="17.527228076604725"><ele>117.33333333333333</ele><time>2026-04-26T09:45:26.999Z</time></trkpt><trkpt lat="40.75204711285061" lon="17.527273570969655"><ele>117.0</ele><time>2026-04-26T09:45:27.999Z</time></trkpt><trkpt lat="40.75211563692797" lon="17.527321637520696"><ele>116.16666666666667</ele><time>2026-04-26T09:45:28.999Z</time></trkpt><trkpt lat="40.752190007109164" lon="17.52736663904578"><ele>115.33333333333334</ele><time>2026-04-26T09:45:29.999Z</time></trkpt><trkpt lat="40.7522648028514" lon="17.527404555620826"><ele>114.5</ele><time>2026-04-26T09:45:30.999Z</time></trkpt><trkpt lat="40.752335210494806" lon="17.527441871723298"><ele>113.66666666666667</ele><time>2026-04-26T09:45:31.998Z</time></trkpt><trkpt lat="40.75241092261951" lon="17.52748002137006"><ele>112.83333333333334</ele><time>2026-04-26T09:45:32.998Z</time></trkpt><trkpt lat="40.7524837778479" lon="17.52750774838553"><ele>112.0</ele><time>2026-04-26T09:45:33.998Z</time></trkpt><trkpt lat="40.75256675856265" lon="17.5275267113102"><ele>112.00000000000001</ele><time>2026-04-26T09:45:34.998Z</time></trkpt><trkpt lat="40.752635931707246" lon="17.527567141905166"><ele>112.0</ele><time>2026-04-26T09:45:35.998Z</time></trkpt><trkpt lat="40.75270449101556" lon="17.527599017857693"><ele>112.0</ele><time>2026-04-26T09:45:36.998Z</time></trkpt><trkpt lat="40.75278263362833" lon="17.527641009428063"><ele>112.0</ele><time>2026-04-26T09:45:37.998Z</time></trkpt><trkpt lat="40.75286623664943" lon="17.52767577335117"><ele>112.00000000000001</ele><time>2026-04-26T09:45:38.998Z</time></trkpt><trkpt lat="40.752944538891114" lon="17.52770110188106"><ele>112.0</ele><time>2026-04-26T09:45:39.998Z</time></trkpt><trkpt lat="40.75301778326263" lon="17.527746470577462"><ele>111.33333333333334</ele><time>2026-04-26T09:45:40.998Z</time></trkpt><trkpt lat="40.75308357578278" lon="17.527794687656126"><ele>110.66666666666667</ele><time>2026-04-26T09:45:41.998Z</time></trkpt><trkpt lat="40.75313888205255" lon="17.527861385520723"><ele>110.0</ele><time>2026-04-26T09:45:42.998Z</time></trkpt><trkpt lat="40.75319896576355" lon="17.527917535239077"><ele>109.33333333333334</ele><time>2026-04-26T09:45:43.998Z</time></trkpt><trkpt lat="40.75325400095027" lon="17.527961669344922"><ele>108.66666666666667</ele><time>2026-04-26T09:45:44.998Z</time></trkpt><trkpt lat="40.75325591495332" lon="17.528112379363755"><ele>108.0</ele><time>2026-04-26T09:45:47Z</time></trkpt><trkpt lat="40.7532230189195" lon="17.528193446225348"><ele>108.0</ele><time>2026-04-26T09:45:48Z</time></trkpt><trkpt lat="40.75326438744844" lon="17.52832140510137"><ele>108.00000000000001</ele><time>2026-04-26T09:45:50Z</time></trkpt><trkpt lat="40.75332871737017" lon="17.528428852045195"><ele>108.00000000000001</ele><time>2026-04-26T09:45:52Z</time></trkpt><trkpt lat="40.75336387716332" lon="17.52855221878309"><ele>108.0</ele><time>2026-04-26T09:45:54Z</time></trkpt><trkpt lat="40.75335697961649" lon="17.528706972474794"><ele>108.0</ele><time>2026-04-26T09:45:56Z</time></trkpt><trkpt lat="40.75333041428839" lon="17.52886573185547"><ele>108.2</ele><time>2026-04-26T09:45:58Z</time></trkpt><trkpt lat="40.75331434718334" lon="17.528952635609336"><ele>108.4</ele><time>2026-04-26T09:45:59Z</time></trkpt><trkpt lat="40.75330795227251" lon="17.52908815335095"><ele>108.60000000000001</ele><time>2026-04-26T09:46:01Z</time></trkpt><trkpt lat="40.753263652889856" lon="17.529166576224924"><ele>108.80000000000001</ele><time>2026-04-26T09:46:03Z</time></trkpt><trkpt lat="40.75316326477487" lon="17.529161858208777"><ele>109.0</ele><time>2026-04-26T09:46:05Z</time></trkpt><trkpt lat="40.753053595172595" lon="17.529189613930328"><ele>109.0</ele><time>2026-04-26T09:46:07Z</time></trkpt><trkpt lat="40.75295590573958" lon="17.529243032898595"><ele>109.0</ele><time>2026-04-26T09:46:09Z</time></trkpt><trkpt lat="40.75287082727959" lon="17.52931865793656"><ele>109.0</ele><time>2026-04-26T09:46:11Z</time></trkpt><trkpt lat="40.75279346074448" lon="17.529392666252978"><ele>109.0</ele><time>2026-04-26T09:46:13Z</time></trkpt><trkpt lat="40.75272062329195" lon="17.529478671936765"><ele>109.0</ele><time>2026-04-26T09:46:15Z</time></trkpt><trkpt lat="40.75262716140004" lon="17.529546256798188"><ele>109.80000000000001</ele><time>2026-04-26T09:46:17Z</time></trkpt><trkpt lat="40.75254769212646" lon="17.52962933772231"><ele>110.60000000000001</ele><time>2026-04-26T09:46:19Z</time></trkpt><trkpt lat="40.752476288374" lon="17.529723642385033"><ele>111.4</ele><time>2026-04-26T09:46:21Z</time></trkpt><trkpt lat="40.75240580474868" lon="17.529794837697807"><ele>112.2</ele><time>2026-04-26T09:46:23Z</time></trkpt><trkpt lat="40.752334058362095" lon="17.529878684237243"><ele>113.0</ele><time>2026-04-26T09:46:25Z</time></trkpt><trkpt lat="40.752251183036186" lon="17.52997432794772"><ele>113.0</ele><time>2026-04-26T09:46:27Z</time></trkpt><trkpt lat="40.752161375308994" lon="17.53004148157422"><ele>113.00000000000001</ele><time>2026-04-26T09:46:29Z</time></trkpt><trkpt lat="40.75206490312824" lon="17.53009138882585"><ele>113.00000000000001</ele><time>2026-04-26T09:46:31Z</time></trkpt><trkpt lat="40.75196510060491" lon="17.53014367718586"><ele>113.0</ele><time>2026-04-26T09:46:33Z</time></trkpt><trkpt lat="40.75186563489355" lon="17.53018778192981"><ele>113.0</ele><time>2026-04-26T09:46:34.999Z</time></trkpt><trkpt lat="40.75176386519479" lon="17.530230430394955"><ele>113.80000000000001</ele><time>2026-04-26T09:46:36.999Z</time></trkpt><trkpt lat="40.75166469030023" lon="17.53028606516735"><ele>114.60000000000001</ele><time>2026-04-26T09:46:38.999Z</time></trkpt><trkpt lat="40.751558272064266" lon="17.530328171726882"><ele>115.39999999999999</ele><time>2026-04-26T09:46:40.999Z</time></trkpt><trkpt lat="40.7514651000737" lon="17.530378397985633"><ele>116.19999999999999</ele><time>2026-04-26T09:46:42.999Z</time></trkpt><trkpt lat="40.751360098650274" lon="17.53043522579323"><ele>117.0</ele><time>2026-04-26T09:46:44.999Z</time></trkpt><trkpt lat="40.751259182977904" lon="17.53049299538513"><ele>117.0</ele><time>2026-04-26T09:46:46.999Z</time></trkpt><trkpt lat="40.751162325424886" lon="17.530557700570082"><ele>116.99999999999999</ele><time>2026-04-26T09:46:48.999Z</time></trkpt><trkpt lat="40.75105667245145" lon="17.530615792702886"><ele>116.99999999999999</ele><time>2026-04-26T09:46:50.999Z</time></trkpt><trkpt lat="40.7509520906557" lon="17.530686413326496"><ele>117.0</ele><time>2026-04-26T09:46:52.999Z</time></trkpt><trkpt lat="40.750891633777485" lon="17.53072403258405"><ele>117.0</ele><time>2026-04-26T09:46:53.999Z</time></trkpt><trkpt lat="40.750771781896354" lon="17.530759678577375"><ele>117.6</ele><time>2026-04-26T09:46:55.999Z</time></trkpt><trkpt lat="40.750673650745" lon="17.53078968672821"><ele>118.19999999999999</ele><time>2026-04-26T09:46:57.999Z</time></trkpt><trkpt lat="40.75061401919181" lon="17.530828784952877"><ele>118.8</ele><time>2026-04-26T09:46:58.999Z</time></trkpt><trkpt lat="40.75050446032086" lon="17.530894516012026"><ele>119.4</ele><time>2026-04-26T09:47:00.999Z</time></trkpt><trkpt lat="40.75039632540836" lon="17.53095326399207"><ele>120.0</ele><time>2026-04-26T09:47:02.999Z</time></trkpt><trkpt lat="40.750280179515336" lon="17.530992989133804"><ele>120.8</ele><time>2026-04-26T09:47:04.999Z</time></trkpt><trkpt lat="40.75016768486693" lon="17.531038667937416"><ele>121.6</ele><time>2026-04-26T09:47:06.999Z</time></trkpt><trkpt lat="40.75010845829351" lon="17.53108433205546"><ele>122.4</ele><time>2026-04-26T09:47:07.999Z</time></trkpt><trkpt lat="40.750011897644505" lon="17.53113334340994"><ele>123.2</ele><time>2026-04-26T09:47:09.999Z</time></trkpt><trkpt lat="40.74991249185561" lon="17.53119626077632"><ele>124.0</ele><time>2026-04-26T09:47:11.999Z</time></trkpt><trkpt lat="40.749823669826235" lon="17.531281989476735"><ele>124.0</ele><time>2026-04-26T09:47:13.999Z</time></trkpt><trkpt lat="40.74978281300142" lon="17.53140797920931"><ele>124.0</ele><time>2026-04-26T09:47:15.999Z</time></trkpt><trkpt lat="40.74976584233835" lon="17.531563161701097"><ele>124.0</ele><time>2026-04-26T09:47:17.999Z</time></trkpt><trkpt lat="40.74977515366755" lon="17.53173005071817"><ele>124.0</ele><time>2026-04-26T09:47:19.999Z</time></trkpt><trkpt lat="40.74976858159858" lon="17.531888596294785"><ele>124.0</ele><time>2026-04-26T09:47:21.999Z</time></trkpt><trkpt lat="40.749763230491006" lon="17.53197351811215"><ele>124.0</ele><time>2026-04-26T09:47:22.999Z</time></trkpt><trkpt lat="40.74975907432875" lon="17.53213094981425"><ele>124.0</ele><time>2026-04-26T09:47:24.999Z</time></trkpt><trkpt lat="40.74976243546388" lon="17.53228764763246"><ele>124.0</ele><time>2026-04-26T09:47:26.999Z</time></trkpt><trkpt lat="40.7497663090154" lon="17.532378427783758"><ele>124.0</ele><time>2026-04-26T09:47:27.999Z</time></trkpt><trkpt lat="40.7497491115267" lon="17.5325361965247"><ele>124.0</ele><time>2026-04-26T09:47:29.999Z</time></trkpt><trkpt lat="40.7497448744245" lon="17.53269547731925"><ele>124.0</ele><time>2026-04-26T09:47:31.999Z</time></trkpt><trkpt lat="40.749741342939004" lon="17.532851364934473"><ele>124.0</ele><time>2026-04-26T09:47:33.999Z</time></trkpt><trkpt lat="40.74973318670544" lon="17.533015673113262"><ele>124.0</ele><time>2026-04-26T09:47:35.999Z</time></trkpt><trkpt lat="40.749698128688955" lon="17.533166484165886"><ele>124.00000000000001</ele><time>2026-04-26T09:47:37.999Z</time></trkpt><trkpt lat="40.74969970955878" lon="17.533330404856954"><ele>124.0</ele><time>2026-04-26T09:47:39.998Z</time></trkpt><trkpt lat="40.749694812259456" lon="17.533414895492996"><ele>124.0</ele><time>2026-04-26T09:47:40.998Z</time></trkpt><trkpt lat="40.74968230490233" lon="17.533497944374353"><ele>124.0</ele><time>2026-04-26T09:47:41.998Z</time></trkpt><trkpt lat="40.74965513708599" lon="17.533649293088754"><ele>124.00000000000001</ele><time>2026-04-26T09:47:43.998Z</time></trkpt><trkpt lat="40.749663395765445" lon="17.533737448449955"><ele>124.0</ele><time>2026-04-26T09:47:44.998Z</time></trkpt><trkpt lat="40.749660418290695" lon="17.533822062876688"><ele>124.00000000000001</ele><time>2026-04-26T09:47:45.998Z</time></trkpt><trkpt lat="40.749651777554085" lon="17.533978527328003"><ele>124.0</ele><time>2026-04-26T09:47:47.998Z</time></trkpt><trkpt lat="40.7496487611693" lon="17.534061662231803"><ele>124.0</ele><time>2026-04-26T09:47:48.998Z</time></trkpt><trkpt lat="40.749636900587845" lon="17.53422629306274"><ele>124.0</ele><time>2026-04-26T09:47:50.998Z</time></trkpt><trkpt lat="40.74963213883302" lon="17.534326298833324"><ele>124.00000000000001</ele><time>2026-04-26T09:47:51.998Z</time></trkpt><trkpt lat="40.749621364208295" lon="17.53440999725467"><ele>124.0</ele><time>2026-04-26T09:47:53Z</time></trkpt><trkpt lat="40.749621203539235" lon="17.534503442869493"><ele>124.2</ele><time>2026-04-26T09:47:54Z</time></trkpt><trkpt lat="40.74962397244568" lon="17.534594901216174"><ele>124.4</ele><time>2026-04-26T09:47:55Z</time></trkpt><trkpt lat="40.74962107884263" lon="17.534684244592874"><ele>124.6</ele><time>2026-04-26T09:47:56Z</time></trkpt><trkpt lat="40.749624431074416" lon="17.53485185631098"><ele>124.8</ele><time>2026-04-26T09:47:58Z</time></trkpt><trkpt lat="40.74962370579358" lon="17.53499970558346"><ele>125.0</ele><time>2026-04-26T09:48:00Z</time></trkpt><trkpt lat="40.749648395457754" lon="17.535153417106834"><ele>125.0</ele><time>2026-04-26T09:48:02Z</time></trkpt><trkpt lat="40.7496754489362" lon="17.53529064900653"><ele>125.0</ele><time>2026-04-26T09:48:04Z</time></trkpt><trkpt lat="40.749695501468985" lon="17.535431448787065"><ele>125.0</ele><time>2026-04-26T09:48:06Z</time></trkpt><trkpt lat="40.74973725297173" lon="17.535586156240356"><ele>125.0</ele><time>2026-04-26T09:48:08Z</time></trkpt><trkpt lat="40.74974352881009" lon="17.535737599367803"><ele>125.2</ele><time>2026-04-26T09:48:10Z</time></trkpt><trkpt lat="40.749749173263254" lon="17.53589601866216"><ele>125.4</ele><time>2026-04-26T09:48:12Z</time></trkpt><trkpt lat="40.74975199980319" lon="17.536058807715023"><ele>125.6</ele><time>2026-04-26T09:48:14Z</time></trkpt><trkpt lat="40.74975964836413" lon="17.536142851177356"><ele>125.8</ele><time>2026-04-26T09:48:15Z</time></trkpt><trkpt lat="40.74976099901857" lon="17.536304317087538"><ele>126.0</ele><time>2026-04-26T09:48:17Z</time></trkpt><trkpt lat="40.749766317167975" lon="17.536469622906974"><ele>126.0</ele><time>2026-04-26T09:48:19Z</time></trkpt><trkpt lat="40.749776642085635" lon="17.536634338529293"><ele>126.0</ele><time>2026-04-26T09:48:21Z</time></trkpt><trkpt lat="40.74978793890504" lon="17.536716643842723"><ele>126.0</ele><time>2026-04-26T09:48:22Z</time></trkpt><trkpt lat="40.749797283111015" lon="17.53688190485748"><ele>126.0</ele><time>2026-04-26T09:48:24Z</time></trkpt><trkpt lat="40.74979977519143" lon="17.53696777548223"><ele>126.0</ele><time>2026-04-26T09:48:25Z</time></trkpt><trkpt lat="40.749808019185906" lon="17.537051450850697"><ele>126.0</ele><time>2026-04-26T09:48:26Z</time></trkpt><trkpt lat="40.749824510339245" lon="17.537134535343764"><ele>126.0</ele><time>2026-04-26T09:48:27Z</time></trkpt><trkpt lat="40.74983517829871" lon="17.537217091333904"><ele>126.0</ele><time>2026-04-26T09:48:28Z</time></trkpt><trkpt lat="40.74985156653018" lon="17.537304742601354"><ele>126.0</ele><time>2026-04-26T09:48:29Z</time></trkpt><trkpt lat="40.74986237924772" lon="17.53746491108568"><ele>126.0</ele><time>2026-04-26T09:48:31Z</time></trkpt><trkpt lat="40.74986508620767" lon="17.537556956377152"><ele>126.0</ele><time>2026-04-26T09:48:32Z</time></trkpt><trkpt lat="40.74985364803365" lon="17.53771908032346"><ele>126.0</ele><time>2026-04-26T09:48:34Z</time></trkpt><trkpt lat="40.74986418012659" lon="17.53780341345015"><ele>125.5</ele><time>2026-04-26T09:48:35Z</time></trkpt><trkpt lat="40.749876321923146" lon="17.53788571529377"><ele>125.0</ele><time>2026-04-26T09:48:36Z</time></trkpt><trkpt lat="40.74991187227265" lon="17.538051873447895"><ele>124.5</ele><time>2026-04-26T09:48:38Z</time></trkpt><trkpt lat="40.74993113260105" lon="17.53813230885857"><ele>124.0</ele><time>2026-04-26T09:48:39Z</time></trkpt><trkpt lat="40.749949489873416" lon="17.538214095721212"><ele>123.5</ele><time>2026-04-26T09:48:40Z</time></trkpt><trkpt lat="40.74996504176866" lon="17.538297454536075"><ele>123.0</ele><time>2026-04-26T09:48:41Z</time></trkpt><trkpt lat="40.749963318887964" lon="17.538387529855886"><ele>123.00000000000001</ele><time>2026-04-26T09:48:42Z</time></trkpt><trkpt lat="40.74995356151959" lon="17.53847875517169"><ele>123.0</ele><time>2026-04-26T09:48:43Z</time></trkpt><trkpt lat="40.74994314275683" lon="17.53856994148322"><ele>123.00000000000001</ele><time>2026-04-26T09:48:43.999Z</time></trkpt><trkpt lat="40.74993757874831" lon="17.538663434906276"><ele>123.00000000000001</ele><time>2026-04-26T09:48:44.999Z</time></trkpt><trkpt lat="40.74993195203748" lon="17.538750483857587"><ele>123.0</ele><time>2026-04-26T09:48:45.999Z</time></trkpt><trkpt lat="40.74992666782681" lon="17.53884502058714"><ele>123.00000000000001</ele><time>2026-04-26T09:48:46.999Z</time></trkpt><trkpt lat="40.74992760830245" lon="17.538937952361973"><ele>123.00000000000001</ele><time>2026-04-26T09:48:47.999Z</time></trkpt><trkpt lat="40.74992782781684" lon="17.539029592251655"><ele>122.4</ele><time>2026-04-26T09:48:48.999Z</time></trkpt><trkpt lat="40.749931747750836" lon="17.539117169769757"><ele>121.80000000000001</ele><time>2026-04-26T09:48:49.999Z</time></trkpt><trkpt lat="40.7499162797079" lon="17.539283677716487"><ele>121.2</ele><time>2026-04-26T09:48:51.999Z</time></trkpt><trkpt lat="40.74990727803292" lon="17.53944942088671"><ele>120.6</ele><time>2026-04-26T09:48:53.999Z</time></trkpt><trkpt lat="40.749904100210905" lon="17.53953339127469"><ele>120.0</ele><time>2026-04-26T09:48:54.999Z</time></trkpt><trkpt lat="40.74989022142475" lon="17.539694485958844"><ele>119.8</ele><time>2026-04-26T09:48:56.999Z</time></trkpt><trkpt lat="40.74989496940206" lon="17.53978390450126"><ele>119.6</ele><time>2026-04-26T09:48:57.999Z</time></trkpt><trkpt lat="40.7499050476702" lon="17.53987162369861"><ele>119.4</ele><time>2026-04-26T09:48:58.999Z</time></trkpt><trkpt lat="40.74988847798593" lon="17.540034322402764"><ele>119.2</ele><time>2026-04-26T09:49:00.999Z</time></trkpt><trkpt lat="40.74987866533974" lon="17.5401184459028"><ele>119.0</ele><time>2026-04-26T09:49:01.999Z</time></trkpt><trkpt lat="40.74985956267021" lon="17.540302415804515"><ele>119.2</ele><time>2026-04-26T09:49:03.999Z</time></trkpt><trkpt lat="40.749835896594625" lon="17.54044415123485"><ele>119.4</ele><time>2026-04-26T09:49:05.999Z</time></trkpt><trkpt lat="40.74984102478201" lon="17.540600500699348"><ele>119.6</ele><time>2026-04-26T09:49:07.999Z</time></trkpt><trkpt lat="40.749856326651624" lon="17.54068300704234"><ele>119.8</ele><time>2026-04-26T09:49:08.999Z</time></trkpt><trkpt lat="40.74985957525303" lon="17.540766075372336"><ele>120.0</ele><time>2026-04-26T09:49:09.999Z</time></trkpt><trkpt lat="40.749869030814644" lon="17.540923165763605"><ele>120.0</ele><time>2026-04-26T09:49:11.999Z</time></trkpt><trkpt lat="40.74985763658743" lon="17.541078880912714"><ele>120.0</ele><time>2026-04-26T09:49:13.999Z</time></trkpt><trkpt lat="40.749863027924775" lon="17.541235949388927"><ele>120.0</ele><time>2026-04-26T09:49:15.999Z</time></trkpt><trkpt lat="40.74985106898113" lon="17.541400509384026"><ele>120.0</ele><time>2026-04-26T09:49:17.999Z</time></trkpt><trkpt lat="40.74983522913923" lon="17.541556164945362"><ele>119.8</ele><time>2026-04-26T09:49:19.999Z</time></trkpt><trkpt lat="40.749824998492656" lon="17.541711702306536"><ele>119.6</ele><time>2026-04-26T09:49:21.999Z</time></trkpt><trkpt lat="40.74981191370732" lon="17.54186904619399"><ele>119.4</ele><time>2026-04-26T09:49:23.999Z</time></trkpt><trkpt lat="40.7498210503617" lon="17.541953622956306"><ele>119.2</ele><time>2026-04-26T09:49:24.999Z</time></trkpt><trkpt lat="40.74981056811404" lon="17.542038290866074"><ele>119.0</ele><time>2026-04-26T09:49:25.999Z</time></trkpt><trkpt lat="40.74978047075947" lon="17.542192188852454"><ele>119.0</ele><time>2026-04-26T09:49:27.999Z</time></trkpt><trkpt lat="40.74973479145072" lon="17.542340510944786"><ele>119.0</ele><time>2026-04-26T09:49:29.999Z</time></trkpt><trkpt lat="40.749702292074275" lon="17.542481880533202"><ele>119.0</ele><time>2026-04-26T09:49:31.999Z</time></trkpt><trkpt lat="40.74969589852462" lon="17.542580283724334"><ele>119.0</ele><time>2026-04-26T09:49:32.999Z</time></trkpt><trkpt lat="40.74964855923604" lon="17.542719017212175"><ele>119.0</ele><time>2026-04-26T09:49:34.999Z</time></trkpt><trkpt lat="40.74961920237009" lon="17.54287471986958"><ele>119.0</ele><time>2026-04-26T09:49:36.999Z</time></trkpt><trkpt lat="40.749598436150436" lon="17.543033763844065"><ele>119.0</ele><time>2026-04-26T09:49:38.999Z</time></trkpt><trkpt lat="40.74956322576731" lon="17.5431840336232"><ele>119.0</ele><time>2026-04-26T09:49:40.999Z</time></trkpt><trkpt lat="40.74952081824727" lon="17.543330472463836"><ele>119.0</ele><time>2026-04-26T09:49:42.999Z</time></trkpt><trkpt lat="40.74949218120098" lon="17.54349002066843"><ele>119.0</ele><time>2026-04-26T09:49:44.999Z</time></trkpt><trkpt lat="40.74944845140997" lon="17.543643026386007"><ele>119.0</ele><time>2026-04-26T09:49:46.999Z</time></trkpt><trkpt lat="40.749404982653445" lon="17.543790353289882"><ele>119.0</ele><time>2026-04-26T09:49:48.998Z</time></trkpt><trkpt lat="40.74936209367145" lon="17.543939537944844"><ele>119.0</ele><time>2026-04-26T09:49:50.998Z</time></trkpt><trkpt lat="40.749313992154875" lon="17.544078057930786"><ele>120.75</ele><time>2026-04-26T09:49:52.998Z</time></trkpt><trkpt lat="40.7492699819435" lon="17.544230943811222"><ele>122.5</ele><time>2026-04-26T09:49:54.998Z</time></trkpt><trkpt lat="40.74923453709446" lon="17.544370334382613"><ele>124.25</ele><time>2026-04-26T09:49:56.998Z</time></trkpt><trkpt lat="40.74921754572292" lon="17.544508357737527"><ele>126.0</ele><time>2026-04-26T09:49:59Z</time></trkpt><trkpt lat="40.749218888797756" lon="17.544656053175046"><ele>126.19999999999999</ele><time>2026-04-26T09:50:01Z</time></trkpt><trkpt lat="40.74922200762351" lon="17.54480039908365"><ele>126.39999999999999</ele><time>2026-04-26T09:50:03Z</time></trkpt><trkpt lat="40.74922735397012" lon="17.544936916939196"><ele>126.6</ele><time>2026-04-26T09:50:05Z</time></trkpt><trkpt lat="40.749201775975806" lon="17.545075860684857"><ele>126.8</ele><time>2026-04-26T09:50:07Z</time></trkpt><trkpt lat="40.74916844137866" lon="17.54520315470237"><ele>127.0</ele><time>2026-04-26T09:50:09Z</time></trkpt><trkpt lat="40.74913837433775" lon="17.545332422250773"><ele>127.8</ele><time>2026-04-26T09:50:11Z</time></trkpt><trkpt lat="40.74909108193161" lon="17.54545299451484"><ele>128.6</ele><time>2026-04-26T09:50:13Z</time></trkpt><trkpt lat="40.74906891929329" lon="17.545563860583606"><ele>129.39999999999998</ele><time>2026-04-26T09:50:15Z</time></trkpt><trkpt lat="40.749020744959246" lon="17.545672577172567"><ele>130.2</ele><time>2026-04-26T09:50:17Z</time></trkpt><trkpt lat="40.748965025654826" lon="17.54577449463893"><ele>131.0</ele><time>2026-04-26T09:50:19Z</time></trkpt><trkpt lat="40.7489236035671" lon="17.545884997269766"><ele>131.0</ele><time>2026-04-26T09:50:21Z</time></trkpt><trkpt lat="40.74889648754296" lon="17.54599535241602"><ele>131.0</ele><time>2026-04-26T09:50:23Z</time></trkpt><trkpt lat="40.74886311180126" lon="17.546113447163933"><ele>131.0</ele><time>2026-04-26T09:50:25Z</time></trkpt><trkpt lat="40.74882504911028" lon="17.546223180606766"><ele>131.0</ele><time>2026-04-26T09:50:27Z</time></trkpt><trkpt lat="40.748818388622716" lon="17.54635619709792"><ele>131.0</ele><time>2026-04-26T09:50:29Z</time></trkpt><trkpt lat="40.7488210432861" lon="17.5465003114635"><ele>131.6</ele><time>2026-04-26T09:50:31Z</time></trkpt><trkpt lat="40.74881542244215" lon="17.54663013254157"><ele>132.2</ele><time>2026-04-26T09:50:33Z</time></trkpt><trkpt lat="40.74878955103756" lon="17.546756625939036"><ele>132.8</ele><time>2026-04-26T09:50:35Z</time></trkpt><trkpt lat="40.748772300757246" lon="17.546879810814648"><ele>133.4</ele><time>2026-04-26T09:50:37Z</time></trkpt><trkpt lat="40.74875031845849" lon="17.546992245405264"><ele>134.0</ele><time>2026-04-26T09:50:39Z</time></trkpt><trkpt lat="40.74870749786025" lon="17.54711164634595"><ele>135.5</ele><time>2026-04-26T09:50:42Z</time></trkpt><trkpt lat="40.74867873011478" lon="17.54719823568888"><ele>137.0</ele><time>2026-04-26T09:50:43.999Z</time></trkpt><trkpt lat="40.74863863078551" lon="17.54728081402248"><ele>138.5</ele><time>2026-04-26T09:50:45.999Z</time></trkpt><trkpt lat="40.7486306045497" lon="17.547384825547898"><ele>140.0</ele><time>2026-04-26T09:50:47.999Z</time></trkpt><trkpt lat="40.748603599978225" lon="17.547485205035546"><ele>141.5</ele><time>2026-04-26T09:50:49.999Z</time></trkpt><trkpt lat="40.74858532689957" lon="17.547571496101597"><ele>143.0</ele><time>2026-04-26T09:50:51.999Z</time></trkpt><trkpt lat="40.748550162825104" lon="17.547660833296565"><ele>144.16666666666666</ele><time>2026-04-26T09:50:53.999Z</time></trkpt><trkpt lat="40.74852694368176" lon="17.547766483566768"><ele>145.33333333333331</ele><time>2026-04-26T09:50:55.999Z</time></trkpt><trkpt lat="40.74849618726202" lon="17.547857135946806"><ele>146.5</ele><time>2026-04-26T09:50:57.999Z</time></trkpt><trkpt lat="40.74846166155312" lon="17.54794912800821"><ele>147.66666666666666</ele><time>2026-04-26T09:50:59.999Z</time></trkpt><trkpt lat="40.74842912693861" lon="17.548041169858994"><ele>148.83333333333334</ele><time>2026-04-26T09:51:01.999Z</time></trkpt><trkpt lat="40.74840820350466" lon="17.54814010628889"><ele>150.0</ele><time>2026-04-26T09:51:03.999Z</time></trkpt><trkpt lat="40.7483708476786" lon="17.548251207620687"><ele>149.99999999999997</ele><time>2026-04-26T09:51:05.999Z</time></trkpt><trkpt lat="40.748362376557075" lon="17.548334428169802"><ele>150.0</ele><time>2026-04-26T09:51:07.999Z</time></trkpt><trkpt lat="40.748338734766094" lon="17.548431100729893"><ele>150.0</ele><time>2026-04-26T09:51:09.999Z</time></trkpt><trkpt lat="40.74830589400276" lon="17.54852908901374"><ele>150.0</ele><time>2026-04-26T09:51:11.999Z</time></trkpt><trkpt lat="40.74828160254448" lon="17.548625794639307"><ele>150.0</ele><time>2026-04-26T09:51:13.999Z</time></trkpt><trkpt lat="40.74826011783343" lon="17.54872812589901"><ele>149.99999999999997</ele><time>2026-04-26T09:51:15.999Z</time></trkpt><trkpt lat="40.74824212252099" lon="17.548812764493665"><ele>150.0</ele><time>2026-04-26T09:51:18.999Z</time></trkpt><trkpt lat="40.74820598946875" lon="17.548929342087256"><ele>150.0</ele><time>2026-04-26T09:51:21.999Z</time></trkpt><trkpt lat="40.74816722300686" lon="17.549030144571354"><ele>150.0</ele><time>2026-04-26T09:51:24.999Z</time></trkpt><trkpt lat="40.74815883799678" lon="17.549146281879253"><ele>150.0</ele><time>2026-04-26T09:51:27.999Z</time></trkpt><trkpt lat="40.74813034175501" lon="17.54926102630356"><ele>150.0</ele><time>2026-04-26T09:51:29.999Z</time></trkpt><trkpt lat="40.74808799554244" lon="17.5493362919615"><ele>150.0</ele><time>2026-04-26T09:51:31.999Z</time></trkpt><trkpt lat="40.748066067188816" lon="17.54945488681585"><ele>150.0</ele><time>2026-04-26T09:51:33.999Z</time></trkpt><trkpt lat="40.74803987166429" lon="17.549569695859308"><ele>149.66666666666666</ele><time>2026-04-26T09:51:35.999Z</time></trkpt><trkpt lat="40.74800741306895" lon="17.54965480009517"><ele>149.33333333333334</ele><time>2026-04-26T09:51:37.999Z</time></trkpt><trkpt lat="40.74797699978393" lon="17.549753169114883"><ele>149.0</ele><time>2026-04-26T09:51:39.999Z</time></trkpt><trkpt lat="40.74795165863083" lon="17.549846039325402"><ele>148.66666666666669</ele><time>2026-04-26T09:51:41.999Z</time></trkpt><trkpt lat="40.747931241639336" lon="17.549944431014215"><ele>148.33333333333334</ele><time>2026-04-26T09:51:43.999Z</time></trkpt><trkpt lat="40.74788490729336" lon="17.55006059345421"><ele>148.0</ele><time>2026-04-26T09:51:45.998Z</time></trkpt><trkpt lat="40.74783820003031" lon="17.550192119695765"><ele>148.0</ele><time>2026-04-26T09:51:47.998Z</time></trkpt><trkpt lat="40.747789195613656" lon="17.55031694478228"><ele>148.0</ele><time>2026-04-26T09:51:49.998Z</time></trkpt><trkpt lat="40.74772766742475" lon="17.550365923543378"><ele>148.0</ele><time>2026-04-26T09:51:50.998Z</time></trkpt><trkpt lat="40.74768394341736" lon="17.550480573242996"><ele>148.0</ele><time>2026-04-26T09:51:52.998Z</time></trkpt><trkpt lat="40.74763215714377" lon="17.55061062952752"><ele>148.0</ele><time>2026-04-26T09:51:54.998Z</time></trkpt><trkpt lat="40.74758069769084" lon="17.55074830384179"><ele>147.8</ele><time>2026-04-26T09:51:56.998Z</time></trkpt><trkpt lat="40.74753226332713" lon="17.55088958892063"><ele>147.60000000000002</ele><time>2026-04-26T09:51:58.998Z</time></trkpt><trkpt lat="40.747501672969946" lon="17.55098532130835"><ele>147.39999999999998</ele><time>2026-04-26T09:51:59.998Z</time></trkpt><trkpt lat="40.74750116288299" lon="17.551069856841334"><ele>147.2</ele><time>2026-04-26T09:52:00.998Z</time></trkpt><trkpt lat="40.74745840810121" lon="17.55122077955838"><ele>147.0</ele><time>2026-04-26T09:52:02.998Z</time></trkpt><trkpt lat="40.747419279511135" lon="17.551373228932093"><ele>147.0</ele><time>2026-04-26T09:52:05Z</time></trkpt><trkpt lat="40.74739877622026" lon="17.551452181954318"><ele>147.0</ele><time>2026-04-26T09:52:06Z</time></trkpt><trkpt lat="40.74735274170381" lon="17.55159943089537"><ele>147.0</ele><time>2026-04-26T09:52:08Z</time></trkpt><trkpt lat="40.74731187227556" lon="17.55175107437529"><ele>147.0</ele><time>2026-04-26T09:52:10Z</time></trkpt><trkpt lat="40.74726437102204" lon="17.55189855376137"><ele>147.0</ele><time>2026-04-26T09:52:12Z</time></trkpt><trkpt lat="40.74720113314712" lon="17.552029446422125"><ele>146.16666666666666</ele><time>2026-04-26T09:52:14Z</time></trkpt><trkpt lat="40.747200048714284" lon="17.552113336991937"><ele>145.33333333333334</ele><time>2026-04-26T09:52:15Z</time></trkpt><trkpt lat="40.7471756535562" lon="17.552194781564875"><ele>144.5</ele><time>2026-04-26T09:52:16Z</time></trkpt><trkpt lat="40.747150184498594" lon="17.552270972907404"><ele>143.66666666666669</ele><time>2026-04-26T09:52:17Z</time></trkpt><trkpt lat="40.747102344477874" lon="17.552425831677223"><ele>142.83333333333334</ele><time>2026-04-26T09:52:19Z</time></trkpt><trkpt lat="40.74704970061975" lon="17.55257014535603"><ele>142.0</ele><time>2026-04-26T09:52:21Z</time></trkpt><trkpt lat="40.7469755891982" lon="17.55270261618388"><ele>142.0</ele><time>2026-04-26T09:52:23Z</time></trkpt><trkpt lat="40.74690534321883" lon="17.552828501831126"><ele>142.0</ele><time>2026-04-26T09:52:25Z</time></trkpt><trkpt lat="40.746841932378736" lon="17.552866118395386"><ele>142.0</ele><time>2026-04-26T09:52:26Z</time></trkpt><trkpt lat="40.746788214466335" lon="17.553021711258598"><ele>142.0</ele><time>2026-04-26T09:52:28Z</time></trkpt><trkpt lat="40.746746907782494" lon="17.55308884993678"><ele>142.0</ele><time>2026-04-26T09:52:29Z</time></trkpt><trkpt lat="40.746706697058755" lon="17.553155106102356"><ele>142.0</ele><time>2026-04-26T09:52:30Z</time></trkpt><trkpt lat="40.74662950744559" lon="17.55327298226017"><ele>143.66666666666669</ele><time>2026-04-26T09:52:32Z</time></trkpt><trkpt lat="40.74659347320154" lon="17.553344259212924"><ele>145.33333333333334</ele><time>2026-04-26T09:52:33Z</time></trkpt><trkpt lat="40.74654616542579" lon="17.553401654065844"><ele>147.0</ele><time>2026-04-26T09:52:34Z</time></trkpt><trkpt lat="40.74647938099234" lon="17.55352466402848"><ele>148.66666666666666</ele><time>2026-04-26T09:52:36Z</time></trkpt><trkpt lat="40.74640884024455" lon="17.553665102445027"><ele>150.33333333333331</ele><time>2026-04-26T09:52:38Z</time></trkpt><trkpt lat="40.746384161178995" lon="17.55374940756671"><ele>152.0</ele><time>2026-04-26T09:52:39Z</time></trkpt><trkpt lat="40.74631666505648" lon="17.55388709643267"><ele>152.0</ele><time>2026-04-26T09:52:41Z</time></trkpt><trkpt lat="40.74629106640861" lon="17.553971247722146"><ele>152.0</ele><time>2026-04-26T09:52:42Z</time></trkpt><trkpt lat="40.746251953204286" lon="17.55404206931146"><ele>152.0</ele><time>2026-04-26T09:52:43Z</time></trkpt><trkpt lat="40.746217498788496" lon="17.554125893149465"><ele>152.0</ele><time>2026-04-26T09:52:44Z</time></trkpt><trkpt lat="40.746153980331634" lon="17.554257663176372"><ele>152.0</ele><time>2026-04-26T09:52:46Z</time></trkpt><trkpt lat="40.74611374654605" lon="17.554337957756413"><ele>152.0</ele><time>2026-04-26T09:52:47Z</time></trkpt><trkpt lat="40.74604185793945" lon="17.554442968070042"><ele>151.2</ele><time>2026-04-26T09:52:48.999Z</time></trkpt><trkpt lat="40.74597541165448" lon="17.55455700541066"><ele>150.39999999999998</ele><time>2026-04-26T09:52:50.999Z</time></trkpt><trkpt lat="40.74588724694439" lon="17.55467551211711"><ele>149.60000000000002</ele><time>2026-04-26T09:52:52.999Z</time></trkpt><trkpt lat="40.7458380488772" lon="17.554743667998903"><ele>148.8</ele><time>2026-04-26T09:52:53.999Z</time></trkpt><trkpt lat="40.745781389118925" lon="17.554823090054178"><ele>148.0</ele><time>2026-04-26T09:52:54.999Z</time></trkpt><trkpt lat="40.74573634911878" lon="17.55488569462574"><ele>148.0</ele><time>2026-04-26T09:52:55.999Z</time></trkpt><trkpt lat="40.74567886129819" lon="17.554957774665354"><ele>148.0</ele><time>2026-04-26T09:52:56.999Z</time></trkpt><trkpt lat="40.74561051194766" lon="17.55502347852625"><ele>148.0</ele><time>2026-04-26T09:52:57.999Z</time></trkpt><trkpt lat="40.7455320350846" lon="17.55508446969463"><ele>148.0</ele><time>2026-04-26T09:52:58.999Z</time></trkpt><trkpt lat="40.74542677817083" lon="17.555082560604298"><ele>148.0</ele><time>2026-04-26T09:52:59.999Z</time></trkpt><trkpt lat="40.74534470831581" lon="17.55516886470071"><ele>148.0</ele><time>2026-04-26T09:53:00.999Z</time></trkpt><trkpt lat="40.74527569355054" lon="17.555267365634684"><ele>148.0</ele><time>2026-04-26T09:53:01.999Z</time></trkpt><trkpt lat="40.74521249705311" lon="17.555360322432975"><ele>148.0</ele><time>2026-04-26T09:53:02.999Z</time></trkpt><trkpt lat="40.74513828482942" lon="17.55548296967689"><ele>148.0</ele><time>2026-04-26T09:53:03.999Z</time></trkpt><trkpt lat="40.74508014779564" lon="17.55558883519033"><ele>148.0</ele><time>2026-04-26T09:53:04.999Z</time></trkpt><trkpt lat="40.74501938356643" lon="17.555714647471103"><ele>145.8</ele><time>2026-04-26T09:53:05.999Z</time></trkpt><trkpt lat="40.74496378046672" lon="17.555841712102122"><ele>143.60000000000002</ele><time>2026-04-26T09:53:06.999Z</time></trkpt><trkpt lat="40.74490340998799" lon="17.555964247668435"><ele>141.39999999999998</ele><time>2026-04-26T09:53:07.999Z</time></trkpt><trkpt lat="40.74483248751536" lon="17.556076073141302"><ele>139.2</ele><time>2026-04-26T09:53:08.999Z</time></trkpt><trkpt lat="40.744752264671" lon="17.55618243220599"><ele>137.0</ele><time>2026-04-26T09:53:09.999Z</time></trkpt><trkpt lat="40.744662116979754" lon="17.556297142435007"><ele>135.75</ele><time>2026-04-26T09:53:10.999Z</time></trkpt><trkpt lat="40.744582088924" lon="17.556408458900535"><ele>134.5</ele><time>2026-04-26T09:53:11.999Z</time></trkpt><trkpt lat="40.744514972648446" lon="17.55651606217251"><ele>133.25</ele><time>2026-04-26T09:53:12.999Z</time></trkpt><trkpt lat="40.744444953303855" lon="17.556653312705794"><ele>132.0</ele><time>2026-04-26T09:53:13.999Z</time></trkpt><trkpt lat="40.744387565935966" lon="17.556803647535382"><ele>132.0</ele><time>2026-04-26T09:53:14.999Z</time></trkpt><trkpt lat="40.74433332066553" lon="17.55692735243341"><ele>132.0</ele><time>2026-04-26T09:53:15.999Z</time></trkpt><trkpt lat="40.7442628089599" lon="17.55702734998139"><ele>132.0</ele><time>2026-04-26T09:53:16.999Z</time></trkpt><trkpt lat="40.7441801220539" lon="17.55709141175924"><ele>132.0</ele><time>2026-04-26T09:53:17.999Z</time></trkpt><trkpt lat="40.74408719157767" lon="17.557129712535957"><ele>132.0</ele><time>2026-04-26T09:53:18.999Z</time></trkpt><trkpt lat="40.7439956461027" lon="17.557170954863626"><ele>131.2</ele><time>2026-04-26T09:53:19.999Z</time></trkpt><trkpt lat="40.74389794879471" lon="17.557216548176843"><ele>130.39999999999998</ele><time>2026-04-26T09:53:20.999Z</time></trkpt><trkpt lat="40.7438274700813" lon="17.557250474716483"><ele>129.60000000000002</ele><time>2026-04-26T09:53:21.999Z</time></trkpt><trkpt lat="40.74373557529926" lon="17.557294601457585"><ele>128.8</ele><time>2026-04-26T09:53:22.999Z</time></trkpt><trkpt lat="40.74365190866565" lon="17.55735014185221"><ele>128.0</ele><time>2026-04-26T09:53:23.999Z</time></trkpt><trkpt lat="40.74356560826265" lon="17.557403911346853"><ele>128.66666666666666</ele><time>2026-04-26T09:53:24.999Z</time></trkpt><trkpt lat="40.743482350692275" lon="17.557451935881232"><ele>129.33333333333331</ele><time>2026-04-26T09:53:25.999Z</time></trkpt><trkpt lat="40.74340082851569" lon="17.55749992355302"><ele>130.0</ele><time>2026-04-26T09:53:26.999Z</time></trkpt><trkpt lat="40.74332213322835" lon="17.557528079797176"><ele>130.66666666666666</ele><time>2026-04-26T09:53:27.999Z</time></trkpt><trkpt lat="40.74325081218096" lon="17.55756636291253"><ele>131.33333333333334</ele><time>2026-04-26T09:53:28.999Z</time></trkpt><trkpt lat="40.74318453972519" lon="17.557597833970203"><ele>132.0</ele><time>2026-04-26T09:53:29.999Z</time></trkpt><trkpt lat="40.74311910309105" lon="17.557634613070046"><ele>132.0</ele><time>2026-04-26T09:53:30.999Z</time></trkpt><trkpt lat="40.74306660262127" lon="17.55770050890365"><ele>132.0</ele><time>2026-04-26T09:53:31.999Z</time></trkpt><trkpt lat="40.74295728020162" lon="17.557762440215928"><ele>132.0</ele><time>2026-04-26T09:53:33.999Z</time></trkpt><trkpt lat="40.74284579814329" lon="17.55782561662663"><ele>132.0</ele><time>2026-04-26T09:53:35.999Z</time></trkpt><trkpt lat="40.742793416652326" lon="17.557875301365574"><ele>132.0</ele><time>2026-04-26T09:53:36.999Z</time></trkpt><trkpt lat="40.74273953589774" lon="17.55792752850116"><ele>132.0</ele><time>2026-04-26T09:53:37.999Z</time></trkpt><trkpt lat="40.74268532671757" lon="17.55798099202394"><ele>131.5</ele><time>2026-04-26T09:53:38.999Z</time></trkpt><trkpt lat="40.74258310843464" lon="17.558036523973016"><ele>131.0</ele><time>2026-04-26T09:53:40.999Z</time></trkpt><trkpt lat="40.74247370179549" lon="17.558098154210914"><ele>130.5</ele><time>2026-04-26T09:53:42.999Z</time></trkpt><trkpt lat="40.74236653236308" lon="17.558164053105358"><ele>130.0</ele><time>2026-04-26T09:53:44.999Z</time></trkpt><trkpt lat="40.742259263837795" lon="17.558223322954017"><ele>130.0</ele><time>2026-04-26T09:53:46.999Z</time></trkpt><trkpt lat="40.742163261807846" lon="17.558270245575816"><ele>130.0</ele><time>2026-04-26T09:53:48.999Z</time></trkpt><trkpt lat="40.74207563221829" lon="17.558301187445757"><ele>130.0</ele><time>2026-04-26T09:53:50.998Z</time></trkpt><trkpt lat="40.7420143491732" lon="17.55836827945772"><ele>130.0</ele><time>2026-04-26T09:53:52.998Z</time></trkpt><trkpt lat="40.741954319730596" lon="17.558428266307146"><ele>130.0</ele><time>2026-04-26T09:53:54.998Z</time></trkpt><trkpt lat="40.741869465437404" lon="17.558495675663796"><ele>130.0</ele><time>2026-04-26T09:53:56.998Z</time></trkpt><trkpt lat="40.74181482616767" lon="17.558548332223058"><ele>130.4</ele><time>2026-04-26T09:53:57.998Z</time></trkpt><trkpt lat="40.74170879286307" lon="17.55862986360627"><ele>130.8</ele><time>2026-04-26T09:53:59.998Z</time></trkpt><trkpt lat="40.74158547507473" lon="17.558662580146148"><ele>131.2</ele><time>2026-04-26T09:54:01.998Z</time></trkpt><trkpt lat="40.74151117914419" lon="17.558697823809286"><ele>131.6</ele><time>2026-04-26T09:54:02.998Z</time></trkpt><trkpt lat="40.74143616395389" lon="17.558747602903438"><ele>132.0</ele><time>2026-04-26T09:54:03.998Z</time></trkpt><trkpt lat="40.74136875111561" lon="17.558791743973433"><ele>131.16666666666666</ele><time>2026-04-26T09:54:04.998Z</time></trkpt><trkpt lat="40.74129950737041" lon="17.558844052288567"><ele>130.33333333333334</ele><time>2026-04-26T09:54:05.998Z</time></trkpt><trkpt lat="40.74123489652574" lon="17.558893238783963"><ele>129.5</ele><time>2026-04-26T09:54:06.998Z</time></trkpt><trkpt lat="40.741185790996106" lon="17.55896549287928"><ele>128.66666666666669</ele><time>2026-04-26T09:54:07.998Z</time></trkpt><trkpt lat="40.741150237890146" lon="17.559047898905238"><ele>127.83333333333334</ele><time>2026-04-26T09:54:08.998Z</time></trkpt><trkpt lat="40.741111116187525" lon="17.559119295749134"><ele>127.0</ele><time>2026-04-26T09:54:10Z</time></trkpt><trkpt lat="40.741070622839324" lon="17.559258020729494"><ele>127.33333333333334</ele><time>2026-04-26T09:54:12Z</time></trkpt><trkpt lat="40.74102210558928" lon="17.559402617221963"><ele>127.66666666666667</ele><time>2026-04-26T09:54:14Z</time></trkpt><trkpt lat="40.741024668008265" lon="17.559490210003702"><ele>128.0</ele><time>2026-04-26T09:54:15Z</time></trkpt><trkpt lat="40.74098212684292" lon="17.55963946693765"><ele>128.33333333333334</ele><time>2026-04-26T09:54:17Z</time></trkpt><trkpt lat="40.740962755452216" lon="17.559719553915667"><ele>128.66666666666666</ele><time>2026-04-26T09:54:18Z</time></trkpt><trkpt lat="40.74093207205722" lon="17.559793591805278"><ele>129.0</ele><time>2026-04-26T09:54:19Z</time></trkpt><trkpt lat="40.74087175658621" lon="17.559931046363705"><ele>129.0</ele><time>2026-04-26T09:54:21Z</time></trkpt><trkpt lat="40.7408438481613" lon="17.5600059424168"><ele>129.0</ele><time>2026-04-26T09:54:22Z</time></trkpt><trkpt lat="40.74079228034188" lon="17.560149497259374"><ele>129.0</ele><time>2026-04-26T09:54:24Z</time></trkpt><trkpt lat="40.74076379650571" lon="17.560224062125503"><ele>129.0</ele><time>2026-04-26T09:54:25Z</time></trkpt><trkpt lat="40.740703442653185" lon="17.560362731562574"><ele>129.0</ele><time>2026-04-26T09:54:27Z</time></trkpt><trkpt lat="40.74063303758654" lon="17.560497961750162"><ele>129.0</ele><time>2026-04-26T09:54:29Z</time></trkpt><trkpt lat="40.740596466133944" lon="17.560567102200448"><ele>129.0</ele><time>2026-04-26T09:54:30Z</time></trkpt><trkpt lat="40.74053538825213" lon="17.560717456993657"><ele>129.0</ele><time>2026-04-26T09:54:32Z</time></trkpt><trkpt lat="40.74048065520901" lon="17.560851937528316"><ele>129.0</ele><time>2026-04-26T09:54:34Z</time></trkpt><trkpt lat="40.74041074894528" lon="17.560976331128686"><ele>129.0</ele><time>2026-04-26T09:54:36Z</time></trkpt><trkpt lat="40.740374315966726" lon="17.561121811559126"><ele>128.6</ele><time>2026-04-26T09:54:38Z</time></trkpt><trkpt lat="40.7403572880747" lon="17.561204266085657"><ele>128.2</ele><time>2026-04-26T09:54:39Z</time></trkpt><trkpt lat="40.74030460759097" lon="17.561342765935667"><ele>127.79999999999998</ele><time>2026-04-26T09:54:41Z</time></trkpt><trkpt lat="40.74023245209144" lon="17.56146195970527"><ele>127.39999999999999</ele><time>2026-04-26T09:54:43Z</time></trkpt><trkpt lat="40.74015830621192" lon="17.561585826248603"><ele>127.0</ele><time>2026-04-26T09:54:45Z</time></trkpt><trkpt lat="40.74009946067032" lon="17.561720238750603"><ele>128.0</ele><time>2026-04-26T09:54:47Z</time></trkpt><trkpt lat="40.74002710607096" lon="17.5618533854537"><ele>129.0</ele><time>2026-04-26T09:54:49Z</time></trkpt><trkpt lat="40.73996989782762" lon="17.561991503633173"><ele>130.0</ele><time>2026-04-26T09:54:51Z</time></trkpt><trkpt lat="40.73991048773342" lon="17.562130233403284"><ele>131.0</ele><time>2026-04-26T09:54:52.999Z</time></trkpt><trkpt lat="40.73988156096775" lon="17.562279255257014"><ele>131.0</ele><time>2026-04-26T09:54:54.999Z</time></trkpt><trkpt lat="40.73986190850561" lon="17.562438602454574"><ele>131.0</ele><time>2026-04-26T09:54:56.999Z</time></trkpt><trkpt lat="40.73985099810353" lon="17.562521837745983"><ele>131.0</ele><time>2026-04-26T09:54:57.999Z</time></trkpt><trkpt lat="40.7398432247126" lon="17.562690219222375"><ele>131.0</ele><time>2026-04-26T09:54:59.999Z</time></trkpt><trkpt lat="40.73985597787979" lon="17.562843943350916"><ele>131.0</ele><time>2026-04-26T09:55:01.999Z</time></trkpt><trkpt lat="40.73989897347452" lon="17.563005504881676"><ele>131.0</ele><time>2026-04-26T09:55:03.999Z</time></trkpt><trkpt lat="40.73991828983794" lon="17.563094341348656"><ele>131.0</ele><time>2026-04-26T09:55:04.999Z</time></trkpt><trkpt lat="40.73993269222705" lon="17.56317629995874"><ele>131.0</ele><time>2026-04-26T09:55:05.999Z</time></trkpt><trkpt lat="40.739930973604885" lon="17.56326254194235"><ele>131.0</ele><time>2026-04-26T09:55:06.999Z</time></trkpt><trkpt lat="40.73992833090948" lon="17.56341901304564"><ele>131.0</ele><time>2026-04-26T09:55:08.999Z</time></trkpt><trkpt lat="40.739928962786756" lon="17.563580953666467"><ele>131.0</ele><time>2026-04-26T09:55:10.999Z</time></trkpt><trkpt lat="40.73992268908037" lon="17.56374421810824"><ele>131.0</ele><time>2026-04-26T09:55:12.999Z</time></trkpt><trkpt lat="40.739913647338554" lon="17.56389888444547"><ele>131.0</ele><time>2026-04-26T09:55:14.999Z</time></trkpt><trkpt lat="40.73990666817226" lon="17.56398352165316"><ele>131.0</ele><time>2026-04-26T09:55:15.999Z</time></trkpt><trkpt lat="40.73985953988301" lon="17.56414150214756"><ele>131.0</ele><time>2026-04-26T09:55:17.999Z</time></trkpt><trkpt lat="40.7398000430547" lon="17.564285433658743"><ele>131.0</ele><time>2026-04-26T09:55:19.999Z</time></trkpt><trkpt lat="40.7397736764005" lon="17.564363236401103"><ele>131.0</ele><time>2026-04-26T09:55:20.999Z</time></trkpt><trkpt lat="40.73973441422279" lon="17.564511227197848"><ele>131.0</ele><time>2026-04-26T09:55:22.999Z</time></trkpt><trkpt lat="40.73970752590205" lon="17.564591657677816"><ele>131.0</ele><time>2026-04-26T09:55:23.999Z</time></trkpt><trkpt lat="40.73963862975681" lon="17.564726003327255"><ele>131.0</ele><time>2026-04-26T09:55:25.999Z</time></trkpt><trkpt lat="40.7395678992503" lon="17.564850384553907"><ele>131.0</ele><time>2026-04-26T09:55:27.999Z</time></trkpt><trkpt lat="40.73948518667234" lon="17.56496601067635"><ele>131.0</ele><time>2026-04-26T09:55:29.999Z</time></trkpt><trkpt lat="40.739448699921496" lon="17.565038691484357"><ele>131.0</ele><time>2026-04-26T09:55:30.999Z</time></trkpt><trkpt lat="40.739380918613286" lon="17.565169307943297"><ele>131.0</ele><time>2026-04-26T09:55:32.999Z</time></trkpt><trkpt lat="40.739303857492274" lon="17.565294500918206"><ele>131.0</ele><time>2026-04-26T09:55:34.999Z</time></trkpt><trkpt lat="40.73926766018944" lon="17.565363061235377"><ele>131.0</ele><time>2026-04-26T09:55:35.999Z</time></trkpt><trkpt lat="40.73918621007519" lon="17.56549182434807"><ele>131.4</ele><time>2026-04-26T09:55:37.999Z</time></trkpt><trkpt lat="40.739142284198415" lon="17.56555665429233"><ele>131.8</ele><time>2026-04-26T09:55:38.999Z</time></trkpt><trkpt lat="40.73905252542764" lon="17.565643559750313"><ele>132.20000000000002</ele><time>2026-04-26T09:55:40.999Z</time></trkpt><trkpt lat="40.73902862802828" lon="17.565761620709857"><ele>132.6</ele><time>2026-04-26T09:55:42.999Z</time></trkpt><trkpt lat="40.73910797012157" lon="17.565825131009145"><ele>133.0</ele><time>2026-04-26T09:55:44.999Z</time></trkpt><trkpt lat="40.73919399446693" lon="17.56579856177324"><ele>133.0</ele><time>2026-04-26T09:55:46.999Z</time></trkpt><trkpt lat="40.73926180490238" lon="17.56578088862066"><ele>133.0</ele><time>2026-04-26T09:55:47.999Z</time></trkpt><trkpt lat="40.73932539904558" lon="17.56576294682131"><ele>133.0</ele><time>2026-04-26T09:55:48.999Z</time></trkpt><trkpt lat="40.73939280751063" lon="17.56574080788876"><ele>133.0</ele><time>2026-04-26T09:55:49.999Z</time></trkpt><trkpt lat="40.73951972502122" lon="17.565718975129467"><ele>133.0</ele><time>2026-04-26T09:55:51.999Z</time></trkpt><trkpt lat="40.73963700643942" lon="17.565698448009574"><ele>132.4</ele><time>2026-04-26T09:55:53.998Z</time></trkpt><trkpt lat="40.73974825139924" lon="17.56568055395522"><ele>131.8</ele><time>2026-04-26T09:55:55.998Z</time></trkpt><trkpt lat="40.73983691961899" lon="17.565671294769757"><ele>131.2</ele><time>2026-04-26T09:55:57.998Z</time></trkpt><trkpt lat="40.73990164663724" lon="17.565746989163173"><ele>130.6</ele><time>2026-04-26T09:55:59.998Z</time></trkpt><trkpt lat="40.73988283156101" lon="17.565860880325296"><ele>130.0</ele><time>2026-04-26T09:56:01.998Z</time></trkpt><trkpt lat="40.739855152699874" lon="17.56598151474564"><ele>130.0</ele><time>2026-04-26T09:56:03.998Z</time></trkpt><trkpt lat="40.73986321321628" lon="17.56613649809589"><ele>130.0</ele><time>2026-04-26T09:56:05.998Z</time></trkpt><trkpt lat="40.73988330381988" lon="17.566217111533394"><ele>130.0</ele><time>2026-04-26T09:56:06.998Z</time></trkpt><trkpt lat="40.73987494113327" lon="17.566376615935805"><ele>130.0</ele><time>2026-04-26T09:56:08.998Z</time></trkpt><trkpt lat="40.739837561902334" lon="17.566525008359353"><ele>130.0</ele><time>2026-04-26T09:56:10.998Z</time></trkpt><trkpt lat="40.73973015372853" lon="17.56661651746236"><ele>129.75</ele><time>2026-04-26T09:56:12.998Z</time></trkpt><trkpt lat="40.73962178524505" lon="17.56668595424075"><ele>129.5</ele><time>2026-04-26T09:56:14.998Z</time></trkpt><trkpt lat="40.73955246924406" lon="17.566813667002645"><ele>129.25</ele><time>2026-04-26T09:56:17Z</time></trkpt><trkpt lat="40.73950292276941" lon="17.566957658442814"><ele>129.0</ele><time>2026-04-26T09:56:19Z</time></trkpt><trkpt lat="40.739449235623944" lon="17.567094876414714"><ele>129.6</ele><time>2026-04-26T09:56:21Z</time></trkpt><trkpt lat="40.73938271124692" lon="17.567216970934783"><ele>130.2</ele><time>2026-04-26T09:56:23Z</time></trkpt><trkpt lat="40.739315884912195" lon="17.567335631704637"><ele>130.79999999999998</ele><time>2026-04-26T09:56:25Z</time></trkpt><trkpt lat="40.73925119573005" lon="17.567442821840203"><ele>131.4</ele><time>2026-04-26T09:56:27Z</time></trkpt><trkpt lat="40.739189035811776" lon="17.56756801149884"><ele>132.0</ele><time>2026-04-26T09:56:29Z</time></trkpt><trkpt lat="40.73912666860221" lon="17.56769987019267"><ele>132.0</ele><time>2026-04-26T09:56:31Z</time></trkpt><trkpt lat="40.73906591825403" lon="17.567814164359433"><ele>132.0</ele><time>2026-04-26T09:56:33Z</time></trkpt><trkpt lat="40.73901107730741" lon="17.56794083940664"><ele>132.0</ele><time>2026-04-26T09:56:35Z</time></trkpt><trkpt lat="40.73895839856388" lon="17.568068721786247"><ele>132.0</ele><time>2026-04-26T09:56:37Z</time></trkpt><trkpt lat="40.73891134341725" lon="17.568216921837084"><ele>132.0</ele><time>2026-04-26T09:56:39Z</time></trkpt><trkpt lat="40.738870705410406" lon="17.56836077031216"><ele>132.0</ele><time>2026-04-26T09:56:41Z</time></trkpt><trkpt lat="40.73882944986634" lon="17.568505480781"><ele>132.0</ele><time>2026-04-26T09:56:43Z</time></trkpt><trkpt lat="40.73881032880977" lon="17.568586015941364"><ele>132.0</ele><time>2026-04-26T09:56:44Z</time></trkpt><trkpt lat="40.73877678067737" lon="17.568734891846805"><ele>132.0</ele><time>2026-04-26T09:56:46Z</time></trkpt><trkpt lat="40.738760480693294" lon="17.568818027492398"><ele>132.0</ele><time>2026-04-26T09:56:47Z</time></trkpt><trkpt lat="40.73871907942225" lon="17.568973081221948"><ele>132.0</ele><time>2026-04-26T09:56:49Z</time></trkpt><trkpt lat="40.73871508215586" lon="17.56906594030685"><ele>132.0</ele><time>2026-04-26T09:56:50Z</time></trkpt><trkpt lat="40.7386404156418" lon="17.569189235520106"><ele>132.0</ele><time>2026-04-26T09:56:52Z</time></trkpt><trkpt lat="40.73858777630112" lon="17.569319379722934"><ele>132.0</ele><time>2026-04-26T09:56:54Z</time></trkpt><trkpt lat="40.73852263067695" lon="17.569459987549678"><ele>132.0</ele><time>2026-04-26T09:56:56Z</time></trkpt><trkpt lat="40.738479006160965" lon="17.569526584129168"><ele>133.5</ele><time>2026-04-26T09:56:57Z</time></trkpt><trkpt lat="40.73839026102143" lon="17.569638112798096"><ele>135.0</ele><time>2026-04-26T09:56:58.999Z</time></trkpt><trkpt lat="40.73835074266711" lon="17.569790081792597"><ele>136.5</ele><time>2026-04-26T09:57:00.999Z</time></trkpt><trkpt lat="40.73828400926757" lon="17.56991781272828"><ele>138.0</ele><time>2026-04-26T09:57:02.999Z</time></trkpt><trkpt lat="40.73823779103397" lon="17.57004258320753"><ele>138.0</ele><time>2026-04-26T09:57:04.999Z</time></trkpt><trkpt lat="40.73820532051688" lon="17.570183795258426"><ele>138.0</ele><time>2026-04-26T09:57:06.999Z</time></trkpt><trkpt lat="40.738167686053835" lon="17.570313432929606"><ele>138.0</ele><time>2026-04-26T09:57:08.999Z</time></trkpt><trkpt lat="40.7381271125983" lon="17.57043858177367"><ele>138.0</ele><time>2026-04-26T09:57:10.999Z</time></trkpt><trkpt lat="40.73809698392496" lon="17.570512462338268"><ele>138.0</ele><time>2026-04-26T09:57:11.999Z</time></trkpt><trkpt lat="40.73805458279303" lon="17.570653320776334"><ele>138.0</ele><time>2026-04-26T09:57:13.999Z</time></trkpt><trkpt lat="40.738013964249426" lon="17.57079995028967"><ele>138.0</ele><time>2026-04-26T09:57:15.999Z</time></trkpt><trkpt lat="40.73795791728719" lon="17.570939324097544"><ele>138.0</ele><time>2026-04-26T09:57:17.999Z</time></trkpt><trkpt lat="40.73787307395311" lon="17.57104757403207"><ele>138.0</ele><time>2026-04-26T09:57:19.999Z</time></trkpt><trkpt lat="40.73782821371851" lon="17.571113235603434"><ele>138.0</ele><time>2026-04-26T09:57:20.999Z</time></trkpt><trkpt lat="40.73776174402865" lon="17.571214841099312"><ele>140.20000000000002</ele><time>2026-04-26T09:57:22.999Z</time></trkpt><trkpt lat="40.73769707557041" lon="17.571310206181952"><ele>142.4</ele><time>2026-04-26T09:57:24.999Z</time></trkpt><trkpt lat="40.7376129722861" lon="17.571379026672584"><ele>144.60000000000002</ele><time>2026-04-26T09:57:26.999Z</time></trkpt><trkpt lat="40.73753238346409" lon="17.571440199592985"><ele>146.8</ele><time>2026-04-26T09:57:28.999Z</time></trkpt><trkpt lat="40.73745748165135" lon="17.571501050307567"><ele>149.0</ele><time>2026-04-26T09:57:30.999Z</time></trkpt><trkpt lat="40.737387866142214" lon="17.57155709144216"><ele>149.0</ele><time>2026-04-26T09:57:32.999Z</time></trkpt><trkpt lat="40.73731238367392" lon="17.57163537296442"><ele>149.0</ele><time>2026-04-26T09:57:34.999Z</time></trkpt><trkpt lat="40.737237867425556" lon="17.5717198292909"><ele>149.0</ele><time>2026-04-26T09:57:36.999Z</time></trkpt><trkpt lat="40.73716582474965" lon="17.571825194604994"><ele>149.0</ele><time>2026-04-26T09:57:38.999Z</time></trkpt><trkpt lat="40.73708062731388" lon="17.5718810187803"><ele>149.0</ele><time>2026-04-26T09:57:40.999Z</time></trkpt><trkpt lat="40.73699168202206" lon="17.5719525860412"><ele>148.83333333333331</ele><time>2026-04-26T09:57:42.999Z</time></trkpt><trkpt lat="40.736904813672176" lon="17.572023814637653"><ele>148.66666666666666</ele><time>2026-04-26T09:57:44.999Z</time></trkpt><trkpt lat="40.73682061741266" lon="17.572090301328302"><ele>148.5</ele><time>2026-04-26T09:57:46.999Z</time></trkpt><trkpt lat="40.73675759281835" lon="17.57213896332123"><ele>148.33333333333334</ele><time>2026-04-26T09:57:48.999Z</time></trkpt><trkpt lat="40.73668911240633" lon="17.57208919188516"><ele>148.16666666666669</ele><time>2026-04-26T09:57:51.999Z</time></trkpt><trkpt lat="40.73665634319614" lon="17.572002595488946"><ele>148.0</ele><time>2026-04-26T09:57:53.999Z</time></trkpt><trkpt lat="40.73658581315632" lon="17.57194458304333"><ele>150.0</ele><time>2026-04-26T09:57:55.999Z</time></trkpt><trkpt lat="40.73649754791336" lon="17.57190946720253"><ele>152.0</ele><time>2026-04-26T09:57:57.999Z</time></trkpt><trkpt lat="40.736398180397956" lon="17.571922611356495"><ele>154.0</ele><time>2026-04-26T09:57:59.998Z</time></trkpt><trkpt lat="40.73631223661866" lon="17.571991333074163"><ele>156.0</ele><time>2026-04-26T09:58:01.998Z</time></trkpt><trkpt lat="40.73625649749665" lon="17.572098683121933"><ele>158.0</ele><time>2026-04-26T09:58:03.998Z</time></trkpt><trkpt lat="40.73622685069097" lon="17.572228474295944"><ele>158.20000000000002</ele><time>2026-04-26T09:58:05.998Z</time></trkpt><trkpt lat="40.736206318090275" lon="17.572359602386975"><ele>158.4</ele><time>2026-04-26T09:58:07.998Z</time></trkpt><trkpt lat="40.73618809034155" lon="17.572493065127013"><ele>158.60000000000002</ele><time>2026-04-26T09:58:09.998Z</time></trkpt><trkpt lat="40.73616983101523" lon="17.57261825904448"><ele>158.8</ele><time>2026-04-26T09:58:11.998Z</time></trkpt><trkpt lat="40.73615314669831" lon="17.572748163295827"><ele>159.0</ele><time>2026-04-26T09:58:13.998Z</time></trkpt><trkpt lat="40.73612922210508" lon="17.57287100850735"><ele>159.4</ele><time>2026-04-26T09:58:15.998Z</time></trkpt><trkpt lat="40.73611205769839" lon="17.572992933247452"><ele>159.8</ele><time>2026-04-26T09:58:17.998Z</time></trkpt><trkpt lat="40.736095287040996" lon="17.573104388091142"><ele>160.20000000000002</ele><time>2026-04-26T09:58:19.998Z</time></trkpt><trkpt lat="40.73607217677634" lon="17.5732430201127"><ele>160.60000000000002</ele><time>2026-04-26T09:58:22Z</time></trkpt><trkpt lat="40.73606610764807" lon="17.573385263216046"><ele>161.0</ele><time>2026-04-26T09:58:24Z</time></trkpt><trkpt lat="40.73603531944783" lon="17.573514927281582"><ele>162.20000000000002</ele><time>2026-04-26T09:58:26Z</time></trkpt><trkpt lat="40.73601625435191" lon="17.573639820718164"><ele>163.4</ele><time>2026-04-26T09:58:28Z</time></trkpt><trkpt lat="40.73601033245999" lon="17.57377212056733"><ele>164.6</ele><time>2026-04-26T09:58:30Z</time></trkpt><trkpt lat="40.735991410996064" lon="17.573900825926604"><ele>165.8</ele><time>2026-04-26T09:58:32Z</time></trkpt><trkpt lat="40.735969202753616" lon="17.57404081033254"><ele>167.0</ele><time>2026-04-26T09:58:34Z</time></trkpt><trkpt lat="40.73595013333676" lon="17.574171868691803"><ele>167.39999999999998</ele><time>2026-04-26T09:58:36Z</time></trkpt><trkpt lat="40.735927495098636" lon="17.574297211990473"><ele>167.79999999999998</ele><time>2026-04-26T09:58:38Z</time></trkpt><trkpt lat="40.735916487303086" lon="17.574441072547746"><ele>168.2</ele><time>2026-04-26T09:58:40Z</time></trkpt><trkpt lat="40.735897854459445" lon="17.57457678352916"><ele>168.6</ele><time>2026-04-26T09:58:42Z</time></trkpt><trkpt lat="40.7358825875228" lon="17.57471063547266"><ele>169.0</ele><time>2026-04-26T09:58:44Z</time></trkpt><trkpt lat="40.73585734030438" lon="17.574847823931606"><ele>169.39999999999998</ele><time>2026-04-26T09:58:46Z</time></trkpt><trkpt lat="40.73583516006874" lon="17.574978602563785"><ele>169.8</ele><time>2026-04-26T09:58:48Z</time></trkpt><trkpt lat="40.735815915612314" lon="17.575110361680466"><ele>170.2</ele><time>2026-04-26T09:58:50Z</time></trkpt><trkpt lat="40.73580260699592" lon="17.575246727527308"><ele>170.60000000000002</ele><time>2026-04-26T09:58:52Z</time></trkpt><trkpt lat="40.73577990174536" lon="17.575373083576444"><ele>171.0</ele><time>2026-04-26T09:58:54Z</time></trkpt><trkpt lat="40.735753969129206" lon="17.57550844196335"><ele>171.8</ele><time>2026-04-26T09:58:56Z</time></trkpt><trkpt lat="40.73571281959088" lon="17.575641556827513"><ele>172.60000000000002</ele><time>2026-04-26T09:58:58Z</time></trkpt><trkpt lat="40.73565090808085" lon="17.575745924517232"><ele>173.4</ele><time>2026-04-26T09:59:00Z</time></trkpt><trkpt lat="40.73557466800808" lon="17.575852707357402"><ele>174.2</ele><time>2026-04-26T09:59:02Z</time></trkpt><trkpt lat="40.735486319610786" lon="17.575936777889993"><ele>175.0</ele><time>2026-04-26T09:59:04Z</time></trkpt><trkpt lat="40.73538593730294" lon="17.575988827460275"><ele>175.0</ele><time>2026-04-26T09:59:06Z</time></trkpt><trkpt lat="40.7352744573131" lon="17.576019455226334"><ele>175.0</ele><time>2026-04-26T09:59:08Z</time></trkpt><trkpt lat="40.735169838482456" lon="17.576028634893078"><ele>175.0</ele><time>2026-04-26T09:59:09.999Z</time></trkpt><trkpt lat="40.73505666100519" lon="17.576067446356124"><ele>175.0</ele><time>2026-04-26T09:59:11.999Z</time></trkpt><trkpt lat="40.73494870376525" lon="17.576109152280004"><ele>175.0</ele><time>2026-04-26T09:59:13.999Z</time></trkpt><trkpt lat="40.73484015779949" lon="17.576109484905288"><ele>175.6</ele><time>2026-04-26T09:59:15.999Z</time></trkpt><trkpt lat="40.7347302985978" lon="17.576107351907734"><ele>176.2</ele><time>2026-04-26T09:59:17.999Z</time></trkpt><trkpt lat="40.73463006303156" lon="17.576101772228263"><ele>176.8</ele><time>2026-04-26T09:59:19.999Z</time></trkpt><trkpt lat="40.734524877384324" lon="17.576084041411455"><ele>177.4</ele><time>2026-04-26T09:59:21.999Z</time></trkpt><trkpt lat="40.734411245274565" lon="17.576070603218138"><ele>178.0</ele><time>2026-04-26T09:59:23.999Z</time></trkpt><trkpt lat="40.73430786949487" lon="17.576036450592508"><ele>179.4</ele><time>2026-04-26T09:59:25.999Z</time></trkpt><trkpt lat="40.73420421018659" lon="17.57600493288772"><ele>180.8</ele><time>2026-04-26T09:59:27.999Z</time></trkpt><trkpt lat="40.73410169954678" lon="17.575980992687544"><ele>182.2</ele><time>2026-04-26T09:59:29.999Z</time></trkpt><trkpt lat="40.73399388183782" lon="17.575969385835577"><ele>183.6</ele><time>2026-04-26T09:59:31.999Z</time></trkpt><trkpt lat="40.73388350467301" lon="17.57595875496036"><ele>185.0</ele><time>2026-04-26T09:59:33.999Z</time></trkpt><trkpt lat="40.733818251413986" lon="17.5760025089807"><ele>185.0</ele><time>2026-04-26T09:59:34.999Z</time></trkpt><trkpt lat="40.733708369233526" lon="17.576028188010667"><ele>185.0</ele><time>2026-04-26T09:59:36.999Z</time></trkpt><trkpt lat="40.733592230749984" lon="17.576084604400215"><ele>185.0</ele><time>2026-04-26T09:59:38.999Z</time></trkpt><trkpt lat="40.7335177523005" lon="17.576144976903066"><ele>185.0</ele><time>2026-04-26T09:59:40.999Z</time></trkpt><trkpt lat="40.73345131951494" lon="17.576208723828422"><ele>185.0</ele><time>2026-04-26T09:59:43.999Z</time></trkpt><trkpt lat="40.73338508695595" lon="17.576262655263704"><ele>187.33333333333331</ele><time>2026-04-26T09:59:47.999Z</time></trkpt><trkpt lat="40.73346072486607" lon="17.576264800487063"><ele>189.66666666666666</ele><time>2026-04-26T09:59:53.999Z</time></trkpt><trkpt lat="40.73352965175859" lon="17.576285695316404"><ele>192.0</ele><time>2026-04-26T10:00:09.998Z</time></trkpt><trkpt lat="40.73359854920395" lon="17.576299925079066"><ele>194.33333333333331</ele><time>2026-04-26T10:00:12.998Z</time></trkpt><trkpt lat="40.733695009202535" lon="17.57629959472373"><ele>196.66666666666666</ele><time>2026-04-26T10:00:15.998Z</time></trkpt><trkpt lat="40.733780907695845" lon="17.576297960948484"><ele>199.0</ele><time>2026-04-26T10:00:17.998Z</time></trkpt><trkpt lat="40.733846782478174" lon="17.576333112201205"><ele>199.49999999999997</ele><time>2026-04-26T10:00:19.998Z</time></trkpt><trkpt lat="40.733917972582574" lon="17.576353456166945"><ele>200.0</ele><time>2026-04-26T10:00:21.998Z</time></trkpt><trkpt lat="40.73399728892537" lon="17.57638721046307"><ele>200.5</ele><time>2026-04-26T10:00:23.998Z</time></trkpt><trkpt lat="40.73408652772098" lon="17.576462604181327"><ele>201.0</ele><time>2026-04-26T10:00:25.998Z</time></trkpt><trkpt lat="40.73414613331818" lon="17.57650778971845"><ele>201.49999999999997</ele><time>2026-04-26T10:00:28Z</time></trkpt><trkpt lat="40.7342157357724" lon="17.576561087857517"><ele>202.0</ele><time>2026-04-26T10:00:30Z</time></trkpt><trkpt lat="40.7342933661011" lon="17.57661140504492"><ele>201.99999999999997</ele><time>2026-04-26T10:00:32Z</time></trkpt><trkpt lat="40.73437366852705" lon="17.576636140985524"><ele>202.0</ele><time>2026-04-26T10:00:34Z</time></trkpt><trkpt lat="40.734437444997546" lon="17.576698789132035"><ele>202.0</ele><time>2026-04-26T10:00:36Z</time></trkpt><trkpt lat="40.73450270987697" lon="17.57676104728339"><ele>202.0</ele><time>2026-04-26T10:00:38Z</time></trkpt><trkpt lat="40.734566268617726" lon="17.576833221910427"><ele>201.99999999999997</ele><time>2026-04-26T10:00:40Z</time></trkpt><trkpt lat="40.73462815736072" lon="17.576902109482713"><ele>202.0</ele><time>2026-04-26T10:00:42Z</time></trkpt><trkpt lat="40.73469294392953" lon="17.576982276416683"><ele>200.8</ele><time>2026-04-26T10:00:44Z</time></trkpt><trkpt lat="40.73476680808601" lon="17.577085512366473"><ele>199.6</ele><time>2026-04-26T10:00:46Z</time></trkpt><trkpt lat="40.73483084393724" lon="17.577181446420102"><ele>198.4</ele><time>2026-04-26T10:00:48Z</time></trkpt><trkpt lat="40.73488274536951" lon="17.57728023065122"><ele>197.20000000000002</ele><time>2026-04-26T10:00:50Z</time></trkpt><trkpt lat="40.73491302177949" lon="17.577389551156596"><ele>196.0</ele><time>2026-04-26T10:00:52Z</time></trkpt><trkpt lat="40.734974673366324" lon="17.577495489151705"><ele>195.99999999999997</ele><time>2026-04-26T10:00:54Z</time></trkpt><trkpt lat="40.7350162366961" lon="17.57760445483146"><ele>196.0</ele><time>2026-04-26T10:00:56Z</time></trkpt><trkpt lat="40.73505697540909" lon="17.577713278935335"><ele>196.0</ele><time>2026-04-26T10:00:58Z</time></trkpt><trkpt lat="40.73508064374382" lon="17.57781799399341"><ele>196.0</ele><time>2026-04-26T10:01:00Z</time></trkpt><trkpt lat="40.73509722758086" lon="17.5779216838867"><ele>195.99999999999997</ele><time>2026-04-26T10:01:02Z</time></trkpt><trkpt lat="40.73508900647782" lon="17.57802717813498"><ele>196.0</ele><time>2026-04-26T10:01:04Z</time></trkpt><trkpt lat="40.73508489622525" lon="17.578144880682622"><ele>197.0</ele><time>2026-04-26T10:01:06Z</time></trkpt><trkpt lat="40.73508547011801" lon="17.578270427124863"><ele>198.0</ele><time>2026-04-26T10:01:08Z</time></trkpt><trkpt lat="40.73508227661703" lon="17.578390980643384"><ele>199.0</ele><time>2026-04-26T10:01:10Z</time></trkpt><trkpt lat="40.73509299144197" lon="17.578512768686544"><ele>200.0</ele><time>2026-04-26T10:01:12Z</time></trkpt><trkpt lat="40.73510933692088" lon="17.578636681412895"><ele>201.0</ele><time>2026-04-26T10:01:13.999Z</time></trkpt><trkpt lat="40.73512660666154" lon="17.57875569978898"><ele>201.20000000000002</ele><time>2026-04-26T10:01:15.999Z</time></trkpt><trkpt lat="40.73513896555333" lon="17.578875770663224"><ele>201.4</ele><time>2026-04-26T10:01:17.999Z</time></trkpt><trkpt lat="40.7351538989803" lon="17.57899255913564"><ele>201.6</ele><time>2026-04-26T10:01:19.999Z</time></trkpt><trkpt lat="40.73516355812331" lon="17.579113229707332"><ele>201.8</ele><time>2026-04-26T10:01:21.999Z</time></trkpt><trkpt lat="40.735168097783344" lon="17.57924060405719"><ele>202.0</ele><time>2026-04-26T10:01:23.999Z</time></trkpt><trkpt lat="40.735166557319864" lon="17.57937125054744"><ele>202.0</ele><time>2026-04-26T10:01:25.999Z</time></trkpt><trkpt lat="40.73514733084339" lon="17.5795116675619"><ele>202.0</ele><time>2026-04-26T10:01:27.999Z</time></trkpt><trkpt lat="40.7351062695439" lon="17.57964240131149"><ele>202.0</ele><time>2026-04-26T10:01:29.999Z</time></trkpt><trkpt lat="40.73504714521096" lon="17.57977575216584"><ele>202.0</ele><time>2026-04-26T10:01:31.999Z</time></trkpt><trkpt lat="40.734984595095156" lon="17.57990464824787"><ele>202.0</ele><time>2026-04-26T10:01:33.999Z</time></trkpt><trkpt lat="40.734910967240324" lon="17.58001545115641"><ele>199.39999999999998</ele><time>2026-04-26T10:01:35.999Z</time></trkpt><trkpt lat="40.734832618363164" lon="17.58012257802535"><ele>196.79999999999998</ele><time>2026-04-26T10:01:37.999Z</time></trkpt><trkpt lat="40.734745242431366" lon="17.58018313208714"><ele>194.2</ele><time>2026-04-26T10:01:39.999Z</time></trkpt><trkpt lat="40.73467046909312" lon="17.580260637366244"><ele>191.6</ele><time>2026-04-26T10:01:41.999Z</time></trkpt><trkpt lat="40.734593103943695" lon="17.58034844799559"><ele>189.0</ele><time>2026-04-26T10:01:43.999Z</time></trkpt><trkpt lat="40.73450996332151" lon="17.580393453711114"><ele>187.79999999999998</ele><time>2026-04-26T10:01:45.999Z</time></trkpt><trkpt lat="40.734403261151684" lon="17.580413696085003"><ele>186.6</ele><time>2026-04-26T10:01:47.999Z</time></trkpt><trkpt lat="40.73429936522281" lon="17.58043231516495"><ele>185.4</ele><time>2026-04-26T10:01:49.999Z</time></trkpt><trkpt lat="40.734196382331625" lon="17.58044814823019"><ele>184.2</ele><time>2026-04-26T10:01:51.999Z</time></trkpt><trkpt lat="40.73410090846772" lon="17.58045093464976"><ele>183.0</ele><time>2026-04-26T10:01:53.999Z</time></trkpt><trkpt lat="40.73401433352174" lon="17.58046363839866"><ele>183.0</ele><time>2026-04-26T10:01:55.999Z</time></trkpt><trkpt lat="40.733913170212304" lon="17.580451817930946"><ele>183.0</ele><time>2026-04-26T10:01:57.999Z</time></trkpt><trkpt lat="40.73382276485513" lon="17.58044285957429"><ele>183.0</ele><time>2026-04-26T10:01:59.999Z</time></trkpt><trkpt lat="40.7337242680882" lon="17.58044108532309"><ele>183.0</ele><time>2026-04-26T10:02:01.999Z</time></trkpt><trkpt lat="40.73363222214233" lon="17.580406098312235"><ele>183.0</ele><time>2026-04-26T10:02:03.999Z</time></trkpt><trkpt lat="40.7335490235036" lon="17.58036325234503"><ele>187.0</ele><time>2026-04-26T10:02:05.999Z</time></trkpt><trkpt lat="40.73348654755844" lon="17.58030028886379"><ele>191.0</ele><time>2026-04-26T10:02:07.999Z</time></trkpt><trkpt lat="40.73342218757033" lon="17.580192449067333"><ele>195.0</ele><time>2026-04-26T10:02:09.999Z</time></trkpt><trkpt lat="40.73336448313642" lon="17.580083042204368"><ele>199.0</ele><time>2026-04-26T10:02:11.999Z</time></trkpt><trkpt lat="40.73330463911158" lon="17.5799896481833"><ele>203.0</ele><time>2026-04-26T10:02:13.998Z</time></trkpt><trkpt lat="40.733234122765964" lon="17.579895405475085"><ele>203.00000000000003</ele><time>2026-04-26T10:02:15.998Z</time></trkpt><trkpt lat="40.733194746468826" lon="17.579792043780962"><ele>203.0</ele><time>2026-04-26T10:02:17.998Z</time></trkpt><trkpt lat="40.73315998767414" lon="17.579698728865434"><ele>203.0</ele><time>2026-04-26T10:02:19.998Z</time></trkpt><trkpt lat="40.73307445014387" lon="17.579637873049357"><ele>203.0</ele><time>2026-04-26T10:02:21.998Z</time></trkpt><trkpt lat="40.73300283079217" lon="17.57959570559198"><ele>203.00000000000003</ele><time>2026-04-26T10:02:24.998Z</time></trkpt><trkpt lat="40.73302013918188" lon="17.579494068438617"><ele>203.0</ele><time>2026-04-26T10:02:26.998Z</time></trkpt><trkpt lat="40.73298115313909" lon="17.579422915065596"><ele>203.50000000000003</ele><time>2026-04-26T10:02:28.998Z</time></trkpt><trkpt lat="40.73290972719009" lon="17.57936516710157"><ele>204.0</ele><time>2026-04-26T10:02:30.998Z</time></trkpt><trkpt lat="40.73284105125932" lon="17.579320804539844"><ele>204.5</ele><time>2026-04-26T10:02:32.998Z</time></trkpt><trkpt lat="40.73277019074011" lon="17.579286004980357"><ele>205.0</ele><time>2026-04-26T10:02:35Z</time></trkpt><trkpt lat="40.732733698492" lon="17.579211781880737"><ele>205.50000000000003</ele><time>2026-04-26T10:02:38Z</time></trkpt><trkpt lat="40.732654126713214" lon="17.579150845211647"><ele>206.0</ele><time>2026-04-26T10:02:41Z</time></trkpt><trkpt lat="40.73267697761697" lon="17.579033101706436"><ele>206.00000000000003</ele><time>2026-04-26T10:02:44Z</time></trkpt><trkpt lat="40.73262898133813" lon="17.57895162227762"><ele>206.0</ele><time>2026-04-26T10:02:47Z</time></trkpt><trkpt lat="40.73255732185629" lon="17.57896122520438"><ele>206.0</ele><time>2026-04-26T10:02:51Z</time></trkpt><trkpt lat="40.73250588140194" lon="17.578888051589136"><ele>206.0</ele><time>2026-04-26T10:02:53Z</time></trkpt><trkpt lat="40.732442720364325" lon="17.578824582026428"><ele>206.00000000000003</ele><time>2026-04-26T10:02:57Z</time></trkpt><trkpt lat="40.732366144626816" lon="17.578763902618547"><ele>206.0</ele><time>2026-04-26T10:03:00Z</time></trkpt><trkpt lat="40.73229618682205" lon="17.578689629300413"><ele>206.00000000000003</ele><time>2026-04-26T10:03:03Z</time></trkpt><trkpt lat="40.73223692036014" lon="17.578647300555918"><ele>206.0</ele><time>2026-04-26T10:03:05Z</time></trkpt><trkpt lat="40.73218600922261" lon="17.578593100350915"><ele>206.0</ele><time>2026-04-26T10:03:08Z</time></trkpt><trkpt lat="40.73216219277915" lon="17.578501390847357"><ele>206.0</ele><time>2026-04-26T10:03:11Z</time></trkpt><trkpt lat="40.73209690086993" lon="17.578542898437405"><ele>206.00000000000003</ele><time>2026-04-26T10:03:15Z</time></trkpt><trkpt lat="40.73201933285889" lon="17.578631816320108"><ele>206.0</ele><time>2026-04-26T10:03:17.999Z</time></trkpt><trkpt lat="40.731978078092084" lon="17.57870397925928"><ele>206.00000000000003</ele><time>2026-04-26T10:03:19.999Z</time></trkpt><trkpt lat="40.7319181384227" lon="17.57878599316795"><ele>206.0</ele><time>2026-04-26T10:03:22.999Z</time></trkpt><trkpt lat="40.73184114084501" lon="17.57886993120769"><ele>206.0</ele><time>2026-04-26T10:03:25.999Z</time></trkpt><trkpt lat="40.73177629000555" lon="17.578902830358334"><ele>206.0</ele><time>2026-04-26T10:03:28.999Z</time></trkpt><trkpt lat="40.731719860800204" lon="17.578999946180694"><ele>206.00000000000003</ele><time>2026-04-26T10:03:31.999Z</time></trkpt><trkpt lat="40.73164811573837" lon="17.578974695239555"><ele>206.0</ele><time>2026-04-26T10:03:33.999Z</time></trkpt><trkpt lat="40.73158330295858" lon="17.57902405959746"><ele>207.50000000000003</ele><time>2026-04-26T10:03:35.999Z</time></trkpt><trkpt lat="40.731504155611866" lon="17.579042989119703"><ele>209.0</ele><time>2026-04-26T10:03:38.999Z</time></trkpt><trkpt lat="40.73144223558681" lon="17.579104877000834"><ele>210.5</ele><time>2026-04-26T10:03:40.999Z</time></trkpt><trkpt lat="40.73136134198848" lon="17.5791745948099"><ele>212.0</ele><time>2026-04-26T10:03:43.999Z</time></trkpt><trkpt lat="40.73129811104489" lon="17.57921873571926"><ele>213.50000000000003</ele><time>2026-04-26T10:03:45.999Z</time></trkpt><trkpt lat="40.73125441655665" lon="17.579280470202928"><ele>215.0</ele><time>2026-04-26T10:03:47.999Z</time></trkpt><trkpt lat="40.73118794364335" lon="17.579321726658186"><ele>215.00000000000003</ele><time>2026-04-26T10:03:49.999Z</time></trkpt><trkpt lat="40.731130785873006" lon="17.579386364236978"><ele>215.0</ele><time>2026-04-26T10:03:51.999Z</time></trkpt><trkpt lat="40.73106667152757" lon="17.5794563451395"><ele>215.0</ele><time>2026-04-26T10:03:54.999Z</time></trkpt><trkpt lat="40.73101117661119" lon="17.5794975076785"><ele>215.0</ele><time>2026-04-26T10:03:56.999Z</time></trkpt><trkpt lat="40.73093193533011" lon="17.579537309710407"><ele>215.00000000000003</ele><time>2026-04-26T10:03:58.999Z</time></trkpt><trkpt lat="40.730867458454" lon="17.579585360036827"><ele>215.0</ele><time>2026-04-26T10:04:00.999Z</time></trkpt><trkpt lat="40.73080873712584" lon="17.579645520795243"><ele>215.83333333333334</ele><time>2026-04-26T10:04:02.999Z</time></trkpt><trkpt lat="40.73073290734376" lon="17.57964739031309"><ele>216.66666666666669</ele><time>2026-04-26T10:04:04.999Z</time></trkpt><trkpt lat="40.73065931739166" lon="17.579669533834934"><ele>217.5</ele><time>2026-04-26T10:04:06.999Z</time></trkpt><trkpt lat="40.7305823602034" lon="17.579695055276872"><ele>218.33333333333331</ele><time>2026-04-26T10:04:08.999Z</time></trkpt><trkpt lat="40.73050498961097" lon="17.579739857442767"><ele>219.16666666666666</ele><time>2026-04-26T10:04:10.999Z</time></trkpt><trkpt lat="40.73040850862225" lon="17.579786698039445"><ele>220.0</ele><time>2026-04-26T10:04:13.999Z</time></trkpt><trkpt lat="40.73031148181318" lon="17.579832047499615"><ele>219.99999999999997</ele><time>2026-04-26T10:04:16.998Z</time></trkpt><trkpt lat="40.7302466498844" lon="17.579809700889243"><ele>220.0</ele><time>2026-04-26T10:04:19.998Z</time></trkpt><trkpt lat="40.7301713265417" lon="17.579748884580624"><ele>220.0</ele><time>2026-04-26T10:04:22.998Z</time></trkpt><trkpt lat="40.73013753373979" lon="17.579663010476285"><ele>220.0</ele><time>2026-04-26T10:04:24.998Z</time></trkpt><trkpt lat="40.73009052115989" lon="17.57957725313802"><ele>219.99999999999997</ele><time>2026-04-26T10:04:26.998Z</time></trkpt><trkpt lat="40.730043849326655" lon="17.57948636980193"><ele>220.0</ele><time>2026-04-26T10:04:28.998Z</time></trkpt><trkpt lat="40.73002482468273" lon="17.579404850485982"><ele>220.8</ele><time>2026-04-26T10:04:30.998Z</time></trkpt><trkpt lat="40.72996422378565" lon="17.579298290961184"><ele>221.6</ele><time>2026-04-26T10:04:32.998Z</time></trkpt><trkpt lat="40.72990891928507" lon="17.579219490141483"><ele>222.39999999999998</ele><time>2026-04-26T10:04:34.998Z</time></trkpt><trkpt lat="40.72986604052691" lon="17.579113735512955"><ele>223.2</ele><time>2026-04-26T10:04:36.998Z</time></trkpt><trkpt lat="40.72981068812052" lon="17.57900670448831"><ele>224.0</ele><time>2026-04-26T10:04:38.998Z</time></trkpt><trkpt lat="40.72976353870515" lon="17.578900162412086"><ele>224.00000000000003</ele><time>2026-04-26T10:04:41Z</time></trkpt><trkpt lat="40.72972357691946" lon="17.578804301467343"><ele>224.0</ele><time>2026-04-26T10:04:43Z</time></trkpt><trkpt lat="40.72967077212192" lon="17.578695892630687"><ele>224.0</ele><time>2026-04-26T10:04:45Z</time></trkpt><trkpt lat="40.72963375727318" lon="17.578593673134353"><ele>224.0</ele><time>2026-04-26T10:04:47Z</time></trkpt><trkpt lat="40.72957331192239" lon="17.578497391113878"><ele>224.00000000000003</ele><time>2026-04-26T10:04:49Z</time></trkpt><trkpt lat="40.72952287580204" lon="17.578407459451043"><ele>224.0</ele><time>2026-04-26T10:04:51Z</time></trkpt><trkpt lat="40.729456718255236" lon="17.578324604227767"><ele>225.2</ele><time>2026-04-26T10:04:53Z</time></trkpt><trkpt lat="40.72934769367706" lon="17.578370258598483"><ele>226.39999999999998</ele><time>2026-04-26T10:04:55Z</time></trkpt><trkpt lat="40.729279141378726" lon="17.578389332681585"><ele>227.6</ele><time>2026-04-26T10:04:57Z</time></trkpt><trkpt lat="40.729201790381005" lon="17.57846392494742"><ele>228.8</ele><time>2026-04-26T10:04:59Z</time></trkpt><trkpt lat="40.729121989854576" lon="17.578548781368145"><ele>230.0</ele><time>2026-04-26T10:05:01Z</time></trkpt><trkpt lat="40.72903781091675" lon="17.578629281259335"><ele>228.5</ele><time>2026-04-26T10:05:03Z</time></trkpt><trkpt lat="40.72894437564568" lon="17.578706376399847"><ele>227.0</ele><time>2026-04-26T10:05:05Z</time></trkpt><trkpt lat="40.72884824211255" lon="17.578809146642982"><ele>225.5</ele><time>2026-04-26T10:05:07Z</time></trkpt><trkpt lat="40.728747833512834" lon="17.578896886649584"><ele>224.0</ele><time>2026-04-26T10:05:09Z</time></trkpt><trkpt lat="40.7286432370621" lon="17.578971171276685"><ele>224.0</ele><time>2026-04-26T10:05:11Z</time></trkpt><trkpt lat="40.728592339365356" lon="17.579020530284666"><ele>223.99999999999997</ele><time>2026-04-26T10:05:12Z</time></trkpt><trkpt lat="40.72848849137559" lon="17.579107116882813"><ele>223.99999999999997</ele><time>2026-04-26T10:05:14Z</time></trkpt><trkpt lat="40.728375977036684" lon="17.579166545493685"><ele>224.0</ele><time>2026-04-26T10:05:16Z</time></trkpt><trkpt lat="40.72827090552178" lon="17.57924457980988"><ele>224.0</ele><time>2026-04-26T10:05:18Z</time></trkpt><trkpt lat="40.72821673711761" lon="17.57929235326245"><ele>224.83333333333334</ele><time>2026-04-26T10:05:18.999Z</time></trkpt><trkpt lat="40.72816008185116" lon="17.57933279162918"><ele>225.66666666666669</ele><time>2026-04-26T10:05:19.999Z</time></trkpt><trkpt lat="40.728057841551596" lon="17.579413489409983"><ele>226.5</ele><time>2026-04-26T10:05:21.999Z</time></trkpt><trkpt lat="40.72801062588783" lon="17.57949955779017"><ele>227.33333333333331</ele><time>2026-04-26T10:05:22.999Z</time></trkpt><trkpt lat="40.72795629978616" lon="17.57955057993399"><ele>228.16666666666666</ele><time>2026-04-26T10:05:23.999Z</time></trkpt><trkpt lat="40.72786110604445" lon="17.579545303038174"><ele>229.0</ele><time>2026-04-26T10:05:25.999Z</time></trkpt><trkpt lat="40.72776409449648" lon="17.579658746271676"><ele>230.33333333333331</ele><time>2026-04-26T10:05:27.999Z</time></trkpt><trkpt lat="40.72770717263426" lon="17.579754675994913"><ele>231.66666666666666</ele><time>2026-04-26T10:05:29.999Z</time></trkpt><trkpt lat="40.72765197608465" lon="17.579799208114366"><ele>233.0</ele><time>2026-04-26T10:05:31.999Z</time></trkpt><trkpt lat="40.727540947488635" lon="17.5798391400907"><ele>234.33333333333331</ele><time>2026-04-26T10:05:33.999Z</time></trkpt><trkpt lat="40.72749990852928" lon="17.579907028196182"><ele>235.66666666666666</ele><time>2026-04-26T10:05:34.999Z</time></trkpt><trkpt lat="40.727433085887405" lon="17.58000354584318"><ele>237.0</ele><time>2026-04-26T10:05:36.999Z</time></trkpt><trkpt lat="40.72734910355689" lon="17.58000228012258"><ele>237.0</ele><time>2026-04-26T10:05:38.999Z</time></trkpt><trkpt lat="40.727259130759215" lon="17.57999313894837"><ele>237.0</ele><time>2026-04-26T10:05:40.999Z</time></trkpt><trkpt lat="40.72716004007517" lon="17.57993966871943"><ele>237.0</ele><time>2026-04-26T10:05:42.999Z</time></trkpt><trkpt lat="40.72706595515741" lon="17.57991963491453"><ele>237.0</ele><time>2026-04-26T10:05:44.999Z</time></trkpt><trkpt lat="40.72696102154431" lon="17.579945817600112"><ele>237.0</ele><time>2026-04-26T10:05:46.999Z</time></trkpt><trkpt lat="40.72689404841644" lon="17.57983760359436"><ele>237.33333333333334</ele><time>2026-04-26T10:05:47.999Z</time></trkpt><trkpt lat="40.72684753527819" lon="17.579755075888308"><ele>237.66666666666669</ele><time>2026-04-26T10:05:49.999Z</time></trkpt><trkpt lat="40.72678369725477" lon="17.579711371748218"><ele>238.0</ele><time>2026-04-26T10:05:51.999Z</time></trkpt><trkpt lat="40.72670484522568" lon="17.5796688730775"><ele>238.33333333333334</ele><time>2026-04-26T10:05:53.999Z</time></trkpt><trkpt lat="40.72661197518515" lon="17.57961482832981"><ele>238.66666666666669</ele><time>2026-04-26T10:05:55.999Z</time></trkpt><trkpt lat="40.7265523536549" lon="17.579571340790974"><ele>239.0</ele><time>2026-04-26T10:05:57.999Z</time></trkpt><trkpt lat="40.72650942761184" lon="17.579503938359252"><ele>240.0</ele><time>2026-04-26T10:05:59.999Z</time></trkpt><trkpt lat="40.726547512745846" lon="17.579433555106878"><ele>240.0</ele><time>2026-04-26T10:06:49Z</time></trkpt><trkpt lat="40.7266179972009" lon="17.579398012747703"><ele>240.0</ele><time>2026-04-26T10:06:58Z</time></trkpt><trkpt lat="40.72645645126787" lon="17.57948529908208"><ele>240.0</ele><time>2026-04-26T10:07:51.999Z</time></trkpt><trkpt lat="40.726562469275514" lon="17.579436051426153"><ele>240.0</ele><time>2026-04-26T10:08:29.016Z</time></trkpt></trkseg></trk></gpx>